<?xml version='1.0' encoding='UTF-8'?><gpx version="1.1" creator="JPX - https://github.com/jenetics/jpx" xmlns="http://www.topografix.com/GPX/1/1"><trk><trkseg><trkpt lat="43.0610942" lon="13.3312364"><ele>580.0</ele><time>2026-04-04T08:39:47.414Z</time></trkpt><trkpt lat="43.0611117" lon="13.331324"><ele>580.0</ele><time>2026-04-04T08:39:49.414Z</time></trkpt><trkpt lat="43.0611684" lon="13.3314356"><ele>580.0</ele><time>2026-04-04T08:39:51.414Z</time></trkpt><trkpt lat="43.0612174" lon="13.3315578"><ele>580.0</ele><time>2026-04-04T08:39:53.414Z</time></trkpt><trkpt lat="43.0612476" lon="13.3317082"><ele>580.0</ele><time>2026-04-04T08:39:55.414Z</time></trkpt><trkpt lat="43.0612763" lon="13.3318733"><ele>577.4</ele><time>2026-04-04T08:39:57.414Z</time></trkpt><trkpt lat="43.0612866" lon="13.3319584"><ele>574.8</ele><time>2026-04-04T08:39:58.414Z</time></trkpt><trkpt lat="43.0612864" lon="13.332098"><ele>572.2</ele><time>2026-04-04T08:40:00.414Z</time></trkpt><trkpt lat="43.0612659" lon="13.3322056"><ele>569.6</ele><time>2026-04-04T08:40:02.414Z</time></trkpt><trkpt lat="43.0611859" lon="13.3322735"><ele>567.0</ele><time>2026-04-04T08:40:04.414Z</time></trkpt><trkpt lat="43.0610643" lon="13.3322974"><ele>565.6666666666666</ele><time>2026-04-04T08:40:06.414Z</time></trkpt><trkpt lat="43.0609817" lon="13.3322794"><ele>564.3333333333334</ele><time>2026-04-04T08:40:07.414Z</time></trkpt><trkpt lat="43.0609049" lon="13.3322729"><ele>563.0</ele><time>2026-04-04T08:40:08.414Z</time></trkpt><trkpt lat="43.0608259" lon="13.3322499"><ele>561.6666666666667</ele><time>2026-04-04T08:40:09.414Z</time></trkpt><trkpt lat="43.0607426" lon="13.3322323"><ele>560.3333333333334</ele><time>2026-04-04T08:40:10.414Z</time></trkpt><trkpt lat="43.0606476" lon="13.3322295"><ele>559.0</ele><time>2026-04-04T08:40:11.414Z</time></trkpt><trkpt lat="43.0605293" lon="13.332107"><ele>557.25</ele><time>2026-04-04T08:40:12.413Z</time></trkpt><trkpt lat="43.0604253" lon="13.3320327"><ele>555.5</ele><time>2026-04-04T08:40:13.414Z</time></trkpt><trkpt lat="43.0603149" lon="13.331937"><ele>553.75</ele><time>2026-04-04T08:40:14.414Z</time></trkpt><trkpt lat="43.0602151" lon="13.3318654"><ele>552.0</ele><time>2026-04-04T08:40:15.414Z</time></trkpt><trkpt lat="43.0601031" lon="13.3317882"><ele>552.0</ele><time>2026-04-04T08:40:16.413Z</time></trkpt><trkpt lat="43.0599882" lon="13.3317422"><ele>552.0</ele><time>2026-04-04T08:40:17.414Z</time></trkpt><trkpt lat="43.0598712" lon="13.3316834"><ele>552.0</ele><time>2026-04-04T08:40:18.414Z</time></trkpt><trkpt lat="43.0597613" lon="13.3317123"><ele>552.0</ele><time>2026-04-04T08:40:19.414Z</time></trkpt><trkpt lat="43.0596555" lon="13.331703"><ele>549.6</ele><time>2026-04-04T08:40:20.414Z</time></trkpt><trkpt lat="43.0595538" lon="13.3316879"><ele>547.2</ele><time>2026-04-04T08:40:21.414Z</time></trkpt><trkpt lat="43.0594559" lon="13.3316376"><ele>544.8</ele><time>2026-04-04T08:40:22.414Z</time></trkpt><trkpt lat="43.059341" lon="13.3315577"><ele>542.4</ele><time>2026-04-04T08:40:23.414Z</time></trkpt><trkpt lat="43.0592571" lon="13.3315017"><ele>540.0</ele><time>2026-04-04T08:40:24.413Z</time></trkpt><trkpt lat="43.0591761" lon="13.3314387"><ele>539.8</ele><time>2026-04-04T08:40:25.414Z</time></trkpt><trkpt lat="43.0590964" lon="13.3313685"><ele>539.6</ele><time>2026-04-04T08:40:26.414Z</time></trkpt><trkpt lat="43.0590205" lon="13.3313035"><ele>539.4</ele><time>2026-04-04T08:40:27.414Z</time></trkpt><trkpt lat="43.0589542" lon="13.3312427"><ele>539.2</ele><time>2026-04-04T08:40:28.414Z</time></trkpt><trkpt lat="43.0588503" lon="13.3311337"><ele>539.0</ele><time>2026-04-04T08:40:30.414Z</time></trkpt><trkpt lat="43.0587833" lon="13.3310664"><ele>539.0</ele><time>2026-04-04T08:40:32.414Z</time></trkpt><trkpt lat="43.0587042" lon="13.3310135"><ele>539.0</ele><time>2026-04-04T08:40:34.414Z</time></trkpt><trkpt lat="43.0586419" lon="13.3309536"><ele>539.0</ele><time>2026-04-04T08:40:36.414Z</time></trkpt><trkpt lat="43.0585874" lon="13.3308611"><ele>539.0</ele><time>2026-04-04T08:40:38.414Z</time></trkpt><trkpt lat="43.0585654" lon="13.3307597"><ele>539.0</ele><time>2026-04-04T08:40:40.414Z</time></trkpt><trkpt lat="43.0585203" lon="13.3306559"><ele>539.0</ele><time>2026-04-04T08:40:42.414Z</time></trkpt><trkpt lat="43.0584545" lon="13.33054"><ele>541.75</ele><time>2026-04-04T08:40:45.414Z</time></trkpt><trkpt lat="43.058414" lon="13.330444"><ele>544.5</ele><time>2026-04-04T08:40:47.414Z</time></trkpt><trkpt lat="43.0583648" lon="13.33032"><ele>547.25</ele><time>2026-04-04T08:40:49.414Z</time></trkpt><trkpt lat="43.058268" lon="13.3301872"><ele>550.0</ele><time>2026-04-04T08:40:51.413Z</time></trkpt><trkpt lat="43.0581759" lon="13.3300306"><ele>545.4</ele><time>2026-04-04T08:40:53.414Z</time></trkpt><trkpt lat="43.0581126" lon="13.3298792"><ele>540.8</ele><time>2026-04-04T08:40:55.414Z</time></trkpt><trkpt lat="43.0580803" lon="13.3297978"><ele>536.2</ele><time>2026-04-04T08:40:56.414Z</time></trkpt><trkpt lat="43.0580364" lon="13.3296193"><ele>531.6</ele><time>2026-04-04T08:40:57.414Z</time></trkpt><trkpt lat="43.0580008" lon="13.3295108"><ele>527.0</ele><time>2026-04-04T08:40:58.414Z</time></trkpt><trkpt lat="43.0579436" lon="13.3293924"><ele>527.0</ele><time>2026-04-04T08:40:59.414Z</time></trkpt><trkpt lat="43.0579019" lon="13.3292765"><ele>527.0</ele><time>2026-04-04T08:41:00.414Z</time></trkpt><trkpt lat="43.0579125" lon="13.3291558"><ele>527.0</ele><time>2026-04-04T08:41:01.414Z</time></trkpt><trkpt lat="43.0578893" lon="13.3290707"><ele>527.0</ele><time>2026-04-04T08:41:02.414Z</time></trkpt><trkpt lat="43.0578221" lon="13.3290074"><ele>527.0</ele><time>2026-04-04T08:41:04.414Z</time></trkpt><trkpt lat="43.0577728" lon="13.3291235"><ele>527.0</ele><time>2026-04-04T08:41:06.414Z</time></trkpt><trkpt lat="43.0577551" lon="13.3292913"><ele>527.0</ele><time>2026-04-04T08:41:08.414Z</time></trkpt><trkpt lat="43.0577562" lon="13.3293941"><ele>527.0</ele><time>2026-04-04T08:41:09.414Z</time></trkpt><trkpt lat="43.0577639" lon="13.329503"><ele>527.0</ele><time>2026-04-04T08:41:10.413Z</time></trkpt><trkpt lat="43.0577673" lon="13.3296056"><ele>527.0</ele><time>2026-04-04T08:41:11.414Z</time></trkpt><trkpt lat="43.057764" lon="13.3297039"><ele>527.0</ele><time>2026-04-04T08:41:12.414Z</time></trkpt><trkpt lat="43.0577582" lon="13.3298148"><ele>527.0</ele><time>2026-04-04T08:41:13.414Z</time></trkpt><trkpt lat="43.0577547" lon="13.3299179"><ele>526.0</ele><time>2026-04-04T08:41:14.414Z</time></trkpt><trkpt lat="43.0576974" lon="13.3300234"><ele>525.0</ele><time>2026-04-04T08:41:15.414Z</time></trkpt><trkpt lat="43.0576829" lon="13.3301256"><ele>524.0</ele><time>2026-04-04T08:41:16.414Z</time></trkpt><trkpt lat="43.0576542" lon="13.330226"><ele>523.0</ele><time>2026-04-04T08:41:17.414Z</time></trkpt><trkpt lat="43.057624" lon="13.3303234"><ele>522.0</ele><time>2026-04-04T08:41:18.414Z</time></trkpt><trkpt lat="43.0575168" lon="13.330402"><ele>518.1666666666666</ele><time>2026-04-04T08:41:20.414Z</time></trkpt><trkpt lat="43.0574493" lon="13.3304183"><ele>514.3333333333334</ele><time>2026-04-04T08:41:21.414Z</time></trkpt><trkpt lat="43.0573813" lon="13.3304108"><ele>510.5</ele><time>2026-04-04T08:41:22.413Z</time></trkpt><trkpt lat="43.0573026" lon="13.3303023"><ele>506.6666666666667</ele><time>2026-04-04T08:41:23.414Z</time></trkpt><trkpt lat="43.0572231" lon="13.3302144"><ele>502.83333333333337</ele><time>2026-04-04T08:41:24.414Z</time></trkpt><trkpt lat="43.0571583" lon="13.3301757"><ele>499.0</ele><time>2026-04-04T08:41:25.414Z</time></trkpt><trkpt lat="43.0570765" lon="13.330074"><ele>499.0</ele><time>2026-04-04T08:41:26.414Z</time></trkpt><trkpt lat="43.0570012" lon="13.3299555"><ele>499.0</ele><time>2026-04-04T08:41:27.414Z</time></trkpt><trkpt lat="43.0569274" lon="13.3298398"><ele>499.0</ele><time>2026-04-04T08:41:28.414Z</time></trkpt><trkpt lat="43.0568513" lon="13.3297255"><ele>499.0</ele><time>2026-04-04T08:41:29.414Z</time></trkpt><trkpt lat="43.0567746" lon="13.3296227"><ele>499.0</ele><time>2026-04-04T08:41:30.414Z</time></trkpt><trkpt lat="43.0566884" lon="13.3295218"><ele>497.6</ele><time>2026-04-04T08:41:31.414Z</time></trkpt><trkpt lat="43.0565933" lon="13.3294339"><ele>496.2</ele><time>2026-04-04T08:41:32.414Z</time></trkpt><trkpt lat="43.0564721" lon="13.3293627"><ele>494.80000000000007</ele><time>2026-04-04T08:41:33.414Z</time></trkpt><trkpt lat="43.0563623" lon="13.3292909"><ele>493.40000000000003</ele><time>2026-04-04T08:41:34.414Z</time></trkpt><trkpt lat="43.0562873" lon="13.3292528"><ele>492.0</ele><time>2026-04-04T08:41:35.414Z</time></trkpt><trkpt lat="43.0562152" lon="13.3292044"><ele>492.0</ele><time>2026-04-04T08:41:36.414Z</time></trkpt><trkpt lat="43.056142" lon="13.3291673"><ele>492.0</ele><time>2026-04-04T08:41:37.414Z</time></trkpt><trkpt lat="43.0560697" lon="13.3291386"><ele>492.0</ele><time>2026-04-04T08:41:38.414Z</time></trkpt><trkpt lat="43.0559912" lon="13.3290953"><ele>492.0</ele><time>2026-04-04T08:41:39.414Z</time></trkpt><trkpt lat="43.0559194" lon="13.3290566"><ele>492.0</ele><time>2026-04-04T08:41:40.414Z</time></trkpt><trkpt lat="43.0558513" lon="13.3290191"><ele>492.0</ele><time>2026-04-04T08:41:41.414Z</time></trkpt><trkpt lat="43.0557697" lon="13.3290122"><ele>490.0</ele><time>2026-04-04T08:41:42.413Z</time></trkpt><trkpt lat="43.0556866" lon="13.3289681"><ele>488.00000000000006</ele><time>2026-04-04T08:41:43.414Z</time></trkpt><trkpt lat="43.0555903" lon="13.3289308"><ele>486.00000000000006</ele><time>2026-04-04T08:41:44.413Z</time></trkpt><trkpt lat="43.0554946" lon="13.328918"><ele>484.0</ele><time>2026-04-04T08:41:45.414Z</time></trkpt><trkpt lat="43.0554048" lon="13.3289219"><ele>482.0</ele><time>2026-04-04T08:41:46.414Z</time></trkpt><trkpt lat="43.0553108" lon="13.3289649"><ele>482.0</ele><time>2026-04-04T08:41:47.414Z</time></trkpt><trkpt lat="43.0552162" lon="13.3290272"><ele>482.0</ele><time>2026-04-04T08:41:48.414Z</time></trkpt><trkpt lat="43.0551216" lon="13.3291028"><ele>482.0</ele><time>2026-04-04T08:41:49.414Z</time></trkpt><trkpt lat="43.0550122" lon="13.3291859"><ele>482.0</ele><time>2026-04-04T08:41:50.414Z</time></trkpt><trkpt lat="43.0549" lon="13.3292817"><ele>477.75</ele><time>2026-04-04T08:41:51.414Z</time></trkpt><trkpt lat="43.0547951" lon="13.3293635"><ele>473.5</ele><time>2026-04-04T08:41:52.414Z</time></trkpt><trkpt lat="43.0546898" lon="13.3294382"><ele>469.25</ele><time>2026-04-04T08:41:53.413Z</time></trkpt><trkpt lat="43.0545785" lon="13.3295148"><ele>465.0</ele><time>2026-04-04T08:41:54.414Z</time></trkpt><trkpt lat="43.0544615" lon="13.3296042"><ele>465.0</ele><time>2026-04-04T08:41:55.414Z</time></trkpt><trkpt lat="43.0543447" lon="13.3296922"><ele>465.0</ele><time>2026-04-04T08:41:56.414Z</time></trkpt><trkpt lat="43.0542365" lon="13.3297885"><ele>465.0</ele><time>2026-04-04T08:41:57.414Z</time></trkpt><trkpt lat="43.0541261" lon="13.3298789"><ele>465.0</ele><time>2026-04-04T08:41:58.414Z</time></trkpt><trkpt lat="43.0540207" lon="13.3299766"><ele>463.5</ele><time>2026-04-04T08:41:59.414Z</time></trkpt><trkpt lat="43.0539208" lon="13.3300613"><ele>462.0</ele><time>2026-04-04T08:42:00.414Z</time></trkpt><trkpt lat="43.0538209" lon="13.3301637"><ele>460.5</ele><time>2026-04-04T08:42:01.414Z</time></trkpt><trkpt lat="43.0537123" lon="13.3302419"><ele>459.0</ele><time>2026-04-04T08:42:02.414Z</time></trkpt><trkpt lat="43.0536028" lon="13.3303181"><ele>459.0</ele><time>2026-04-04T08:42:03.414Z</time></trkpt><trkpt lat="43.0534893" lon="13.3303808"><ele>459.0</ele><time>2026-04-04T08:42:04.414Z</time></trkpt><trkpt lat="43.053372" lon="13.3304511"><ele>459.0</ele><time>2026-04-04T08:42:05.413Z</time></trkpt><trkpt lat="43.0532454" lon="13.3305125"><ele>459.0</ele><time>2026-04-04T08:42:06.414Z</time></trkpt><trkpt lat="43.0531216" lon="13.330571"><ele>455.25</ele><time>2026-04-04T08:42:07.414Z</time></trkpt><trkpt lat="43.0530032" lon="13.3306376"><ele>451.5</ele><time>2026-04-04T08:42:08.414Z</time></trkpt><trkpt lat="43.0528874" lon="13.3307326"><ele>447.75</ele><time>2026-04-04T08:42:09.414Z</time></trkpt><trkpt lat="43.0527671" lon="13.3308183"><ele>444.0</ele><time>2026-04-04T08:42:10.414Z</time></trkpt><trkpt lat="43.0526654" lon="13.3309241"><ele>444.0</ele><time>2026-04-04T08:42:11.414Z</time></trkpt><trkpt lat="43.0525865" lon="13.3310604"><ele>444.0</ele><time>2026-04-04T08:42:12.414Z</time></trkpt><trkpt lat="43.0524988" lon="13.3311757"><ele>444.0</ele><time>2026-04-04T08:42:13.414Z</time></trkpt><trkpt lat="43.0523958" lon="13.3312876"><ele>444.0</ele><time>2026-04-04T08:42:14.414Z</time></trkpt><trkpt lat="43.0523031" lon="13.3313686"><ele>442.75</ele><time>2026-04-04T08:42:15.414Z</time></trkpt><trkpt lat="43.0521792" lon="13.3314743"><ele>441.5</ele><time>2026-04-04T08:42:16.414Z</time></trkpt><trkpt lat="43.0520653" lon="13.3315705"><ele>440.25</ele><time>2026-04-04T08:42:17.414Z</time></trkpt><trkpt lat="43.0519513" lon="13.3316607"><ele>439.0</ele><time>2026-04-04T08:42:18.414Z</time></trkpt><trkpt lat="43.0517669" lon="13.3317261"><ele>439.0</ele><time>2026-04-04T08:42:19.413Z</time></trkpt><trkpt lat="43.0516355" lon="13.3318327"><ele>439.0</ele><time>2026-04-04T08:42:20.414Z</time></trkpt><trkpt lat="43.0515111" lon="13.331934"><ele>439.0</ele><time>2026-04-04T08:42:21.414Z</time></trkpt><trkpt lat="43.0514224" lon="13.3320597"><ele>439.0</ele><time>2026-04-04T08:42:22.414Z</time></trkpt><trkpt lat="43.0513129" lon="13.3321856"><ele>435.25</ele><time>2026-04-04T08:42:23.414Z</time></trkpt><trkpt lat="43.0512072" lon="13.3323171"><ele>431.5</ele><time>2026-04-04T08:42:24.414Z</time></trkpt><trkpt lat="43.0510894" lon="13.3324322"><ele>427.75</ele><time>2026-04-04T08:42:25.414Z</time></trkpt><trkpt lat="43.0509634" lon="13.3325581"><ele>424.0</ele><time>2026-04-04T08:42:26.414Z</time></trkpt><trkpt lat="43.0508401" lon="13.3326726"><ele>422.5</ele><time>2026-04-04T08:42:27.414Z</time></trkpt><trkpt lat="43.0507229" lon="13.3327677"><ele>421.0</ele><time>2026-04-04T08:42:28.414Z</time></trkpt><trkpt lat="43.0506059" lon="13.3328804"><ele>419.5</ele><time>2026-04-04T08:42:29.413Z</time></trkpt><trkpt lat="43.0504962" lon="13.3329907"><ele>418.0</ele><time>2026-04-04T08:42:30.413Z</time></trkpt><trkpt lat="43.0503867" lon="13.3331064"><ele>417.5</ele><time>2026-04-04T08:42:31.414Z</time></trkpt><trkpt lat="43.0502669" lon="13.3332112"><ele>417.0</ele><time>2026-04-04T08:42:32.414Z</time></trkpt><trkpt lat="43.0501522" lon="13.3333029"><ele>416.5</ele><time>2026-04-04T08:42:33.414Z</time></trkpt><trkpt lat="43.0500418" lon="13.3333952"><ele>416.0</ele><time>2026-04-04T08:42:34.414Z</time></trkpt><trkpt lat="43.0499315" lon="13.3334928"><ele>415.5</ele><time>2026-04-04T08:42:35.414Z</time></trkpt><trkpt lat="43.0498174" lon="13.3335778"><ele>415.0</ele><time>2026-04-04T08:42:36.414Z</time></trkpt><trkpt lat="43.0497158" lon="13.3336519"><ele>414.5</ele><time>2026-04-04T08:42:37.414Z</time></trkpt><trkpt lat="43.0496123" lon="13.333713"><ele>414.0</ele><time>2026-04-04T08:42:38.414Z</time></trkpt><trkpt lat="43.0495131" lon="13.3337721"><ele>414.0</ele><time>2026-04-04T08:42:39.414Z</time></trkpt><trkpt lat="43.049413" lon="13.3338158"><ele>414.0</ele><time>2026-04-04T08:42:40.414Z</time></trkpt><trkpt lat="43.0493312" lon="13.3338672"><ele>414.0</ele><time>2026-04-04T08:42:41.414Z</time></trkpt><trkpt lat="43.0492461" lon="13.3339263"><ele>414.0</ele><time>2026-04-04T08:42:42.414Z</time></trkpt><trkpt lat="43.049148" lon="13.3339795"><ele>414.0</ele><time>2026-04-04T08:42:43.413Z</time></trkpt><trkpt lat="43.0490669" lon="13.3340283"><ele>411.5</ele><time>2026-04-04T08:42:44.414Z</time></trkpt><trkpt lat="43.0489743" lon="13.3340734"><ele>409.0</ele><time>2026-04-04T08:42:45.414Z</time></trkpt><trkpt lat="43.0488903" lon="13.3341119"><ele>406.5</ele><time>2026-04-04T08:42:46.414Z</time></trkpt><trkpt lat="43.0488212" lon="13.3341743"><ele>404.0</ele><time>2026-04-04T08:42:47.413Z</time></trkpt><trkpt lat="43.0487767" lon="13.3342631"><ele>401.5</ele><time>2026-04-04T08:42:48.414Z</time></trkpt><trkpt lat="43.0487304" lon="13.3343688"><ele>399.0</ele><time>2026-04-04T08:42:49.414Z</time></trkpt><trkpt lat="43.0487362" lon="13.3344805"><ele>399.0</ele><time>2026-04-04T08:42:50.414Z</time></trkpt><trkpt lat="43.0487464" lon="13.3345972"><ele>399.0</ele><time>2026-04-04T08:42:51.414Z</time></trkpt><trkpt lat="43.0487585" lon="13.334712"><ele>399.0</ele><time>2026-04-04T08:42:52.414Z</time></trkpt><trkpt lat="43.0487646" lon="13.3348232"><ele>399.0</ele><time>2026-04-04T08:42:53.414Z</time></trkpt><trkpt lat="43.0487709" lon="13.3349572"><ele>399.0</ele><time>2026-04-04T08:42:54.414Z</time></trkpt><trkpt lat="43.0487654" lon="13.3350519"><ele>399.0</ele><time>2026-04-04T08:42:55.414Z</time></trkpt><trkpt lat="43.0487605" lon="13.3351688"><ele>398.8333333333333</ele><time>2026-04-04T08:42:56.414Z</time></trkpt><trkpt lat="43.0487563" lon="13.3352736"><ele>398.66666666666663</ele><time>2026-04-04T08:42:57.414Z</time></trkpt><trkpt lat="43.04875" lon="13.3353735"><ele>398.5</ele><time>2026-04-04T08:42:58.414Z</time></trkpt><trkpt lat="43.0487517" lon="13.3354872"><ele>398.3333333333333</ele><time>2026-04-04T08:42:59.414Z</time></trkpt><trkpt lat="43.0487475" lon="13.3355878"><ele>398.16666666666663</ele><time>2026-04-04T08:43:00.414Z</time></trkpt><trkpt lat="43.0487444" lon="13.3356895"><ele>398.0</ele><time>2026-04-04T08:43:01.414Z</time></trkpt><trkpt lat="43.0487348" lon="13.3357857"><ele>398.3333333333333</ele><time>2026-04-04T08:43:02.414Z</time></trkpt><trkpt lat="43.0487395" lon="13.3358934"><ele>398.66666666666663</ele><time>2026-04-04T08:43:03.414Z</time></trkpt><trkpt lat="43.0487673" lon="13.3360197"><ele>399.0</ele><time>2026-04-04T08:43:04.414Z</time></trkpt><trkpt lat="43.0487758" lon="13.3361162"><ele>399.33333333333337</ele><time>2026-04-04T08:43:05.414Z</time></trkpt><trkpt lat="43.0487747" lon="13.3362125"><ele>399.6666666666667</ele><time>2026-04-04T08:43:06.414Z</time></trkpt><trkpt lat="43.0487763" lon="13.3363064"><ele>400.0</ele><time>2026-04-04T08:43:07.414Z</time></trkpt><trkpt lat="43.0487487" lon="13.3364548"><ele>400.00000000000006</ele><time>2026-04-04T08:43:09.414Z</time></trkpt><trkpt lat="43.0487463" lon="13.336542"><ele>400.0</ele><time>2026-04-04T08:43:10.414Z</time></trkpt><trkpt lat="43.0487355" lon="13.3366307"><ele>400.0</ele><time>2026-04-04T08:43:11.414Z</time></trkpt><trkpt lat="43.0486803" lon="13.3367741"><ele>400.0</ele><time>2026-04-04T08:43:13.414Z</time></trkpt><trkpt lat="43.0486462" lon="13.3368515"><ele>400.00000000000006</ele><time>2026-04-04T08:43:14.414Z</time></trkpt><trkpt lat="43.048566" lon="13.3369565"><ele>400.0</ele><time>2026-04-04T08:43:16.414Z</time></trkpt><trkpt lat="43.0484864" lon="13.3369923"><ele>400.0</ele><time>2026-04-04T08:43:18.414Z</time></trkpt><trkpt lat="43.0484059" lon="13.337061"><ele>400.0</ele><time>2026-04-04T08:43:20.414Z</time></trkpt><trkpt lat="43.0483946" lon="13.3371986"><ele>400.0</ele><time>2026-04-04T08:43:22.414Z</time></trkpt><trkpt lat="43.0483492" lon="13.3373674"><ele>400.0</ele><time>2026-04-04T08:43:24.414Z</time></trkpt><trkpt lat="43.0483009" lon="13.337432"><ele>400.0</ele><time>2026-04-04T08:43:25.414Z</time></trkpt><trkpt lat="43.0482304" lon="13.3375649"><ele>395.6</ele><time>2026-04-04T08:43:27.414Z</time></trkpt><trkpt lat="43.0482296" lon="13.3376719"><ele>391.2</ele><time>2026-04-04T08:43:28.413Z</time></trkpt><trkpt lat="43.0482119" lon="13.3378849"><ele>386.79999999999995</ele><time>2026-04-04T08:43:30.413Z</time></trkpt><trkpt lat="43.0482225" lon="13.3379922"><ele>382.4</ele><time>2026-04-04T08:43:31.414Z</time></trkpt><trkpt lat="43.0482188" lon="13.338124"><ele>378.0</ele><time>2026-04-04T08:43:32.414Z</time></trkpt><trkpt lat="43.0482365" lon="13.3382259"><ele>378.0</ele><time>2026-04-04T08:43:33.414Z</time></trkpt><trkpt lat="43.0482512" lon="13.3383285"><ele>378.0</ele><time>2026-04-04T08:43:34.414Z</time></trkpt><trkpt lat="43.0482564" lon="13.3384202"><ele>378.0</ele><time>2026-04-04T08:43:35.414Z</time></trkpt><trkpt lat="43.0482437" lon="13.3385461"><ele>378.0</ele><time>2026-04-04T08:43:36.414Z</time></trkpt><trkpt lat="43.0482391" lon="13.3386569"><ele>378.0</ele><time>2026-04-04T08:43:37.414Z</time></trkpt><trkpt lat="43.0482159" lon="13.3387438"><ele>378.0</ele><time>2026-04-04T08:43:38.413Z</time></trkpt><trkpt lat="43.0481904" lon="13.3388333"><ele>377.6666666666667</ele><time>2026-04-04T08:43:39.414Z</time></trkpt><trkpt lat="43.0481523" lon="13.3389346"><ele>377.3333333333333</ele><time>2026-04-04T08:43:40.414Z</time></trkpt><trkpt lat="43.0481187" lon="13.3390327"><ele>377.0</ele><time>2026-04-04T08:43:41.414Z</time></trkpt><trkpt lat="43.0481015" lon="13.3391389"><ele>376.66666666666663</ele><time>2026-04-04T08:43:42.413Z</time></trkpt><trkpt lat="43.0480859" lon="13.3392598"><ele>376.3333333333333</ele><time>2026-04-04T08:43:43.414Z</time></trkpt><trkpt lat="43.0480852" lon="13.3393725"><ele>376.0</ele><time>2026-04-04T08:43:44.414Z</time></trkpt><trkpt lat="43.0480824" lon="13.3394852"><ele>376.0</ele><time>2026-04-04T08:43:45.414Z</time></trkpt><trkpt lat="43.0480777" lon="13.3395972"><ele>376.0</ele><time>2026-04-04T08:43:46.414Z</time></trkpt><trkpt lat="43.0480808" lon="13.3397109"><ele>376.0</ele><time>2026-04-04T08:43:47.414Z</time></trkpt><trkpt lat="43.0480481" lon="13.3398166"><ele>376.0</ele><time>2026-04-04T08:43:48.414Z</time></trkpt><trkpt lat="43.0480076" lon="13.339928"><ele>376.0</ele><time>2026-04-04T08:43:49.414Z</time></trkpt><trkpt lat="43.0479582" lon="13.340038"><ele>376.0</ele><time>2026-04-04T08:43:50.414Z</time></trkpt><trkpt lat="43.0479083" lon="13.3401587"><ele>375.4</ele><time>2026-04-04T08:43:51.414Z</time></trkpt><trkpt lat="43.0478586" lon="13.3402829"><ele>374.8</ele><time>2026-04-04T08:43:52.414Z</time></trkpt><trkpt lat="43.0478061" lon="13.3404125"><ele>374.2</ele><time>2026-04-04T08:43:53.414Z</time></trkpt><trkpt lat="43.0477556" lon="13.3405406"><ele>373.59999999999997</ele><time>2026-04-04T08:43:54.414Z</time></trkpt><trkpt lat="43.0476935" lon="13.3406732"><ele>373.0</ele><time>2026-04-04T08:43:55.414Z</time></trkpt><trkpt lat="43.0476428" lon="13.3408075"><ele>372.25</ele><time>2026-04-04T08:43:56.414Z</time></trkpt><trkpt lat="43.0475885" lon="13.3409757"><ele>371.5</ele><time>2026-04-04T08:43:57.413Z</time></trkpt><trkpt lat="43.0475398" lon="13.3411445"><ele>370.75</ele><time>2026-04-04T08:43:58.414Z</time></trkpt><trkpt lat="43.047486" lon="13.3412917"><ele>370.0</ele><time>2026-04-04T08:43:59.414Z</time></trkpt><trkpt lat="43.0474658" lon="13.3414836"><ele>366.25</ele><time>2026-04-04T08:44:00.414Z</time></trkpt><trkpt lat="43.0474292" lon="13.3416483"><ele>362.5</ele><time>2026-04-04T08:44:01.414Z</time></trkpt><trkpt lat="43.0474182" lon="13.3418596"><ele>358.75</ele><time>2026-04-04T08:44:02.414Z</time></trkpt><trkpt lat="43.0473866" lon="13.3420429"><ele>355.0</ele><time>2026-04-04T08:44:03.414Z</time></trkpt><trkpt lat="43.0473057" lon="13.3421842"><ele>355.5</ele><time>2026-04-04T08:44:04.414Z</time></trkpt><trkpt lat="43.0471427" lon="13.3422672"><ele>356.0</ele><time>2026-04-04T08:44:05.414Z</time></trkpt><trkpt lat="43.0470627" lon="13.3423636"><ele>356.5</ele><time>2026-04-04T08:44:06.414Z</time></trkpt><trkpt lat="43.0469833" lon="13.3424281"><ele>357.0</ele><time>2026-04-04T08:44:07.413Z</time></trkpt><trkpt lat="43.0468938" lon="13.3424929"><ele>357.0</ele><time>2026-04-04T08:44:08.414Z</time></trkpt><trkpt lat="43.0468154" lon="13.3425478"><ele>357.0</ele><time>2026-04-04T08:44:09.414Z</time></trkpt><trkpt lat="43.0467508" lon="13.342607"><ele>357.0</ele><time>2026-04-04T08:44:10.414Z</time></trkpt><trkpt lat="43.0466792" lon="13.3426446"><ele>357.0</ele><time>2026-04-04T08:44:11.414Z</time></trkpt><trkpt lat="43.0466264" lon="13.3427217"><ele>357.0</ele><time>2026-04-04T08:44:12.414Z</time></trkpt><trkpt lat="43.0465752" lon="13.3427988"><ele>357.0</ele><time>2026-04-04T08:44:13.414Z</time></trkpt><trkpt lat="43.0465149" lon="13.3428644"><ele>356.40000000000003</ele><time>2026-04-04T08:44:14.414Z</time></trkpt><trkpt lat="43.0464634" lon="13.3429406"><ele>355.8</ele><time>2026-04-04T08:44:15.413Z</time></trkpt><trkpt lat="43.0464131" lon="13.3430186"><ele>355.2</ele><time>2026-04-04T08:44:16.414Z</time></trkpt><trkpt lat="43.046374" lon="13.3431642"><ele>354.6</ele><time>2026-04-04T08:44:18.414Z</time></trkpt><trkpt lat="43.0463639" lon="13.3432614"><ele>354.0</ele><time>2026-04-04T08:44:19.414Z</time></trkpt><trkpt lat="43.0463287" lon="13.3434418"><ele>354.0</ele><time>2026-04-04T08:44:21.414Z</time></trkpt><trkpt lat="43.0463202" lon="13.3435463"><ele>354.0</ele><time>2026-04-04T08:44:22.414Z</time></trkpt><trkpt lat="43.0462399" lon="13.3436853"><ele>354.0</ele><time>2026-04-04T08:44:24.414Z</time></trkpt><trkpt lat="43.0461268" lon="13.3437586"><ele>354.0</ele><time>2026-04-04T08:44:26.414Z</time></trkpt><trkpt lat="43.0460557" lon="13.3438003"><ele>354.0</ele><time>2026-04-04T08:44:28.414Z</time></trkpt><trkpt lat="43.0459701" lon="13.3438973"><ele>353.79999999999995</ele><time>2026-04-04T08:44:30.414Z</time></trkpt><trkpt lat="43.0459167" lon="13.3439549"><ele>353.59999999999997</ele><time>2026-04-04T08:44:31.414Z</time></trkpt><trkpt lat="43.0458436" lon="13.3440686"><ele>353.4</ele><time>2026-04-04T08:44:33.414Z</time></trkpt><trkpt lat="43.0458308" lon="13.3441683"><ele>353.2</ele><time>2026-04-04T08:44:34.414Z</time></trkpt><trkpt lat="43.0458437" lon="13.3443274"><ele>353.0</ele><time>2026-04-04T08:44:36.414Z</time></trkpt><trkpt lat="43.0458423" lon="13.3444849"><ele>353.33333333333337</ele><time>2026-04-04T08:44:38.414Z</time></trkpt><trkpt lat="43.0457499" lon="13.3445125"><ele>353.6666666666667</ele><time>2026-04-04T08:44:40.414Z</time></trkpt><trkpt lat="43.0456629" lon="13.3444743"><ele>354.0</ele><time>2026-04-04T08:44:42.413Z</time></trkpt><trkpt lat="43.0455967" lon="13.3444657"><ele>354.3333333333333</ele><time>2026-04-04T08:44:44.414Z</time></trkpt><trkpt lat="43.0455307" lon="13.3443639"><ele>354.66666666666663</ele><time>2026-04-04T08:44:46.414Z</time></trkpt><trkpt lat="43.0455037" lon="13.3442759"><ele>355.0</ele><time>2026-04-04T08:44:48.414Z</time></trkpt><trkpt lat="43.0454248" lon="13.3442533"><ele>355.0</ele><time>2026-04-04T08:44:49.414Z</time></trkpt><trkpt lat="43.0453609" lon="13.3441636"><ele>355.0</ele><time>2026-04-04T08:44:51.414Z</time></trkpt><trkpt lat="43.0452895" lon="13.3440806"><ele>355.0</ele><time>2026-04-04T08:44:53.414Z</time></trkpt><trkpt lat="43.0452277" lon="13.3440323"><ele>355.0</ele><time>2026-04-04T08:44:55.414Z</time></trkpt><trkpt lat="43.0451489" lon="13.343935"><ele>355.0</ele><time>2026-04-04T08:44:57.414Z</time></trkpt><trkpt lat="43.0451123" lon="13.3438479"><ele>355.0</ele><time>2026-04-04T08:44:59.414Z</time></trkpt><trkpt lat="43.0450692" lon="13.3437408"><ele>355.3333333333333</ele><time>2026-04-04T08:45:02.414Z</time></trkpt><trkpt lat="43.0451047" lon="13.3436478"><ele>355.66666666666663</ele><time>2026-04-04T08:45:05.414Z</time></trkpt><trkpt lat="43.0451582" lon="13.3435762"><ele>356.0</ele><time>2026-04-04T08:45:08.414Z</time></trkpt><trkpt lat="43.0452044" lon="13.343511"><ele>356.3333333333333</ele><time>2026-04-04T08:45:11.414Z</time></trkpt><trkpt lat="43.0452211" lon="13.3434002"><ele>356.6666666666667</ele><time>2026-04-04T08:45:15.414Z</time></trkpt><trkpt lat="43.0452197" lon="13.3433054"><ele>357.0</ele><time>2026-04-04T08:45:18.414Z</time></trkpt><trkpt lat="43.0451744" lon="13.3432136"><ele>357.0</ele><time>2026-04-04T08:45:22.414Z</time></trkpt><trkpt lat="43.0451269" lon="13.3431554"><ele>357.0</ele><time>2026-04-04T08:45:25.414Z</time></trkpt><trkpt lat="43.0450549" lon="13.3431136"><ele>357.0</ele><time>2026-04-04T08:45:29.414Z</time></trkpt><trkpt lat="43.0449921" lon="13.3431076"><ele>357.0</ele><time>2026-04-04T08:45:33.414Z</time></trkpt><trkpt lat="43.0449211" lon="13.3430957"><ele>357.0</ele><time>2026-04-04T08:45:36.413Z</time></trkpt><trkpt lat="43.0448509" lon="13.3430988"><ele>357.0</ele><time>2026-04-04T08:45:39.414Z</time></trkpt><trkpt lat="43.0447866" lon="13.3430963"><ele>357.0</ele><time>2026-04-04T08:45:42.414Z</time></trkpt><trkpt lat="43.0447046" lon="13.3430887"><ele>359.14285714285717</ele><time>2026-04-04T08:45:46.414Z</time></trkpt><trkpt lat="43.044635" lon="13.3431012"><ele>361.2857142857143</ele><time>2026-04-04T08:45:50.414Z</time></trkpt><trkpt lat="43.044573" lon="13.3430731"><ele>363.42857142857144</ele><time>2026-04-04T08:45:54.414Z</time></trkpt><trkpt lat="43.0445528" lon="13.3429746"><ele>365.57142857142856</ele><time>2026-04-04T08:45:58.414Z</time></trkpt><trkpt lat="43.0445062" lon="13.3428972"><ele>367.7142857142857</ele><time>2026-04-04T08:46:02.414Z</time></trkpt><trkpt lat="43.0444913" lon="13.3428134"><ele>369.8571428571429</ele><time>2026-04-04T08:46:08.414Z</time></trkpt><trkpt lat="43.0444934" lon="13.3427147"><ele>372.0</ele><time>2026-04-04T08:46:13.414Z</time></trkpt><trkpt lat="43.044485" lon="13.3426164"><ele>373.6666666666667</ele><time>2026-04-04T08:46:17.414Z</time></trkpt><trkpt lat="43.0444562" lon="13.3425229"><ele>375.3333333333333</ele><time>2026-04-04T08:46:21.414Z</time></trkpt><trkpt lat="43.0444374" lon="13.3424111"><ele>377.0</ele><time>2026-04-04T08:46:25.414Z</time></trkpt><trkpt lat="43.044411" lon="13.3423175"><ele>378.66666666666663</ele><time>2026-04-04T08:46:28.414Z</time></trkpt><trkpt lat="43.0444215" lon="13.3422154"><ele>380.3333333333333</ele><time>2026-04-04T08:46:32.414Z</time></trkpt><trkpt lat="43.0444467" lon="13.3421076"><ele>382.0</ele><time>2026-04-04T08:46:36.414Z</time></trkpt><trkpt lat="43.0444817" lon="13.3420257"><ele>382.5</ele><time>2026-04-04T08:46:39.414Z</time></trkpt><trkpt lat="43.044523" lon="13.3419571"><ele>383.0</ele><time>2026-04-04T08:46:42.414Z</time></trkpt><trkpt lat="43.0445519" lon="13.3418625"><ele>383.5</ele><time>2026-04-04T08:46:46.414Z</time></trkpt><trkpt lat="43.0445698" lon="13.3417525"><ele>384.0</ele><time>2026-04-04T08:46:50.414Z</time></trkpt><trkpt lat="43.0445948" lon="13.3416715"><ele>384.50000000000006</ele><time>2026-04-04T08:46:53.414Z</time></trkpt><trkpt lat="43.0446295" lon="13.3415726"><ele>385.0</ele><time>2026-04-04T08:46:58.414Z</time></trkpt><trkpt lat="43.0446429" lon="13.3414557"><ele>385.2857142857143</ele><time>2026-04-04T08:47:02.414Z</time></trkpt><trkpt lat="43.0446285" lon="13.3413557"><ele>385.57142857142856</ele><time>2026-04-04T08:47:05.414Z</time></trkpt><trkpt lat="43.0446267" lon="13.3412631"><ele>385.8571428571429</ele><time>2026-04-04T08:47:08.414Z</time></trkpt><trkpt lat="43.0446411" lon="13.3411553"><ele>386.1428571428571</ele><time>2026-04-04T08:47:12.414Z</time></trkpt><trkpt lat="43.0446415" lon="13.3410683"><ele>386.42857142857144</ele><time>2026-04-04T08:47:15.414Z</time></trkpt><trkpt lat="43.0446448" lon="13.3409817"><ele>386.7142857142857</ele><time>2026-04-04T08:47:18.414Z</time></trkpt><trkpt lat="43.0446731" lon="13.3408758"><ele>387.0</ele><time>2026-04-04T08:47:23.414Z</time></trkpt><trkpt lat="43.0446968" lon="13.3407746"><ele>387.0</ele><time>2026-04-04T08:47:27.413Z</time></trkpt><trkpt lat="43.0447315" lon="13.3406835"><ele>387.0</ele><time>2026-04-04T08:47:31.414Z</time></trkpt><trkpt lat="43.0447611" lon="13.3406047"><ele>387.0</ele><time>2026-04-04T08:47:34.414Z</time></trkpt><trkpt lat="43.0448045" lon="13.3405318"><ele>387.0</ele><time>2026-04-04T08:47:37.414Z</time></trkpt><trkpt lat="43.0448418" lon="13.3404538"><ele>387.0</ele><time>2026-04-04T08:47:40.414Z</time></trkpt><trkpt lat="43.0448856" lon="13.3403874"><ele>387.0</ele><time>2026-04-04T08:47:43.413Z</time></trkpt><trkpt lat="43.0449467" lon="13.3403188"><ele>387.0</ele><time>2026-04-04T08:47:47.414Z</time></trkpt><trkpt lat="43.0449942" lon="13.3402551"><ele>386.8333333333333</ele><time>2026-04-04T08:47:51.414Z</time></trkpt><trkpt lat="43.0450401" lon="13.3401574"><ele>386.66666666666663</ele><time>2026-04-04T08:47:55.413Z</time></trkpt><trkpt lat="43.0450715" lon="13.3400716"><ele>386.5</ele><time>2026-04-04T08:47:58.414Z</time></trkpt><trkpt lat="43.0450896" lon="13.339971"><ele>386.3333333333333</ele><time>2026-04-04T08:48:02.414Z</time></trkpt><trkpt lat="43.045089" lon="13.3398651"><ele>386.16666666666663</ele><time>2026-04-04T08:48:07.414Z</time></trkpt><trkpt lat="43.0450826" lon="13.3397563"><ele>386.0</ele><time>2026-04-04T08:48:11.414Z</time></trkpt><trkpt lat="43.045066" lon="13.3396647"><ele>386.5714285714286</ele><time>2026-04-04T08:48:14.413Z</time></trkpt><trkpt lat="43.0450397" lon="13.3395815"><ele>387.14285714285717</ele><time>2026-04-04T08:48:17.414Z</time></trkpt><trkpt lat="43.045001" lon="13.3395028"><ele>387.7142857142857</ele><time>2026-04-04T08:48:21.414Z</time></trkpt><trkpt lat="43.0449579" lon="13.3394275"><ele>388.28571428571433</ele><time>2026-04-04T08:48:24.414Z</time></trkpt><trkpt lat="43.0449189" lon="13.3393589"><ele>388.85714285714283</ele><time>2026-04-04T08:48:28.414Z</time></trkpt><trkpt lat="43.0449106" lon="13.3392662"><ele>389.42857142857144</ele><time>2026-04-04T08:48:33.414Z</time></trkpt><trkpt lat="43.044865" lon="13.3391958"><ele>390.0</ele><time>2026-04-04T08:48:38.414Z</time></trkpt><trkpt lat="43.0448098" lon="13.339149"><ele>392.1428571428571</ele><time>2026-04-04T08:48:42.414Z</time></trkpt><trkpt lat="43.0447478" lon="13.3391056"><ele>394.2857142857143</ele><time>2026-04-04T08:48:46.414Z</time></trkpt><trkpt lat="43.044673" lon="13.3390783"><ele>396.42857142857144</ele><time>2026-04-04T08:48:51.414Z</time></trkpt><trkpt lat="43.0446088" lon="13.3390684"><ele>398.57142857142856</ele><time>2026-04-04T08:48:55.414Z</time></trkpt><trkpt lat="43.0445385" lon="13.3390585"><ele>400.7142857142857</ele><time>2026-04-04T08:48:59.414Z</time></trkpt><trkpt lat="43.0444748" lon="13.3390512"><ele>402.85714285714283</ele><time>2026-04-04T08:49:03.414Z</time></trkpt><trkpt lat="43.0444027" lon="13.3390182"><ele>405.0</ele><time>2026-04-04T08:49:07.414Z</time></trkpt><trkpt lat="43.0443292" lon="13.3390009"><ele>405.0</ele><time>2026-04-04T08:49:11.414Z</time></trkpt><trkpt lat="43.0442684" lon="13.3389592"><ele>405.0</ele><time>2026-04-04T08:49:15.414Z</time></trkpt><trkpt lat="43.0441975" lon="13.3389119"><ele>405.0</ele><time>2026-04-04T08:49:20.414Z</time></trkpt><trkpt lat="43.0441512" lon="13.3388274"><ele>405.0</ele><time>2026-04-04T08:49:24.414Z</time></trkpt><trkpt lat="43.0440999" lon="13.3387564"><ele>405.0</ele><time>2026-04-04T08:49:28.414Z</time></trkpt><trkpt lat="43.0440573" lon="13.3386708"><ele>405.0</ele><time>2026-04-04T08:49:32.414Z</time></trkpt><trkpt lat="43.0439988" lon="13.3386004"><ele>407.5</ele><time>2026-04-04T08:49:36.414Z</time></trkpt><trkpt lat="43.0439442" lon="13.338531"><ele>410.0</ele><time>2026-04-04T08:49:40.414Z</time></trkpt><trkpt lat="43.0438937" lon="13.3384674"><ele>412.5</ele><time>2026-04-04T08:49:44.414Z</time></trkpt><trkpt lat="43.0438347" lon="13.3384358"><ele>415.0</ele><time>2026-04-04T08:50:21.414Z</time></trkpt><trkpt lat="43.0437709" lon="13.3383428"><ele>417.5</ele><time>2026-04-04T08:50:24.414Z</time></trkpt><trkpt lat="43.0437154" lon="13.3382663"><ele>420.0</ele><time>2026-04-04T08:50:26.414Z</time></trkpt><trkpt lat="43.0436662" lon="13.3381946"><ele>420.0</ele><time>2026-04-04T08:50:30.413Z</time></trkpt><trkpt lat="43.0436107" lon="13.338135"><ele>420.0</ele><time>2026-04-04T08:51:05.414Z</time></trkpt><trkpt lat="43.0435553" lon="13.3380533"><ele>420.0</ele><time>2026-04-04T08:51:09.414Z</time></trkpt><trkpt lat="43.0435188" lon="13.3379627"><ele>420.0</ele><time>2026-04-04T08:51:12.414Z</time></trkpt><trkpt lat="43.0434831" lon="13.3378505"><ele>420.0</ele><time>2026-04-04T08:51:15.414Z</time></trkpt><trkpt lat="43.0434508" lon="13.3377667"><ele>420.0</ele><time>2026-04-04T08:51:18.414Z</time></trkpt><trkpt lat="43.0434239" lon="13.3376682"><ele>419.2857142857143</ele><time>2026-04-04T08:51:22.414Z</time></trkpt><trkpt lat="43.043385" lon="13.3375818"><ele>418.57142857142856</ele><time>2026-04-04T08:51:26.414Z</time></trkpt><trkpt lat="43.0433776" lon="13.3374848"><ele>417.8571428571429</ele><time>2026-04-04T08:51:30.414Z</time></trkpt><trkpt lat="43.043381" lon="13.3373844"><ele>417.1428571428571</ele><time>2026-04-04T08:51:35.414Z</time></trkpt><trkpt lat="43.0433367" lon="13.3372917"><ele>416.42857142857144</ele><time>2026-04-04T08:51:39.414Z</time></trkpt><trkpt lat="43.0432814" lon="13.3372269"><ele>415.7142857142857</ele><time>2026-04-04T08:51:43.414Z</time></trkpt><trkpt lat="43.0432165" lon="13.3372378"><ele>415.0</ele><time>2026-04-04T08:51:47.414Z</time></trkpt><trkpt lat="43.0431482" lon="13.3372479"><ele>417.2857142857143</ele><time>2026-04-04T08:51:51.414Z</time></trkpt><trkpt lat="43.0430718" lon="13.3372704"><ele>419.57142857142856</ele><time>2026-04-04T08:51:56.414Z</time></trkpt><trkpt lat="43.0430059" lon="13.3373144"><ele>421.8571428571429</ele><time>2026-04-04T08:52:01.414Z</time></trkpt><trkpt lat="43.042953" lon="13.3373634"><ele>424.1428571428571</ele><time>2026-04-04T08:52:05.414Z</time></trkpt><trkpt lat="43.0429435" lon="13.3374624"><ele>426.4285714285714</ele><time>2026-04-04T08:52:10.414Z</time></trkpt><trkpt lat="43.0429623" lon="13.3375597"><ele>428.7142857142857</ele><time>2026-04-04T08:52:13.414Z</time></trkpt><trkpt lat="43.0429852" lon="13.3376535"><ele>431.0</ele><time>2026-04-04T08:52:17.414Z</time></trkpt><trkpt lat="43.0430106" lon="13.3377603"><ele>431.0</ele><time>2026-04-04T08:52:21.414Z</time></trkpt><trkpt lat="43.0430258" lon="13.3378567"><ele>431.0</ele><time>2026-04-04T08:52:25.414Z</time></trkpt><trkpt lat="43.0430377" lon="13.3379415"><ele>431.0</ele><time>2026-04-04T08:52:30.414Z</time></trkpt><trkpt lat="43.04306" lon="13.3380385"><ele>431.0</ele><time>2026-04-04T08:52:36.414Z</time></trkpt><trkpt lat="43.0430833" lon="13.3381578"><ele>431.0</ele><time>2026-04-04T08:52:40.414Z</time></trkpt><trkpt lat="43.0431035" lon="13.3382676"><ele>431.0</ele><time>2026-04-04T08:52:44.414Z</time></trkpt><trkpt lat="43.0430833" lon="13.3383505"><ele>431.0</ele><time>2026-04-04T08:52:47.414Z</time></trkpt><trkpt lat="43.0430402" lon="13.3384146"><ele>430.7142857142857</ele><time>2026-04-04T08:52:51.414Z</time></trkpt><trkpt lat="43.0429983" lon="13.3384797"><ele>430.4285714285714</ele><time>2026-04-04T08:53:05.413Z</time></trkpt><trkpt lat="43.0429322" lon="13.3385141"><ele>430.1428571428571</ele><time>2026-04-04T08:54:06.414Z</time></trkpt><trkpt lat="43.0428644" lon="13.3384852"><ele>429.8571428571429</ele><time>2026-04-04T08:54:09.414Z</time></trkpt><trkpt lat="43.0427872" lon="13.3384646"><ele>429.57142857142856</ele><time>2026-04-04T08:54:13.414Z</time></trkpt><trkpt lat="43.0427336" lon="13.3384137"><ele>429.2857142857143</ele><time>2026-04-04T08:54:16.414Z</time></trkpt><trkpt lat="43.0426748" lon="13.3383486"><ele>429.0</ele><time>2026-04-04T08:54:19.414Z</time></trkpt><trkpt lat="43.042613" lon="13.338294"><ele>429.0</ele><time>2026-04-04T08:54:22.414Z</time></trkpt><trkpt lat="43.0425587" lon="13.3382062"><ele>429.0</ele><time>2026-04-04T08:54:26.414Z</time></trkpt><trkpt lat="43.0425193" lon="13.3381204"><ele>429.0</ele><time>2026-04-04T08:54:29.414Z</time></trkpt><trkpt lat="43.0424752" lon="13.3380298"><ele>429.0</ele><time>2026-04-04T08:54:33.414Z</time></trkpt><trkpt lat="43.042442" lon="13.3379502"><ele>429.0</ele><time>2026-04-04T08:54:37.414Z</time></trkpt><trkpt lat="43.0423894" lon="13.3378929"><ele>429.0</ele><time>2026-04-04T08:54:44.414Z</time></trkpt><trkpt lat="43.0423197" lon="13.3379186"><ele>429.0</ele><time>2026-04-04T08:54:49.414Z</time></trkpt><trkpt lat="43.0422537" lon="13.337938"><ele>430.2857142857143</ele><time>2026-04-04T08:54:54.414Z</time></trkpt><trkpt lat="43.04219" lon="13.3379678"><ele>431.57142857142856</ele><time>2026-04-04T08:54:58.414Z</time></trkpt><trkpt lat="43.0421288" lon="13.337989"><ele>432.8571428571429</ele><time>2026-04-04T08:55:02.414Z</time></trkpt><trkpt lat="43.0420481" lon="13.3380167"><ele>434.1428571428571</ele><time>2026-04-04T08:55:08.414Z</time></trkpt><trkpt lat="43.0419901" lon="13.3380504"><ele>435.4285714285714</ele><time>2026-04-04T08:55:13.414Z</time></trkpt><trkpt lat="43.0419389" lon="13.3381073"><ele>436.7142857142857</ele><time>2026-04-04T08:55:18.414Z</time></trkpt><trkpt lat="43.0418658" lon="13.3381208"><ele>438.0</ele><time>2026-04-04T08:55:23.414Z</time></trkpt><trkpt lat="43.0417909" lon="13.3381484"><ele>438.0</ele><time>2026-04-04T08:55:28.413Z</time></trkpt><trkpt lat="43.0417323" lon="13.3381942"><ele>438.0</ele><time>2026-04-04T08:55:32.414Z</time></trkpt><trkpt lat="43.0416693" lon="13.3382524"><ele>438.0</ele><time>2026-04-04T08:55:36.414Z</time></trkpt><trkpt lat="43.0416064" lon="13.3382958"><ele>438.0</ele><time>2026-04-04T08:55:39.414Z</time></trkpt><trkpt lat="43.0415504" lon="13.3383369"><ele>438.0</ele><time>2026-04-04T08:55:43.414Z</time></trkpt><trkpt lat="43.0414775" lon="13.3383727"><ele>438.0</ele><time>2026-04-04T08:55:47.414Z</time></trkpt><trkpt lat="43.0414217" lon="13.3384216"><ele>438.0</ele><time>2026-04-04T08:55:51.414Z</time></trkpt><trkpt lat="43.0413698" lon="13.3384938"><ele>439.57142857142856</ele><time>2026-04-04T08:55:57.414Z</time></trkpt><trkpt lat="43.041302" lon="13.338536"><ele>441.1428571428571</ele><time>2026-04-04T08:56:02.414Z</time></trkpt><trkpt lat="43.04124" lon="13.3385906"><ele>442.71428571428567</ele><time>2026-04-04T08:56:06.414Z</time></trkpt><trkpt lat="43.0411881" lon="13.3386403"><ele>444.2857142857143</ele><time>2026-04-04T08:56:09.414Z</time></trkpt><trkpt lat="43.0411237" lon="13.3387023"><ele>445.8571428571428</ele><time>2026-04-04T08:56:13.414Z</time></trkpt><trkpt lat="43.0410746" lon="13.3387634"><ele>447.4285714285714</ele><time>2026-04-04T08:56:17.414Z</time></trkpt><trkpt lat="43.0410303" lon="13.3388364"><ele>449.0</ele><time>2026-04-04T08:56:21.413Z</time></trkpt><trkpt lat="43.0409659" lon="13.3388963"><ele>449.0</ele><time>2026-04-04T08:56:25.414Z</time></trkpt><trkpt lat="43.0409006" lon="13.3389324"><ele>448.99999999999994</ele><time>2026-04-04T08:56:28.414Z</time></trkpt><trkpt lat="43.0408407" lon="13.338993"><ele>449.0</ele><time>2026-04-04T08:56:32.414Z</time></trkpt><trkpt lat="43.0408008" lon="13.339088"><ele>449.0</ele><time>2026-04-04T08:56:36.414Z</time></trkpt><trkpt lat="43.0407499" lon="13.3391556"><ele>448.99999999999994</ele><time>2026-04-04T08:56:40.414Z</time></trkpt><trkpt lat="43.0406842" lon="13.3391991"><ele>449.0</ele><time>2026-04-04T08:56:44.414Z</time></trkpt><trkpt lat="43.0406115" lon="13.3392244"><ele>449.0</ele><time>2026-04-04T08:56:48.414Z</time></trkpt><trkpt lat="43.0405377" lon="13.3392613"><ele>450.49999999999994</ele><time>2026-04-04T08:56:52.414Z</time></trkpt><trkpt lat="43.0404603" lon="13.3392701"><ele>452.0</ele><time>2026-04-04T08:56:56.414Z</time></trkpt><trkpt lat="43.0404031" lon="13.3393235"><ele>453.5</ele><time>2026-04-04T08:57:00.414Z</time></trkpt><trkpt lat="43.0403308" lon="13.339367"><ele>455.0</ele><time>2026-04-04T08:57:03.414Z</time></trkpt><trkpt lat="43.0402542" lon="13.3394248"><ele>456.49999999999994</ele><time>2026-04-04T08:57:06.414Z</time></trkpt><trkpt lat="43.0401987" lon="13.3394727"><ele>458.0</ele><time>2026-04-04T08:57:08.414Z</time></trkpt><trkpt lat="43.04013" lon="13.3395357"><ele>458.0</ele><time>2026-04-04T08:57:11.414Z</time></trkpt><trkpt lat="43.0400712" lon="13.3395765"><ele>458.0</ele><time>2026-04-04T08:57:13.414Z</time></trkpt><trkpt lat="43.0400181" lon="13.339623"><ele>458.0</ele><time>2026-04-04T08:57:15.414Z</time></trkpt><trkpt lat="43.0399623" lon="13.3396742"><ele>458.0</ele><time>2026-04-04T08:57:17.414Z</time></trkpt><trkpt lat="43.0398944" lon="13.3397489"><ele>458.0</ele><time>2026-04-04T08:57:20.414Z</time></trkpt><trkpt lat="43.0398248" lon="13.33981"><ele>458.0</ele><time>2026-04-04T08:57:23.414Z</time></trkpt><trkpt lat="43.039751" lon="13.3398588"><ele>458.0</ele><time>2026-04-04T08:57:26.414Z</time></trkpt><trkpt lat="43.0396905" lon="13.3399025"><ele>457.49999999999994</ele><time>2026-04-04T08:57:28.414Z</time></trkpt><trkpt lat="43.0396201" lon="13.3399496"><ele>457.0</ele><time>2026-04-04T08:57:31.414Z</time></trkpt><trkpt lat="43.039544" lon="13.3399871"><ele>456.5</ele><time>2026-04-04T08:57:34.414Z</time></trkpt><trkpt lat="43.0394672" lon="13.3400253"><ele>456.0</ele><time>2026-04-04T08:57:37.414Z</time></trkpt><trkpt lat="43.0394019" lon="13.3400564"><ele>455.49999999999994</ele><time>2026-04-04T08:57:40.414Z</time></trkpt><trkpt lat="43.0393299" lon="13.3401173"><ele>455.0</ele><time>2026-04-04T08:57:43.414Z</time></trkpt><trkpt lat="43.0392546" lon="13.3401842"><ele>454.99999999999994</ele><time>2026-04-04T08:57:46.414Z</time></trkpt><trkpt lat="43.0391927" lon="13.3402305"><ele>455.0</ele><time>2026-04-04T08:57:48.414Z</time></trkpt><trkpt lat="43.0391308" lon="13.3402701"><ele>455.0</ele><time>2026-04-04T08:57:50.414Z</time></trkpt><trkpt lat="43.0390514" lon="13.3402798"><ele>455.0</ele><time>2026-04-04T08:57:53.413Z</time></trkpt><trkpt lat="43.0389677" lon="13.3402746"><ele>454.99999999999994</ele><time>2026-04-04T08:57:56.414Z</time></trkpt><trkpt lat="43.0388836" lon="13.3402816"><ele>455.0</ele><time>2026-04-04T08:57:59.414Z</time></trkpt><trkpt lat="43.0388148" lon="13.340291"><ele>456.16666666666663</ele><time>2026-04-04T08:58:02.414Z</time></trkpt><trkpt lat="43.0387361" lon="13.3402982"><ele>457.3333333333333</ele><time>2026-04-04T08:58:05.414Z</time></trkpt><trkpt lat="43.0386574" lon="13.3403222"><ele>458.5</ele><time>2026-04-04T08:58:08.413Z</time></trkpt><trkpt lat="43.0385892" lon="13.3403442"><ele>459.66666666666663</ele><time>2026-04-04T08:58:11.414Z</time></trkpt><trkpt lat="43.0385146" lon="13.3403519"><ele>460.8333333333333</ele><time>2026-04-04T08:58:14.413Z</time></trkpt><trkpt lat="43.0384473" lon="13.3403869"><ele>462.0</ele><time>2026-04-04T08:58:17.414Z</time></trkpt><trkpt lat="43.0383694" lon="13.3404045"><ele>462.1666666666667</ele><time>2026-04-04T08:58:20.413Z</time></trkpt><trkpt lat="43.0383003" lon="13.3404232"><ele>462.33333333333337</ele><time>2026-04-04T08:58:23.414Z</time></trkpt><trkpt lat="43.0382315" lon="13.3404518"><ele>462.5</ele><time>2026-04-04T08:58:26.414Z</time></trkpt><trkpt lat="43.0381511" lon="13.3404624"><ele>462.6666666666667</ele><time>2026-04-04T08:58:29.414Z</time></trkpt><trkpt lat="43.0380824" lon="13.3404527"><ele>462.83333333333337</ele><time>2026-04-04T08:58:32.414Z</time></trkpt><trkpt lat="43.0380717" lon="13.3405529"><ele>463.0</ele><time>2026-04-04T08:58:38.414Z</time></trkpt><trkpt lat="43.0381302" lon="13.3406494"><ele>463.0</ele><time>2026-04-04T08:58:40.414Z</time></trkpt><trkpt lat="43.0381938" lon="13.3407625"><ele>462.99999999999994</ele><time>2026-04-04T08:58:42.414Z</time></trkpt><trkpt lat="43.0382587" lon="13.3408795"><ele>462.99999999999994</ele><time>2026-04-04T08:58:44.414Z</time></trkpt><trkpt lat="43.0382953" lon="13.3409506"><ele>463.0</ele><time>2026-04-04T08:58:45.414Z</time></trkpt><trkpt lat="43.0383691" lon="13.3410906"><ele>463.0</ele><time>2026-04-04T08:58:47.414Z</time></trkpt><trkpt lat="43.0384538" lon="13.3412358"><ele>462.6666666666667</ele><time>2026-04-04T08:58:49.414Z</time></trkpt><trkpt lat="43.0384886" lon="13.3413239"><ele>462.33333333333337</ele><time>2026-04-04T08:58:50.414Z</time></trkpt><trkpt lat="43.0385453" lon="13.3414159"><ele>462.0</ele><time>2026-04-04T08:58:51.414Z</time></trkpt><trkpt lat="43.038571" lon="13.3415167"><ele>461.66666666666663</ele><time>2026-04-04T08:58:52.414Z</time></trkpt><trkpt lat="43.0385937" lon="13.3416234"><ele>461.3333333333333</ele><time>2026-04-04T08:58:53.413Z</time></trkpt><trkpt lat="43.0386222" lon="13.3417537"><ele>461.0</ele><time>2026-04-04T08:58:54.414Z</time></trkpt><trkpt lat="43.0386481" lon="13.3418719"><ele>460.0</ele><time>2026-04-04T08:58:55.414Z</time></trkpt><trkpt lat="43.038677" lon="13.3419784"><ele>459.0</ele><time>2026-04-04T08:58:56.414Z</time></trkpt><trkpt lat="43.0387215" lon="13.3421111"><ele>458.0</ele><time>2026-04-04T08:58:57.414Z</time></trkpt><trkpt lat="43.03875" lon="13.3422342"><ele>457.0</ele><time>2026-04-04T08:58:58.414Z</time></trkpt><trkpt lat="43.0387798" lon="13.3423668"><ele>456.0</ele><time>2026-04-04T08:58:59.414Z</time></trkpt><trkpt lat="43.038807" lon="13.3424915"><ele>454.6</ele><time>2026-04-04T08:59:00.414Z</time></trkpt><trkpt lat="43.0388673" lon="13.3426141"><ele>453.20000000000005</ele><time>2026-04-04T08:59:01.414Z</time></trkpt><trkpt lat="43.0389382" lon="13.342707"><ele>451.79999999999995</ele><time>2026-04-04T08:59:02.414Z</time></trkpt><trkpt lat="43.0390115" lon="13.342803"><ele>450.4</ele><time>2026-04-04T08:59:03.414Z</time></trkpt><trkpt lat="43.0390798" lon="13.3429127"><ele>449.0</ele><time>2026-04-04T08:59:04.414Z</time></trkpt><trkpt lat="43.0391435" lon="13.3430382"><ele>447.4</ele><time>2026-04-04T08:59:05.414Z</time></trkpt><trkpt lat="43.0391802" lon="13.3431705"><ele>445.79999999999995</ele><time>2026-04-04T08:59:06.414Z</time></trkpt><trkpt lat="43.0392228" lon="13.3432851"><ele>444.20000000000005</ele><time>2026-04-04T08:59:07.414Z</time></trkpt><trkpt lat="43.0392756" lon="13.3434104"><ele>442.6</ele><time>2026-04-04T08:59:08.414Z</time></trkpt><trkpt lat="43.0393275" lon="13.3435546"><ele>441.0</ele><time>2026-04-04T08:59:09.414Z</time></trkpt><trkpt lat="43.0393738" lon="13.3436788"><ele>441.0</ele><time>2026-04-04T08:59:10.414Z</time></trkpt><trkpt lat="43.0394286" lon="13.3438019"><ele>441.0</ele><time>2026-04-04T08:59:11.413Z</time></trkpt><trkpt lat="43.0394837" lon="13.3439145"><ele>441.0</ele><time>2026-04-04T08:59:12.414Z</time></trkpt><trkpt lat="43.0395429" lon="13.344024"><ele>441.0</ele><time>2026-04-04T08:59:13.414Z</time></trkpt><trkpt lat="43.0396129" lon="13.3441043"><ele>441.0</ele><time>2026-04-04T08:59:14.413Z</time></trkpt><trkpt lat="43.0396703" lon="13.344195"><ele>439.8</ele><time>2026-04-04T08:59:15.414Z</time></trkpt><trkpt lat="43.0397413" lon="13.3442623"><ele>438.6</ele><time>2026-04-04T08:59:16.414Z</time></trkpt><trkpt lat="43.0398184" lon="13.344328"><ele>437.4</ele><time>2026-04-04T08:59:17.414Z</time></trkpt><trkpt lat="43.0399077" lon="13.3443695"><ele>436.2</ele><time>2026-04-04T08:59:18.414Z</time></trkpt><trkpt lat="43.0399895" lon="13.344377"><ele>435.0</ele><time>2026-04-04T08:59:19.414Z</time></trkpt><trkpt lat="43.040086" lon="13.3443722"><ele>434.5</ele><time>2026-04-04T08:59:20.414Z</time></trkpt><trkpt lat="43.0401725" lon="13.3443434"><ele>434.0</ele><time>2026-04-04T08:59:21.414Z</time></trkpt><trkpt lat="43.0402542" lon="13.3443345"><ele>433.5</ele><time>2026-04-04T08:59:22.414Z</time></trkpt><trkpt lat="43.0403242" lon="13.3443576"><ele>433.0</ele><time>2026-04-04T08:59:23.414Z</time></trkpt><trkpt lat="43.0403778" lon="13.344438"><ele>432.5</ele><time>2026-04-04T08:59:24.414Z</time></trkpt><trkpt lat="43.0404266" lon="13.3445335"><ele>432.0</ele><time>2026-04-04T08:59:25.414Z</time></trkpt><trkpt lat="43.0404005" lon="13.3446706"><ele>430.8333333333333</ele><time>2026-04-04T08:59:26.414Z</time></trkpt><trkpt lat="43.0404104" lon="13.3447873"><ele>429.66666666666663</ele><time>2026-04-04T08:59:27.414Z</time></trkpt><trkpt lat="43.0404033" lon="13.3449"><ele>428.5</ele><time>2026-04-04T08:59:28.414Z</time></trkpt><trkpt lat="43.0403963" lon="13.3450252"><ele>427.3333333333333</ele><time>2026-04-04T08:59:29.414Z</time></trkpt><trkpt lat="43.0403865" lon="13.3451597"><ele>426.16666666666663</ele><time>2026-04-04T08:59:30.414Z</time></trkpt><trkpt lat="43.0403747" lon="13.3452805"><ele>425.0</ele><time>2026-04-04T08:59:31.413Z</time></trkpt><trkpt lat="43.0403681" lon="13.3454234"><ele>423.2</ele><time>2026-04-04T08:59:32.414Z</time></trkpt><trkpt lat="43.0403643" lon="13.3455576"><ele>421.4</ele><time>2026-04-04T08:59:33.413Z</time></trkpt><trkpt lat="43.0403593" lon="13.3456951"><ele>419.6</ele><time>2026-04-04T08:59:34.414Z</time></trkpt><trkpt lat="43.0403468" lon="13.3458433"><ele>417.8</ele><time>2026-04-04T08:59:35.414Z</time></trkpt><trkpt lat="43.0403384" lon="13.3459973"><ele>416.0</ele><time>2026-04-04T08:59:36.414Z</time></trkpt><trkpt lat="43.0403277" lon="13.3461521"><ele>416.0</ele><time>2026-04-04T08:59:37.414Z</time></trkpt><trkpt lat="43.0403398" lon="13.3463016"><ele>416.0</ele><time>2026-04-04T08:59:38.414Z</time></trkpt><trkpt lat="43.04038" lon="13.34645"><ele>416.0</ele><time>2026-04-04T08:59:39.414Z</time></trkpt><trkpt lat="43.0404253" lon="13.3466019"><ele>416.0</ele><time>2026-04-04T08:59:40.414Z</time></trkpt><trkpt lat="43.040483" lon="13.3467559"><ele>413.75</ele><time>2026-04-04T08:59:41.414Z</time></trkpt><trkpt lat="43.0405298" lon="13.3469124"><ele>411.5</ele><time>2026-04-04T08:59:42.414Z</time></trkpt><trkpt lat="43.0405734" lon="13.3470711"><ele>409.25</ele><time>2026-04-04T08:59:43.414Z</time></trkpt><trkpt lat="43.0406092" lon="13.3472454"><ele>407.0</ele><time>2026-04-04T08:59:44.414Z</time></trkpt><trkpt lat="43.0406317" lon="13.3474154"><ele>405.8</ele><time>2026-04-04T08:59:45.414Z</time></trkpt><trkpt lat="43.0406568" lon="13.3475661"><ele>404.6</ele><time>2026-04-04T08:59:46.414Z</time></trkpt><trkpt lat="43.0406745" lon="13.3476793"><ele>403.40000000000003</ele><time>2026-04-04T08:59:47.414Z</time></trkpt><trkpt lat="43.0406915" lon="13.3477819"><ele>402.20000000000005</ele><time>2026-04-04T08:59:48.414Z</time></trkpt><trkpt lat="43.0406236" lon="13.3478826"><ele>401.0</ele><time>2026-04-04T08:59:50.409Z</time></trkpt><trkpt lat="43.0405363" lon="13.3479593"><ele>401.0</ele><time>2026-04-04T08:59:52.404Z</time></trkpt><trkpt lat="43.0404259" lon="13.3479735"><ele>401.0</ele><time>2026-04-04T08:59:54.408Z</time></trkpt><trkpt lat="43.0403075" lon="13.3479938"><ele>401.0</ele><time>2026-04-04T08:59:56.409Z</time></trkpt><trkpt lat="43.0402423" lon="13.3480052"><ele>401.0</ele><time>2026-04-04T08:59:57.409Z</time></trkpt><trkpt lat="43.0401661" lon="13.3480003"><ele>401.0</ele><time>2026-04-04T08:59:58.407Z</time></trkpt><trkpt lat="43.0400859" lon="13.3479991"><ele>400.99999999999994</ele><time>2026-04-04T08:59:59.409Z</time></trkpt><trkpt lat="43.040009" lon="13.3480029"><ele>401.0</ele><time>2026-04-04T09:00:00.409Z</time></trkpt><trkpt lat="43.0398772" lon="13.3479965"><ele>401.0</ele><time>2026-04-04T09:00:02.408Z</time></trkpt><trkpt lat="43.039808" lon="13.3480054"><ele>401.0</ele><time>2026-04-04T09:00:03.408Z</time></trkpt><trkpt lat="43.0397184" lon="13.3480209"><ele>400.99999999999994</ele><time>2026-04-04T09:00:04.409Z</time></trkpt><trkpt lat="43.0396387" lon="13.3480344"><ele>401.0</ele><time>2026-04-04T09:00:05.408Z</time></trkpt><trkpt lat="43.0395449" lon="13.3480333"><ele>400.3333333333333</ele><time>2026-04-04T09:00:06.408Z</time></trkpt><trkpt lat="43.039458" lon="13.3480421"><ele>399.66666666666663</ele><time>2026-04-04T09:00:07.407Z</time></trkpt><trkpt lat="43.0393729" lon="13.3480497"><ele>399.0</ele><time>2026-04-04T09:00:08.408Z</time></trkpt><trkpt lat="43.0392867" lon="13.3480544"><ele>398.33333333333337</ele><time>2026-04-04T09:00:09.406Z</time></trkpt><trkpt lat="43.0392006" lon="13.3480858"><ele>397.6666666666667</ele><time>2026-04-04T09:00:10.407Z</time></trkpt><trkpt lat="43.0391168" lon="13.3481503"><ele>397.0</ele><time>2026-04-04T09:00:11.41Z</time></trkpt><trkpt lat="43.0390308" lon="13.3481961"><ele>394.0</ele><time>2026-04-04T09:00:12.408Z</time></trkpt><trkpt lat="43.0389387" lon="13.3482473"><ele>391.0</ele><time>2026-04-04T09:00:13.409Z</time></trkpt><trkpt lat="43.0388513" lon="13.3482988"><ele>388.0</ele><time>2026-04-04T09:00:14.409Z</time></trkpt><trkpt lat="43.038754" lon="13.3484123"><ele>385.0</ele><time>2026-04-04T09:00:15.409Z</time></trkpt><trkpt lat="43.0386601" lon="13.3484686"><ele>382.0</ele><time>2026-04-04T09:00:16.409Z</time></trkpt><trkpt lat="43.0385641" lon="13.34854"><ele>382.0</ele><time>2026-04-04T09:00:17.409Z</time></trkpt><trkpt lat="43.0384688" lon="13.3486155"><ele>382.0</ele><time>2026-04-04T09:00:18.409Z</time></trkpt><trkpt lat="43.0383752" lon="13.3486797"><ele>382.0</ele><time>2026-04-04T09:00:19.409Z</time></trkpt><trkpt lat="43.038272" lon="13.348747"><ele>382.0</ele><time>2026-04-04T09:00:20.409Z</time></trkpt><trkpt lat="43.038173" lon="13.3488463"><ele>381.6</ele><time>2026-04-04T09:00:21.409Z</time></trkpt><trkpt lat="43.0380598" lon="13.3488654"><ele>381.20000000000005</ele><time>2026-04-04T09:00:22.409Z</time></trkpt><trkpt lat="43.0379634" lon="13.348828"><ele>380.8</ele><time>2026-04-04T09:00:23.409Z</time></trkpt><trkpt lat="43.0378633" lon="13.3487854"><ele>380.4</ele><time>2026-04-04T09:00:24.408Z</time></trkpt><trkpt lat="43.0377629" lon="13.3487414"><ele>380.0</ele><time>2026-04-04T09:00:25.408Z</time></trkpt><trkpt lat="43.0376708" lon="13.3486191"><ele>380.0</ele><time>2026-04-04T09:00:26.409Z</time></trkpt><trkpt lat="43.0375842" lon="13.3485465"><ele>380.0</ele><time>2026-04-04T09:00:27.409Z</time></trkpt><trkpt lat="43.0375045" lon="13.3484961"><ele>380.0</ele><time>2026-04-04T09:00:28.408Z</time></trkpt><trkpt lat="43.0374208" lon="13.348447"><ele>380.0</ele><time>2026-04-04T09:00:29.409Z</time></trkpt><trkpt lat="43.0374147" lon="13.3485706"><ele>380.0</ele><time>2026-04-04T09:00:31.409Z</time></trkpt><trkpt lat="43.0374622" lon="13.348634"><ele>380.0</ele><time>2026-04-04T09:00:32.409Z</time></trkpt><trkpt lat="43.0374988" lon="13.3487214"><ele>380.0</ele><time>2026-04-04T09:00:33.409Z</time></trkpt><trkpt lat="43.0375597" lon="13.3487985"><ele>380.0</ele><time>2026-04-04T09:00:34.409Z</time></trkpt><trkpt lat="43.0376124" lon="13.348884"><ele>380.0</ele><time>2026-04-04T09:00:35.409Z</time></trkpt><trkpt lat="43.0376665" lon="13.3489777"><ele>380.0</ele><time>2026-04-04T09:00:36.409Z</time></trkpt><trkpt lat="43.0377095" lon="13.3491008"><ele>380.0</ele><time>2026-04-04T09:00:37.409Z</time></trkpt><trkpt lat="43.0377493" lon="13.3492133"><ele>380.0</ele><time>2026-04-04T09:00:38.409Z</time></trkpt><trkpt lat="43.0378014" lon="13.3493339"><ele>375.25</ele><time>2026-04-04T09:00:39.409Z</time></trkpt><trkpt lat="43.0378699" lon="13.3494695"><ele>370.5</ele><time>2026-04-04T09:00:40.409Z</time></trkpt><trkpt lat="43.0379191" lon="13.3496115"><ele>365.75</ele><time>2026-04-04T09:00:41.409Z</time></trkpt><trkpt lat="43.0379706" lon="13.3497478"><ele>361.0</ele><time>2026-04-04T09:00:42.408Z</time></trkpt><trkpt lat="43.0380191" lon="13.3498875"><ele>358.25</ele><time>2026-04-04T09:00:43.409Z</time></trkpt><trkpt lat="43.0380666" lon="13.350031"><ele>355.5</ele><time>2026-04-04T09:00:44.409Z</time></trkpt><trkpt lat="43.0380429" lon="13.3502159"><ele>352.75</ele><time>2026-04-04T09:00:45.409Z</time></trkpt><trkpt lat="43.0380999" lon="13.3503543"><ele>350.0</ele><time>2026-04-04T09:00:46.409Z</time></trkpt><trkpt lat="43.0381119" lon="13.3504859"><ele>349.0</ele><time>2026-04-04T09:00:47.409Z</time></trkpt><trkpt lat="43.0381334" lon="13.3506381"><ele>348.0</ele><time>2026-04-04T09:00:48.409Z</time></trkpt><trkpt lat="43.0381655" lon="13.3508074"><ele>347.0</ele><time>2026-04-04T09:00:49.409Z</time></trkpt><trkpt lat="43.0382025" lon="13.3509771"><ele>346.0</ele><time>2026-04-04T09:00:50.409Z</time></trkpt><trkpt lat="43.0382871" lon="13.3511008"><ele>346.20000000000005</ele><time>2026-04-04T09:00:51.409Z</time></trkpt><trkpt lat="43.0383364" lon="13.3512039"><ele>346.40000000000003</ele><time>2026-04-04T09:00:52.409Z</time></trkpt><trkpt lat="43.0384124" lon="13.3512834"><ele>346.6</ele><time>2026-04-04T09:00:53.409Z</time></trkpt><trkpt lat="43.0384931" lon="13.3513793"><ele>346.8</ele><time>2026-04-04T09:00:54.409Z</time></trkpt><trkpt lat="43.0385169" lon="13.3514793"><ele>347.0</ele><time>2026-04-04T09:00:55.409Z</time></trkpt><trkpt lat="43.0385696" lon="13.3515637"><ele>347.0</ele><time>2026-04-04T09:00:56.409Z</time></trkpt><trkpt lat="43.0385582" lon="13.3517292"><ele>347.0</ele><time>2026-04-04T09:00:57.409Z</time></trkpt><trkpt lat="43.0385953" lon="13.3518408"><ele>347.0</ele><time>2026-04-04T09:00:58.409Z</time></trkpt><trkpt lat="43.0386128" lon="13.351963"><ele>347.0</ele><time>2026-04-04T09:00:59.409Z</time></trkpt><trkpt lat="43.0385534" lon="13.3520399"><ele>347.0</ele><time>2026-04-04T09:01:00.409Z</time></trkpt><trkpt lat="43.0385319" lon="13.3521444"><ele>348.20000000000005</ele><time>2026-04-04T09:01:01.409Z</time></trkpt><trkpt lat="43.0385638" lon="13.3522355"><ele>349.4</ele><time>2026-04-04T09:01:03.409Z</time></trkpt><trkpt lat="43.0385365" lon="13.3523307"><ele>350.6</ele><time>2026-04-04T09:01:05.408Z</time></trkpt><trkpt lat="43.0386278" lon="13.3525382"><ele>351.79999999999995</ele><time>2026-04-04T09:01:07.409Z</time></trkpt><trkpt lat="43.0386362" lon="13.3526369"><ele>353.0</ele><time>2026-04-04T09:01:09.409Z</time></trkpt><trkpt lat="43.0386677" lon="13.3527161"><ele>353.0</ele><time>2026-04-04T09:01:10.409Z</time></trkpt><trkpt lat="43.0387385" lon="13.3527908"><ele>353.0</ele><time>2026-04-04T09:01:12.409Z</time></trkpt><trkpt lat="43.0387928" lon="13.3528846"><ele>353.0</ele><time>2026-04-04T09:01:14.409Z</time></trkpt><trkpt lat="43.038822" lon="13.3529726"><ele>353.0</ele><time>2026-04-04T09:01:16.409Z</time></trkpt><trkpt lat="43.0388605" lon="13.3530483"><ele>353.0</ele><time>2026-04-04T09:01:18.409Z</time></trkpt><trkpt lat="43.0389157" lon="13.3531119"><ele>353.0</ele><time>2026-04-04T09:01:21.409Z</time></trkpt><trkpt lat="43.0389676" lon="13.353194"><ele>352.57142857142856</ele><time>2026-04-04T09:01:24.409Z</time></trkpt><trkpt lat="43.0390025" lon="13.3532773"><ele>352.14285714285717</ele><time>2026-04-04T09:01:27.409Z</time></trkpt><trkpt lat="43.0390326" lon="13.3533687"><ele>351.7142857142857</ele><time>2026-04-04T09:01:31.409Z</time></trkpt><trkpt lat="43.0390438" lon="13.3534767"><ele>351.2857142857143</ele><time>2026-04-04T09:01:35.409Z</time></trkpt><trkpt lat="43.0390739" lon="13.3535745"><ele>350.8571428571429</ele><time>2026-04-04T09:01:39.409Z</time></trkpt><trkpt lat="43.0390933" lon="13.353669"><ele>350.42857142857144</ele><time>2026-04-04T09:01:45.409Z</time></trkpt><trkpt lat="43.0391341" lon="13.3537413"><ele>350.0</ele><time>2026-04-04T09:01:50.409Z</time></trkpt><trkpt lat="43.0391774" lon="13.3538065"><ele>350.0</ele><time>2026-04-04T09:01:56.409Z</time></trkpt><trkpt lat="43.0392486" lon="13.3538506"><ele>350.0</ele><time>2026-04-04T09:03:16.409Z</time></trkpt><trkpt lat="43.0393128" lon="13.3539079"><ele>350.0</ele><time>2026-04-04T09:03:20.409Z</time></trkpt><trkpt lat="43.0393718" lon="13.3539517"><ele>350.0</ele><time>2026-04-04T09:03:24.409Z</time></trkpt><trkpt lat="43.0394264" lon="13.353997"><ele>350.0</ele><time>2026-04-04T09:03:28.409Z</time></trkpt><trkpt lat="43.0394917" lon="13.3540418"><ele>350.0</ele><time>2026-04-04T09:03:32.409Z</time></trkpt><trkpt lat="43.0395578" lon="13.3540978"><ele>350.0</ele><time>2026-04-04T09:03:37.409Z</time></trkpt><trkpt lat="43.0396164" lon="13.3541496"><ele>352.7142857142857</ele><time>2026-04-04T09:03:41.409Z</time></trkpt><trkpt lat="43.0396783" lon="13.354176"><ele>355.42857142857144</ele><time>2026-04-04T09:03:46.409Z</time></trkpt><trkpt lat="43.0397299" lon="13.3542509"><ele>358.1428571428571</ele><time>2026-04-04T09:03:52.408Z</time></trkpt><trkpt lat="43.0397658" lon="13.3543363"><ele>360.8571428571429</ele><time>2026-04-04T09:03:57.409Z</time></trkpt><trkpt lat="43.0397849" lon="13.3544206"><ele>363.57142857142856</ele><time>2026-04-04T09:04:02.409Z</time></trkpt><trkpt lat="43.0397664" lon="13.3545142"><ele>366.2857142857143</ele><time>2026-04-04T09:04:07.409Z</time></trkpt><trkpt lat="43.0396966" lon="13.3545331"><ele>369.0</ele><time>2026-04-04T09:04:13.408Z</time></trkpt><trkpt lat="43.0396364" lon="13.3544791"><ele>369.0</ele><time>2026-04-04T09:04:18.409Z</time></trkpt><trkpt lat="43.0395738" lon="13.3544187"><ele>369.0</ele><time>2026-04-04T09:04:23.409Z</time></trkpt><trkpt lat="43.0395229" lon="13.3543674"><ele>369.0</ele><time>2026-04-04T09:04:27.409Z</time></trkpt><trkpt lat="43.0394578" lon="13.3543119"><ele>369.0</ele><time>2026-04-04T09:04:32.409Z</time></trkpt><trkpt lat="43.0393842" lon="13.3542834"><ele>369.0</ele><time>2026-04-04T09:04:37.409Z</time></trkpt><trkpt lat="43.0393147" lon="13.3543282"><ele>369.0</ele><time>2026-04-04T09:04:42.409Z</time></trkpt><trkpt lat="43.0392913" lon="13.3544372"><ele>369.0</ele><time>2026-04-04T09:04:47.409Z</time></trkpt><trkpt lat="43.0393333" lon="13.3545267"><ele>369.0</ele><time>2026-04-04T09:04:51.408Z</time></trkpt><trkpt lat="43.0393744" lon="13.3545925"><ele>369.0</ele><time>2026-04-04T09:04:55.409Z</time></trkpt><trkpt lat="43.0394265" lon="13.3546593"><ele>369.0</ele><time>2026-04-04T09:04:59.409Z</time></trkpt><trkpt lat="43.0394834" lon="13.3547128"><ele>369.0</ele><time>2026-04-04T09:05:03.409Z</time></trkpt><trkpt lat="43.0395348" lon="13.3547785"><ele>369.0</ele><time>2026-04-04T09:05:08.409Z</time></trkpt><trkpt lat="43.0395874" lon="13.3548467"><ele>369.0</ele><time>2026-04-04T09:05:13.409Z</time></trkpt><trkpt lat="43.0396306" lon="13.3549245"><ele>370.7142857142857</ele><time>2026-04-04T09:05:18.409Z</time></trkpt><trkpt lat="43.0396755" lon="13.3550002"><ele>372.42857142857144</ele><time>2026-04-04T09:05:23.409Z</time></trkpt><trkpt lat="43.0397035" lon="13.3551023"><ele>374.1428571428571</ele><time>2026-04-04T09:05:28.409Z</time></trkpt><trkpt lat="43.0396762" lon="13.3551934"><ele>375.8571428571429</ele><time>2026-04-04T09:05:33.409Z</time></trkpt><trkpt lat="43.0396114" lon="13.3552102"><ele>377.5714285714286</ele><time>2026-04-04T09:05:38.409Z</time></trkpt><trkpt lat="43.0395677" lon="13.355145"><ele>379.2857142857143</ele><time>2026-04-04T09:05:41.409Z</time></trkpt><trkpt lat="43.0395022" lon="13.3551278"><ele>381.0</ele><time>2026-04-04T09:05:47.409Z</time></trkpt><trkpt lat="43.0394426" lon="13.3550846"><ele>381.0</ele><time>2026-04-04T09:05:52.409Z</time></trkpt><trkpt lat="43.0393815" lon="13.3550343"><ele>381.0</ele><time>2026-04-04T09:05:57.409Z</time></trkpt><trkpt lat="43.0393104" lon="13.3550905"><ele>381.0</ele><time>2026-04-04T09:06:02.409Z</time></trkpt><trkpt lat="43.0392505" lon="13.3551425"><ele>381.0</ele><time>2026-04-04T09:06:06.409Z</time></trkpt><trkpt lat="43.0392146" lon="13.3552414"><ele>381.0</ele><time>2026-04-04T09:06:10.408Z</time></trkpt><trkpt lat="43.0391991" lon="13.3553355"><ele>381.0</ele><time>2026-04-04T09:06:14.409Z</time></trkpt><trkpt lat="43.0392146" lon="13.3554264"><ele>381.0</ele><time>2026-04-04T09:06:19.409Z</time></trkpt><trkpt lat="43.0392408" lon="13.3555092"><ele>381.7142857142857</ele><time>2026-04-04T09:06:23.409Z</time></trkpt><trkpt lat="43.0392577" lon="13.3555922"><ele>382.42857142857144</ele><time>2026-04-04T09:06:27.408Z</time></trkpt><trkpt lat="43.0392908" lon="13.3556809"><ele>383.14285714285717</ele><time>2026-04-04T09:06:32.409Z</time></trkpt><trkpt lat="43.0393412" lon="13.3557666"><ele>383.8571428571429</ele><time>2026-04-04T09:06:36.409Z</time></trkpt><trkpt lat="43.0393793" lon="13.355851"><ele>384.57142857142856</ele><time>2026-04-04T09:06:40.409Z</time></trkpt><trkpt lat="43.0394129" lon="13.35595"><ele>385.28571428571433</ele><time>2026-04-04T09:06:44.409Z</time></trkpt><trkpt lat="43.039432" lon="13.3560556"><ele>386.0</ele><time>2026-04-04T09:06:48.409Z</time></trkpt><trkpt lat="43.0394343" lon="13.3561501"><ele>386.00000000000006</ele><time>2026-04-04T09:06:52.409Z</time></trkpt><trkpt lat="43.0394052" lon="13.3562388"><ele>386.0</ele><time>2026-04-04T09:06:57.408Z</time></trkpt><trkpt lat="43.039403" lon="13.3563349"><ele>386.0</ele><time>2026-04-04T09:07:02.409Z</time></trkpt><trkpt lat="43.0393668" lon="13.3564132"><ele>386.0</ele><time>2026-04-04T09:07:06.409Z</time></trkpt><trkpt lat="43.039338" lon="13.3565049"><ele>386.0</ele><time>2026-04-04T09:07:10.409Z</time></trkpt><trkpt lat="43.0392797" lon="13.3565571"><ele>386.00000000000006</ele><time>2026-04-04T09:07:14.409Z</time></trkpt><trkpt lat="43.0392111" lon="13.3565634"><ele>386.0</ele><time>2026-04-04T09:07:19.408Z</time></trkpt><trkpt lat="43.0391499" lon="13.3565139"><ele>389.00000000000006</ele><time>2026-04-04T09:07:25.409Z</time></trkpt><trkpt lat="43.0391137" lon="13.3564375"><ele>392.0</ele><time>2026-04-04T09:07:29.409Z</time></trkpt><trkpt lat="43.0390752" lon="13.3563645"><ele>395.0</ele><time>2026-04-04T09:07:33.408Z</time></trkpt><trkpt lat="43.0390377" lon="13.3562835"><ele>398.0</ele><time>2026-04-04T09:07:37.409Z</time></trkpt><trkpt lat="43.0389798" lon="13.3562274"><ele>401.0</ele><time>2026-04-04T09:07:42.409Z</time></trkpt><trkpt lat="43.0389235" lon="13.3561691"><ele>404.00000000000006</ele><time>2026-04-04T09:07:46.408Z</time></trkpt><trkpt lat="43.038867" lon="13.3561238"><ele>407.0</ele><time>2026-04-04T09:07:51.409Z</time></trkpt><trkpt lat="43.0388129" lon="13.3560651"><ele>407.00000000000006</ele><time>2026-04-04T09:07:55.409Z</time></trkpt><trkpt lat="43.038753" lon="13.3560056"><ele>407.0</ele><time>2026-04-04T09:08:00.409Z</time></trkpt><trkpt lat="43.0387031" lon="13.3559406"><ele>407.0</ele><time>2026-04-04T09:08:06.409Z</time></trkpt><trkpt lat="43.0386518" lon="13.3558693"><ele>407.0</ele><time>2026-04-04T09:08:12.409Z</time></trkpt><trkpt lat="43.0386071" lon="13.3557944"><ele>407.0</ele><time>2026-04-04T09:08:16.409Z</time></trkpt><trkpt lat="43.0385679" lon="13.3557157"><ele>407.00000000000006</ele><time>2026-04-04T09:08:20.408Z</time></trkpt><trkpt lat="43.038525" lon="13.3556293"><ele>407.0</ele><time>2026-04-04T09:08:25.409Z</time></trkpt><trkpt lat="43.0384701" lon="13.3555543"><ele>406.28571428571433</ele><time>2026-04-04T09:08:30.409Z</time></trkpt><trkpt lat="43.0384186" lon="13.3554969"><ele>405.57142857142856</ele><time>2026-04-04T09:08:35.409Z</time></trkpt><trkpt lat="43.038375" lon="13.355412"><ele>404.8571428571429</ele><time>2026-04-04T09:08:40.409Z</time></trkpt><trkpt lat="43.0383363" lon="13.3553348"><ele>404.14285714285717</ele><time>2026-04-04T09:08:45.409Z</time></trkpt><trkpt lat="43.0382874" lon="13.3552734"><ele>403.42857142857144</ele><time>2026-04-04T09:08:49.409Z</time></trkpt><trkpt lat="43.0382396" lon="13.3552149"><ele>402.7142857142857</ele><time>2026-04-04T09:08:53.409Z</time></trkpt><trkpt lat="43.0381809" lon="13.3551649"><ele>402.0</ele><time>2026-04-04T09:08:59.409Z</time></trkpt><trkpt lat="43.0381352" lon="13.3551003"><ele>403.0</ele><time>2026-04-04T09:09:03.409Z</time></trkpt><trkpt lat="43.0380756" lon="13.3550253"><ele>404.0</ele><time>2026-04-04T09:09:07.409Z</time></trkpt><trkpt lat="43.0380357" lon="13.354954"><ele>405.0</ele><time>2026-04-04T09:09:10.409Z</time></trkpt><trkpt lat="43.0379883" lon="13.3548935"><ele>406.0</ele><time>2026-04-04T09:09:13.409Z</time></trkpt><trkpt lat="43.0379272" lon="13.3548447"><ele>407.0</ele><time>2026-04-04T09:09:17.409Z</time></trkpt><trkpt lat="43.0378733" lon="13.3547623"><ele>408.0</ele><time>2026-04-04T09:09:21.409Z</time></trkpt><trkpt lat="43.0378236" lon="13.3547094"><ele>409.0</ele><time>2026-04-04T09:09:25.409Z</time></trkpt><trkpt lat="43.037769" lon="13.3546334"><ele>409.0</ele><time>2026-04-04T09:09:29.409Z</time></trkpt><trkpt lat="43.0377157" lon="13.3545833"><ele>409.0</ele><time>2026-04-04T09:09:33.409Z</time></trkpt><trkpt lat="43.0376609" lon="13.3545279"><ele>409.0</ele><time>2026-04-04T09:09:37.409Z</time></trkpt><trkpt lat="43.0376038" lon="13.354482"><ele>409.0</ele><time>2026-04-04T09:09:41.409Z</time></trkpt><trkpt lat="43.0375577" lon="13.3544222"><ele>409.0</ele><time>2026-04-04T09:09:45.409Z</time></trkpt><trkpt lat="43.0375019" lon="13.3543647"><ele>409.0</ele><time>2026-04-04T09:09:50.409Z</time></trkpt><trkpt lat="43.0374283" lon="13.3543409"><ele>409.0</ele><time>2026-04-04T09:09:55.408Z</time></trkpt><trkpt lat="43.0373568" lon="13.3543087"><ele>409.85714285714283</ele><time>2026-04-04T09:09:59.409Z</time></trkpt><trkpt lat="43.0372893" lon="13.354256"><ele>410.7142857142857</ele><time>2026-04-04T09:10:03.409Z</time></trkpt><trkpt lat="43.0372329" lon="13.354211"><ele>411.57142857142856</ele><time>2026-04-04T09:10:07.409Z</time></trkpt><trkpt lat="43.0371595" lon="13.3541737"><ele>412.42857142857144</ele><time>2026-04-04T09:10:11.409Z</time></trkpt><trkpt lat="43.0370949" lon="13.3541711"><ele>413.28571428571433</ele><time>2026-04-04T09:10:15.409Z</time></trkpt><trkpt lat="43.0370252" lon="13.3541992"><ele>414.14285714285717</ele><time>2026-04-04T09:10:19.409Z</time></trkpt><trkpt lat="43.0369757" lon="13.3542598"><ele>415.0</ele><time>2026-04-04T09:10:23.408Z</time></trkpt><trkpt lat="43.0369262" lon="13.3543226"><ele>415.0</ele><time>2026-04-04T09:10:27.409Z</time></trkpt><trkpt lat="43.0368713" lon="13.3543897"><ele>415.0</ele><time>2026-04-04T09:10:31.409Z</time></trkpt><trkpt lat="43.0368565" lon="13.3544748"><ele>415.0</ele><time>2026-04-04T09:10:35.409Z</time></trkpt><trkpt lat="43.03683" lon="13.3545548"><ele>415.0</ele><time>2026-04-04T09:10:39.409Z</time></trkpt><trkpt lat="43.0368345" lon="13.3546519"><ele>415.0</ele><time>2026-04-04T09:10:43.409Z</time></trkpt><trkpt lat="43.0368454" lon="13.3547489"><ele>415.0</ele><time>2026-04-04T09:10:47.409Z</time></trkpt><trkpt lat="43.0368803" lon="13.3548472"><ele>415.0</ele><time>2026-04-04T09:10:52.409Z</time></trkpt><trkpt lat="43.036933" lon="13.3549064"><ele>416.2857142857143</ele><time>2026-04-04T09:10:57.409Z</time></trkpt><trkpt lat="43.0369896" lon="13.3549739"><ele>417.57142857142856</ele><time>2026-04-04T09:11:01.409Z</time></trkpt><trkpt lat="43.0370534" lon="13.3550243"><ele>418.8571428571429</ele><time>2026-04-04T09:11:05.409Z</time></trkpt><trkpt lat="43.0371028" lon="13.3551"><ele>420.1428571428571</ele><time>2026-04-04T09:11:09.409Z</time></trkpt><trkpt lat="43.0371296" lon="13.3551996"><ele>421.4285714285714</ele><time>2026-04-04T09:11:13.409Z</time></trkpt><trkpt lat="43.0371866" lon="13.3552753"><ele>422.7142857142857</ele><time>2026-04-04T09:11:17.409Z</time></trkpt><trkpt lat="43.0371886" lon="13.3553692"><ele>424.0</ele><time>2026-04-04T09:11:21.409Z</time></trkpt><trkpt lat="43.0371714" lon="13.3554547"><ele>424.0</ele><time>2026-04-04T09:11:26.409Z</time></trkpt><trkpt lat="43.0371067" lon="13.3554679"><ele>424.0</ele><time>2026-04-04T09:11:32.409Z</time></trkpt><trkpt lat="43.0370338" lon="13.3554994"><ele>424.0</ele><time>2026-04-04T09:11:37.409Z</time></trkpt><trkpt lat="43.0369647" lon="13.3555048"><ele>424.0</ele><time>2026-04-04T09:11:41.409Z</time></trkpt><trkpt lat="43.0368993" lon="13.3555158"><ele>424.0</ele><time>2026-04-04T09:11:45.409Z</time></trkpt><trkpt lat="43.0368301" lon="13.3555543"><ele>424.0</ele><time>2026-04-04T09:11:50.408Z</time></trkpt><trkpt lat="43.0367564" lon="13.3555242"><ele>424.0</ele><time>2026-04-04T09:11:55.409Z</time></trkpt><trkpt lat="43.0366749" lon="13.3555227"><ele>428.0</ele><time>2026-04-04T09:11:59.409Z</time></trkpt><trkpt lat="43.0366056" lon="13.3555599"><ele>432.0</ele><time>2026-04-04T09:12:03.409Z</time></trkpt><trkpt lat="43.0365359" lon="13.3556083"><ele>436.0</ele><time>2026-04-04T09:12:07.409Z</time></trkpt><trkpt lat="43.0364745" lon="13.3556473"><ele>440.0</ele><time>2026-04-04T09:12:10.409Z</time></trkpt><trkpt lat="43.0364023" lon="13.3556712"><ele>444.0</ele><time>2026-04-04T09:12:15.409Z</time></trkpt><trkpt lat="43.0363385" lon="13.3556787"><ele>448.0</ele><time>2026-04-04T09:12:19.408Z</time></trkpt><trkpt lat="43.0362756" lon="13.3556733"><ele>452.0</ele><time>2026-04-04T09:12:22.408Z</time></trkpt><trkpt lat="43.036207" lon="13.3556564"><ele>452.0</ele><time>2026-04-04T09:12:25.409Z</time></trkpt><trkpt lat="43.0361523" lon="13.3555858"><ele>452.0</ele><time>2026-04-04T09:12:28.409Z</time></trkpt><trkpt lat="43.0360987" lon="13.3555248"><ele>452.0</ele><time>2026-04-04T09:12:31.409Z</time></trkpt><trkpt lat="43.0360401" lon="13.355461"><ele>452.0</ele><time>2026-04-04T09:12:35.409Z</time></trkpt><trkpt lat="43.0359862" lon="13.3553939"><ele>452.0</ele><time>2026-04-04T09:12:40.409Z</time></trkpt><trkpt lat="43.0359313" lon="13.3553303"><ele>452.0</ele><time>2026-04-04T09:12:44.409Z</time></trkpt><trkpt lat="43.0358784" lon="13.3552757"><ele>452.0</ele><time>2026-04-04T09:12:48.409Z</time></trkpt><trkpt lat="43.0358158" lon="13.3552117"><ele>451.99999999999994</ele><time>2026-04-04T09:12:53.409Z</time></trkpt><trkpt lat="43.0357519" lon="13.3551543"><ele>452.0</ele><time>2026-04-04T09:12:57.409Z</time></trkpt><trkpt lat="43.0356873" lon="13.3551144"><ele>452.0</ele><time>2026-04-04T09:13:01.408Z</time></trkpt><trkpt lat="43.0356289" lon="13.3550772"><ele>452.0</ele><time>2026-04-04T09:13:05.409Z</time></trkpt><trkpt lat="43.0355537" lon="13.3550358"><ele>451.99999999999994</ele><time>2026-04-04T09:13:09.409Z</time></trkpt><trkpt lat="43.0354913" lon="13.3549672"><ele>452.0</ele><time>2026-04-04T09:13:13.409Z</time></trkpt><trkpt lat="43.0354177" lon="13.3549347"><ele>452.0</ele><time>2026-04-04T09:13:18.409Z</time></trkpt><trkpt lat="43.0353408" lon="13.3549043"><ele>452.0</ele><time>2026-04-04T09:13:22.409Z</time></trkpt><trkpt lat="43.0352854" lon="13.3548627"><ele>452.0</ele><time>2026-04-04T09:13:25.408Z</time></trkpt><trkpt lat="43.0352183" lon="13.3548086"><ele>452.0</ele><time>2026-04-04T09:13:29.409Z</time></trkpt><trkpt lat="43.0351568" lon="13.3547566"><ele>452.0</ele><time>2026-04-04T09:13:33.409Z</time></trkpt><trkpt lat="43.0350938" lon="13.3547019"><ele>452.0</ele><time>2026-04-04T09:13:37.409Z</time></trkpt><trkpt lat="43.0350337" lon="13.354648"><ele>452.0</ele><time>2026-04-04T09:13:41.409Z</time></trkpt><trkpt lat="43.0349707" lon="13.3546328"><ele>452.42857142857144</ele><time>2026-04-04T09:13:46.409Z</time></trkpt><trkpt lat="43.0349" lon="13.3546739"><ele>452.85714285714283</ele><time>2026-04-04T09:13:50.409Z</time></trkpt><trkpt lat="43.0348351" lon="13.3547441"><ele>453.2857142857143</ele><time>2026-04-04T09:13:54.409Z</time></trkpt><trkpt lat="43.0347899" lon="13.3548124"><ele>453.7142857142857</ele><time>2026-04-04T09:13:57.409Z</time></trkpt><trkpt lat="43.0347836" lon="13.3549013"><ele>454.1428571428571</ele><time>2026-04-04T09:14:01.409Z</time></trkpt><trkpt lat="43.034821" lon="13.3549862"><ele>454.57142857142856</ele><time>2026-04-04T09:14:06.409Z</time></trkpt><trkpt lat="43.0348869" lon="13.3550416"><ele>455.0</ele><time>2026-04-04T09:14:09.409Z</time></trkpt><trkpt lat="43.0349352" lon="13.3551067"><ele>455.0</ele><time>2026-04-04T09:14:13.409Z</time></trkpt><trkpt lat="43.0349682" lon="13.3551807"><ele>455.0</ele><time>2026-04-04T09:14:17.409Z</time></trkpt><trkpt lat="43.0350093" lon="13.3552606"><ele>455.0</ele><time>2026-04-04T09:14:22.408Z</time></trkpt><trkpt lat="43.0350555" lon="13.3553472"><ele>455.0</ele><time>2026-04-04T09:14:27.409Z</time></trkpt><trkpt lat="43.0351108" lon="13.3554227"><ele>455.0</ele><time>2026-04-04T09:14:31.409Z</time></trkpt><trkpt lat="43.0351492" lon="13.3554994"><ele>455.0</ele><time>2026-04-04T09:14:35.409Z</time></trkpt><trkpt lat="43.0351886" lon="13.3555751"><ele>455.0</ele><time>2026-04-04T09:14:39.409Z</time></trkpt><trkpt lat="43.0352273" lon="13.3556694"><ele>457.2857142857143</ele><time>2026-04-04T09:14:44.409Z</time></trkpt><trkpt lat="43.0352656" lon="13.3557582"><ele>459.57142857142856</ele><time>2026-04-04T09:14:49.409Z</time></trkpt><trkpt lat="43.0352984" lon="13.3558414"><ele>461.8571428571429</ele><time>2026-04-04T09:14:53.409Z</time></trkpt><trkpt lat="43.0353333" lon="13.3559242"><ele>464.14285714285717</ele><time>2026-04-04T09:14:57.409Z</time></trkpt><trkpt lat="43.0353672" lon="13.3560158"><ele>466.42857142857144</ele><time>2026-04-04T09:15:01.408Z</time></trkpt><trkpt lat="43.0353911" lon="13.3561131"><ele>468.7142857142858</ele><time>2026-04-04T09:15:05.409Z</time></trkpt><trkpt lat="43.03542" lon="13.3562099"><ele>471.00000000000006</ele><time>2026-04-04T09:15:09.409Z</time></trkpt><trkpt lat="43.0354579" lon="13.3562951"><ele>473.1666666666667</ele><time>2026-04-04T09:15:13.409Z</time></trkpt><trkpt lat="43.0354802" lon="13.3563936"><ele>475.33333333333337</ele><time>2026-04-04T09:15:17.408Z</time></trkpt><trkpt lat="43.0355079" lon="13.3564935"><ele>477.5</ele><time>2026-04-04T09:15:21.409Z</time></trkpt><trkpt lat="43.0355426" lon="13.3565656"><ele>479.6666666666667</ele><time>2026-04-04T09:15:24.409Z</time></trkpt><trkpt lat="43.0355892" lon="13.3566513"><ele>481.83333333333337</ele><time>2026-04-04T09:15:28.409Z</time></trkpt><trkpt lat="43.0356353" lon="13.3567433"><ele>484.0</ele><time>2026-04-04T09:15:32.409Z</time></trkpt><trkpt lat="43.0356829" lon="13.3568249"><ele>484.0</ele><time>2026-04-04T09:15:36.409Z</time></trkpt><trkpt lat="43.035743" lon="13.3569066"><ele>483.99999999999994</ele><time>2026-04-04T09:15:40.409Z</time></trkpt><trkpt lat="43.0357814" lon="13.3569866"><ele>484.0</ele><time>2026-04-04T09:15:44.409Z</time></trkpt><trkpt lat="43.035831" lon="13.3570772"><ele>484.0</ele><time>2026-04-04T09:15:48.409Z</time></trkpt><trkpt lat="43.0358502" lon="13.3571724"><ele>483.99999999999994</ele><time>2026-04-04T09:15:51.409Z</time></trkpt><trkpt lat="43.0358554" lon="13.3572628"><ele>484.0</ele><time>2026-04-04T09:15:54.409Z</time></trkpt><trkpt lat="43.035835" lon="13.3573533"><ele>484.0</ele><time>2026-04-04T09:15:57.409Z</time></trkpt><trkpt lat="43.0357836" lon="13.3574163"><ele>484.00000000000006</ele><time>2026-04-04T09:16:01.408Z</time></trkpt><trkpt lat="43.0357231" lon="13.3574831"><ele>484.0</ele><time>2026-04-04T09:16:05.409Z</time></trkpt><trkpt lat="43.0356604" lon="13.3575334"><ele>484.0</ele><time>2026-04-04T09:16:10.409Z</time></trkpt><trkpt lat="43.0355854" lon="13.3575479"><ele>484.0</ele><time>2026-04-04T09:16:14.409Z</time></trkpt><trkpt lat="43.0355101" lon="13.3575675"><ele>484.00000000000006</ele><time>2026-04-04T09:16:18.408Z</time></trkpt><trkpt lat="43.0354277" lon="13.3575788"><ele>484.0</ele><time>2026-04-04T09:16:22.409Z</time></trkpt><trkpt lat="43.0353572" lon="13.3575581"><ele>484.0</ele><time>2026-04-04T09:16:26.409Z</time></trkpt><trkpt lat="43.035294" lon="13.3574942"><ele>483.99999999999994</ele><time>2026-04-04T09:16:31.409Z</time></trkpt><trkpt lat="43.0352467" lon="13.3574105"><ele>484.0</ele><time>2026-04-04T09:16:35.409Z</time></trkpt><trkpt lat="43.0352081" lon="13.3573179"><ele>484.0</ele><time>2026-04-04T09:16:39.409Z</time></trkpt><trkpt lat="43.0351656" lon="13.3572452"><ele>483.99999999999994</ele><time>2026-04-04T09:16:42.409Z</time></trkpt><trkpt lat="43.0351277" lon="13.3571529"><ele>484.0</ele><time>2026-04-04T09:16:46.408Z</time></trkpt><trkpt lat="43.035102" lon="13.3570688"><ele>484.0</ele><time>2026-04-04T09:16:49.408Z</time></trkpt><trkpt lat="43.0350815" lon="13.3569798"><ele>484.0</ele><time>2026-04-04T09:16:52.409Z</time></trkpt><trkpt lat="43.0350694" lon="13.3568933"><ele>483.99999999999994</ele><time>2026-04-04T09:16:55.409Z</time></trkpt><trkpt lat="43.0350573" lon="13.3567906"><ele>484.0</ele><time>2026-04-04T09:17:00.409Z</time></trkpt><trkpt lat="43.0350189" lon="13.3567194"><ele>484.0</ele><time>2026-04-04T09:17:04.408Z</time></trkpt><trkpt lat="43.0350014" lon="13.3566247"><ele>483.99999999999994</ele><time>2026-04-04T09:17:09.409Z</time></trkpt><trkpt lat="43.03499" lon="13.3565393"><ele>484.0</ele><time>2026-04-04T09:17:12.409Z</time></trkpt><trkpt lat="43.0349492" lon="13.3564703"><ele>484.0</ele><time>2026-04-04T09:17:17.409Z</time></trkpt><trkpt lat="43.0349029" lon="13.3563861"><ele>483.1428571428571</ele><time>2026-04-04T09:17:22.408Z</time></trkpt><trkpt lat="43.0348486" lon="13.3563269"><ele>482.2857142857142</ele><time>2026-04-04T09:17:25.409Z</time></trkpt><trkpt lat="43.0347836" lon="13.3563045"><ele>481.42857142857144</ele><time>2026-04-04T09:17:28.408Z</time></trkpt><trkpt lat="43.0347096" lon="13.3562758"><ele>480.57142857142856</ele><time>2026-04-04T09:17:35.409Z</time></trkpt><trkpt lat="43.0346376" lon="13.3562594"><ele>479.7142857142857</ele><time>2026-04-04T09:17:40.409Z</time></trkpt><trkpt lat="43.0345671" lon="13.3562404"><ele>478.8571428571429</ele><time>2026-04-04T09:17:44.409Z</time></trkpt><trkpt lat="43.0344947" lon="13.3562022"><ele>478.00000000000006</ele><time>2026-04-04T09:17:48.409Z</time></trkpt><trkpt lat="43.0344387" lon="13.3561626"><ele>478.00000000000006</ele><time>2026-04-04T09:17:51.409Z</time></trkpt><trkpt lat="43.0343702" lon="13.3561311"><ele>478.0</ele><time>2026-04-04T09:17:55.409Z</time></trkpt><trkpt lat="43.0342971" lon="13.3561149"><ele>478.0</ele><time>2026-04-04T09:17:59.409Z</time></trkpt><trkpt lat="43.0342225" lon="13.3560935"><ele>478.0</ele><time>2026-04-04T09:18:03.408Z</time></trkpt><trkpt lat="43.0341511" lon="13.3560872"><ele>478.00000000000006</ele><time>2026-04-04T09:18:07.409Z</time></trkpt><trkpt lat="43.0340828" lon="13.3561163"><ele>478.0</ele><time>2026-04-04T09:18:10.409Z</time></trkpt><trkpt lat="43.0340108" lon="13.3561762"><ele>476.33333333333337</ele><time>2026-04-04T09:18:13.409Z</time></trkpt><trkpt lat="43.033965" lon="13.3562714"><ele>474.6666666666667</ele><time>2026-04-04T09:18:16.409Z</time></trkpt><trkpt lat="43.0339392" lon="13.3563884"><ele>473.0</ele><time>2026-04-04T09:18:19.409Z</time></trkpt><trkpt lat="43.0339323" lon="13.3565079"><ele>471.33333333333337</ele><time>2026-04-04T09:18:22.409Z</time></trkpt><trkpt lat="43.0339345" lon="13.3566389"><ele>469.6666666666667</ele><time>2026-04-04T09:18:25.409Z</time></trkpt><trkpt lat="43.0339304" lon="13.3567478"><ele>468.0</ele><time>2026-04-04T09:18:27.409Z</time></trkpt><trkpt lat="43.0339305" lon="13.35686"><ele>468.0</ele><time>2026-04-04T09:18:29.409Z</time></trkpt><trkpt lat="43.0339255" lon="13.3569866"><ele>468.0</ele><time>2026-04-04T09:18:31.409Z</time></trkpt><trkpt lat="43.0339089" lon="13.357104"><ele>468.0</ele><time>2026-04-04T09:18:33.409Z</time></trkpt><trkpt lat="43.0338946" lon="13.3572192"><ele>468.0</ele><time>2026-04-04T09:18:35.409Z</time></trkpt><trkpt lat="43.0338577" lon="13.3573071"><ele>468.0</ele><time>2026-04-04T09:18:37.409Z</time></trkpt><trkpt lat="43.0338335" lon="13.3574427"><ele>468.0</ele><time>2026-04-04T09:18:39.408Z</time></trkpt><trkpt lat="43.0338063" lon="13.3575374"><ele>468.8333333333333</ele><time>2026-04-04T09:18:41.409Z</time></trkpt><trkpt lat="43.0337907" lon="13.3576319"><ele>469.66666666666663</ele><time>2026-04-04T09:18:43.409Z</time></trkpt><trkpt lat="43.0337781" lon="13.3577547"><ele>470.5</ele><time>2026-04-04T09:18:45.409Z</time></trkpt><trkpt lat="43.0337903" lon="13.3578655"><ele>471.3333333333333</ele><time>2026-04-04T09:18:47.409Z</time></trkpt><trkpt lat="43.0338061" lon="13.3579894"><ele>472.16666666666663</ele><time>2026-04-04T09:18:49.408Z</time></trkpt><trkpt lat="43.0338231" lon="13.3581212"><ele>473.0</ele><time>2026-04-04T09:18:51.409Z</time></trkpt><trkpt lat="43.0338493" lon="13.358249"><ele>473.79999999999995</ele><time>2026-04-04T09:18:53.409Z</time></trkpt><trkpt lat="43.0338714" lon="13.3583782"><ele>474.59999999999997</ele><time>2026-04-04T09:18:55.409Z</time></trkpt><trkpt lat="43.0338635" lon="13.3585262"><ele>475.40000000000003</ele><time>2026-04-04T09:18:57.409Z</time></trkpt><trkpt lat="43.0338382" lon="13.3586743"><ele>476.20000000000005</ele><time>2026-04-04T09:18:59.409Z</time></trkpt><trkpt lat="43.0337835" lon="13.3588227"><ele>477.0</ele><time>2026-04-04T09:19:01.409Z</time></trkpt><trkpt lat="43.0337268" lon="13.3589682"><ele>477.57142857142856</ele><time>2026-04-04T09:19:03.409Z</time></trkpt><trkpt lat="43.0336703" lon="13.3591023"><ele>478.1428571428571</ele><time>2026-04-04T09:19:05.409Z</time></trkpt><trkpt lat="43.0336435" lon="13.3591826"><ele>478.71428571428567</ele><time>2026-04-04T09:19:06.409Z</time></trkpt><trkpt lat="43.0336276" lon="13.3592669"><ele>479.2857142857142</ele><time>2026-04-04T09:19:07.409Z</time></trkpt><trkpt lat="43.0336092" lon="13.3593525"><ele>479.85714285714283</ele><time>2026-04-04T09:19:08.409Z</time></trkpt><trkpt lat="43.0335879" lon="13.359437"><ele>480.42857142857133</ele><time>2026-04-04T09:19:09.409Z</time></trkpt><trkpt lat="43.0335799" lon="13.3595264"><ele>480.99999999999994</ele><time>2026-04-04T09:19:10.409Z</time></trkpt><trkpt lat="43.0335648" lon="13.3596916"><ele>481.50000000000006</ele><time>2026-04-04T09:19:12.409Z</time></trkpt><trkpt lat="43.0335541" lon="13.3598445"><ele>482.0</ele><time>2026-04-04T09:19:14.409Z</time></trkpt><trkpt lat="43.0335859" lon="13.3599313"><ele>482.5</ele><time>2026-04-04T09:19:15.408Z</time></trkpt><trkpt lat="43.0335263" lon="13.3599895"><ele>483.0</ele><time>2026-04-04T09:19:16.409Z</time></trkpt><trkpt lat="43.0335009" lon="13.3600759"><ele>483.50000000000006</ele><time>2026-04-04T09:19:17.409Z</time></trkpt><trkpt lat="43.0334817" lon="13.3601605"><ele>484.0</ele><time>2026-04-04T09:19:18.409Z</time></trkpt><trkpt lat="43.033449" lon="13.3603026"><ele>484.0</ele><time>2026-04-04T09:19:20.409Z</time></trkpt><trkpt lat="43.0333688" lon="13.3604206"><ele>484.0</ele><time>2026-04-04T09:19:22.409Z</time></trkpt><trkpt lat="43.033327" lon="13.3605531"><ele>484.0</ele><time>2026-04-04T09:19:24.409Z</time></trkpt><trkpt lat="43.0332788" lon="13.3606772"><ele>484.0</ele><time>2026-04-04T09:19:26.409Z</time></trkpt><trkpt lat="43.0332544" lon="13.3607919"><ele>484.0</ele><time>2026-04-04T09:19:28.409Z</time></trkpt><trkpt lat="43.0332117" lon="13.3608769"><ele>483.50000000000006</ele><time>2026-04-04T09:19:30.409Z</time></trkpt><trkpt lat="43.0331719" lon="13.3609658"><ele>483.0</ele><time>2026-04-04T09:19:32.409Z</time></trkpt><trkpt lat="43.0331281" lon="13.3610844"><ele>482.5</ele><time>2026-04-04T09:19:35.409Z</time></trkpt><trkpt lat="43.0331094" lon="13.3611737"><ele>482.0</ele><time>2026-04-04T09:19:37.409Z</time></trkpt><trkpt lat="43.033077" lon="13.3612519"><ele>481.50000000000006</ele><time>2026-04-04T09:19:39.409Z</time></trkpt><trkpt lat="43.0330464" lon="13.3613272"><ele>481.0</ele><time>2026-04-04T09:19:41.409Z</time></trkpt><trkpt lat="43.0330017" lon="13.3614355"><ele>482.83333333333337</ele><time>2026-04-04T09:19:44.409Z</time></trkpt><trkpt lat="43.032973" lon="13.3615161"><ele>484.6666666666667</ele><time>2026-04-04T09:19:46.409Z</time></trkpt><trkpt lat="43.0329439" lon="13.3615969"><ele>486.5</ele><time>2026-04-04T09:19:48.409Z</time></trkpt><trkpt lat="43.0329067" lon="13.3617136"><ele>488.33333333333337</ele><time>2026-04-04T09:19:51.409Z</time></trkpt><trkpt lat="43.0328809" lon="13.3617923"><ele>490.1666666666667</ele><time>2026-04-04T09:19:53.409Z</time></trkpt><trkpt lat="43.0328439" lon="13.361896"><ele>492.0</ele><time>2026-04-04T09:19:56.409Z</time></trkpt><trkpt lat="43.0328067" lon="13.3620042"><ele>492.0</ele><time>2026-04-04T09:19:59.409Z</time></trkpt><trkpt lat="43.0327676" lon="13.362112"><ele>492.0</ele><time>2026-04-04T09:20:02.409Z</time></trkpt><trkpt lat="43.0327291" lon="13.3622187"><ele>492.0</ele><time>2026-04-04T09:20:05.409Z</time></trkpt><trkpt lat="43.0326999" lon="13.3622957"><ele>492.0</ele><time>2026-04-04T09:20:07.408Z</time></trkpt><trkpt lat="43.0326682" lon="13.3623736"><ele>492.0</ele><time>2026-04-04T09:20:09.409Z</time></trkpt><trkpt lat="43.03265" lon="13.3624661"><ele>492.0</ele><time>2026-04-04T09:20:11.409Z</time></trkpt><trkpt lat="43.0326416" lon="13.3625894"><ele>492.57142857142867</ele><time>2026-04-04T09:20:14.409Z</time></trkpt><trkpt lat="43.0326199" lon="13.3626776"><ele>493.14285714285717</ele><time>2026-04-04T09:20:16.409Z</time></trkpt><trkpt lat="43.032588" lon="13.3627584"><ele>493.7142857142858</ele><time>2026-04-04T09:20:18.409Z</time></trkpt><trkpt lat="43.0325439" lon="13.3628429"><ele>494.28571428571433</ele><time>2026-04-04T09:20:20.409Z</time></trkpt><trkpt lat="43.0325011" lon="13.3629245"><ele>494.8571428571429</ele><time>2026-04-04T09:20:22.409Z</time></trkpt><trkpt lat="43.0324642" lon="13.3629982"><ele>495.42857142857144</ele><time>2026-04-04T09:20:24.409Z</time></trkpt><trkpt lat="43.032399" lon="13.3630792"><ele>496.0</ele><time>2026-04-04T09:20:27.409Z</time></trkpt><trkpt lat="43.0323368" lon="13.3631355"><ele>496.1666666666667</ele><time>2026-04-04T09:20:29.409Z</time></trkpt><trkpt lat="43.0322754" lon="13.3631917"><ele>496.33333333333337</ele><time>2026-04-04T09:20:31.409Z</time></trkpt><trkpt lat="43.0322131" lon="13.3632538"><ele>496.5</ele><time>2026-04-04T09:20:33.409Z</time></trkpt><trkpt lat="43.0321462" lon="13.3633158"><ele>496.66666666666663</ele><time>2026-04-04T09:20:35.409Z</time></trkpt><trkpt lat="43.0320716" lon="13.3633673"><ele>496.8333333333333</ele><time>2026-04-04T09:20:37.409Z</time></trkpt><trkpt lat="43.0319924" lon="13.3634192"><ele>497.0</ele><time>2026-04-04T09:20:39.409Z</time></trkpt><trkpt lat="43.031917" lon="13.3634673"><ele>496.99999999999994</ele><time>2026-04-04T09:20:41.409Z</time></trkpt><trkpt lat="43.0318416" lon="13.3635207"><ele>497.0</ele><time>2026-04-04T09:20:43.408Z</time></trkpt><trkpt lat="43.0317515" lon="13.363562"><ele>497.0</ele><time>2026-04-04T09:20:45.409Z</time></trkpt><trkpt lat="43.0316812" lon="13.3636195"><ele>497.0</ele><time>2026-04-04T09:20:47.409Z</time></trkpt><trkpt lat="43.0316096" lon="13.3636713"><ele>496.99999999999994</ele><time>2026-04-04T09:20:49.409Z</time></trkpt><trkpt lat="43.0315274" lon="13.3637334"><ele>497.0</ele><time>2026-04-04T09:20:51.409Z</time></trkpt><trkpt lat="43.0314465" lon="13.3637914"><ele>496.8333333333333</ele><time>2026-04-04T09:20:53.409Z</time></trkpt><trkpt lat="43.0313639" lon="13.3638534"><ele>496.66666666666663</ele><time>2026-04-04T09:20:55.409Z</time></trkpt><trkpt lat="43.0312915" lon="13.3639217"><ele>496.5</ele><time>2026-04-04T09:20:57.409Z</time></trkpt><trkpt lat="43.0312197" lon="13.3639756"><ele>496.33333333333337</ele><time>2026-04-04T09:20:59.409Z</time></trkpt><trkpt lat="43.0311359" lon="13.3640269"><ele>496.1666666666667</ele><time>2026-04-04T09:21:01.409Z</time></trkpt><trkpt lat="43.031059" lon="13.3640699"><ele>496.0</ele><time>2026-04-04T09:21:03.409Z</time></trkpt><trkpt lat="43.0309889" lon="13.3641698"><ele>496.0</ele><time>2026-04-04T09:21:05.409Z</time></trkpt><trkpt lat="43.0309131" lon="13.3642204"><ele>496.0</ele><time>2026-04-04T09:21:07.409Z</time></trkpt><trkpt lat="43.0308343" lon="13.3643104"><ele>496.0</ele><time>2026-04-04T09:21:09.409Z</time></trkpt><trkpt lat="43.0307541" lon="13.3643662"><ele>496.0</ele><time>2026-04-04T09:21:11.409Z</time></trkpt><trkpt lat="43.0306775" lon="13.3644366"><ele>496.0</ele><time>2026-04-04T09:21:13.409Z</time></trkpt><trkpt lat="43.0306064" lon="13.364496"><ele>496.1666666666667</ele><time>2026-04-04T09:21:15.409Z</time></trkpt><trkpt lat="43.0305262" lon="13.3645459"><ele>496.33333333333337</ele><time>2026-04-04T09:21:17.409Z</time></trkpt><trkpt lat="43.0304524" lon="13.3646051"><ele>496.5</ele><time>2026-04-04T09:21:19.409Z</time></trkpt><trkpt lat="43.0303756" lon="13.364671"><ele>496.66666666666663</ele><time>2026-04-04T09:21:21.409Z</time></trkpt><trkpt lat="43.030289" lon="13.3647063"><ele>496.8333333333333</ele><time>2026-04-04T09:21:23.409Z</time></trkpt><trkpt lat="43.0302135" lon="13.3647541"><ele>497.0</ele><time>2026-04-04T09:21:25.409Z</time></trkpt><trkpt lat="43.0301626" lon="13.3648211"><ele>496.99999999999994</ele><time>2026-04-04T09:21:27.409Z</time></trkpt><trkpt lat="43.0301028" lon="13.3648674"><ele>497.0</ele><time>2026-04-04T09:21:29.408Z</time></trkpt><trkpt lat="43.0300307" lon="13.364918"><ele>497.0</ele><time>2026-04-04T09:21:31.408Z</time></trkpt><trkpt lat="43.0299523" lon="13.3649648"><ele>497.0</ele><time>2026-04-04T09:21:33.409Z</time></trkpt><trkpt lat="43.0298657" lon="13.3649951"><ele>496.99999999999994</ele><time>2026-04-04T09:21:35.409Z</time></trkpt><trkpt lat="43.0297982" lon="13.3650478"><ele>497.0</ele><time>2026-04-04T09:21:37.409Z</time></trkpt><trkpt lat="43.0297147" lon="13.3650989"><ele>498.49999999999994</ele><time>2026-04-04T09:21:39.409Z</time></trkpt><trkpt lat="43.0296492" lon="13.3651606"><ele>500.0</ele><time>2026-04-04T09:21:41.409Z</time></trkpt><trkpt lat="43.0295753" lon="13.3652228"><ele>501.5</ele><time>2026-04-04T09:21:43.409Z</time></trkpt><trkpt lat="43.0294946" lon="13.365282"><ele>503.0</ele><time>2026-04-04T09:21:45.409Z</time></trkpt><trkpt lat="43.0294253" lon="13.3653431"><ele>504.49999999999994</ele><time>2026-04-04T09:21:47.409Z</time></trkpt><trkpt lat="43.0293571" lon="13.3653926"><ele>506.0</ele><time>2026-04-04T09:21:49.409Z</time></trkpt><trkpt lat="43.0293" lon="13.3654549"><ele>506.00000000000006</ele><time>2026-04-04T09:21:51.409Z</time></trkpt><trkpt lat="43.0292395" lon="13.3655174"><ele>506.0</ele><time>2026-04-04T09:21:53.409Z</time></trkpt><trkpt lat="43.0291842" lon="13.3655827"><ele>506.00000000000006</ele><time>2026-04-04T09:21:55.409Z</time></trkpt><trkpt lat="43.0291278" lon="13.3656504"><ele>506.00000000000006</ele><time>2026-04-04T09:21:57.409Z</time></trkpt><trkpt lat="43.029068" lon="13.365717"><ele>506.0</ele><time>2026-04-04T09:21:59.409Z</time></trkpt><trkpt lat="43.0290066" lon="13.3657768"><ele>506.00000000000006</ele><time>2026-04-04T09:22:01.409Z</time></trkpt><trkpt lat="43.0289545" lon="13.365841"><ele>506.00000000000006</ele><time>2026-04-04T09:22:03.409Z</time></trkpt><trkpt lat="43.0289105" lon="13.3659077"><ele>505.8333333333333</ele><time>2026-04-04T09:22:05.409Z</time></trkpt><trkpt lat="43.0288717" lon="13.3659831"><ele>505.66666666666663</ele><time>2026-04-04T09:22:07.409Z</time></trkpt><trkpt lat="43.0288376" lon="13.3660587"><ele>505.5</ele><time>2026-04-04T09:22:09.409Z</time></trkpt><trkpt lat="43.0287996" lon="13.3661405"><ele>505.33333333333337</ele><time>2026-04-04T09:22:11.408Z</time></trkpt><trkpt lat="43.0287472" lon="13.3662306"><ele>505.1666666666667</ele><time>2026-04-04T09:22:14.409Z</time></trkpt><trkpt lat="43.0286876" lon="13.3663215"><ele>505.0</ele><time>2026-04-04T09:22:17.409Z</time></trkpt><trkpt lat="43.028653" lon="13.366428"><ele>505.00000000000006</ele><time>2026-04-04T09:22:20.409Z</time></trkpt><trkpt lat="43.0286315" lon="13.3665314"><ele>505.0</ele><time>2026-04-04T09:22:23.409Z</time></trkpt><trkpt lat="43.0286127" lon="13.3666554"><ele>505.0</ele><time>2026-04-04T09:22:26.409Z</time></trkpt><trkpt lat="43.028588" lon="13.366767"><ele>505.0</ele><time>2026-04-04T09:22:29.409Z</time></trkpt><trkpt lat="43.0285576" lon="13.3668542"><ele>505.00000000000006</ele><time>2026-04-04T09:22:32.409Z</time></trkpt><trkpt lat="43.0285311" lon="13.3669596"><ele>505.0</ele><time>2026-04-04T09:22:36.409Z</time></trkpt><trkpt lat="43.0284952" lon="13.3670394"><ele>505.00000000000006</ele><time>2026-04-04T09:22:38.409Z</time></trkpt><trkpt lat="43.0284838" lon="13.3671364"><ele>505.0</ele><time>2026-04-04T09:22:40.409Z</time></trkpt><trkpt lat="43.0284848" lon="13.3672479"><ele>505.0</ele><time>2026-04-04T09:22:42.409Z</time></trkpt><trkpt lat="43.0284748" lon="13.3673418"><ele>505.0</ele><time>2026-04-04T09:22:44.409Z</time></trkpt><trkpt lat="43.0284633" lon="13.3674612"><ele>505.00000000000006</ele><time>2026-04-04T09:22:46.408Z</time></trkpt><trkpt lat="43.0284478" lon="13.3675927"><ele>505.0</ele><time>2026-04-04T09:22:48.409Z</time></trkpt><trkpt lat="43.0284249" lon="13.3676864"><ele>504.83333333333337</ele><time>2026-04-04T09:22:50.409Z</time></trkpt><trkpt lat="43.0283976" lon="13.3677717"><ele>504.6666666666667</ele><time>2026-04-04T09:22:52.409Z</time></trkpt><trkpt lat="43.0283667" lon="13.3678603"><ele>504.5</ele><time>2026-04-04T09:22:54.409Z</time></trkpt><trkpt lat="43.0283225" lon="13.3679287"><ele>504.33333333333337</ele><time>2026-04-04T09:22:56.409Z</time></trkpt><trkpt lat="43.0282487" lon="13.3680123"><ele>504.1666666666667</ele><time>2026-04-04T09:22:59.408Z</time></trkpt><trkpt lat="43.0281762" lon="13.3680739"><ele>504.0</ele><time>2026-04-04T09:23:01.409Z</time></trkpt><trkpt lat="43.0281105" lon="13.3681642"><ele>503.6</ele><time>2026-04-04T09:23:03.409Z</time></trkpt><trkpt lat="43.0280533" lon="13.3682542"><ele>503.2</ele><time>2026-04-04T09:23:05.409Z</time></trkpt><trkpt lat="43.027984" lon="13.3683374"><ele>502.80000000000007</ele><time>2026-04-04T09:23:07.409Z</time></trkpt><trkpt lat="43.0279134" lon="13.3684259"><ele>502.40000000000003</ele><time>2026-04-04T09:23:09.409Z</time></trkpt><trkpt lat="43.0278394" lon="13.3684895"><ele>502.0</ele><time>2026-04-04T09:23:11.409Z</time></trkpt><trkpt lat="43.0277626" lon="13.3685916"><ele>502.0</ele><time>2026-04-04T09:23:13.409Z</time></trkpt><trkpt lat="43.0276671" lon="13.3686636"><ele>502.00000000000006</ele><time>2026-04-04T09:23:15.408Z</time></trkpt><trkpt lat="43.02758" lon="13.3687296"><ele>502.00000000000006</ele><time>2026-04-04T09:23:17.409Z</time></trkpt><trkpt lat="43.0275093" lon="13.3687951"><ele>502.0</ele><time>2026-04-04T09:23:19.409Z</time></trkpt><trkpt lat="43.0274325" lon="13.3688398"><ele>502.0</ele><time>2026-04-04T09:23:21.409Z</time></trkpt><trkpt lat="43.0273493" lon="13.3688733"><ele>502.40000000000003</ele><time>2026-04-04T09:23:23.408Z</time></trkpt><trkpt lat="43.0272737" lon="13.3689318"><ele>502.80000000000007</ele><time>2026-04-04T09:23:25.409Z</time></trkpt><trkpt lat="43.0272013" lon="13.3689983"><ele>503.2</ele><time>2026-04-04T09:23:27.409Z</time></trkpt><trkpt lat="43.0271119" lon="13.3690524"><ele>503.6</ele><time>2026-04-04T09:23:29.409Z</time></trkpt><trkpt lat="43.0270197" lon="13.3691082"><ele>504.0</ele><time>2026-04-04T09:23:31.409Z</time></trkpt><trkpt lat="43.0269283" lon="13.3691805"><ele>504.0</ele><time>2026-04-04T09:23:33.408Z</time></trkpt><trkpt lat="43.0268305" lon="13.369223"><ele>504.0</ele><time>2026-04-04T09:23:35.409Z</time></trkpt><trkpt lat="43.0267377" lon="13.3692333"><ele>504.0</ele><time>2026-04-04T09:23:37.409Z</time></trkpt><trkpt lat="43.026652" lon="13.3692323"><ele>504.0</ele><time>2026-04-04T09:23:39.409Z</time></trkpt><trkpt lat="43.026565" lon="13.3692315"><ele>504.0</ele><time>2026-04-04T09:23:41.409Z</time></trkpt><trkpt lat="43.026481" lon="13.3692372"><ele>504.3333333333333</ele><time>2026-04-04T09:23:43.409Z</time></trkpt><trkpt lat="43.0264158" lon="13.3692245"><ele>504.66666666666663</ele><time>2026-04-04T09:23:45.409Z</time></trkpt><trkpt lat="43.0263514" lon="13.3692782"><ele>505.0</ele><time>2026-04-04T09:23:47.409Z</time></trkpt><trkpt lat="43.0262773" lon="13.3693014"><ele>505.3333333333333</ele><time>2026-04-04T09:23:49.409Z</time></trkpt><trkpt lat="43.0262017" lon="13.3693269"><ele>505.66666666666663</ele><time>2026-04-04T09:23:51.409Z</time></trkpt><trkpt lat="43.0261294" lon="13.3693758"><ele>506.0</ele><time>2026-04-04T09:23:53.408Z</time></trkpt><trkpt lat="43.0260589" lon="13.3694174"><ele>505.99999999999994</ele><time>2026-04-04T09:23:55.408Z</time></trkpt><trkpt lat="43.025987" lon="13.3694533"><ele>506.0</ele><time>2026-04-04T09:23:57.409Z</time></trkpt><trkpt lat="43.0259151" lon="13.3695049"><ele>506.0</ele><time>2026-04-04T09:23:59.409Z</time></trkpt><trkpt lat="43.0258498" lon="13.369536"><ele>506.0</ele><time>2026-04-04T09:24:01.409Z</time></trkpt><trkpt lat="43.0257729" lon="13.3695823"><ele>505.99999999999994</ele><time>2026-04-04T09:24:03.409Z</time></trkpt><trkpt lat="43.025708" lon="13.3696381"><ele>506.0</ele><time>2026-04-04T09:24:05.409Z</time></trkpt><trkpt lat="43.0256396" lon="13.3696761"><ele>507.16666666666663</ele><time>2026-04-04T09:24:07.409Z</time></trkpt><trkpt lat="43.0255849" lon="13.3697436"><ele>508.3333333333333</ele><time>2026-04-04T09:24:09.409Z</time></trkpt><trkpt lat="43.0255204" lon="13.3698123"><ele>509.5</ele><time>2026-04-04T09:24:11.409Z</time></trkpt><trkpt lat="43.0254485" lon="13.3698627"><ele>510.66666666666663</ele><time>2026-04-04T09:24:13.409Z</time></trkpt><trkpt lat="43.0253822" lon="13.3699199"><ele>511.8333333333333</ele><time>2026-04-04T09:24:15.409Z</time></trkpt><trkpt lat="43.0253108" lon="13.3699467"><ele>513.0</ele><time>2026-04-04T09:24:17.409Z</time></trkpt><trkpt lat="43.0252504" lon="13.3699981"><ele>513.0000000000001</ele><time>2026-04-04T09:24:19.408Z</time></trkpt><trkpt lat="43.025189" lon="13.370044"><ele>513.0</ele><time>2026-04-04T09:24:21.409Z</time></trkpt><trkpt lat="43.0251099" lon="13.3700844"><ele>513.0</ele><time>2026-04-04T09:24:23.409Z</time></trkpt><trkpt lat="43.0250404" lon="13.3701034"><ele>513.0</ele><time>2026-04-04T09:24:25.409Z</time></trkpt><trkpt lat="43.0249732" lon="13.3701316"><ele>513.0</ele><time>2026-04-04T09:24:27.409Z</time></trkpt><trkpt lat="43.0249091" lon="13.3701668"><ele>513.0000000000001</ele><time>2026-04-04T09:24:29.409Z</time></trkpt><trkpt lat="43.0248398" lon="13.3701979"><ele>513.0</ele><time>2026-04-04T09:24:31.409Z</time></trkpt><trkpt lat="43.02477" lon="13.3702252"><ele>513.5714285714287</ele><time>2026-04-04T09:24:33.409Z</time></trkpt><trkpt lat="43.0246992" lon="13.3702437"><ele>514.1428571428571</ele><time>2026-04-04T09:24:35.409Z</time></trkpt><trkpt lat="43.0246314" lon="13.3702495"><ele>514.7142857142858</ele><time>2026-04-04T09:24:37.409Z</time></trkpt><trkpt lat="43.0245391" lon="13.3702416"><ele>515.2857142857143</ele><time>2026-04-04T09:24:40.409Z</time></trkpt><trkpt lat="43.0244755" lon="13.3702224"><ele>515.8571428571429</ele><time>2026-04-04T09:24:42.409Z</time></trkpt><trkpt lat="43.0244134" lon="13.3702007"><ele>516.4285714285714</ele><time>2026-04-04T09:24:44.409Z</time></trkpt><trkpt lat="43.0243473" lon="13.3701659"><ele>517.0</ele><time>2026-04-04T09:24:46.409Z</time></trkpt><trkpt lat="43.0242847" lon="13.3701347"><ele>517.0</ele><time>2026-04-04T09:24:48.409Z</time></trkpt><trkpt lat="43.0242004" lon="13.3701"><ele>517.0</ele><time>2026-04-04T09:24:51.409Z</time></trkpt><trkpt lat="43.0241306" lon="13.3700904"><ele>517.0</ele><time>2026-04-04T09:24:53.409Z</time></trkpt><trkpt lat="43.0240591" lon="13.3700862"><ele>517.0</ele><time>2026-04-04T09:24:55.409Z</time></trkpt><trkpt lat="43.0239942" lon="13.3700912"><ele>517.0</ele><time>2026-04-04T09:24:57.409Z</time></trkpt><trkpt lat="43.0239269" lon="13.3700851"><ele>517.0</ele><time>2026-04-04T09:24:59.409Z</time></trkpt><trkpt lat="43.0238568" lon="13.3700635"><ele>517.0</ele><time>2026-04-04T09:25:01.408Z</time></trkpt><trkpt lat="43.0237701" lon="13.3700282"><ele>517.7142857142858</ele><time>2026-04-04T09:25:04.409Z</time></trkpt><trkpt lat="43.0237086" lon="13.3699936"><ele>518.4285714285714</ele><time>2026-04-04T09:25:06.409Z</time></trkpt><trkpt lat="43.0236522" lon="13.3699461"><ele>519.1428571428571</ele><time>2026-04-04T09:25:08.409Z</time></trkpt><trkpt lat="43.0235928" lon="13.3699069"><ele>519.8571428571429</ele><time>2026-04-04T09:25:10.409Z</time></trkpt><trkpt lat="43.0235268" lon="13.3698558"><ele>520.5714285714286</ele><time>2026-04-04T09:25:13.409Z</time></trkpt><trkpt lat="43.0234504" lon="13.3698058"><ele>521.2857142857143</ele><time>2026-04-04T09:25:16.409Z</time></trkpt><trkpt lat="43.0233717" lon="13.3697796"><ele>522.0</ele><time>2026-04-04T09:25:19.409Z</time></trkpt><trkpt lat="43.0232825" lon="13.3697563"><ele>523.5</ele><time>2026-04-04T09:25:22.409Z</time></trkpt><trkpt lat="43.0231954" lon="13.3697498"><ele>525.0</ele><time>2026-04-04T09:25:25.409Z</time></trkpt><trkpt lat="43.0231104" lon="13.3697732"><ele>526.5</ele><time>2026-04-04T09:25:28.409Z</time></trkpt><trkpt lat="43.0230367" lon="13.3698191"><ele>528.0</ele><time>2026-04-04T09:25:31.409Z</time></trkpt><trkpt lat="43.0229613" lon="13.3698308"><ele>529.5</ele><time>2026-04-04T09:25:36.409Z</time></trkpt><trkpt lat="43.0228848" lon="13.3698049"><ele>531.0</ele><time>2026-04-04T09:25:40.409Z</time></trkpt><trkpt lat="43.0228106" lon="13.369781"><ele>531.0</ele><time>2026-04-04T09:25:44.409Z</time></trkpt><trkpt lat="43.0227317" lon="13.3697632"><ele>531.0</ele><time>2026-04-04T09:25:48.409Z</time></trkpt><trkpt lat="43.0226708" lon="13.369798"><ele>531.0</ele><time>2026-04-04T09:25:51.409Z</time></trkpt><trkpt lat="43.0226027" lon="13.3698285"><ele>531.0</ele><time>2026-04-04T09:25:55.409Z</time></trkpt><trkpt lat="43.0225337" lon="13.3698495"><ele>531.0</ele><time>2026-04-04T09:25:59.409Z</time></trkpt><trkpt lat="43.0224563" lon="13.3698381"><ele>531.0</ele><time>2026-04-04T09:26:03.409Z</time></trkpt><trkpt lat="43.0223772" lon="13.3698587"><ele>531.0</ele><time>2026-04-04T09:26:07.409Z</time></trkpt><trkpt lat="43.0223138" lon="13.3698903"><ele>531.2857142857143</ele><time>2026-04-04T09:26:10.409Z</time></trkpt><trkpt lat="43.0222529" lon="13.3699129"><ele>531.5714285714287</ele><time>2026-04-04T09:26:13.408Z</time></trkpt><trkpt lat="43.0221864" lon="13.3699204"><ele>531.8571428571429</ele><time>2026-04-04T09:26:16.409Z</time></trkpt><trkpt lat="43.0221135" lon="13.3699374"><ele>532.1428571428571</ele><time>2026-04-04T09:26:20.409Z</time></trkpt><trkpt lat="43.0220345" lon="13.3699457"><ele>532.4285714285713</ele><time>2026-04-04T09:26:25.409Z</time></trkpt><trkpt lat="43.0219644" lon="13.3699568"><ele>532.7142857142857</ele><time>2026-04-04T09:26:29.409Z</time></trkpt><trkpt lat="43.0218878" lon="13.3700179"><ele>533.0</ele><time>2026-04-04T09:26:33.408Z</time></trkpt><trkpt lat="43.0218176" lon="13.3700715"><ele>533.0</ele><time>2026-04-04T09:26:37.409Z</time></trkpt><trkpt lat="43.0217567" lon="13.3701135"><ele>533.0</ele><time>2026-04-04T09:26:40.409Z</time></trkpt><trkpt lat="43.021679" lon="13.3701484"><ele>533.0</ele><time>2026-04-04T09:26:43.409Z</time></trkpt><trkpt lat="43.0216154" lon="13.3701791"><ele>533.0</ele><time>2026-04-04T09:26:46.409Z</time></trkpt><trkpt lat="43.0215534" lon="13.3702039"><ele>533.0</ele><time>2026-04-04T09:26:49.409Z</time></trkpt><trkpt lat="43.0214916" lon="13.3702438"><ele>533.0</ele><time>2026-04-04T09:26:52.409Z</time></trkpt><trkpt lat="43.0214342" lon="13.3702816"><ele>533.0</ele><time>2026-04-04T09:26:55.409Z</time></trkpt><trkpt lat="43.0213716" lon="13.3703121"><ele>533.7142857142857</ele><time>2026-04-04T09:26:58.409Z</time></trkpt><trkpt lat="43.0213022" lon="13.3703361"><ele>534.4285714285713</ele><time>2026-04-04T09:27:01.409Z</time></trkpt><trkpt lat="43.0212363" lon="13.3703845"><ele>535.1428571428571</ele><time>2026-04-04T09:27:04.409Z</time></trkpt><trkpt lat="43.0211774" lon="13.370443"><ele>535.8571428571429</ele><time>2026-04-04T09:27:07.409Z</time></trkpt><trkpt lat="43.0211222" lon="13.3704884"><ele>536.5714285714287</ele><time>2026-04-04T09:27:10.409Z</time></trkpt><trkpt lat="43.0210416" lon="13.3705291"><ele>537.2857142857143</ele><time>2026-04-04T09:27:14.409Z</time></trkpt><trkpt lat="43.0209748" lon="13.3705585"><ele>538.0</ele><time>2026-04-04T09:27:17.409Z</time></trkpt><trkpt lat="43.0209018" lon="13.3705946"><ele>538.1428571428571</ele><time>2026-04-04T09:27:20.409Z</time></trkpt><trkpt lat="43.0208286" lon="13.3706437"><ele>538.2857142857143</ele><time>2026-04-04T09:27:24.409Z</time></trkpt><trkpt lat="43.0207656" lon="13.3706891"><ele>538.4285714285714</ele><time>2026-04-04T09:27:27.409Z</time></trkpt><trkpt lat="43.0206965" lon="13.3707219"><ele>538.5714285714286</ele><time>2026-04-04T09:27:30.409Z</time></trkpt><trkpt lat="43.0206304" lon="13.3707471"><ele>538.7142857142858</ele><time>2026-04-04T09:27:33.409Z</time></trkpt><trkpt lat="43.0205658" lon="13.3707568"><ele>538.8571428571429</ele><time>2026-04-04T09:27:36.409Z</time></trkpt><trkpt lat="43.0204884" lon="13.370736"><ele>539.0</ele><time>2026-04-04T09:27:40.409Z</time></trkpt><trkpt lat="43.0204093" lon="13.3706967"><ele>539.0</ele><time>2026-04-04T09:27:43.409Z</time></trkpt><trkpt lat="43.020327" lon="13.3706716"><ele>539.0</ele><time>2026-04-04T09:27:48.409Z</time></trkpt><trkpt lat="43.0202584" lon="13.3706946"><ele>539.0</ele><time>2026-04-04T09:27:51.409Z</time></trkpt><trkpt lat="43.0201682" lon="13.3707421"><ele>539.0</ele><time>2026-04-04T09:27:54.409Z</time></trkpt><trkpt lat="43.0200924" lon="13.3707552"><ele>539.0</ele><time>2026-04-04T09:27:56.409Z</time></trkpt><trkpt lat="43.0200345" lon="13.3707093"><ele>539.0</ele><time>2026-04-04T09:27:57.409Z</time></trkpt><trkpt lat="43.019928" lon="13.3706621"><ele>539.2</ele><time>2026-04-04T09:27:59.409Z</time></trkpt><trkpt lat="43.0198643" lon="13.3706356"><ele>539.4</ele><time>2026-04-04T09:28:00.409Z</time></trkpt><trkpt lat="43.019743" lon="13.3706035"><ele>539.6</ele><time>2026-04-04T09:28:02.408Z</time></trkpt><trkpt lat="43.0196097" lon="13.370596"><ele>539.8</ele><time>2026-04-04T09:28:04.409Z</time></trkpt><trkpt lat="43.0195367" lon="13.3706169"><ele>540.0</ele><time>2026-04-04T09:28:05.409Z</time></trkpt><trkpt lat="43.0194667" lon="13.3706391"><ele>540.0</ele><time>2026-04-04T09:28:06.409Z</time></trkpt><trkpt lat="43.0193797" lon="13.3706627"><ele>540.0</ele><time>2026-04-04T09:28:07.409Z</time></trkpt><trkpt lat="43.0193086" lon="13.3706933"><ele>540.0</ele><time>2026-04-04T09:28:08.409Z</time></trkpt><trkpt lat="43.0192403" lon="13.3707307"><ele>540.0</ele><time>2026-04-04T09:28:09.409Z</time></trkpt><trkpt lat="43.0191775" lon="13.3707693"><ele>540.0</ele><time>2026-04-04T09:28:10.409Z</time></trkpt><trkpt lat="43.0191049" lon="13.370802"><ele>540.0</ele><time>2026-04-04T09:28:11.409Z</time></trkpt><trkpt lat="43.0190392" lon="13.370838"><ele>540.8333333333334</ele><time>2026-04-04T09:28:12.409Z</time></trkpt><trkpt lat="43.0189735" lon="13.3708916"><ele>541.6666666666666</ele><time>2026-04-04T09:28:13.409Z</time></trkpt><trkpt lat="43.0189118" lon="13.3709279"><ele>542.5</ele><time>2026-04-04T09:28:14.409Z</time></trkpt><trkpt lat="43.0189033" lon="13.3710316"><ele>543.3333333333333</ele><time>2026-04-04T09:28:15.408Z</time></trkpt><trkpt lat="43.0188631" lon="13.3711795"><ele>544.1666666666666</ele><time>2026-04-04T09:28:17.409Z</time></trkpt><trkpt lat="43.0188672" lon="13.3713158"><ele>545.0</ele><time>2026-04-04T09:28:19.409Z</time></trkpt><trkpt lat="43.0189231" lon="13.3714082"><ele>542.3333333333333</ele><time>2026-04-04T09:28:20.409Z</time></trkpt><trkpt lat="43.0189498" lon="13.3715383"><ele>539.6666666666666</ele><time>2026-04-04T09:28:22.408Z</time></trkpt><trkpt lat="43.0190008" lon="13.3716499"><ele>537.0</ele><time>2026-04-04T09:28:24.409Z</time></trkpt><trkpt lat="43.0190961" lon="13.3717342"><ele>534.3333333333334</ele><time>2026-04-04T09:28:26.409Z</time></trkpt><trkpt lat="43.0191667" lon="13.3717277"><ele>531.6666666666667</ele><time>2026-04-04T09:28:27.409Z</time></trkpt><trkpt lat="43.0192354" lon="13.3717405"><ele>529.0</ele><time>2026-04-04T09:28:28.408Z</time></trkpt><trkpt lat="43.0193024" lon="13.3717583"><ele>528.5</ele><time>2026-04-04T09:28:29.409Z</time></trkpt><trkpt lat="43.0193673" lon="13.3717881"><ele>528.0</ele><time>2026-04-04T09:28:30.409Z</time></trkpt><trkpt lat="43.0194321" lon="13.371811"><ele>527.5</ele><time>2026-04-04T09:28:31.409Z</time></trkpt><trkpt lat="43.0195252" lon="13.3718272"><ele>527.0</ele><time>2026-04-04T09:28:32.408Z</time></trkpt><trkpt lat="43.0195967" lon="13.3718412"><ele>526.5</ele><time>2026-04-04T09:28:33.409Z</time></trkpt><trkpt lat="43.0196898" lon="13.3718418"><ele>526.0</ele><time>2026-04-04T09:28:34.409Z</time></trkpt><trkpt lat="43.0197587" lon="13.3718547"><ele>526.0</ele><time>2026-04-04T09:28:35.409Z</time></trkpt><trkpt lat="43.0198287" lon="13.371862"><ele>526.0</ele><time>2026-04-04T09:28:36.409Z</time></trkpt><trkpt lat="43.0198974" lon="13.371876"><ele>526.0</ele><time>2026-04-04T09:28:37.408Z</time></trkpt><trkpt lat="43.019966" lon="13.3719191"><ele>526.0</ele><time>2026-04-04T09:28:38.409Z</time></trkpt><trkpt lat="43.0200907" lon="13.3719471"><ele>526.0</ele><time>2026-04-04T09:28:40.409Z</time></trkpt><trkpt lat="43.0201869" lon="13.371975"><ele>526.0</ele><time>2026-04-04T09:28:42.409Z</time></trkpt><trkpt lat="43.0202531" lon="13.372017"><ele>525.8</ele><time>2026-04-04T09:28:43.409Z</time></trkpt><trkpt lat="43.020314" lon="13.3720717"><ele>525.6</ele><time>2026-04-04T09:28:44.409Z</time></trkpt><trkpt lat="43.0203856" lon="13.3721776"><ele>525.4</ele><time>2026-04-04T09:28:46.409Z</time></trkpt><trkpt lat="43.0204269" lon="13.3723163"><ele>525.2</ele><time>2026-04-04T09:28:48.409Z</time></trkpt><trkpt lat="43.0204335" lon="13.3724578"><ele>525.0</ele><time>2026-04-04T09:28:50.409Z</time></trkpt><trkpt lat="43.0204235" lon="13.3725719"><ele>523.5</ele><time>2026-04-04T09:28:52.409Z</time></trkpt><trkpt lat="43.0204048" lon="13.3726877"><ele>522.0</ele><time>2026-04-04T09:28:54.409Z</time></trkpt><trkpt lat="43.0203775" lon="13.3728105"><ele>520.5</ele><time>2026-04-04T09:28:56.409Z</time></trkpt><trkpt lat="43.0203718" lon="13.37291"><ele>519.0</ele><time>2026-04-04T09:28:58.408Z</time></trkpt><trkpt lat="43.0203458" lon="13.3730162"><ele>517.5</ele><time>2026-04-04T09:29:00.409Z</time></trkpt><trkpt lat="43.0203301" lon="13.3731361"><ele>516.0</ele><time>2026-04-04T09:29:02.409Z</time></trkpt><trkpt lat="43.0203155" lon="13.3732216"><ele>514.6</ele><time>2026-04-04T09:29:03.409Z</time></trkpt><trkpt lat="43.020307" lon="13.3733603"><ele>513.2</ele><time>2026-04-04T09:29:05.409Z</time></trkpt><trkpt lat="43.0202982" lon="13.3735017"><ele>511.79999999999995</ele><time>2026-04-04T09:29:07.409Z</time></trkpt><trkpt lat="43.020309" lon="13.37364"><ele>510.4</ele><time>2026-04-04T09:29:09.409Z</time></trkpt><trkpt lat="43.0202882" lon="13.373807"><ele>509.0</ele><time>2026-04-04T09:29:11.409Z</time></trkpt><trkpt lat="43.0202745" lon="13.3739488"><ele>508.66666666666663</ele><time>2026-04-04T09:29:13.408Z</time></trkpt><trkpt lat="43.020263" lon="13.3740802"><ele>508.3333333333333</ele><time>2026-04-04T09:29:15.409Z</time></trkpt><trkpt lat="43.020252" lon="13.3742017"><ele>508.0</ele><time>2026-04-04T09:29:17.409Z</time></trkpt><trkpt lat="43.0202774" lon="13.3742929"><ele>507.66666666666663</ele><time>2026-04-04T09:29:19.409Z</time></trkpt><trkpt lat="43.0203335" lon="13.3744252"><ele>507.3333333333333</ele><time>2026-04-04T09:29:21.409Z</time></trkpt><trkpt lat="43.0203518" lon="13.3745134"><ele>507.0</ele><time>2026-04-04T09:29:23.409Z</time></trkpt><trkpt lat="43.0203905" lon="13.3746211"><ele>506.20000000000005</ele><time>2026-04-04T09:29:25.409Z</time></trkpt><trkpt lat="43.0203892" lon="13.3747705"><ele>505.40000000000003</ele><time>2026-04-04T09:29:27.409Z</time></trkpt><trkpt lat="43.0203554" lon="13.3748443"><ele>504.59999999999997</ele><time>2026-04-04T09:29:28.409Z</time></trkpt><trkpt lat="43.0203326" lon="13.3749777"><ele>503.79999999999995</ele><time>2026-04-04T09:29:30.409Z</time></trkpt><trkpt lat="43.0203304" lon="13.3751248"><ele>503.0</ele><time>2026-04-04T09:29:32.409Z</time></trkpt><trkpt lat="43.0203428" lon="13.3752779"><ele>503.0</ele><time>2026-04-04T09:29:34.409Z</time></trkpt><trkpt lat="43.0203622" lon="13.3754495"><ele>502.99999999999994</ele><time>2026-04-04T09:29:36.409Z</time></trkpt><trkpt lat="43.0203783" lon="13.3755406"><ele>502.99999999999994</ele><time>2026-04-04T09:29:37.409Z</time></trkpt><trkpt lat="43.0203991" lon="13.375628"><ele>503.0</ele><time>2026-04-04T09:29:38.408Z</time></trkpt><trkpt lat="43.0204384" lon="13.3757915"><ele>503.0</ele><time>2026-04-04T09:29:40.409Z</time></trkpt><trkpt lat="43.0204609" lon="13.3759126"><ele>502.8333333333333</ele><time>2026-04-04T09:29:41.409Z</time></trkpt><trkpt lat="43.0204579" lon="13.3760116"><ele>502.66666666666663</ele><time>2026-04-04T09:29:42.409Z</time></trkpt><trkpt lat="43.0204327" lon="13.3760914"><ele>502.5</ele><time>2026-04-04T09:29:43.409Z</time></trkpt><trkpt lat="43.0204042" lon="13.3761736"><ele>502.33333333333337</ele><time>2026-04-04T09:29:44.409Z</time></trkpt><trkpt lat="43.0203321" lon="13.376297"><ele>502.1666666666667</ele><time>2026-04-04T09:29:46.409Z</time></trkpt><trkpt lat="43.0202635" lon="13.3763817"><ele>502.0</ele><time>2026-04-04T09:29:48.409Z</time></trkpt><trkpt lat="43.0201868" lon="13.3764539"><ele>502.8</ele><time>2026-04-04T09:29:50.409Z</time></trkpt><trkpt lat="43.020098" lon="13.3765483"><ele>503.6</ele><time>2026-04-04T09:29:52.409Z</time></trkpt><trkpt lat="43.0200137" lon="13.3766165"><ele>504.40000000000003</ele><time>2026-04-04T09:29:54.409Z</time></trkpt><trkpt lat="43.0199363" lon="13.3767109"><ele>505.20000000000005</ele><time>2026-04-04T09:29:56.409Z</time></trkpt><trkpt lat="43.0198492" lon="13.3768015"><ele>506.0</ele><time>2026-04-04T09:29:58.409Z</time></trkpt><trkpt lat="43.019766" lon="13.3768741"><ele>504.8</ele><time>2026-04-04T09:30:00.409Z</time></trkpt><trkpt lat="43.0196951" lon="13.3769548"><ele>503.6</ele><time>2026-04-04T09:30:02.409Z</time></trkpt><trkpt lat="43.0196236" lon="13.3770348"><ele>502.4</ele><time>2026-04-04T09:30:04.409Z</time></trkpt><trkpt lat="43.0195473" lon="13.3771071"><ele>501.2</ele><time>2026-04-04T09:30:06.409Z</time></trkpt><trkpt lat="43.0194755" lon="13.3771874"><ele>500.0</ele><time>2026-04-04T09:30:08.408Z</time></trkpt><trkpt lat="43.0193926" lon="13.3772734"><ele>500.0</ele><time>2026-04-04T09:30:10.409Z</time></trkpt><trkpt lat="43.019309" lon="13.3773697"><ele>500.0</ele><time>2026-04-04T09:30:12.409Z</time></trkpt><trkpt lat="43.0192302" lon="13.3774852"><ele>500.0</ele><time>2026-04-04T09:30:14.409Z</time></trkpt><trkpt lat="43.0191682" lon="13.377633"><ele>500.0</ele><time>2026-04-04T09:30:16.409Z</time></trkpt><trkpt lat="43.0191415" lon="13.3777155"><ele>500.0</ele><time>2026-04-04T09:30:17.409Z</time></trkpt><trkpt lat="43.0191256" lon="13.3778079"><ele>497.3333333333333</ele><time>2026-04-04T09:30:18.409Z</time></trkpt><trkpt lat="43.0191055" lon="13.3779064"><ele>494.66666666666663</ele><time>2026-04-04T09:30:19.409Z</time></trkpt><trkpt lat="43.0190798" lon="13.3780093"><ele>492.0</ele><time>2026-04-04T09:30:20.409Z</time></trkpt><trkpt lat="43.0190519" lon="13.3781079"><ele>489.33333333333337</ele><time>2026-04-04T09:30:21.409Z</time></trkpt><trkpt lat="43.0190211" lon="13.3782165"><ele>486.6666666666667</ele><time>2026-04-04T09:30:22.408Z</time></trkpt><trkpt lat="43.0189962" lon="13.3783336"><ele>484.0</ele><time>2026-04-04T09:30:23.409Z</time></trkpt><trkpt lat="43.0189605" lon="13.3784454"><ele>484.00000000000006</ele><time>2026-04-04T09:30:24.409Z</time></trkpt><trkpt lat="43.0189266" lon="13.3785553"><ele>484.0</ele><time>2026-04-04T09:30:25.409Z</time></trkpt><trkpt lat="43.0188537" lon="13.3786311"><ele>484.0</ele><time>2026-04-04T09:30:26.409Z</time></trkpt><trkpt lat="43.018769" lon="13.3786877"><ele>484.0</ele><time>2026-04-04T09:30:27.409Z</time></trkpt><trkpt lat="43.0186833" lon="13.3787297"><ele>484.00000000000006</ele><time>2026-04-04T09:30:28.409Z</time></trkpt><trkpt lat="43.0186076" lon="13.3787598"><ele>484.0</ele><time>2026-04-04T09:30:29.409Z</time></trkpt><trkpt lat="43.0185299" lon="13.3787812"><ele>484.00000000000006</ele><time>2026-04-04T09:30:30.409Z</time></trkpt><trkpt lat="43.018456" lon="13.3787951"><ele>484.0</ele><time>2026-04-04T09:30:31.409Z</time></trkpt><trkpt lat="43.0183774" lon="13.3787992"><ele>484.0</ele><time>2026-04-04T09:30:32.409Z</time></trkpt><trkpt lat="43.0183087" lon="13.3788204"><ele>484.0</ele><time>2026-04-04T09:30:33.409Z</time></trkpt><trkpt lat="43.0182415" lon="13.3788562"><ele>484.00000000000006</ele><time>2026-04-04T09:30:34.409Z</time></trkpt><trkpt lat="43.0181707" lon="13.3788945"><ele>484.0</ele><time>2026-04-04T09:30:35.409Z</time></trkpt><trkpt lat="43.018113" lon="13.3790145"><ele>481.83333333333337</ele><time>2026-04-04T09:30:36.409Z</time></trkpt><trkpt lat="43.0180705" lon="13.3790855"><ele>479.6666666666667</ele><time>2026-04-04T09:30:37.409Z</time></trkpt><trkpt lat="43.0180081" lon="13.379169"><ele>477.5</ele><time>2026-04-04T09:30:38.409Z</time></trkpt><trkpt lat="43.0179584" lon="13.3792595"><ele>475.33333333333337</ele><time>2026-04-04T09:30:39.409Z</time></trkpt><trkpt lat="43.0179031" lon="13.3793504"><ele>473.1666666666667</ele><time>2026-04-04T09:30:40.409Z</time></trkpt><trkpt lat="43.0178662" lon="13.3794584"><ele>471.0</ele><time>2026-04-04T09:30:41.409Z</time></trkpt><trkpt lat="43.0178422" lon="13.3795672"><ele>472.0</ele><time>2026-04-04T09:30:42.409Z</time></trkpt><trkpt lat="43.0178326" lon="13.3796953"><ele>473.0</ele><time>2026-04-04T09:30:43.409Z</time></trkpt><trkpt lat="43.017829" lon="13.3798035"><ele>474.0</ele><time>2026-04-04T09:30:44.409Z</time></trkpt><trkpt lat="43.0178278" lon="13.3799248"><ele>475.0</ele><time>2026-04-04T09:30:45.409Z</time></trkpt><trkpt lat="43.0178479" lon="13.3800562"><ele>476.0</ele><time>2026-04-04T09:30:46.409Z</time></trkpt><trkpt lat="43.01784" lon="13.3801875"><ele>476.0</ele><time>2026-04-04T09:30:47.409Z</time></trkpt><trkpt lat="43.017883" lon="13.3802851"><ele>476.0</ele><time>2026-04-04T09:30:48.409Z</time></trkpt><trkpt lat="43.0179252" lon="13.3803913"><ele>476.0</ele><time>2026-04-04T09:30:49.409Z</time></trkpt><trkpt lat="43.0179716" lon="13.3804932"><ele>476.0</ele><time>2026-04-04T09:30:50.408Z</time></trkpt><trkpt lat="43.0180145" lon="13.3805923"><ele>476.0</ele><time>2026-04-04T09:30:51.409Z</time></trkpt><trkpt lat="43.0179745" lon="13.3807492"><ele>475.16666666666663</ele><time>2026-04-04T09:30:53.409Z</time></trkpt><trkpt lat="43.0179364" lon="13.3808205"><ele>474.3333333333333</ele><time>2026-04-04T09:30:54.408Z</time></trkpt><trkpt lat="43.0178464" lon="13.3808346"><ele>473.5</ele><time>2026-04-04T09:30:55.408Z</time></trkpt><trkpt lat="43.0177617" lon="13.3808574"><ele>472.66666666666663</ele><time>2026-04-04T09:30:56.409Z</time></trkpt><trkpt lat="43.0176809" lon="13.380891"><ele>471.8333333333333</ele><time>2026-04-04T09:30:57.409Z</time></trkpt><trkpt lat="43.0176138" lon="13.380889"><ele>471.0</ele><time>2026-04-04T09:30:58.409Z</time></trkpt><trkpt lat="43.0175369" lon="13.3808684"><ele>468.8333333333333</ele><time>2026-04-04T09:30:59.409Z</time></trkpt><trkpt lat="43.0174187" lon="13.3808726"><ele>466.66666666666663</ele><time>2026-04-04T09:31:01.409Z</time></trkpt><trkpt lat="43.0173303" lon="13.380819"><ele>464.5</ele><time>2026-04-04T09:31:03.409Z</time></trkpt><trkpt lat="43.0172604" lon="13.3807823"><ele>462.3333333333333</ele><time>2026-04-04T09:31:05.409Z</time></trkpt><trkpt lat="43.0171829" lon="13.3807454"><ele>460.16666666666663</ele><time>2026-04-04T09:31:07.409Z</time></trkpt><trkpt lat="43.0171244" lon="13.3807129"><ele>458.0</ele><time>2026-04-04T09:31:09.409Z</time></trkpt><trkpt lat="43.0170689" lon="13.3806708"><ele>447.0</ele><time>2026-04-04T09:31:11.409Z</time></trkpt><trkpt lat="43.016095" lon="13.3809421"><ele>447.0</ele><time>2026-04-04T09:32:16.409Z</time></trkpt><trkpt lat="43.0160528" lon="13.3811504"><ele>447.0</ele><time>2026-04-04T09:32:19.409Z</time></trkpt><trkpt lat="43.0162649" lon="13.3816617"><ele>447.0</ele><time>2026-04-04T09:32:26.409Z</time></trkpt><trkpt lat="43.0162753" lon="13.3817472"><ele>447.0</ele><time>2026-04-04T09:32:27.409Z</time></trkpt><trkpt lat="43.0162493" lon="13.3819033"><ele>447.0</ele><time>2026-04-04T09:32:29.409Z</time></trkpt><trkpt lat="43.016122" lon="13.3820952"><ele>447.0</ele><time>2026-04-04T09:32:32.409Z</time></trkpt><trkpt lat="43.0159398" lon="13.382405"><ele>446.0</ele><time>2026-04-04T09:32:36.409Z</time></trkpt><trkpt lat="43.0158917" lon="13.3824704"><ele>445.00000000000006</ele><time>2026-04-04T09:32:37.409Z</time></trkpt><trkpt lat="43.015793" lon="13.382574"><ele>444.00000000000006</ele><time>2026-04-04T09:32:39.409Z</time></trkpt><trkpt lat="43.0157026" lon="13.3826926"><ele>443.0</ele><time>2026-04-04T09:32:41.409Z</time></trkpt><trkpt lat="43.0156462" lon="13.3827462"><ele>442.0</ele><time>2026-04-04T09:32:42.409Z</time></trkpt><trkpt lat="43.0155723" lon="13.3828863"><ele>440.14285714285717</ele><time>2026-04-04T09:32:44.409Z</time></trkpt><trkpt lat="43.0155266" lon="13.3829655"><ele>438.2857142857143</ele><time>2026-04-04T09:32:45.409Z</time></trkpt><trkpt lat="43.0154864" lon="13.3830514"><ele>436.42857142857144</ele><time>2026-04-04T09:32:46.409Z</time></trkpt><trkpt lat="43.015446" lon="13.3831255"><ele>434.57142857142856</ele><time>2026-04-04T09:32:47.409Z</time></trkpt><trkpt lat="43.0154077" lon="13.3832082"><ele>432.7142857142857</ele><time>2026-04-04T09:32:48.409Z</time></trkpt><trkpt lat="43.0153674" lon="13.3832957"><ele>430.8571428571429</ele><time>2026-04-04T09:32:49.409Z</time></trkpt><trkpt lat="43.0153147" lon="13.3833827"><ele>429.0</ele><time>2026-04-04T09:32:50.409Z</time></trkpt><trkpt lat="43.0152862" lon="13.3834675"><ele>428.3333333333333</ele><time>2026-04-04T09:32:51.409Z</time></trkpt><trkpt lat="43.0152572" lon="13.3835677"><ele>427.66666666666663</ele><time>2026-04-04T09:32:52.409Z</time></trkpt><trkpt lat="43.0152245" lon="13.3836639"><ele>427.0</ele><time>2026-04-04T09:32:53.409Z</time></trkpt><trkpt lat="43.0151991" lon="13.3837791"><ele>426.3333333333333</ele><time>2026-04-04T09:32:54.409Z</time></trkpt><trkpt lat="43.015172" lon="13.383886"><ele>425.66666666666663</ele><time>2026-04-04T09:32:55.409Z</time></trkpt><trkpt lat="43.0151472" lon="13.3839918"><ele>425.0</ele><time>2026-04-04T09:32:56.409Z</time></trkpt><trkpt lat="43.0151202" lon="13.3841007"><ele>425.0</ele><time>2026-04-04T09:32:57.408Z</time></trkpt><trkpt lat="43.0150791" lon="13.3842265"><ele>425.0</ele><time>2026-04-04T09:32:58.409Z</time></trkpt><trkpt lat="43.01506" lon="13.3843229"><ele>425.0</ele><time>2026-04-04T09:32:59.409Z</time></trkpt><trkpt lat="43.015006" lon="13.3844784"><ele>425.0</ele><time>2026-04-04T09:33:01.409Z</time></trkpt><trkpt lat="43.0149546" lon="13.3846049"><ele>425.0</ele><time>2026-04-04T09:33:03.409Z</time></trkpt><trkpt lat="43.0149043" lon="13.3847216"><ele>421.3333333333333</ele><time>2026-04-04T09:33:05.409Z</time></trkpt><trkpt lat="43.0148458" lon="13.3848541"><ele>417.66666666666663</ele><time>2026-04-04T09:33:07.408Z</time></trkpt><trkpt lat="43.0148109" lon="13.3849347"><ele>414.0</ele><time>2026-04-04T09:33:08.409Z</time></trkpt><trkpt lat="43.0147787" lon="13.3850234"><ele>410.33333333333337</ele><time>2026-04-04T09:33:09.409Z</time></trkpt><trkpt lat="43.014742" lon="13.3851167"><ele>406.6666666666667</ele><time>2026-04-04T09:33:10.409Z</time></trkpt><trkpt lat="43.0146952" lon="13.3852105"><ele>403.0</ele><time>2026-04-04T09:33:11.409Z</time></trkpt><trkpt lat="43.0146548" lon="13.3853074"><ele>403.00000000000006</ele><time>2026-04-04T09:33:12.409Z</time></trkpt><trkpt lat="43.0145944" lon="13.3854015"><ele>403.0</ele><time>2026-04-04T09:33:13.409Z</time></trkpt><trkpt lat="43.014538" lon="13.3855019"><ele>403.0</ele><time>2026-04-04T09:33:14.409Z</time></trkpt><trkpt lat="43.0144872" lon="13.3855965"><ele>403.0</ele><time>2026-04-04T09:33:15.409Z</time></trkpt><trkpt lat="43.0144434" lon="13.3856984"><ele>403.00000000000006</ele><time>2026-04-04T09:33:16.409Z</time></trkpt><trkpt lat="43.014411" lon="13.3858043"><ele>403.0</ele><time>2026-04-04T09:33:17.409Z</time></trkpt><trkpt lat="43.0143742" lon="13.3859232"><ele>403.2</ele><time>2026-04-04T09:33:18.409Z</time></trkpt><trkpt lat="43.0143396" lon="13.3860454"><ele>403.4</ele><time>2026-04-04T09:33:19.409Z</time></trkpt><trkpt lat="43.0143006" lon="13.3861719"><ele>403.59999999999997</ele><time>2026-04-04T09:33:20.409Z</time></trkpt><trkpt lat="43.014266" lon="13.3862943"><ele>403.79999999999995</ele><time>2026-04-04T09:33:21.409Z</time></trkpt><trkpt lat="43.0142385" lon="13.3864252"><ele>404.0</ele><time>2026-04-04T09:33:22.409Z</time></trkpt><trkpt lat="43.0142124" lon="13.3865522"><ele>404.4</ele><time>2026-04-04T09:33:23.409Z</time></trkpt><trkpt lat="43.0141996" lon="13.3866893"><ele>404.79999999999995</ele><time>2026-04-04T09:33:24.409Z</time></trkpt><trkpt lat="43.0142029" lon="13.3868219"><ele>405.20000000000005</ele><time>2026-04-04T09:33:25.409Z</time></trkpt><trkpt lat="43.0142169" lon="13.386954"><ele>405.6</ele><time>2026-04-04T09:33:26.409Z</time></trkpt><trkpt lat="43.0142342" lon="13.3870872"><ele>406.0</ele><time>2026-04-04T09:33:27.409Z</time></trkpt><trkpt lat="43.0142624" lon="13.3872124"><ele>405.0</ele><time>2026-04-04T09:33:28.409Z</time></trkpt><trkpt lat="43.0142807" lon="13.3873397"><ele>404.0</ele><time>2026-04-04T09:33:29.409Z</time></trkpt><trkpt lat="43.0143085" lon="13.3874491"><ele>403.0</ele><time>2026-04-04T09:33:30.409Z</time></trkpt><trkpt lat="43.0143584" lon="13.3875575"><ele>402.0</ele><time>2026-04-04T09:33:31.409Z</time></trkpt><trkpt lat="43.0143822" lon="13.3876726"><ele>401.0</ele><time>2026-04-04T09:33:32.409Z</time></trkpt><trkpt lat="43.0144211" lon="13.387794"><ele>400.99999999999994</ele><time>2026-04-04T09:33:33.409Z</time></trkpt><trkpt lat="43.014445" lon="13.3878972"><ele>401.0</ele><time>2026-04-04T09:33:34.409Z</time></trkpt><trkpt lat="43.0144424" lon="13.3879895"><ele>401.0</ele><time>2026-04-04T09:33:35.409Z</time></trkpt><trkpt lat="43.014422" lon="13.3881119"><ele>401.0</ele><time>2026-04-04T09:33:36.409Z</time></trkpt><trkpt lat="43.0144133" lon="13.3882149"><ele>400.99999999999994</ele><time>2026-04-04T09:33:37.409Z</time></trkpt><trkpt lat="43.0144031" lon="13.388335"><ele>401.0</ele><time>2026-04-04T09:33:38.409Z</time></trkpt><trkpt lat="43.0143869" lon="13.3884735"><ele>400.0</ele><time>2026-04-04T09:33:39.409Z</time></trkpt><trkpt lat="43.014369" lon="13.3886038"><ele>399.0</ele><time>2026-04-04T09:33:40.409Z</time></trkpt><trkpt lat="43.0143206" lon="13.3887317"><ele>398.0</ele><time>2026-04-04T09:33:41.409Z</time></trkpt><trkpt lat="43.0143068" lon="13.3888616"><ele>397.0</ele><time>2026-04-04T09:33:42.409Z</time></trkpt><trkpt lat="43.0142981" lon="13.3890194"><ele>396.0</ele><time>2026-04-04T09:33:43.409Z</time></trkpt><trkpt lat="43.0143208" lon="13.3891424"><ele>394.6</ele><time>2026-04-04T09:33:44.409Z</time></trkpt><trkpt lat="43.0143705" lon="13.389259"><ele>393.20000000000005</ele><time>2026-04-04T09:33:45.409Z</time></trkpt><trkpt lat="43.0144486" lon="13.389323"><ele>391.79999999999995</ele><time>2026-04-04T09:33:46.409Z</time></trkpt><trkpt lat="43.0145291" lon="13.389411"><ele>390.4</ele><time>2026-04-04T09:33:47.409Z</time></trkpt><trkpt lat="43.0146086" lon="13.389492"><ele>389.0</ele><time>2026-04-04T09:33:48.409Z</time></trkpt><trkpt lat="43.0147128" lon="13.389562"><ele>389.0</ele><time>2026-04-04T09:33:49.409Z</time></trkpt><trkpt lat="43.0148025" lon="13.38964"><ele>389.0</ele><time>2026-04-04T09:33:50.409Z</time></trkpt><trkpt lat="43.0148781" lon="13.3897255"><ele>389.0</ele><time>2026-04-04T09:33:51.409Z</time></trkpt><trkpt lat="43.0149327" lon="13.3898512"><ele>389.0</ele><time>2026-04-04T09:33:52.409Z</time></trkpt><trkpt lat="43.014991" lon="13.3899688"><ele>389.0</ele><time>2026-04-04T09:33:53.409Z</time></trkpt><trkpt lat="43.0150472" lon="13.3900787"><ele>388.16666666666663</ele><time>2026-04-04T09:33:54.409Z</time></trkpt><trkpt lat="43.015094" lon="13.3901792"><ele>387.3333333333333</ele><time>2026-04-04T09:33:55.409Z</time></trkpt><trkpt lat="43.0151464" lon="13.3902867"><ele>386.5</ele><time>2026-04-04T09:33:56.408Z</time></trkpt><trkpt lat="43.0151958" lon="13.3903913"><ele>385.66666666666663</ele><time>2026-04-04T09:33:57.408Z</time></trkpt><trkpt lat="43.015245" lon="13.3904746"><ele>384.8333333333333</ele><time>2026-04-04T09:33:58.408Z</time></trkpt><trkpt lat="43.0153116" lon="13.3905617"><ele>384.0</ele><time>2026-04-04T09:33:59.409Z</time></trkpt><trkpt lat="43.0153628" lon="13.3906495"><ele>382.8333333333333</ele><time>2026-04-04T09:34:00.409Z</time></trkpt><trkpt lat="43.0154113" lon="13.3907424"><ele>381.6666666666667</ele><time>2026-04-04T09:34:01.409Z</time></trkpt><trkpt lat="43.0154525" lon="13.3908392"><ele>380.5</ele><time>2026-04-04T09:34:02.409Z</time></trkpt><trkpt lat="43.015484" lon="13.3909502"><ele>379.33333333333337</ele><time>2026-04-04T09:34:03.409Z</time></trkpt><trkpt lat="43.0155194" lon="13.3910575"><ele>378.1666666666667</ele><time>2026-04-04T09:34:04.409Z</time></trkpt><trkpt lat="43.0155277" lon="13.3911805"><ele>377.0</ele><time>2026-04-04T09:34:05.409Z</time></trkpt><trkpt lat="43.0155111" lon="13.3913081"><ele>376.0</ele><time>2026-04-04T09:34:06.409Z</time></trkpt><trkpt lat="43.0154773" lon="13.3914261"><ele>375.0</ele><time>2026-04-04T09:34:07.409Z</time></trkpt><trkpt lat="43.0154172" lon="13.3915184"><ele>374.0</ele><time>2026-04-04T09:34:08.409Z</time></trkpt><trkpt lat="43.0153348" lon="13.3915905"><ele>373.0</ele><time>2026-04-04T09:34:09.409Z</time></trkpt><trkpt lat="43.0152392" lon="13.3916352"><ele>372.0</ele><time>2026-04-04T09:34:10.409Z</time></trkpt><trkpt lat="43.0151534" lon="13.39163"><ele>372.0</ele><time>2026-04-04T09:34:11.409Z</time></trkpt><trkpt lat="43.015061" lon="13.391638"><ele>372.0</ele><time>2026-04-04T09:34:12.409Z</time></trkpt><trkpt lat="43.0149733" lon="13.3916339"><ele>372.0</ele><time>2026-04-04T09:34:13.409Z</time></trkpt><trkpt lat="43.0148876" lon="13.3916269"><ele>372.0</ele><time>2026-04-04T09:34:14.409Z</time></trkpt><trkpt lat="43.0148223" lon="13.3915635"><ele>372.0</ele><time>2026-04-04T09:34:16.409Z</time></trkpt><trkpt lat="43.0147139" lon="13.3915186"><ele>370.8333333333333</ele><time>2026-04-04T09:34:18.409Z</time></trkpt><trkpt lat="43.0146512" lon="13.3914994"><ele>369.6666666666667</ele><time>2026-04-04T09:34:19.409Z</time></trkpt><trkpt lat="43.0145666" lon="13.3915707"><ele>368.5</ele><time>2026-04-04T09:34:20.409Z</time></trkpt><trkpt lat="43.0145036" lon="13.3915339"><ele>367.33333333333337</ele><time>2026-04-04T09:34:21.408Z</time></trkpt><trkpt lat="43.0144357" lon="13.3915252"><ele>366.1666666666667</ele><time>2026-04-04T09:34:22.409Z</time></trkpt><trkpt lat="43.0143637" lon="13.3915341"><ele>365.0</ele><time>2026-04-04T09:34:23.409Z</time></trkpt><trkpt lat="43.0142949" lon="13.3915981"><ele>365.0</ele><time>2026-04-04T09:34:24.409Z</time></trkpt><trkpt lat="43.01423" lon="13.3916707"><ele>365.0</ele><time>2026-04-04T09:34:25.409Z</time></trkpt><trkpt lat="43.0141693" lon="13.3917493"><ele>365.0</ele><time>2026-04-04T09:34:26.409Z</time></trkpt><trkpt lat="43.014119" lon="13.3918389"><ele>365.0</ele><time>2026-04-04T09:34:27.409Z</time></trkpt><trkpt lat="43.0140634" lon="13.3919197"><ele>365.0</ele><time>2026-04-04T09:34:28.409Z</time></trkpt><trkpt lat="43.014006" lon="13.3919938"><ele>365.0</ele><time>2026-04-04T09:34:29.409Z</time></trkpt><trkpt lat="43.0139418" lon="13.392087"><ele>364.83333333333337</ele><time>2026-04-04T09:34:30.409Z</time></trkpt><trkpt lat="43.0138863" lon="13.3921664"><ele>364.6666666666667</ele><time>2026-04-04T09:34:31.408Z</time></trkpt><trkpt lat="43.0138299" lon="13.3922436"><ele>364.5</ele><time>2026-04-04T09:34:32.409Z</time></trkpt><trkpt lat="43.0137645" lon="13.3923101"><ele>364.3333333333333</ele><time>2026-04-04T09:34:33.409Z</time></trkpt><trkpt lat="43.0137053" lon="13.3923787"><ele>364.16666666666663</ele><time>2026-04-04T09:34:34.409Z</time></trkpt><trkpt lat="43.0136147" lon="13.3924496"><ele>364.0</ele><time>2026-04-04T09:34:36.409Z</time></trkpt><trkpt lat="43.0135279" lon="13.3925178"><ele>363.79999999999995</ele><time>2026-04-04T09:34:38.409Z</time></trkpt><trkpt lat="43.0134269" lon="13.3925979"><ele>363.59999999999997</ele><time>2026-04-04T09:34:40.408Z</time></trkpt><trkpt lat="43.0133291" lon="13.3926726"><ele>363.4</ele><time>2026-04-04T09:34:42.409Z</time></trkpt><trkpt lat="43.0132283" lon="13.3927577"><ele>363.2</ele><time>2026-04-04T09:34:44.409Z</time></trkpt><trkpt lat="43.0131767" lon="13.3928081"><ele>363.0</ele><time>2026-04-04T09:34:45.408Z</time></trkpt><trkpt lat="43.0131258" lon="13.3928613"><ele>362.4</ele><time>2026-04-04T09:34:46.409Z</time></trkpt><trkpt lat="43.0130428" lon="13.3929513"><ele>361.79999999999995</ele><time>2026-04-04T09:34:48.409Z</time></trkpt><trkpt lat="43.0129908" lon="13.392871"><ele>361.2</ele><time>2026-04-04T09:34:50.409Z</time></trkpt><trkpt lat="43.0128969" lon="13.3928439"><ele>360.6</ele><time>2026-04-04T09:34:53.409Z</time></trkpt><trkpt lat="43.0128145" lon="13.39289"><ele>360.0</ele><time>2026-04-04T09:34:55.409Z</time></trkpt><trkpt lat="43.0127322" lon="13.3929299"><ele>360.0</ele><time>2026-04-04T09:34:57.409Z</time></trkpt><trkpt lat="43.0126559" lon="13.3929667"><ele>360.0</ele><time>2026-04-04T09:34:59.409Z</time></trkpt><trkpt lat="43.0125635" lon="13.392995"><ele>360.0</ele><time>2026-04-04T09:35:01.409Z</time></trkpt><trkpt lat="43.0125114" lon="13.3929262"><ele>360.0</ele><time>2026-04-04T09:35:05.409Z</time></trkpt><trkpt lat="43.0125215" lon="13.3927766"><ele>360.0</ele><time>2026-04-04T09:35:35.409Z</time></trkpt><trkpt lat="43.0124928" lon="13.3928604"><ele>360.0</ele><time>2026-04-04T09:37:52.409Z</time></trkpt><trkpt lat="43.0124097" lon="13.3928173"><ele>358.0</ele><time>2026-04-04T09:44:28.409Z</time></trkpt><trkpt lat="43.0123474" lon="13.3927874"><ele>356.0</ele><time>2026-04-04T09:44:32.409Z</time></trkpt><trkpt lat="43.0122682" lon="13.3928021"><ele>354.0</ele><time>2026-04-04T09:44:35.409Z</time></trkpt><trkpt lat="43.0121918" lon="13.3928395"><ele>352.0</ele><time>2026-04-04T09:44:38.409Z</time></trkpt><trkpt lat="43.0121157" lon="13.3928836"><ele>350.0</ele><time>2026-04-04T09:44:41.409Z</time></trkpt><trkpt lat="43.01205" lon="13.3929184"><ele>348.0</ele><time>2026-04-04T09:44:44.409Z</time></trkpt><trkpt lat="43.0119891" lon="13.3929417"><ele>346.0</ele><time>2026-04-04T09:44:46.408Z</time></trkpt><trkpt lat="43.0119027" lon="13.3928879"><ele>346.0</ele><time>2026-04-04T09:44:49.409Z</time></trkpt><trkpt lat="43.011864" lon="13.3927923"><ele>346.0</ele><time>2026-04-04T09:44:51.409Z</time></trkpt><trkpt lat="43.0118714" lon="13.3926979"><ele>346.0</ele><time>2026-04-04T09:44:53.409Z</time></trkpt><trkpt lat="43.0119022" lon="13.3925956"><ele>346.0</ele><time>2026-04-04T09:44:55.409Z</time></trkpt><trkpt lat="43.0119399" lon="13.3924997"><ele>346.0</ele><time>2026-04-04T09:44:57.409Z</time></trkpt><trkpt lat="43.011977" lon="13.3924084"><ele>346.0</ele><time>2026-04-04T09:44:59.408Z</time></trkpt><trkpt lat="43.0119974" lon="13.3923189"><ele>346.0</ele><time>2026-04-04T09:45:01.409Z</time></trkpt><trkpt lat="43.0120184" lon="13.3922177"><ele>346.0</ele><time>2026-04-04T09:45:03.409Z</time></trkpt><trkpt lat="43.0120389" lon="13.3921142"><ele>346.0</ele><time>2026-04-04T09:45:05.409Z</time></trkpt><trkpt lat="43.0120549" lon="13.3920264"><ele>346.0</ele><time>2026-04-04T09:45:07.409Z</time></trkpt><trkpt lat="43.012077" lon="13.3918989"><ele>346.0</ele><time>2026-04-04T09:45:10.408Z</time></trkpt><trkpt lat="43.0121005" lon="13.3918065"><ele>346.0</ele><time>2026-04-04T09:45:12.408Z</time></trkpt><trkpt lat="43.0121087" lon="13.3917196"><ele>346.0</ele><time>2026-04-04T09:45:14.408Z</time></trkpt><trkpt lat="43.012134" lon="13.3916079"><ele>346.0</ele><time>2026-04-04T09:45:17.409Z</time></trkpt><trkpt lat="43.0121701" lon="13.3915338"><ele>346.0</ele><time>2026-04-04T09:45:19.409Z</time></trkpt><trkpt lat="43.0122117" lon="13.3914276"><ele>346.0</ele><time>2026-04-04T09:45:22.408Z</time></trkpt><trkpt lat="43.0122724" lon="13.3913109"><ele>346.0</ele><time>2026-04-04T09:45:25.409Z</time></trkpt><trkpt lat="43.0123243" lon="13.3912328"><ele>346.0</ele><time>2026-04-04T09:45:27.409Z</time></trkpt><trkpt lat="43.0123857" lon="13.3912056"><ele>345.8333333333333</ele><time>2026-04-04T09:45:30.409Z</time></trkpt><trkpt lat="43.0124573" lon="13.3912223"><ele>345.66666666666663</ele><time>2026-04-04T09:45:33.409Z</time></trkpt><trkpt lat="43.0125408" lon="13.3912559"><ele>345.5</ele><time>2026-04-04T09:45:37.409Z</time></trkpt><trkpt lat="43.0126057" lon="13.3912697"><ele>345.3333333333333</ele><time>2026-04-04T09:45:40.409Z</time></trkpt><trkpt lat="43.0126788" lon="13.3912536"><ele>345.1666666666667</ele><time>2026-04-04T09:45:43.409Z</time></trkpt><trkpt lat="43.0127369" lon="13.3911482"><ele>345.0</ele><time>2026-04-04T09:45:46.409Z</time></trkpt><trkpt lat="43.0127224" lon="13.3910365"><ele>345.0</ele><time>2026-04-04T09:45:48.409Z</time></trkpt><trkpt lat="43.0126943" lon="13.3909404"><ele>345.0</ele><time>2026-04-04T09:45:50.409Z</time></trkpt><trkpt lat="43.0126421" lon="13.3908631"><ele>345.0</ele><time>2026-04-04T09:45:52.409Z</time></trkpt><trkpt lat="43.0125816" lon="13.3908338"><ele>345.0</ele><time>2026-04-04T09:45:54.409Z</time></trkpt><trkpt lat="43.0125172" lon="13.3908373"><ele>345.0</ele><time>2026-04-04T09:45:56.409Z</time></trkpt><trkpt lat="43.0124341" lon="13.3908444"><ele>345.0</ele><time>2026-04-04T09:45:59.409Z</time></trkpt><trkpt lat="43.0123454" lon="13.3908068"><ele>345.0</ele><time>2026-04-04T09:46:02.409Z</time></trkpt><trkpt lat="43.0122986" lon="13.3907337"><ele>345.0</ele><time>2026-04-04T09:46:04.409Z</time></trkpt><trkpt lat="43.012279" lon="13.3906457"><ele>345.0</ele><time>2026-04-04T09:46:06.409Z</time></trkpt><trkpt lat="43.0122677" lon="13.3905251"><ele>345.0</ele><time>2026-04-04T09:46:09.409Z</time></trkpt><trkpt lat="43.0122835" lon="13.3904087"><ele>345.0</ele><time>2026-04-04T09:46:12.409Z</time></trkpt><trkpt lat="43.0123034" lon="13.3903139"><ele>345.0</ele><time>2026-04-04T09:46:14.409Z</time></trkpt><trkpt lat="43.0123134" lon="13.3902225"><ele>345.0</ele><time>2026-04-04T09:46:16.409Z</time></trkpt><trkpt lat="43.0123159" lon="13.3901272"><ele>345.0</ele><time>2026-04-04T09:46:18.409Z</time></trkpt><trkpt lat="43.0123174" lon="13.3900354"><ele>345.0</ele><time>2026-04-04T09:46:20.409Z</time></trkpt><trkpt lat="43.0123299" lon="13.3899092"><ele>345.0</ele><time>2026-04-04T09:46:23.409Z</time></trkpt><trkpt lat="43.0123226" lon="13.38978"><ele>345.0</ele><time>2026-04-04T09:46:26.409Z</time></trkpt><trkpt lat="43.0123191" lon="13.3896938"><ele>345.0</ele><time>2026-04-04T09:46:28.409Z</time></trkpt><trkpt lat="43.0123166" lon="13.3896066"><ele>345.0</ele><time>2026-04-04T09:46:30.409Z</time></trkpt><trkpt lat="43.0122865" lon="13.3894972"><ele>345.0</ele><time>2026-04-04T09:46:32.409Z</time></trkpt><trkpt lat="43.0122849" lon="13.3893963"><ele>345.0</ele><time>2026-04-04T09:46:34.408Z</time></trkpt><trkpt lat="43.012309" lon="13.3893005"><ele>345.0</ele><time>2026-04-04T09:46:36.409Z</time></trkpt><trkpt lat="43.0123381" lon="13.3892018"><ele>345.0</ele><time>2026-04-04T09:46:38.409Z</time></trkpt><trkpt lat="43.0123631" lon="13.3890971"><ele>345.0</ele><time>2026-04-04T09:46:40.409Z</time></trkpt><trkpt lat="43.0124041" lon="13.3889925"><ele>345.0</ele><time>2026-04-04T09:46:43.409Z</time></trkpt><trkpt lat="43.0124461" lon="13.3889154"><ele>345.0</ele><time>2026-04-04T09:46:46.409Z</time></trkpt><trkpt lat="43.0124742" lon="13.388826"><ele>345.0</ele><time>2026-04-04T09:46:48.409Z</time></trkpt><trkpt lat="43.012504" lon="13.3887238"><ele>345.0</ele><time>2026-04-04T09:46:51.409Z</time></trkpt><trkpt lat="43.0125275" lon="13.3886244"><ele>345.0</ele><time>2026-04-04T09:46:53.409Z</time></trkpt><trkpt lat="43.0125481" lon="13.3885245"><ele>345.0</ele><time>2026-04-04T09:46:55.409Z</time></trkpt><trkpt lat="43.0125617" lon="13.3884224"><ele>345.0</ele><time>2026-04-04T09:46:57.409Z</time></trkpt><trkpt lat="43.0125291" lon="13.3883081"><ele>345.0</ele><time>2026-04-04T09:46:59.409Z</time></trkpt><trkpt lat="43.0125088" lon="13.3882062"><ele>345.0</ele><time>2026-04-04T09:47:01.409Z</time></trkpt><trkpt lat="43.0124924" lon="13.3880937"><ele>345.0</ele><time>2026-04-04T09:47:03.409Z</time></trkpt><trkpt lat="43.0124862" lon="13.3879828"><ele>345.0</ele><time>2026-04-04T09:47:05.409Z</time></trkpt><trkpt lat="43.0124724" lon="13.3878829"><ele>345.0</ele><time>2026-04-04T09:47:07.409Z</time></trkpt><trkpt lat="43.0124755" lon="13.3877732"><ele>345.0</ele><time>2026-04-04T09:47:09.409Z</time></trkpt><trkpt lat="43.0124739" lon="13.3876761"><ele>345.0</ele><time>2026-04-04T09:47:11.409Z</time></trkpt><trkpt lat="43.0124709" lon="13.3875625"><ele>345.0</ele><time>2026-04-04T09:47:13.409Z</time></trkpt><trkpt lat="43.0124579" lon="13.3874361"><ele>345.0</ele><time>2026-04-04T09:47:15.409Z</time></trkpt><trkpt lat="43.0124568" lon="13.3873058"><ele>345.0</ele><time>2026-04-04T09:47:17.408Z</time></trkpt><trkpt lat="43.0124254" lon="13.3871606"><ele>345.4</ele><time>2026-04-04T09:47:19.409Z</time></trkpt><trkpt lat="43.0123978" lon="13.387018"><ele>345.8</ele><time>2026-04-04T09:47:21.409Z</time></trkpt><trkpt lat="43.0123584" lon="13.3868673"><ele>346.20000000000005</ele><time>2026-04-04T09:47:23.409Z</time></trkpt><trkpt lat="43.0123311" lon="13.3867283"><ele>346.6</ele><time>2026-04-04T09:47:25.409Z</time></trkpt><trkpt lat="43.01233" lon="13.3865761"><ele>347.0</ele><time>2026-04-04T09:47:27.409Z</time></trkpt><trkpt lat="43.0123275" lon="13.3864514"><ele>347.6666666666667</ele><time>2026-04-04T09:47:29.409Z</time></trkpt><trkpt lat="43.0123214" lon="13.3863246"><ele>348.33333333333337</ele><time>2026-04-04T09:47:31.409Z</time></trkpt><trkpt lat="43.0123144" lon="13.3861983"><ele>349.0</ele><time>2026-04-04T09:47:33.409Z</time></trkpt><trkpt lat="43.0123189" lon="13.3860876"><ele>349.6666666666667</ele><time>2026-04-04T09:47:35.409Z</time></trkpt><trkpt lat="43.0123257" lon="13.3859765"><ele>350.3333333333333</ele><time>2026-04-04T09:47:37.409Z</time></trkpt><trkpt lat="43.0123227" lon="13.3858737"><ele>351.0</ele><time>2026-04-04T09:47:39.409Z</time></trkpt><trkpt lat="43.0123074" lon="13.3857727"><ele>351.00000000000006</ele><time>2026-04-04T09:47:41.409Z</time></trkpt><trkpt lat="43.0122918" lon="13.3856756"><ele>351.0</ele><time>2026-04-04T09:47:43.409Z</time></trkpt><trkpt lat="43.0122857" lon="13.3855837"><ele>351.0</ele><time>2026-04-04T09:47:45.409Z</time></trkpt><trkpt lat="43.0122792" lon="13.3854954"><ele>351.0</ele><time>2026-04-04T09:47:47.409Z</time></trkpt><trkpt lat="43.0122686" lon="13.3854057"><ele>351.0</ele><time>2026-04-04T09:47:49.409Z</time></trkpt><trkpt lat="43.0122539" lon="13.3852757"><ele>351.00000000000006</ele><time>2026-04-04T09:47:52.409Z</time></trkpt><trkpt lat="43.0122389" lon="13.3851804"><ele>351.0</ele><time>2026-04-04T09:47:54.409Z</time></trkpt><trkpt lat="43.0122291" lon="13.3850875"><ele>351.14285714285717</ele><time>2026-04-04T09:47:56.409Z</time></trkpt><trkpt lat="43.0122184" lon="13.385002"><ele>351.2857142857143</ele><time>2026-04-04T09:47:58.409Z</time></trkpt><trkpt lat="43.0121926" lon="13.3849075"><ele>351.42857142857144</ele><time>2026-04-04T09:48:00.409Z</time></trkpt><trkpt lat="43.0121563" lon="13.3848145"><ele>351.57142857142856</ele><time>2026-04-04T09:48:02.409Z</time></trkpt><trkpt lat="43.0121143" lon="13.3847175"><ele>351.7142857142857</ele><time>2026-04-04T09:48:04.409Z</time></trkpt><trkpt lat="43.0120672" lon="13.3846443"><ele>351.8571428571429</ele><time>2026-04-04T09:48:06.409Z</time></trkpt><trkpt lat="43.0120089" lon="13.384586"><ele>352.0</ele><time>2026-04-04T09:48:08.409Z</time></trkpt><trkpt lat="43.0119458" lon="13.3845335"><ele>353.8571428571429</ele><time>2026-04-04T09:48:10.408Z</time></trkpt><trkpt lat="43.0118875" lon="13.3844725"><ele>355.7142857142857</ele><time>2026-04-04T09:48:12.409Z</time></trkpt><trkpt lat="43.0118632" lon="13.3843914"><ele>357.57142857142856</ele><time>2026-04-04T09:48:14.409Z</time></trkpt><trkpt lat="43.0118587" lon="13.3843033"><ele>359.42857142857144</ele><time>2026-04-04T09:48:17.409Z</time></trkpt><trkpt lat="43.0118189" lon="13.3842222"><ele>361.2857142857143</ele><time>2026-04-04T09:48:21.409Z</time></trkpt><trkpt lat="43.0117736" lon="13.3841227"><ele>363.14285714285717</ele><time>2026-04-04T09:48:24.409Z</time></trkpt><trkpt lat="43.0117359" lon="13.3840523"><ele>365.0</ele><time>2026-04-04T09:48:26.409Z</time></trkpt><trkpt lat="43.0116959" lon="13.3839847"><ele>363.6666666666667</ele><time>2026-04-04T09:48:28.409Z</time></trkpt><trkpt lat="43.0116448" lon="13.3839176"><ele>362.33333333333337</ele><time>2026-04-04T09:48:30.409Z</time></trkpt><trkpt lat="43.0115889" lon="13.3838654"><ele>361.0</ele><time>2026-04-04T09:48:32.409Z</time></trkpt><trkpt lat="43.0115193" lon="13.3837815"><ele>359.6666666666667</ele><time>2026-04-04T09:48:35.409Z</time></trkpt><trkpt lat="43.0114531" lon="13.3836954"><ele>358.3333333333333</ele><time>2026-04-04T09:48:38.409Z</time></trkpt><trkpt lat="43.0114078" lon="13.3836264"><ele>357.0</ele><time>2026-04-04T09:48:40.409Z</time></trkpt><trkpt lat="43.0113585" lon="13.3835518"><ele>357.0</ele><time>2026-04-04T09:48:42.409Z</time></trkpt><trkpt lat="43.011308" lon="13.3834836"><ele>357.0</ele><time>2026-04-04T09:48:44.409Z</time></trkpt><trkpt lat="43.0112664" lon="13.3834138"><ele>357.0</ele><time>2026-04-04T09:48:46.409Z</time></trkpt><trkpt lat="43.011213" lon="13.3833392"><ele>357.0</ele><time>2026-04-04T09:48:48.409Z</time></trkpt><trkpt lat="43.011157" lon="13.3832609"><ele>357.0</ele><time>2026-04-04T09:48:50.409Z</time></trkpt><trkpt lat="43.0111033" lon="13.3831879"><ele>357.0</ele><time>2026-04-04T09:48:52.409Z</time></trkpt><trkpt lat="43.0110556" lon="13.3831273"><ele>357.0</ele><time>2026-04-04T09:48:54.409Z</time></trkpt><trkpt lat="43.011012" lon="13.3830436"><ele>357.6</ele><time>2026-04-04T09:48:56.409Z</time></trkpt><trkpt lat="43.0109594" lon="13.3829296"><ele>358.20000000000005</ele><time>2026-04-04T09:48:58.409Z</time></trkpt><trkpt lat="43.0109457" lon="13.3828128"><ele>358.8</ele><time>2026-04-04T09:49:00.409Z</time></trkpt><trkpt lat="43.0109238" lon="13.3826966"><ele>359.4</ele><time>2026-04-04T09:49:02.408Z</time></trkpt><trkpt lat="43.0108752" lon="13.3825891"><ele>360.0</ele><time>2026-04-04T09:49:04.409Z</time></trkpt><trkpt lat="43.0107879" lon="13.3825"><ele>359.3333333333333</ele><time>2026-04-04T09:49:06.409Z</time></trkpt><trkpt lat="43.010691" lon="13.3824218"><ele>358.6666666666667</ele><time>2026-04-04T09:49:08.409Z</time></trkpt><trkpt lat="43.0106137" lon="13.3823456"><ele>358.0</ele><time>2026-04-04T09:49:10.409Z</time></trkpt><trkpt lat="43.0105588" lon="13.3822828"><ele>357.33333333333337</ele><time>2026-04-04T09:49:12.409Z</time></trkpt><trkpt lat="43.0105158" lon="13.3821946"><ele>356.6666666666667</ele><time>2026-04-04T09:49:15.409Z</time></trkpt><trkpt lat="43.0104642" lon="13.3821295"><ele>356.0</ele><time>2026-04-04T09:49:16.409Z</time></trkpt><trkpt lat="43.0104011" lon="13.3820279"><ele>356.0</ele><time>2026-04-04T09:49:18.409Z</time></trkpt><trkpt lat="43.0103584" lon="13.3819332"><ele>356.0</ele><time>2026-04-04T09:49:20.409Z</time></trkpt><trkpt lat="43.0102931" lon="13.3818895"><ele>356.0</ele><time>2026-04-04T09:49:22.409Z</time></trkpt><trkpt lat="43.0102254" lon="13.381844"><ele>356.0</ele><time>2026-04-04T09:49:24.408Z</time></trkpt><trkpt lat="43.0101562" lon="13.381793"><ele>356.0</ele><time>2026-04-04T09:49:26.409Z</time></trkpt><trkpt lat="43.0100696" lon="13.3817556"><ele>356.0</ele><time>2026-04-04T09:49:28.409Z</time></trkpt><trkpt lat="43.0099778" lon="13.3817051"><ele>355.4</ele><time>2026-04-04T09:49:30.409Z</time></trkpt><trkpt lat="43.0098308" lon="13.3816574"><ele>354.8</ele><time>2026-04-04T09:49:32.409Z</time></trkpt><trkpt lat="43.0097629" lon="13.381635"><ele>354.2</ele><time>2026-04-04T09:49:34.408Z</time></trkpt><trkpt lat="43.0097113" lon="13.3815826"><ele>353.59999999999997</ele><time>2026-04-04T09:49:36.409Z</time></trkpt><trkpt lat="43.0096475" lon="13.3815522"><ele>353.0</ele><time>2026-04-04T09:49:37.409Z</time></trkpt><trkpt lat="43.0095422" lon="13.3815094"><ele>353.0</ele><time>2026-04-04T09:49:39.409Z</time></trkpt><trkpt lat="43.0094389" lon="13.3814649"><ele>353.0</ele><time>2026-04-04T09:49:41.409Z</time></trkpt><trkpt lat="43.0093392" lon="13.3814361"><ele>353.0</ele><time>2026-04-04T09:49:43.409Z</time></trkpt><trkpt lat="43.0092472" lon="13.381411"><ele>353.0</ele><time>2026-04-04T09:49:45.409Z</time></trkpt><trkpt lat="43.0091623" lon="13.3813942"><ele>353.0</ele><time>2026-04-04T09:49:47.409Z</time></trkpt><trkpt lat="43.0090769" lon="13.3813619"><ele>353.0</ele><time>2026-04-04T09:49:49.409Z</time></trkpt><trkpt lat="43.009004" lon="13.3813139"><ele>353.0</ele><time>2026-04-04T09:49:51.409Z</time></trkpt><trkpt lat="43.0089168" lon="13.3812445"><ele>353.0</ele><time>2026-04-04T09:49:54.409Z</time></trkpt><trkpt lat="43.0088225" lon="13.3811504"><ele>353.0</ele><time>2026-04-04T09:49:57.409Z</time></trkpt><trkpt lat="43.0087709" lon="13.3810451"><ele>353.0</ele><time>2026-04-04T09:50:00.409Z</time></trkpt><trkpt lat="43.0087143" lon="13.3809685"><ele>353.0</ele><time>2026-04-04T09:50:02.409Z</time></trkpt><trkpt lat="43.0086466" lon="13.3808861"><ele>353.0</ele><time>2026-04-04T09:50:04.409Z</time></trkpt><trkpt lat="43.0085901" lon="13.3808336"><ele>353.0</ele><time>2026-04-04T09:50:05.409Z</time></trkpt><trkpt lat="43.008547" lon="13.3807463"><ele>353.0</ele><time>2026-04-04T09:50:07.409Z</time></trkpt><trkpt lat="43.0084977" lon="13.3806498"><ele>353.0</ele><time>2026-04-04T09:50:09.409Z</time></trkpt><trkpt lat="43.0084455" lon="13.3805568"><ele>353.0</ele><time>2026-04-04T09:50:11.409Z</time></trkpt><trkpt lat="43.0083835" lon="13.3804632"><ele>353.2</ele><time>2026-04-04T09:50:13.409Z</time></trkpt><trkpt lat="43.0083157" lon="13.3803627"><ele>353.4</ele><time>2026-04-04T09:50:15.409Z</time></trkpt><trkpt lat="43.008252" lon="13.3802593"><ele>353.59999999999997</ele><time>2026-04-04T09:50:17.409Z</time></trkpt><trkpt lat="43.0081919" lon="13.3801678"><ele>353.79999999999995</ele><time>2026-04-04T09:50:19.409Z</time></trkpt><trkpt lat="43.0081179" lon="13.3800802"><ele>354.0</ele><time>2026-04-04T09:50:21.409Z</time></trkpt><trkpt lat="43.0080563" lon="13.3799988"><ele>354.0</ele><time>2026-04-04T09:50:23.409Z</time></trkpt><trkpt lat="43.0080153" lon="13.3799284"><ele>354.0</ele><time>2026-04-04T09:50:25.409Z</time></trkpt><trkpt lat="43.0079576" lon="13.3798503"><ele>354.0</ele><time>2026-04-04T09:50:27.408Z</time></trkpt><trkpt lat="43.0078788" lon="13.3797713"><ele>354.0</ele><time>2026-04-04T09:50:29.409Z</time></trkpt><trkpt lat="43.0078216" lon="13.3796893"><ele>354.0</ele><time>2026-04-04T09:50:31.408Z</time></trkpt><trkpt lat="43.0077669" lon="13.3796034"><ele>354.0</ele><time>2026-04-04T09:50:33.409Z</time></trkpt><trkpt lat="43.0077001" lon="13.3795221"><ele>354.0</ele><time>2026-04-04T09:50:35.409Z</time></trkpt><trkpt lat="43.0076509" lon="13.3794156"><ele>354.0</ele><time>2026-04-04T09:50:38.409Z</time></trkpt><trkpt lat="43.007603" lon="13.379324"><ele>354.0</ele><time>2026-04-04T09:50:40.408Z</time></trkpt><trkpt lat="43.0075452" lon="13.3792324"><ele>354.0</ele><time>2026-04-04T09:50:42.409Z</time></trkpt><trkpt lat="43.0074892" lon="13.3791449"><ele>354.0</ele><time>2026-04-04T09:50:44.409Z</time></trkpt><trkpt lat="43.0074358" lon="13.3790638"><ele>354.0</ele><time>2026-04-04T09:50:46.409Z</time></trkpt><trkpt lat="43.0073894" lon="13.3789839"><ele>354.1666666666667</ele><time>2026-04-04T09:50:48.409Z</time></trkpt><trkpt lat="43.007344" lon="13.3788926"><ele>354.3333333333333</ele><time>2026-04-04T09:50:51.409Z</time></trkpt><trkpt lat="43.007314" lon="13.3787967"><ele>354.5</ele><time>2026-04-04T09:50:54.409Z</time></trkpt><trkpt lat="43.007277" lon="13.3786849"><ele>354.66666666666663</ele><time>2026-04-04T09:50:57.409Z</time></trkpt><trkpt lat="43.0072443" lon="13.3786057"><ele>354.8333333333333</ele><time>2026-04-04T09:50:59.409Z</time></trkpt><trkpt lat="43.0071792" lon="13.3785141"><ele>355.0</ele><time>2026-04-04T09:51:01.409Z</time></trkpt><trkpt lat="43.0071251" lon="13.3784365"><ele>355.0</ele><time>2026-04-04T09:51:03.408Z</time></trkpt><trkpt lat="43.0070692" lon="13.3783601"><ele>355.0</ele><time>2026-04-04T09:51:05.409Z</time></trkpt><trkpt lat="43.0070166" lon="13.3782811"><ele>355.0</ele><time>2026-04-04T09:51:07.409Z</time></trkpt><trkpt lat="43.0069794" lon="13.378205"><ele>355.0</ele><time>2026-04-04T09:51:09.409Z</time></trkpt><trkpt lat="43.0069433" lon="13.3781194"><ele>355.0</ele><time>2026-04-04T09:51:11.409Z</time></trkpt><trkpt lat="43.0068957" lon="13.3780237"><ele>355.0</ele><time>2026-04-04T09:51:13.409Z</time></trkpt><trkpt lat="43.0068683" lon="13.3779361"><ele>355.0</ele><time>2026-04-04T09:51:15.409Z</time></trkpt><trkpt lat="43.0068372" lon="13.3778483"><ele>355.0</ele><time>2026-04-04T09:51:17.409Z</time></trkpt><trkpt lat="43.0067628" lon="13.3777794"><ele>355.0</ele><time>2026-04-04T09:51:19.409Z</time></trkpt><trkpt lat="43.0066901" lon="13.377737"><ele>355.0</ele><time>2026-04-04T09:51:21.409Z</time></trkpt><trkpt lat="43.0066368" lon="13.3776882"><ele>355.0</ele><time>2026-04-04T09:51:23.409Z</time></trkpt><trkpt lat="43.006584" lon="13.3776049"><ele>355.0</ele><time>2026-04-04T09:51:25.408Z</time></trkpt><trkpt lat="43.0065494" lon="13.3775233"><ele>355.0</ele><time>2026-04-04T09:51:27.409Z</time></trkpt><trkpt lat="43.0065194" lon="13.3774381"><ele>355.0</ele><time>2026-04-04T09:51:29.409Z</time></trkpt><trkpt lat="43.0065077" lon="13.3773383"><ele>355.0</ele><time>2026-04-04T09:51:32.408Z</time></trkpt><trkpt lat="43.0065524" lon="13.3772361"><ele>355.0</ele><time>2026-04-04T09:51:35.408Z</time></trkpt><trkpt lat="43.0066083" lon="13.3771649"><ele>355.0</ele><time>2026-04-04T09:51:37.408Z</time></trkpt><trkpt lat="43.0066589" lon="13.377082"><ele>355.0</ele><time>2026-04-04T09:51:39.409Z</time></trkpt><trkpt lat="43.0067013" lon="13.3769971"><ele>356.5</ele><time>2026-04-04T09:51:41.409Z</time></trkpt><trkpt lat="43.006746" lon="13.3769143"><ele>358.0</ele><time>2026-04-04T09:51:44.409Z</time></trkpt><trkpt lat="43.0067888" lon="13.3768437"><ele>359.5</ele><time>2026-04-04T09:51:47.409Z</time></trkpt><trkpt lat="43.0068387" lon="13.3767531"><ele>361.0</ele><time>2026-04-04T09:51:50.409Z</time></trkpt><trkpt lat="43.0068909" lon="13.3766726"><ele>362.5</ele><time>2026-04-04T09:51:53.409Z</time></trkpt><trkpt lat="43.006903" lon="13.3765809"><ele>364.0</ele><time>2026-04-04T09:51:56.408Z</time></trkpt><trkpt lat="43.006866" lon="13.3764849"><ele>364.0</ele><time>2026-04-04T09:52:00.409Z</time></trkpt><trkpt lat="43.0068289" lon="13.3764125"><ele>364.0</ele><time>2026-04-04T09:52:04.409Z</time></trkpt><trkpt lat="43.0067915" lon="13.3763285"><ele>364.0</ele><time>2026-04-04T09:52:10.409Z</time></trkpt><trkpt lat="43.0067495" lon="13.3762434"><ele>364.0</ele><time>2026-04-04T09:52:16.409Z</time></trkpt><trkpt lat="43.006705" lon="13.3761584"><ele>364.0</ele><time>2026-04-04T09:52:20.409Z</time></trkpt><trkpt lat="43.0066676" lon="13.3760678"><ele>364.0</ele><time>2026-04-04T09:52:25.409Z</time></trkpt><trkpt lat="43.0066301" lon="13.3759855"><ele>364.0</ele><time>2026-04-04T09:52:38.409Z</time></trkpt><trkpt lat="43.0066327" lon="13.3758984"><ele>365.42857142857144</ele><time>2026-04-04T09:52:43.409Z</time></trkpt><trkpt lat="43.0065988" lon="13.3758196"><ele>366.8571428571429</ele><time>2026-04-04T09:52:46.408Z</time></trkpt><trkpt lat="43.0065641" lon="13.3757355"><ele>368.2857142857143</ele><time>2026-04-04T09:52:49.409Z</time></trkpt><trkpt lat="43.0065466" lon="13.3756476"><ele>369.7142857142857</ele><time>2026-04-04T09:52:53.409Z</time></trkpt><trkpt lat="43.0065406" lon="13.3755464"><ele>371.14285714285717</ele><time>2026-04-04T09:53:00.409Z</time></trkpt><trkpt lat="43.0065382" lon="13.3754484"><ele>372.57142857142856</ele><time>2026-04-04T09:53:08.409Z</time></trkpt><trkpt lat="43.0064943" lon="13.3753856"><ele>374.0</ele><time>2026-04-04T09:53:13.409Z</time></trkpt><trkpt lat="43.006429" lon="13.3753632"><ele>375.83333333333337</ele><time>2026-04-04T09:53:17.409Z</time></trkpt><trkpt lat="43.00632" lon="13.3753539"><ele>377.6666666666667</ele><time>2026-04-04T09:53:34.409Z</time></trkpt><trkpt lat="43.0062673" lon="13.375278"><ele>379.5</ele><time>2026-04-04T09:53:38.409Z</time></trkpt><trkpt lat="43.0062224" lon="13.3752104"><ele>381.33333333333337</ele><time>2026-04-04T09:53:41.409Z</time></trkpt><trkpt lat="43.006181" lon="13.3751411"><ele>383.1666666666667</ele><time>2026-04-04T09:53:45.409Z</time></trkpt><trkpt lat="43.0061669" lon="13.3750458"><ele>385.0</ele><time>2026-04-04T09:53:49.409Z</time></trkpt><trkpt lat="43.0061324" lon="13.3749734"><ele>385.0</ele><time>2026-04-04T09:53:54.409Z</time></trkpt><trkpt lat="43.0061241" lon="13.3748852"><ele>385.0</ele><time>2026-04-04T09:53:59.409Z</time></trkpt><trkpt lat="43.0060893" lon="13.3748061"><ele>385.0</ele><time>2026-04-04T09:54:04.409Z</time></trkpt><trkpt lat="43.0060514" lon="13.3747193"><ele>385.0</ele><time>2026-04-04T09:54:10.409Z</time></trkpt><trkpt lat="43.006033" lon="13.3746258"><ele>385.0</ele><time>2026-04-04T09:54:15.408Z</time></trkpt><trkpt lat="43.0059886" lon="13.374557"><ele>385.0</ele><time>2026-04-04T09:54:19.409Z</time></trkpt><trkpt lat="43.0059633" lon="13.3744686"><ele>385.0</ele><time>2026-04-04T09:54:24.409Z</time></trkpt><trkpt lat="43.005949" lon="13.3743674"><ele>385.85714285714283</ele><time>2026-04-04T09:54:29.409Z</time></trkpt><trkpt lat="43.0059412" lon="13.3742783"><ele>386.7142857142857</ele><time>2026-04-04T09:54:34.409Z</time></trkpt><trkpt lat="43.0059201" lon="13.3741926"><ele>387.57142857142856</ele><time>2026-04-04T09:54:38.409Z</time></trkpt><trkpt lat="43.0058939" lon="13.3740917"><ele>388.42857142857144</ele><time>2026-04-04T09:54:43.409Z</time></trkpt><trkpt lat="43.0058985" lon="13.3740018"><ele>389.2857142857143</ele><time>2026-04-04T09:54:49.409Z</time></trkpt><trkpt lat="43.0058847" lon="13.3739053"><ele>390.1428571428571</ele><time>2026-04-04T09:54:53.409Z</time></trkpt><trkpt lat="43.0058571" lon="13.3738235"><ele>391.0</ele><time>2026-04-04T09:54:57.409Z</time></trkpt><trkpt lat="43.0058715" lon="13.3737171"><ele>391.85714285714283</ele><time>2026-04-04T09:55:02.409Z</time></trkpt><trkpt lat="43.0058846" lon="13.3736178"><ele>392.7142857142857</ele><time>2026-04-04T09:55:06.409Z</time></trkpt><trkpt lat="43.005903" lon="13.3735096"><ele>393.57142857142856</ele><time>2026-04-04T09:55:11.409Z</time></trkpt><trkpt lat="43.0059151" lon="13.3734147"><ele>394.42857142857144</ele><time>2026-04-04T09:55:15.409Z</time></trkpt><trkpt lat="43.0059109" lon="13.3733199"><ele>395.2857142857143</ele><time>2026-04-04T09:55:19.409Z</time></trkpt><trkpt lat="43.0059108" lon="13.3732264"><ele>396.1428571428571</ele><time>2026-04-04T09:55:24.409Z</time></trkpt><trkpt lat="43.0058971" lon="13.373129"><ele>397.0</ele><time>2026-04-04T09:55:28.409Z</time></trkpt><trkpt lat="43.0058661" lon="13.3730347"><ele>397.50000000000006</ele><time>2026-04-04T09:55:31.409Z</time></trkpt><trkpt lat="43.0058525" lon="13.3729506"><ele>398.0</ele><time>2026-04-04T09:55:33.409Z</time></trkpt><trkpt lat="43.0058298" lon="13.3728391"><ele>398.5</ele><time>2026-04-04T09:55:36.409Z</time></trkpt><trkpt lat="43.0058077" lon="13.372729"><ele>399.0</ele><time>2026-04-04T09:55:40.409Z</time></trkpt><trkpt lat="43.0057888" lon="13.372628"><ele>399.50000000000006</ele><time>2026-04-04T09:55:43.409Z</time></trkpt><trkpt lat="43.0057697" lon="13.3725319"><ele>400.0</ele><time>2026-04-04T09:55:46.409Z</time></trkpt><trkpt lat="43.0057514" lon="13.3724129"><ele>400.33333333333337</ele><time>2026-04-04T09:55:49.409Z</time></trkpt><trkpt lat="43.0057391" lon="13.3723179"><ele>400.6666666666667</ele><time>2026-04-04T09:55:52.409Z</time></trkpt><trkpt lat="43.005736" lon="13.3722296"><ele>401.0</ele><time>2026-04-04T09:55:54.409Z</time></trkpt><trkpt lat="43.0057181" lon="13.3721224"><ele>401.33333333333337</ele><time>2026-04-04T09:55:57.409Z</time></trkpt><trkpt lat="43.0057174" lon="13.3720124"><ele>401.6666666666667</ele><time>2026-04-04T09:56:00.409Z</time></trkpt><trkpt lat="43.0057081" lon="13.3718943"><ele>402.0</ele><time>2026-04-04T09:56:03.409Z</time></trkpt><trkpt lat="43.0056927" lon="13.3717907"><ele>402.57142857142856</ele><time>2026-04-04T09:56:06.409Z</time></trkpt><trkpt lat="43.0056691" lon="13.3716824"><ele>403.14285714285717</ele><time>2026-04-04T09:56:10.409Z</time></trkpt><trkpt lat="43.0056531" lon="13.3715943"><ele>403.7142857142857</ele><time>2026-04-04T09:56:13.409Z</time></trkpt><trkpt lat="43.0056265" lon="13.3715128"><ele>404.2857142857143</ele><time>2026-04-04T09:56:16.409Z</time></trkpt><trkpt lat="43.0055694" lon="13.3714569"><ele>404.8571428571429</ele><time>2026-04-04T09:56:19.409Z</time></trkpt><trkpt lat="43.005495" lon="13.3714217"><ele>405.42857142857144</ele><time>2026-04-04T09:56:23.409Z</time></trkpt><trkpt lat="43.005415" lon="13.3714111"><ele>406.0</ele><time>2026-04-04T09:56:27.409Z</time></trkpt><trkpt lat="43.0053322" lon="13.3714354"><ele>406.00000000000006</ele><time>2026-04-04T09:56:31.409Z</time></trkpt><trkpt lat="43.0052531" lon="13.3714279"><ele>406.0</ele><time>2026-04-04T09:56:35.408Z</time></trkpt><trkpt lat="43.0051888" lon="13.371416"><ele>406.0</ele><time>2026-04-04T09:56:38.409Z</time></trkpt><trkpt lat="43.0051062" lon="13.3714082"><ele>406.0</ele><time>2026-04-04T09:56:42.409Z</time></trkpt><trkpt lat="43.0050299" lon="13.3713777"><ele>406.00000000000006</ele><time>2026-04-04T09:56:46.409Z</time></trkpt><trkpt lat="43.0049566" lon="13.3713627"><ele>406.0</ele><time>2026-04-04T09:56:49.408Z</time></trkpt><trkpt lat="43.0048882" lon="13.3713372"><ele>407.6666666666667</ele><time>2026-04-04T09:56:53.409Z</time></trkpt><trkpt lat="43.0048068" lon="13.3713089"><ele>409.33333333333337</ele><time>2026-04-04T09:56:57.408Z</time></trkpt><trkpt lat="43.0047207" lon="13.3712792"><ele>411.0</ele><time>2026-04-04T09:57:00.409Z</time></trkpt><trkpt lat="43.0046522" lon="13.3712696"><ele>412.66666666666663</ele><time>2026-04-04T09:57:03.409Z</time></trkpt><trkpt lat="43.0045878" lon="13.3712677"><ele>414.3333333333333</ele><time>2026-04-04T09:57:06.409Z</time></trkpt><trkpt lat="43.0045095" lon="13.3713096"><ele>416.0</ele><time>2026-04-04T09:57:09.409Z</time></trkpt><trkpt lat="43.0044479" lon="13.3713351"><ele>414.3333333333333</ele><time>2026-04-04T09:57:11.409Z</time></trkpt><trkpt lat="43.0043748" lon="13.3713623"><ele>412.66666666666663</ele><time>2026-04-04T09:57:13.409Z</time></trkpt><trkpt lat="43.004304" lon="13.3713675"><ele>411.0</ele><time>2026-04-04T09:57:14.409Z</time></trkpt><trkpt lat="43.0042134" lon="13.3713694"><ele>409.33333333333337</ele><time>2026-04-04T09:57:15.409Z</time></trkpt><trkpt lat="43.0041486" lon="13.3713796"><ele>407.6666666666667</ele><time>2026-04-04T09:57:16.409Z</time></trkpt><trkpt lat="43.0040456" lon="13.3714311"><ele>406.0</ele><time>2026-04-04T09:57:18.409Z</time></trkpt><trkpt lat="43.0039778" lon="13.3714589"><ele>405.50000000000006</ele><time>2026-04-04T09:57:19.409Z</time></trkpt><trkpt lat="43.003915" lon="13.3714803"><ele>405.0</ele><time>2026-04-04T09:57:20.409Z</time></trkpt><trkpt lat="43.0038456" lon="13.3714917"><ele>404.5</ele><time>2026-04-04T09:57:21.409Z</time></trkpt><trkpt lat="43.0037524" lon="13.3714994"><ele>404.0</ele><time>2026-04-04T09:57:22.409Z</time></trkpt><trkpt lat="43.0036875" lon="13.3714891"><ele>403.50000000000006</ele><time>2026-04-04T09:57:23.409Z</time></trkpt><trkpt lat="43.0035998" lon="13.3714582"><ele>403.0</ele><time>2026-04-04T09:57:25.409Z</time></trkpt><trkpt lat="43.0035094" lon="13.3714417"><ele>403.0</ele><time>2026-04-04T09:57:27.409Z</time></trkpt><trkpt lat="43.0034384" lon="13.371472"><ele>403.0</ele><time>2026-04-04T09:57:28.409Z</time></trkpt><trkpt lat="43.0033231" lon="13.3715226"><ele>403.0</ele><time>2026-04-04T09:57:30.409Z</time></trkpt><trkpt lat="43.003215" lon="13.3715825"><ele>403.0</ele><time>2026-04-04T09:57:32.409Z</time></trkpt><trkpt lat="43.0031028" lon="13.3716246"><ele>403.0</ele><time>2026-04-04T09:57:34.409Z</time></trkpt><trkpt lat="43.0030029" lon="13.3716646"><ele>402.59999999999997</ele><time>2026-04-04T09:57:36.409Z</time></trkpt><trkpt lat="43.0029289" lon="13.3717171"><ele>402.2</ele><time>2026-04-04T09:57:38.409Z</time></trkpt><trkpt lat="43.0028467" lon="13.3717412"><ele>401.8</ele><time>2026-04-04T09:57:40.409Z</time></trkpt><trkpt lat="43.0027742" lon="13.3717458"><ele>401.4</ele><time>2026-04-04T09:57:42.409Z</time></trkpt><trkpt lat="43.0026731" lon="13.3717821"><ele>401.0</ele><time>2026-04-04T09:57:44.409Z</time></trkpt><trkpt lat="43.0025543" lon="13.3718409"><ele>401.20000000000005</ele><time>2026-04-04T09:57:46.409Z</time></trkpt><trkpt lat="43.0024972" lon="13.3718917"><ele>401.40000000000003</ele><time>2026-04-04T09:57:47.409Z</time></trkpt><trkpt lat="43.0024306" lon="13.3719094"><ele>401.6</ele><time>2026-04-04T09:57:48.409Z</time></trkpt><trkpt lat="43.0023254" lon="13.371942"><ele>401.8</ele><time>2026-04-04T09:57:50.409Z</time></trkpt><trkpt lat="43.0022147" lon="13.3719824"><ele>402.0</ele><time>2026-04-04T09:57:52.409Z</time></trkpt><trkpt lat="43.0021216" lon="13.3720537"><ele>402.0</ele><time>2026-04-04T09:57:54.409Z</time></trkpt><trkpt lat="43.0020341" lon="13.3721027"><ele>402.0</ele><time>2026-04-04T09:57:56.409Z</time></trkpt><trkpt lat="43.0019449" lon="13.3721376"><ele>402.0</ele><time>2026-04-04T09:57:58.409Z</time></trkpt><trkpt lat="43.001871" lon="13.372119"><ele>402.0</ele><time>2026-04-04T09:58:01.409Z</time></trkpt><trkpt lat="43.0017937" lon="13.3721297"><ele>402.0</ele><time>2026-04-04T09:58:03.409Z</time></trkpt><trkpt lat="43.0016938" lon="13.3721587"><ele>402.0</ele><time>2026-04-04T09:58:05.409Z</time></trkpt><trkpt lat="43.0016306" lon="13.3721568"><ele>401.2857142857143</ele><time>2026-04-04T09:58:06.409Z</time></trkpt><trkpt lat="43.0015695" lon="13.372184"><ele>400.5714285714286</ele><time>2026-04-04T09:58:07.409Z</time></trkpt><trkpt lat="43.0015062" lon="13.372202"><ele>399.8571428571429</ele><time>2026-04-04T09:58:08.409Z</time></trkpt><trkpt lat="43.0014397" lon="13.3722148"><ele>399.1428571428571</ele><time>2026-04-04T09:58:09.409Z</time></trkpt><trkpt lat="43.001372" lon="13.3722281"><ele>398.42857142857144</ele><time>2026-04-04T09:58:10.409Z</time></trkpt><trkpt lat="43.0013079" lon="13.3722294"><ele>397.7142857142857</ele><time>2026-04-04T09:58:11.409Z</time></trkpt><trkpt lat="43.0012467" lon="13.3722014"><ele>397.0</ele><time>2026-04-04T09:58:12.409Z</time></trkpt><trkpt lat="43.0011897" lon="13.3721579"><ele>397.00000000000006</ele><time>2026-04-04T09:58:13.409Z</time></trkpt><trkpt lat="43.0011374" lon="13.3720736"><ele>397.0</ele><time>2026-04-04T09:58:14.409Z</time></trkpt><trkpt lat="43.0010894" lon="13.3720075"><ele>397.0</ele><time>2026-04-04T09:58:15.409Z</time></trkpt><trkpt lat="43.0010244" lon="13.3718777"><ele>397.0</ele><time>2026-04-04T09:58:17.409Z</time></trkpt><trkpt lat="43.0009963" lon="13.371794"><ele>397.00000000000006</ele><time>2026-04-04T09:58:18.409Z</time></trkpt><trkpt lat="43.0009811" lon="13.3717069"><ele>397.0</ele><time>2026-04-04T09:58:19.409Z</time></trkpt><trkpt lat="43.0009523" lon="13.371617"><ele>397.0</ele><time>2026-04-04T09:58:21.409Z</time></trkpt><trkpt lat="43.0009381" lon="13.3715254"><ele>397.0</ele><time>2026-04-04T09:58:23.409Z</time></trkpt><trkpt lat="43.0008955" lon="13.3714309"><ele>397.0</ele><time>2026-04-04T09:58:26.409Z</time></trkpt><trkpt lat="43.0008514" lon="13.3713434"><ele>397.0</ele><time>2026-04-04T09:58:30.409Z</time></trkpt><trkpt lat="43.0007896" lon="13.3713014"><ele>397.0</ele><time>2026-04-04T09:58:34.409Z</time></trkpt><trkpt lat="43.0007282" lon="13.3712489"><ele>397.0</ele><time>2026-04-04T09:58:38.409Z</time></trkpt><trkpt lat="43.0006606" lon="13.3712135"><ele>397.0</ele><time>2026-04-04T09:58:41.409Z</time></trkpt><trkpt lat="43.0005964" lon="13.371162"><ele>398.0</ele><time>2026-04-04T09:58:44.409Z</time></trkpt><trkpt lat="43.0005308" lon="13.3711132"><ele>399.0</ele><time>2026-04-04T09:58:47.409Z</time></trkpt><trkpt lat="43.0004698" lon="13.3710735"><ele>400.0</ele><time>2026-04-04T09:58:50.409Z</time></trkpt><trkpt lat="43.0004064" lon="13.3710411"><ele>401.0</ele><time>2026-04-04T09:58:53.409Z</time></trkpt><trkpt lat="43.0003473" lon="13.3710094"><ele>402.0</ele><time>2026-04-04T09:58:57.409Z</time></trkpt><trkpt lat="43.0003077" lon="13.37094"><ele>403.0</ele><time>2026-04-04T09:59:02.409Z</time></trkpt><trkpt lat="43.0002895" lon="13.3708431"><ele>404.0</ele><time>2026-04-04T09:59:05.409Z</time></trkpt><trkpt lat="43.0002738" lon="13.3707513"><ele>403.99999999999994</ele><time>2026-04-04T09:59:09.409Z</time></trkpt><trkpt lat="43.0002413" lon="13.3706654"><ele>404.0</ele><time>2026-04-04T09:59:13.409Z</time></trkpt><trkpt lat="43.0001787" lon="13.370594"><ele>404.0</ele><time>2026-04-04T09:59:17.409Z</time></trkpt><trkpt lat="43.0001186" lon="13.3705338"><ele>404.0</ele><time>2026-04-04T09:59:21.409Z</time></trkpt><trkpt lat="43.000051" lon="13.3705153"><ele>403.99999999999994</ele><time>2026-04-04T09:59:23.409Z</time></trkpt><trkpt lat="42.9999529" lon="13.3705032"><ele>404.0</ele><time>2026-04-04T09:59:25.409Z</time></trkpt><trkpt lat="42.9998693" lon="13.3704847"><ele>404.0</ele><time>2026-04-04T09:59:26.409Z</time></trkpt><trkpt lat="42.9997732" lon="13.3704394"><ele>404.0</ele><time>2026-04-04T09:59:28.409Z</time></trkpt><trkpt lat="42.9996848" lon="13.3704123"><ele>404.0</ele><time>2026-04-04T09:59:30.409Z</time></trkpt><trkpt lat="42.9995806" lon="13.3704231"><ele>404.0</ele><time>2026-04-04T09:59:32.408Z</time></trkpt><trkpt lat="42.9995004" lon="13.3704752"><ele>404.0</ele><time>2026-04-04T09:59:33.408Z</time></trkpt><trkpt lat="42.999376" lon="13.3705423"><ele>404.0</ele><time>2026-04-04T09:59:35.409Z</time></trkpt><trkpt lat="42.9992688" lon="13.3705495"><ele>404.0</ele><time>2026-04-04T09:59:37.409Z</time></trkpt><trkpt lat="42.9991713" lon="13.3705139"><ele>404.0</ele><time>2026-04-04T09:59:39.409Z</time></trkpt><trkpt lat="42.9990917" lon="13.3705637"><ele>404.0</ele><time>2026-04-04T09:59:40.409Z</time></trkpt><trkpt lat="42.9989658" lon="13.3706205"><ele>404.0</ele><time>2026-04-04T09:59:42.409Z</time></trkpt><trkpt lat="42.9988956" lon="13.3706401"><ele>403.2</ele><time>2026-04-04T09:59:43.409Z</time></trkpt><trkpt lat="42.9987699" lon="13.3706421"><ele>402.4</ele><time>2026-04-04T09:59:45.409Z</time></trkpt><trkpt lat="42.9986534" lon="13.370649"><ele>401.6</ele><time>2026-04-04T09:59:47.409Z</time></trkpt><trkpt lat="42.9985871" lon="13.370666"><ele>400.8</ele><time>2026-04-04T09:59:48.409Z</time></trkpt><trkpt lat="42.9984823" lon="13.3706651"><ele>400.0</ele><time>2026-04-04T09:59:50.409Z</time></trkpt><trkpt lat="42.9983709" lon="13.3706576"><ele>399.8</ele><time>2026-04-04T09:59:52.409Z</time></trkpt><trkpt lat="42.9983077" lon="13.3706365"><ele>399.6</ele><time>2026-04-04T09:59:53.408Z</time></trkpt><trkpt lat="42.9981859" lon="13.3705828"><ele>399.4</ele><time>2026-04-04T09:59:55.409Z</time></trkpt><trkpt lat="42.9980644" lon="13.3705654"><ele>399.2</ele><time>2026-04-04T09:59:57.409Z</time></trkpt><trkpt lat="42.9979439" lon="13.3705402"><ele>399.0</ele><time>2026-04-04T09:59:59.409Z</time></trkpt><trkpt lat="42.9978222" lon="13.3705644"><ele>399.0</ele><time>2026-04-04T10:00:01.409Z</time></trkpt><trkpt lat="42.9976981" lon="13.370562"><ele>399.0</ele><time>2026-04-04T10:00:03.409Z</time></trkpt><trkpt lat="42.9976208" lon="13.3705817"><ele>399.0</ele><time>2026-04-04T10:00:04.409Z</time></trkpt><trkpt lat="42.997552" lon="13.3706152"><ele>399.0</ele><time>2026-04-04T10:00:05.408Z</time></trkpt><trkpt lat="42.9974775" lon="13.3706848"><ele>399.0</ele><time>2026-04-04T10:00:06.409Z</time></trkpt><trkpt lat="42.9973852" lon="13.3707948"><ele>398.4</ele><time>2026-04-04T10:00:08.409Z</time></trkpt><trkpt lat="42.997308" lon="13.3709018"><ele>397.79999999999995</ele><time>2026-04-04T10:00:10.409Z</time></trkpt><trkpt lat="42.9972118" lon="13.3710131"><ele>397.20000000000005</ele><time>2026-04-04T10:00:12.409Z</time></trkpt><trkpt lat="42.9971584" lon="13.3710633"><ele>396.6</ele><time>2026-04-04T10:00:13.409Z</time></trkpt><trkpt lat="42.997045" lon="13.3711219"><ele>396.0</ele><time>2026-04-04T10:00:15.409Z</time></trkpt><trkpt lat="42.996976" lon="13.3711388"><ele>396.0</ele><time>2026-04-04T10:00:16.409Z</time></trkpt><trkpt lat="42.9969167" lon="13.371168"><ele>396.0</ele><time>2026-04-04T10:00:17.408Z</time></trkpt><trkpt lat="42.9967973" lon="13.3711679"><ele>396.0</ele><time>2026-04-04T10:00:19.409Z</time></trkpt><trkpt lat="42.996735" lon="13.3712496"><ele>396.0</ele><time>2026-04-04T10:00:20.409Z</time></trkpt><trkpt lat="42.9966227" lon="13.3711981"><ele>396.0</ele><time>2026-04-04T10:00:22.409Z</time></trkpt><trkpt lat="42.9965629" lon="13.371117"><ele>394.6</ele><time>2026-04-04T10:00:23.409Z</time></trkpt><trkpt lat="42.996491" lon="13.3710438"><ele>393.20000000000005</ele><time>2026-04-04T10:00:24.408Z</time></trkpt><trkpt lat="42.9963713" lon="13.3710124"><ele>391.79999999999995</ele><time>2026-04-04T10:00:25.409Z</time></trkpt><trkpt lat="42.9962672" lon="13.3709954"><ele>390.4</ele><time>2026-04-04T10:00:26.409Z</time></trkpt><trkpt lat="42.9961676" lon="13.3709663"><ele>389.0</ele><time>2026-04-04T10:00:27.409Z</time></trkpt><trkpt lat="42.99606" lon="13.3709392"><ele>389.0</ele><time>2026-04-04T10:00:28.409Z</time></trkpt><trkpt lat="42.9959551" lon="13.3708964"><ele>389.0</ele><time>2026-04-04T10:00:29.409Z</time></trkpt><trkpt lat="42.9958534" lon="13.3708388"><ele>389.0</ele><time>2026-04-04T10:00:30.409Z</time></trkpt><trkpt lat="42.9957479" lon="13.3707651"><ele>389.0</ele><time>2026-04-04T10:00:31.409Z</time></trkpt><trkpt lat="42.995639" lon="13.3707076"><ele>386.2</ele><time>2026-04-04T10:00:32.409Z</time></trkpt><trkpt lat="42.9955349" lon="13.3706738"><ele>383.4</ele><time>2026-04-04T10:00:33.409Z</time></trkpt><trkpt lat="42.9954256" lon="13.3706541"><ele>380.6</ele><time>2026-04-04T10:00:34.409Z</time></trkpt><trkpt lat="42.9953237" lon="13.370626"><ele>377.8</ele><time>2026-04-04T10:00:35.409Z</time></trkpt><trkpt lat="42.9952278" lon="13.3706074"><ele>375.0</ele><time>2026-04-04T10:00:36.408Z</time></trkpt><trkpt lat="42.9951434" lon="13.3705906"><ele>375.0</ele><time>2026-04-04T10:00:37.409Z</time></trkpt><trkpt lat="42.9950599" lon="13.370567"><ele>375.0</ele><time>2026-04-04T10:00:38.409Z</time></trkpt><trkpt lat="42.9949834" lon="13.3705523"><ele>375.0</ele><time>2026-04-04T10:00:39.409Z</time></trkpt><trkpt lat="42.9949116" lon="13.3705303"><ele>375.0</ele><time>2026-04-04T10:00:40.409Z</time></trkpt><trkpt lat="42.994846" lon="13.3705075"><ele>375.0</ele><time>2026-04-04T10:00:41.409Z</time></trkpt><trkpt lat="42.9947286" lon="13.3704994"><ele>375.0</ele><time>2026-04-04T10:00:43.409Z</time></trkpt><trkpt lat="42.9946068" lon="13.3705065"><ele>375.75</ele><time>2026-04-04T10:00:45.409Z</time></trkpt><trkpt lat="42.9944942" lon="13.3705003"><ele>376.5</ele><time>2026-04-04T10:00:47.409Z</time></trkpt><trkpt lat="42.9943912" lon="13.3705235"><ele>377.25</ele><time>2026-04-04T10:00:49.409Z</time></trkpt><trkpt lat="42.9942716" lon="13.370527"><ele>378.0</ele><time>2026-04-04T10:00:51.409Z</time></trkpt><trkpt lat="42.9941512" lon="13.3705386"><ele>376.4</ele><time>2026-04-04T10:00:53.409Z</time></trkpt><trkpt lat="42.9940876" lon="13.3705504"><ele>374.79999999999995</ele><time>2026-04-04T10:00:54.408Z</time></trkpt><trkpt lat="42.9939717" lon="13.3705665"><ele>373.2</ele><time>2026-04-04T10:00:56.409Z</time></trkpt><trkpt lat="42.9939011" lon="13.3705609"><ele>371.6</ele><time>2026-04-04T10:00:57.408Z</time></trkpt><trkpt lat="42.9937896" lon="13.3705618"><ele>370.0</ele><time>2026-04-04T10:00:59.409Z</time></trkpt><trkpt lat="42.9936665" lon="13.37055"><ele>370.0</ele><time>2026-04-04T10:01:01.409Z</time></trkpt><trkpt lat="42.9935446" lon="13.3705621"><ele>370.0</ele><time>2026-04-04T10:01:03.409Z</time></trkpt><trkpt lat="42.9934298" lon="13.3705786"><ele>370.0</ele><time>2026-04-04T10:01:05.409Z</time></trkpt><trkpt lat="42.9933678" lon="13.3705569"><ele>370.0</ele><time>2026-04-04T10:01:06.409Z</time></trkpt><trkpt lat="42.9932468" lon="13.3705688"><ele>370.0</ele><time>2026-04-04T10:01:08.409Z</time></trkpt><trkpt lat="42.9931355" lon="13.3705613"><ele>370.0</ele><time>2026-04-04T10:01:10.409Z</time></trkpt><trkpt lat="42.9930178" lon="13.3705774"><ele>370.0</ele><time>2026-04-04T10:01:12.409Z</time></trkpt><trkpt lat="42.9929065" lon="13.3706033"><ele>370.0</ele><time>2026-04-04T10:01:14.409Z</time></trkpt><trkpt lat="42.9928177" lon="13.3706039"><ele>370.0</ele><time>2026-04-04T10:01:16.409Z</time></trkpt><trkpt lat="42.9927458" lon="13.3706166"><ele>370.0</ele><time>2026-04-04T10:01:18.409Z</time></trkpt><trkpt lat="42.992649" lon="13.3705954"><ele>370.0</ele><time>2026-04-04T10:01:21.408Z</time></trkpt><trkpt lat="42.9925788" lon="13.3706068"><ele>370.0</ele><time>2026-04-04T10:01:23.409Z</time></trkpt><trkpt lat="42.9925121" lon="13.3706067"><ele>370.0</ele><time>2026-04-04T10:01:25.409Z</time></trkpt><trkpt lat="42.9924289" lon="13.3706496"><ele>370.0</ele><time>2026-04-04T10:01:27.409Z</time></trkpt><trkpt lat="42.992356" lon="13.370671"><ele>370.0</ele><time>2026-04-04T10:01:29.409Z</time></trkpt><trkpt lat="42.9922731" lon="13.3706669"><ele>370.0</ele><time>2026-04-04T10:01:31.409Z</time></trkpt><trkpt lat="42.9922037" lon="13.3706712"><ele>370.3333333333333</ele><time>2026-04-04T10:01:33.409Z</time></trkpt><trkpt lat="42.9921345" lon="13.3707001"><ele>370.66666666666663</ele><time>2026-04-04T10:01:35.409Z</time></trkpt><trkpt lat="42.9920597" lon="13.3707308"><ele>371.0</ele><time>2026-04-04T10:01:37.409Z</time></trkpt><trkpt lat="42.9919839" lon="13.3707347"><ele>371.3333333333333</ele><time>2026-04-04T10:01:39.409Z</time></trkpt><trkpt lat="42.9919051" lon="13.3707513"><ele>371.6666666666667</ele><time>2026-04-04T10:01:41.409Z</time></trkpt><trkpt lat="42.9918272" lon="13.3707644"><ele>372.0</ele><time>2026-04-04T10:01:43.409Z</time></trkpt><trkpt lat="42.9917526" lon="13.3707713"><ele>372.0</ele><time>2026-04-04T10:01:45.409Z</time></trkpt><trkpt lat="42.991687" lon="13.370767"><ele>372.0</ele><time>2026-04-04T10:01:47.409Z</time></trkpt><trkpt lat="42.9916526" lon="13.3708507"><ele>372.0</ele><time>2026-04-04T10:01:48.409Z</time></trkpt><trkpt lat="42.9915675" lon="13.3708452"><ele>372.0</ele><time>2026-04-04T10:01:50.409Z</time></trkpt><trkpt lat="42.9914879" lon="13.3708459"><ele>372.0</ele><time>2026-04-04T10:01:52.409Z</time></trkpt><trkpt lat="42.9914027" lon="13.3708629"><ele>372.0</ele><time>2026-04-04T10:01:54.409Z</time></trkpt><trkpt lat="42.9913434" lon="13.3708976"><ele>372.8333333333333</ele><time>2026-04-04T10:01:55.409Z</time></trkpt><trkpt lat="42.9912623" lon="13.3708925"><ele>373.6666666666667</ele><time>2026-04-04T10:01:57.409Z</time></trkpt><trkpt lat="42.9911845" lon="13.370886"><ele>374.5</ele><time>2026-04-04T10:01:59.409Z</time></trkpt><trkpt lat="42.991101" lon="13.370876"><ele>375.33333333333337</ele><time>2026-04-04T10:02:01.409Z</time></trkpt><trkpt lat="42.9910166" lon="13.3708749"><ele>376.1666666666667</ele><time>2026-04-04T10:02:03.409Z</time></trkpt><trkpt lat="42.990938" lon="13.3708472"><ele>377.0</ele><time>2026-04-04T10:02:05.409Z</time></trkpt><trkpt lat="42.9908518" lon="13.3708408"><ele>377.0</ele><time>2026-04-04T10:02:07.409Z</time></trkpt><trkpt lat="42.9907725" lon="13.3708411"><ele>377.0</ele><time>2026-04-04T10:02:09.409Z</time></trkpt><trkpt lat="42.9906952" lon="13.3708638"><ele>377.0</ele><time>2026-04-04T10:02:11.409Z</time></trkpt><trkpt lat="42.990608" lon="13.3708239"><ele>377.0</ele><time>2026-04-04T10:02:13.409Z</time></trkpt><trkpt lat="42.9905376" lon="13.3708358"><ele>377.0</ele><time>2026-04-04T10:02:15.409Z</time></trkpt><trkpt lat="42.9904622" lon="13.3708356"><ele>377.0</ele><time>2026-04-04T10:02:17.409Z</time></trkpt><trkpt lat="42.9903693" lon="13.3708376"><ele>377.0</ele><time>2026-04-04T10:02:19.409Z</time></trkpt><trkpt lat="42.9902634" lon="13.37078"><ele>377.0</ele><time>2026-04-04T10:02:21.409Z</time></trkpt><trkpt lat="42.9901523" lon="13.3707373"><ele>377.0</ele><time>2026-04-04T10:02:23.409Z</time></trkpt><trkpt lat="42.9900661" lon="13.3706852"><ele>377.0</ele><time>2026-04-04T10:02:25.409Z</time></trkpt><trkpt lat="42.9899749" lon="13.3706753"><ele>377.0</ele><time>2026-04-04T10:02:27.409Z</time></trkpt><trkpt lat="42.9899079" lon="13.3706322"><ele>377.1666666666667</ele><time>2026-04-04T10:02:29.409Z</time></trkpt><trkpt lat="42.989815" lon="13.3706304"><ele>377.33333333333337</ele><time>2026-04-04T10:02:31.409Z</time></trkpt><trkpt lat="42.98973" lon="13.37062"><ele>377.5</ele><time>2026-04-04T10:02:33.409Z</time></trkpt><trkpt lat="42.9896492" lon="13.3705928"><ele>377.6666666666667</ele><time>2026-04-04T10:02:35.409Z</time></trkpt><trkpt lat="42.9895633" lon="13.3705629"><ele>377.8333333333333</ele><time>2026-04-04T10:02:37.409Z</time></trkpt><trkpt lat="42.9894784" lon="13.3705213"><ele>378.0</ele><time>2026-04-04T10:02:39.409Z</time></trkpt><trkpt lat="42.9894025" lon="13.3704779"><ele>377.6666666666667</ele><time>2026-04-04T10:02:41.409Z</time></trkpt><trkpt lat="42.9893281" lon="13.3704399"><ele>377.3333333333333</ele><time>2026-04-04T10:02:43.409Z</time></trkpt><trkpt lat="42.9892515" lon="13.3704129"><ele>377.0</ele><time>2026-04-04T10:02:45.409Z</time></trkpt><trkpt lat="42.9891756" lon="13.370369"><ele>376.66666666666663</ele><time>2026-04-04T10:02:47.409Z</time></trkpt><trkpt lat="42.9890854" lon="13.3703137"><ele>376.3333333333333</ele><time>2026-04-04T10:02:49.409Z</time></trkpt><trkpt lat="42.9889917" lon="13.3702452"><ele>376.0</ele><time>2026-04-04T10:02:51.409Z</time></trkpt><trkpt lat="42.9889223" lon="13.3701741"><ele>376.0</ele><time>2026-04-04T10:02:53.409Z</time></trkpt><trkpt lat="42.9888435" lon="13.3701557"><ele>376.0</ele><time>2026-04-04T10:02:55.409Z</time></trkpt><trkpt lat="42.9887644" lon="13.3700669"><ele>376.0</ele><time>2026-04-04T10:02:57.409Z</time></trkpt><trkpt lat="42.9887024" lon="13.3699909"><ele>376.0</ele><time>2026-04-04T10:02:59.409Z</time></trkpt><trkpt lat="42.9886284" lon="13.3699258"><ele>376.0</ele><time>2026-04-04T10:03:01.408Z</time></trkpt><trkpt lat="42.9885439" lon="13.3698654"><ele>376.0</ele><time>2026-04-04T10:03:03.409Z</time></trkpt><trkpt lat="42.9884503" lon="13.3698273"><ele>376.0</ele><time>2026-04-04T10:03:05.409Z</time></trkpt><trkpt lat="42.9883275" lon="13.369785"><ele>376.0</ele><time>2026-04-04T10:03:07.409Z</time></trkpt><trkpt lat="42.9882441" lon="13.3697445"><ele>376.0</ele><time>2026-04-04T10:03:09.409Z</time></trkpt><trkpt lat="42.9881789" lon="13.3696761"><ele>376.0</ele><time>2026-04-04T10:03:11.409Z</time></trkpt><trkpt lat="42.9881" lon="13.3696206"><ele>376.0</ele><time>2026-04-04T10:03:13.409Z</time></trkpt><trkpt lat="42.9880315" lon="13.3695826"><ele>376.66666666666663</ele><time>2026-04-04T10:03:15.409Z</time></trkpt><trkpt lat="42.9879386" lon="13.3695395"><ele>377.3333333333333</ele><time>2026-04-04T10:03:17.409Z</time></trkpt><trkpt lat="42.9878639" lon="13.3694605"><ele>378.0</ele><time>2026-04-04T10:03:19.409Z</time></trkpt><trkpt lat="42.9877901" lon="13.3694121"><ele>378.6666666666667</ele><time>2026-04-04T10:03:21.409Z</time></trkpt><trkpt lat="42.9876916" lon="13.3693538"><ele>379.33333333333337</ele><time>2026-04-04T10:03:23.408Z</time></trkpt><trkpt lat="42.987626" lon="13.3693385"><ele>380.0</ele><time>2026-04-04T10:03:25.409Z</time></trkpt><trkpt lat="42.9875656" lon="13.3692585"><ele>380.0</ele><time>2026-04-04T10:03:27.409Z</time></trkpt><trkpt lat="42.9875168" lon="13.3692036"><ele>380.0</ele><time>2026-04-04T10:03:29.408Z</time></trkpt><trkpt lat="42.9874502" lon="13.3691692"><ele>380.0</ele><time>2026-04-04T10:03:31.409Z</time></trkpt><trkpt lat="42.9873912" lon="13.3691317"><ele>380.0</ele><time>2026-04-04T10:03:33.408Z</time></trkpt><trkpt lat="42.987326" lon="13.3690753"><ele>380.0</ele><time>2026-04-04T10:03:35.409Z</time></trkpt><trkpt lat="42.987258" lon="13.3690303"><ele>380.0</ele><time>2026-04-04T10:03:37.409Z</time></trkpt><trkpt lat="42.9871901" lon="13.3689896"><ele>380.0</ele><time>2026-04-04T10:03:39.409Z</time></trkpt><trkpt lat="42.9871232" lon="13.3689424"><ele>380.0</ele><time>2026-04-04T10:03:41.409Z</time></trkpt><trkpt lat="42.9870673" lon="13.3688968"><ele>380.0</ele><time>2026-04-04T10:03:43.409Z</time></trkpt><trkpt lat="42.9869984" lon="13.3688453"><ele>380.0</ele><time>2026-04-04T10:03:45.409Z</time></trkpt><trkpt lat="42.9869371" lon="13.3688026"><ele>380.0</ele><time>2026-04-04T10:03:47.409Z</time></trkpt><trkpt lat="42.9868701" lon="13.3687791"><ele>380.0</ele><time>2026-04-04T10:03:49.409Z</time></trkpt><trkpt lat="42.9868081" lon="13.3687488"><ele>380.0</ele><time>2026-04-04T10:03:51.409Z</time></trkpt><trkpt lat="42.9867398" lon="13.3687083"><ele>380.0</ele><time>2026-04-04T10:03:53.409Z</time></trkpt><trkpt lat="42.9866665" lon="13.3686696"><ele>380.6666666666667</ele><time>2026-04-04T10:03:55.409Z</time></trkpt><trkpt lat="42.9865937" lon="13.3686449"><ele>381.33333333333337</ele><time>2026-04-04T10:03:57.409Z</time></trkpt><trkpt lat="42.9865302" lon="13.3686325"><ele>382.0</ele><time>2026-04-04T10:03:59.409Z</time></trkpt><trkpt lat="42.986456" lon="13.368579"><ele>382.6666666666667</ele><time>2026-04-04T10:04:02.409Z</time></trkpt><trkpt lat="42.9863886" lon="13.3685196"><ele>383.3333333333333</ele><time>2026-04-04T10:04:06.409Z</time></trkpt><trkpt lat="42.986322" lon="13.3684508"><ele>384.0</ele><time>2026-04-04T10:04:09.409Z</time></trkpt><trkpt lat="42.986251" lon="13.3683973"><ele>383.99999999999994</ele><time>2026-04-04T10:04:12.409Z</time></trkpt><trkpt lat="42.9861877" lon="13.3683705"><ele>384.0</ele><time>2026-04-04T10:04:15.409Z</time></trkpt><trkpt lat="42.9861261" lon="13.3683474"><ele>384.0</ele><time>2026-04-04T10:04:18.409Z</time></trkpt><trkpt lat="42.9860734" lon="13.3682877"><ele>384.0</ele><time>2026-04-04T10:04:21.409Z</time></trkpt><trkpt lat="42.9860262" lon="13.3682164"><ele>384.0</ele><time>2026-04-04T10:04:25.409Z</time></trkpt><trkpt lat="42.9859855" lon="13.3681507"><ele>383.99999999999994</ele><time>2026-04-04T10:04:29.409Z</time></trkpt><trkpt lat="42.9859388" lon="13.3680705"><ele>384.0</ele><time>2026-04-04T10:04:34.409Z</time></trkpt><trkpt lat="42.9858911" lon="13.368012"><ele>384.99999999999994</ele><time>2026-04-04T10:04:39.409Z</time></trkpt><trkpt lat="42.9858353" lon="13.3679553"><ele>386.0</ele><time>2026-04-04T10:04:43.409Z</time></trkpt><trkpt lat="42.9857785" lon="13.3679072"><ele>387.0</ele><time>2026-04-04T10:04:46.409Z</time></trkpt><trkpt lat="42.9857096" lon="13.3678647"><ele>388.0</ele><time>2026-04-04T10:04:50.409Z</time></trkpt><trkpt lat="42.9856516" lon="13.3678104"><ele>389.0</ele><time>2026-04-04T10:04:54.409Z</time></trkpt><trkpt lat="42.9856133" lon="13.3677406"><ele>389.99999999999994</ele><time>2026-04-04T10:04:59.409Z</time></trkpt><trkpt lat="42.9855664" lon="13.3676727"><ele>391.0</ele><time>2026-04-04T10:05:04.409Z</time></trkpt><trkpt lat="42.9854982" lon="13.367621"><ele>390.99999999999994</ele><time>2026-04-04T10:05:08.409Z</time></trkpt><trkpt lat="42.9854306" lon="13.3675892"><ele>391.0</ele><time>2026-04-04T10:05:12.409Z</time></trkpt><trkpt lat="42.9853675" lon="13.3675544"><ele>391.0</ele><time>2026-04-04T10:05:17.409Z</time></trkpt><trkpt lat="42.985295" lon="13.3675263"><ele>391.0</ele><time>2026-04-04T10:05:21.409Z</time></trkpt><trkpt lat="42.9852293" lon="13.367525"><ele>391.0</ele><time>2026-04-04T10:05:24.409Z</time></trkpt><trkpt lat="42.9851684" lon="13.3674972"><ele>390.99999999999994</ele><time>2026-04-04T10:05:27.409Z</time></trkpt><trkpt lat="42.9851009" lon="13.3674576"><ele>391.0</ele><time>2026-04-04T10:05:31.409Z</time></trkpt><trkpt lat="42.985044" lon="13.3674168"><ele>392.85714285714283</ele><time>2026-04-04T10:05:34.409Z</time></trkpt><trkpt lat="42.9849685" lon="13.3673823"><ele>394.7142857142857</ele><time>2026-04-04T10:05:37.409Z</time></trkpt><trkpt lat="42.9848948" lon="13.367383"><ele>396.57142857142856</ele><time>2026-04-04T10:05:40.409Z</time></trkpt><trkpt lat="42.9848333" lon="13.3673482"><ele>398.42857142857144</ele><time>2026-04-04T10:05:43.408Z</time></trkpt><trkpt lat="42.9847671" lon="13.3673175"><ele>400.2857142857143</ele><time>2026-04-04T10:05:46.409Z</time></trkpt><trkpt lat="42.9846924" lon="13.3673179"><ele>402.1428571428571</ele><time>2026-04-04T10:05:49.409Z</time></trkpt><trkpt lat="42.984628" lon="13.3672835"><ele>404.0</ele><time>2026-04-04T10:05:52.408Z</time></trkpt><trkpt lat="42.9845681" lon="13.367235"><ele>404.66666666666663</ele><time>2026-04-04T10:05:54.409Z</time></trkpt><trkpt lat="42.9844815" lon="13.3671861"><ele>405.3333333333333</ele><time>2026-04-04T10:05:57.409Z</time></trkpt><trkpt lat="42.9844215" lon="13.3671375"><ele>406.0</ele><time>2026-04-04T10:06:00.409Z</time></trkpt><trkpt lat="42.9843513" lon="13.3671013"><ele>406.66666666666663</ele><time>2026-04-04T10:06:03.409Z</time></trkpt><trkpt lat="42.9842588" lon="13.3670911"><ele>407.3333333333333</ele><time>2026-04-04T10:06:06.409Z</time></trkpt><trkpt lat="42.9841692" lon="13.3671129"><ele>408.0</ele><time>2026-04-04T10:06:09.409Z</time></trkpt><trkpt lat="42.9840988" lon="13.3671047"><ele>411.1666666666667</ele><time>2026-04-04T10:06:12.409Z</time></trkpt><trkpt lat="42.9840349" lon="13.3670962"><ele>414.33333333333337</ele><time>2026-04-04T10:06:14.409Z</time></trkpt><trkpt lat="42.9839494" lon="13.3670922"><ele>417.5</ele><time>2026-04-04T10:06:17.409Z</time></trkpt><trkpt lat="42.9838647" lon="13.3670914"><ele>420.6666666666667</ele><time>2026-04-04T10:06:20.409Z</time></trkpt><trkpt lat="42.9837719" lon="13.3671071"><ele>423.83333333333337</ele><time>2026-04-04T10:06:23.409Z</time></trkpt><trkpt lat="42.9836863" lon="13.367112"><ele>427.0</ele><time>2026-04-04T10:06:26.409Z</time></trkpt><trkpt lat="42.9836228" lon="13.3671185"><ele>427.00000000000006</ele><time>2026-04-04T10:06:28.409Z</time></trkpt><trkpt lat="42.983555" lon="13.3671293"><ele>427.0</ele><time>2026-04-04T10:06:30.409Z</time></trkpt><trkpt lat="42.9834654" lon="13.367144"><ele>427.0</ele><time>2026-04-04T10:06:33.409Z</time></trkpt><trkpt lat="42.9833948" lon="13.3671532"><ele>427.0</ele><time>2026-04-04T10:06:35.409Z</time></trkpt><trkpt lat="42.9833055" lon="13.3671557"><ele>427.00000000000006</ele><time>2026-04-04T10:06:38.409Z</time></trkpt><trkpt lat="42.9832199" lon="13.3671571"><ele>427.0</ele><time>2026-04-04T10:06:41.408Z</time></trkpt><trkpt lat="42.9831522" lon="13.3671477"><ele>427.0</ele><time>2026-04-04T10:06:43.409Z</time></trkpt><trkpt lat="42.9830906" lon="13.3671227"><ele>427.0</ele><time>2026-04-04T10:06:45.409Z</time></trkpt><trkpt lat="42.9830098" lon="13.3670939"><ele>427.0</ele><time>2026-04-04T10:06:48.409Z</time></trkpt><trkpt lat="42.9829318" lon="13.3670516"><ele>427.0</ele><time>2026-04-04T10:06:51.409Z</time></trkpt><trkpt lat="42.9828722" lon="13.3670235"><ele>427.0</ele><time>2026-04-04T10:06:53.409Z</time></trkpt><trkpt lat="42.982801" lon="13.3669984"><ele>427.0</ele><time>2026-04-04T10:06:56.409Z</time></trkpt><trkpt lat="42.9827384" lon="13.3669442"><ele>427.0</ele><time>2026-04-04T10:07:00.409Z</time></trkpt><trkpt lat="42.9826996" lon="13.3668735"><ele>427.0</ele><time>2026-04-04T10:07:02.409Z</time></trkpt><trkpt lat="42.9826611" lon="13.3667686"><ele>427.0</ele><time>2026-04-04T10:07:05.409Z</time></trkpt><trkpt lat="42.9826253" lon="13.3666925"><ele>427.0</ele><time>2026-04-04T10:07:07.409Z</time></trkpt><trkpt lat="42.9825965" lon="13.3666067"><ele>427.0</ele><time>2026-04-04T10:07:09.408Z</time></trkpt><trkpt lat="42.9825704" lon="13.3665272"><ele>427.0</ele><time>2026-04-04T10:07:11.409Z</time></trkpt><trkpt lat="42.9825589" lon="13.3664404"><ele>427.0</ele><time>2026-04-04T10:07:14.409Z</time></trkpt><trkpt lat="42.9825388" lon="13.3663427"><ele>427.0</ele><time>2026-04-04T10:07:18.409Z</time></trkpt><trkpt lat="42.9824934" lon="13.3662673"><ele>427.00000000000006</ele><time>2026-04-04T10:10:49.408Z</time></trkpt><trkpt lat="42.9824368" lon="13.3661946"><ele>427.0</ele><time>2026-04-04T10:10:53.409Z</time></trkpt><trkpt lat="42.9823916" lon="13.3661255"><ele>427.0</ele><time>2026-04-04T10:10:56.409Z</time></trkpt><trkpt lat="42.9823589" lon="13.3660396"><ele>427.0</ele><time>2026-04-04T10:10:59.409Z</time></trkpt><trkpt lat="42.9823285" lon="13.3659385"><ele>427.00000000000006</ele><time>2026-04-04T10:11:03.409Z</time></trkpt><trkpt lat="42.9822855" lon="13.3658497"><ele>427.0</ele><time>2026-04-04T10:11:07.409Z</time></trkpt><trkpt lat="42.9822256" lon="13.3657676"><ele>427.00000000000006</ele><time>2026-04-04T10:11:11.409Z</time></trkpt><trkpt lat="42.9821525" lon="13.3657201"><ele>427.0</ele><time>2026-04-04T10:11:14.409Z</time></trkpt><trkpt lat="42.9820866" lon="13.3657076"><ele>427.0</ele><time>2026-04-04T10:11:17.409Z</time></trkpt><trkpt lat="42.9820127" lon="13.365665"><ele>427.0</ele><time>2026-04-04T10:11:21.409Z</time></trkpt><trkpt lat="42.9819637" lon="13.3655875"><ele>427.00000000000006</ele><time>2026-04-04T10:11:25.409Z</time></trkpt><trkpt lat="42.9819582" lon="13.3654763"><ele>427.0</ele><time>2026-04-04T10:11:29.409Z</time></trkpt><trkpt lat="42.9819482" lon="13.3653639"><ele>429.33333333333337</ele><time>2026-04-04T10:11:32.409Z</time></trkpt><trkpt lat="42.9819076" lon="13.3652736"><ele>431.6666666666667</ele><time>2026-04-04T10:11:35.409Z</time></trkpt><trkpt lat="42.9818573" lon="13.3651731"><ele>434.0</ele><time>2026-04-04T10:11:38.409Z</time></trkpt><trkpt lat="42.9817642" lon="13.3651475"><ele>436.33333333333337</ele><time>2026-04-04T10:11:41.408Z</time></trkpt><trkpt lat="42.9816869" lon="13.3651377"><ele>438.6666666666667</ele><time>2026-04-04T10:11:43.408Z</time></trkpt><trkpt lat="42.9816219" lon="13.3651215"><ele>441.0</ele><time>2026-04-04T10:11:45.408Z</time></trkpt><trkpt lat="42.9815427" lon="13.365049"><ele>441.0</ele><time>2026-04-04T10:11:48.409Z</time></trkpt><trkpt lat="42.9814837" lon="13.3649904"><ele>441.0</ele><time>2026-04-04T10:11:51.409Z</time></trkpt><trkpt lat="42.9814336" lon="13.364921"><ele>441.0</ele><time>2026-04-04T10:11:54.409Z</time></trkpt><trkpt lat="42.9813731" lon="13.3648633"><ele>441.0</ele><time>2026-04-04T10:11:57.409Z</time></trkpt><trkpt lat="42.9813053" lon="13.3648065"><ele>441.0</ele><time>2026-04-04T10:12:00.409Z</time></trkpt><trkpt lat="42.9812439" lon="13.3647455"><ele>441.0</ele><time>2026-04-04T10:12:03.409Z</time></trkpt><trkpt lat="42.9811747" lon="13.3647313"><ele>441.0</ele><time>2026-04-04T10:12:07.409Z</time></trkpt><trkpt lat="42.9811108" lon="13.3647042"><ele>442.0</ele><time>2026-04-04T10:12:10.408Z</time></trkpt><trkpt lat="42.9810344" lon="13.3646768"><ele>443.0</ele><time>2026-04-04T10:12:13.409Z</time></trkpt><trkpt lat="42.9809777" lon="13.3646385"><ele>444.0</ele><time>2026-04-04T10:12:15.409Z</time></trkpt><trkpt lat="42.9809237" lon="13.3645934"><ele>445.0</ele><time>2026-04-04T10:12:17.409Z</time></trkpt><trkpt lat="42.9808714" lon="13.3645438"><ele>446.0</ele><time>2026-04-04T10:12:19.409Z</time></trkpt><trkpt lat="42.9808162" lon="13.3644989"><ele>447.0</ele><time>2026-04-04T10:12:21.409Z</time></trkpt><trkpt lat="42.9807375" lon="13.3644235"><ele>448.0</ele><time>2026-04-04T10:12:24.409Z</time></trkpt><trkpt lat="42.980685" lon="13.36435"><ele>448.00000000000006</ele><time>2026-04-04T10:12:26.409Z</time></trkpt><trkpt lat="42.9806279" lon="13.3642855"><ele>448.0</ele><time>2026-04-04T10:12:28.409Z</time></trkpt><trkpt lat="42.9805842" lon="13.3642157"><ele>448.0</ele><time>2026-04-04T10:12:30.409Z</time></trkpt><trkpt lat="42.9805377" lon="13.3641423"><ele>448.0</ele><time>2026-04-04T10:12:32.409Z</time></trkpt><trkpt lat="42.9804928" lon="13.3640772"><ele>448.00000000000006</ele><time>2026-04-04T10:12:34.409Z</time></trkpt><trkpt lat="42.9804536" lon="13.3639656"><ele>448.0</ele><time>2026-04-04T10:12:37.409Z</time></trkpt><trkpt lat="42.9804251" lon="13.3638544"><ele>451.0</ele><time>2026-04-04T10:12:40.409Z</time></trkpt><trkpt lat="42.9804073" lon="13.3637325"><ele>454.0</ele><time>2026-04-04T10:12:43.409Z</time></trkpt><trkpt lat="42.9803928" lon="13.3636421"><ele>457.0</ele><time>2026-04-04T10:12:45.409Z</time></trkpt><trkpt lat="42.9803671" lon="13.3635609"><ele>460.0</ele><time>2026-04-04T10:12:47.409Z</time></trkpt><trkpt lat="42.9803355" lon="13.3634729"><ele>463.0</ele><time>2026-04-04T10:12:49.409Z</time></trkpt><trkpt lat="42.9803079" lon="13.3633785"><ele>466.0</ele><time>2026-04-04T10:12:51.409Z</time></trkpt><trkpt lat="42.9802864" lon="13.3632823"><ele>469.0</ele><time>2026-04-04T10:12:53.409Z</time></trkpt><trkpt lat="42.9802687" lon="13.3631792"><ele>469.0</ele><time>2026-04-04T10:12:55.409Z</time></trkpt><trkpt lat="42.9802466" lon="13.363085"><ele>469.0</ele><time>2026-04-04T10:12:57.409Z</time></trkpt><trkpt lat="42.9802239" lon="13.362992"><ele>469.0</ele><time>2026-04-04T10:12:59.408Z</time></trkpt><trkpt lat="42.9802076" lon="13.3629065"><ele>469.0</ele><time>2026-04-04T10:13:01.409Z</time></trkpt><trkpt lat="42.9801919" lon="13.3627862"><ele>469.0</ele><time>2026-04-04T10:13:04.409Z</time></trkpt><trkpt lat="42.9801531" lon="13.3626829"><ele>469.0</ele><time>2026-04-04T10:13:07.409Z</time></trkpt><trkpt lat="42.9801199" lon="13.3626074"><ele>469.0</ele><time>2026-04-04T10:13:09.409Z</time></trkpt><trkpt lat="42.9800578" lon="13.3625115"><ele>469.33333333333337</ele><time>2026-04-04T10:13:12.409Z</time></trkpt><trkpt lat="42.9800057" lon="13.3624014"><ele>469.6666666666667</ele><time>2026-04-04T10:13:15.409Z</time></trkpt><trkpt lat="42.9799698" lon="13.3623139"><ele>470.0</ele><time>2026-04-04T10:13:17.409Z</time></trkpt><trkpt lat="42.9799303" lon="13.3622216"><ele>470.33333333333337</ele><time>2026-04-04T10:13:19.409Z</time></trkpt><trkpt lat="42.9798866" lon="13.3621367"><ele>470.6666666666667</ele><time>2026-04-04T10:13:21.409Z</time></trkpt><trkpt lat="42.9798461" lon="13.3620626"><ele>471.0</ele><time>2026-04-04T10:13:23.409Z</time></trkpt><trkpt lat="42.9797935" lon="13.3619806"><ele>471.0</ele><time>2026-04-04T10:13:25.409Z</time></trkpt><trkpt lat="42.979742" lon="13.3619079"><ele>471.0</ele><time>2026-04-04T10:13:27.409Z</time></trkpt><trkpt lat="42.9796787" lon="13.3618172"><ele>471.0</ele><time>2026-04-04T10:13:30.408Z</time></trkpt><trkpt lat="42.9796193" lon="13.361736"><ele>471.0</ele><time>2026-04-04T10:13:33.409Z</time></trkpt><trkpt lat="42.9795506" lon="13.3616763"><ele>471.0</ele><time>2026-04-04T10:13:35.409Z</time></trkpt><trkpt lat="42.9795004" lon="13.3616151"><ele>471.0</ele><time>2026-04-04T10:13:37.409Z</time></trkpt><trkpt lat="42.9794408" lon="13.3615668"><ele>471.0</ele><time>2026-04-04T10:13:39.409Z</time></trkpt><trkpt lat="42.9793714" lon="13.3615268"><ele>471.0</ele><time>2026-04-04T10:13:41.409Z</time></trkpt><trkpt lat="42.979306" lon="13.3614594"><ele>471.0</ele><time>2026-04-04T10:13:43.409Z</time></trkpt><trkpt lat="42.9792459" lon="13.3613926"><ele>471.0</ele><time>2026-04-04T10:13:45.409Z</time></trkpt><trkpt lat="42.9791897" lon="13.3613311"><ele>471.0</ele><time>2026-04-04T10:13:47.409Z</time></trkpt><trkpt lat="42.979139" lon="13.3612694"><ele>471.0</ele><time>2026-04-04T10:13:49.409Z</time></trkpt><trkpt lat="42.9790681" lon="13.3611906"><ele>468.5</ele><time>2026-04-04T10:13:52.409Z</time></trkpt><trkpt lat="42.9790143" lon="13.3611309"><ele>466.0</ele><time>2026-04-04T10:13:54.409Z</time></trkpt><trkpt lat="42.9789578" lon="13.3610518"><ele>463.5</ele><time>2026-04-04T10:13:56.409Z</time></trkpt><trkpt lat="42.9789262" lon="13.3609684"><ele>461.0</ele><time>2026-04-04T10:13:58.409Z</time></trkpt><trkpt lat="42.9789166" lon="13.3608695"><ele>458.5</ele><time>2026-04-04T10:14:00.408Z</time></trkpt><trkpt lat="42.9789109" lon="13.3607605"><ele>456.0</ele><time>2026-04-04T10:14:03.409Z</time></trkpt><trkpt lat="42.9789203" lon="13.3606475"><ele>456.0</ele><time>2026-04-04T10:14:06.409Z</time></trkpt><trkpt lat="42.9789394" lon="13.3605567"><ele>456.0</ele><time>2026-04-04T10:14:08.409Z</time></trkpt><trkpt lat="42.9789689" lon="13.3604533"><ele>456.0</ele><time>2026-04-04T10:14:11.409Z</time></trkpt><trkpt lat="42.9789949" lon="13.3603462"><ele>456.0</ele><time>2026-04-04T10:14:13.409Z</time></trkpt><trkpt lat="42.9790123" lon="13.3602363"><ele>456.0</ele><time>2026-04-04T10:14:15.409Z</time></trkpt><trkpt lat="42.9790279" lon="13.3601251"><ele>456.0</ele><time>2026-04-04T10:14:17.409Z</time></trkpt><trkpt lat="42.9790295" lon="13.3600357"><ele>457.1666666666667</ele><time>2026-04-04T10:14:19.409Z</time></trkpt><trkpt lat="42.9790386" lon="13.3599197"><ele>458.33333333333337</ele><time>2026-04-04T10:14:22.409Z</time></trkpt><trkpt lat="42.9790453" lon="13.3597857"><ele>459.5</ele><time>2026-04-04T10:14:25.409Z</time></trkpt><trkpt lat="42.9790425" lon="13.3596823"><ele>460.6666666666667</ele><time>2026-04-04T10:14:27.409Z</time></trkpt><trkpt lat="42.9790345" lon="13.3595749"><ele>461.83333333333337</ele><time>2026-04-04T10:14:29.409Z</time></trkpt><trkpt lat="42.9790171" lon="13.3594517"><ele>463.0</ele><time>2026-04-04T10:14:31.409Z</time></trkpt><trkpt lat="42.9789875" lon="13.359327"><ele>464.83333333333337</ele><time>2026-04-04T10:14:33.409Z</time></trkpt><trkpt lat="42.9789646" lon="13.3592067"><ele>466.6666666666667</ele><time>2026-04-04T10:14:35.409Z</time></trkpt><trkpt lat="42.9789533" lon="13.359104"><ele>468.5</ele><time>2026-04-04T10:14:37.409Z</time></trkpt><trkpt lat="42.9789209" lon="13.3589947"><ele>470.33333333333337</ele><time>2026-04-04T10:14:40.409Z</time></trkpt><trkpt lat="42.9788679" lon="13.3589064"><ele>472.1666666666667</ele><time>2026-04-04T10:14:43.408Z</time></trkpt><trkpt lat="42.9788275" lon="13.3588289"><ele>474.0</ele><time>2026-04-04T10:14:45.409Z</time></trkpt><trkpt lat="42.9787522" lon="13.3587384"><ele>475.71428571428567</ele><time>2026-04-04T10:14:48.409Z</time></trkpt><trkpt lat="42.9787087" lon="13.3586748"><ele>477.42857142857144</ele><time>2026-04-04T10:14:51.409Z</time></trkpt><trkpt lat="42.9786718" lon="13.3585857"><ele>479.1428571428571</ele><time>2026-04-04T10:14:55.408Z</time></trkpt><trkpt lat="42.9786341" lon="13.3585051"><ele>480.85714285714283</ele><time>2026-04-04T10:14:58.408Z</time></trkpt><trkpt lat="42.9785924" lon="13.3584252"><ele>482.57142857142856</ele><time>2026-04-04T10:15:01.409Z</time></trkpt><trkpt lat="42.9785409" lon="13.3583589"><ele>484.2857142857143</ele><time>2026-04-04T10:15:18.409Z</time></trkpt><trkpt lat="42.9785167" lon="13.3582617"><ele>486.0</ele><time>2026-04-04T10:15:22.409Z</time></trkpt><trkpt lat="42.9784882" lon="13.3581797"><ele>486.0</ele><time>2026-04-04T10:15:25.409Z</time></trkpt><trkpt lat="42.9784341" lon="13.3581193"><ele>486.0</ele><time>2026-04-04T10:15:28.409Z</time></trkpt><trkpt lat="42.9783855" lon="13.3580385"><ele>486.0</ele><time>2026-04-04T10:15:31.409Z</time></trkpt><trkpt lat="42.9783265" lon="13.3579609"><ele>486.0</ele><time>2026-04-04T10:15:34.409Z</time></trkpt><trkpt lat="42.9782921" lon="13.3578722"><ele>486.0</ele><time>2026-04-04T10:15:37.409Z</time></trkpt><trkpt lat="42.9782789" lon="13.3577727"><ele>486.0</ele><time>2026-04-04T10:15:40.409Z</time></trkpt><trkpt lat="42.9782627" lon="13.3576677"><ele>482.1666666666667</ele><time>2026-04-04T10:15:43.409Z</time></trkpt><trkpt lat="42.9782332" lon="13.3575554"><ele>478.33333333333337</ele><time>2026-04-04T10:15:46.409Z</time></trkpt><trkpt lat="42.9782072" lon="13.3574756"><ele>474.5</ele><time>2026-04-04T10:15:48.409Z</time></trkpt><trkpt lat="42.9781672" lon="13.3574075"><ele>470.6666666666667</ele><time>2026-04-04T10:15:50.409Z</time></trkpt><trkpt lat="42.9781246" lon="13.3573393"><ele>466.83333333333337</ele><time>2026-04-04T10:15:52.409Z</time></trkpt><trkpt lat="42.9780696" lon="13.3572422"><ele>463.0</ele><time>2026-04-04T10:15:55.409Z</time></trkpt><trkpt lat="42.9780195" lon="13.3571499"><ele>463.00000000000006</ele><time>2026-04-04T10:15:58.409Z</time></trkpt><trkpt lat="42.9779746" lon="13.3570867"><ele>463.0</ele><time>2026-04-04T10:16:00.409Z</time></trkpt><trkpt lat="42.9779319" lon="13.3570057"><ele>463.0</ele><time>2026-04-04T10:16:02.409Z</time></trkpt><trkpt lat="42.9778934" lon="13.356923"><ele>463.0</ele><time>2026-04-04T10:16:04.409Z</time></trkpt><trkpt lat="42.9778468" lon="13.3568172"><ele>463.00000000000006</ele><time>2026-04-04T10:16:07.409Z</time></trkpt><trkpt lat="42.9777987" lon="13.3567173"><ele>463.0</ele><time>2026-04-04T10:16:10.409Z</time></trkpt><trkpt lat="42.9777543" lon="13.3566334"><ele>463.00000000000006</ele><time>2026-04-04T10:16:12.409Z</time></trkpt><trkpt lat="42.9777123" lon="13.3565503"><ele>463.0</ele><time>2026-04-04T10:16:14.408Z</time></trkpt><trkpt lat="42.9776651" lon="13.3564754"><ele>463.0</ele><time>2026-04-04T10:16:16.409Z</time></trkpt><trkpt lat="42.9776119" lon="13.3563897"><ele>463.0</ele><time>2026-04-04T10:16:18.409Z</time></trkpt><trkpt lat="42.9775621" lon="13.3562937"><ele>463.00000000000006</ele><time>2026-04-04T10:16:20.409Z</time></trkpt><trkpt lat="42.9775119" lon="13.3561949"><ele>463.0</ele><time>2026-04-04T10:16:22.409Z</time></trkpt><trkpt lat="42.9774611" lon="13.3561038"><ele>461.00000000000006</ele><time>2026-04-04T10:16:24.409Z</time></trkpt><trkpt lat="42.9774161" lon="13.3560162"><ele>459.0</ele><time>2026-04-04T10:16:26.409Z</time></trkpt><trkpt lat="42.9773734" lon="13.35592"><ele>457.0</ele><time>2026-04-04T10:16:28.409Z</time></trkpt><trkpt lat="42.9773408" lon="13.3558197"><ele>455.0</ele><time>2026-04-04T10:16:30.408Z</time></trkpt><trkpt lat="42.9773413" lon="13.3557168"><ele>453.00000000000006</ele><time>2026-04-04T10:16:32.409Z</time></trkpt><trkpt lat="42.9773794" lon="13.3556216"><ele>451.0</ele><time>2026-04-04T10:16:34.409Z</time></trkpt><trkpt lat="42.977449" lon="13.3555855"><ele>454.33333333333337</ele><time>2026-04-04T10:16:36.409Z</time></trkpt><trkpt lat="42.9775222" lon="13.3555649"><ele>457.6666666666667</ele><time>2026-04-04T10:16:38.409Z</time></trkpt><trkpt lat="42.9775875" lon="13.3555326"><ele>461.0</ele><time>2026-04-04T10:16:40.409Z</time></trkpt><trkpt lat="42.9776711" lon="13.3554908"><ele>464.33333333333337</ele><time>2026-04-04T10:16:43.409Z</time></trkpt><trkpt lat="42.9777473" lon="13.3554716"><ele>467.6666666666667</ele><time>2026-04-04T10:16:46.409Z</time></trkpt><trkpt lat="42.9778205" lon="13.3554565"><ele>471.0</ele><time>2026-04-04T10:16:49.409Z</time></trkpt><trkpt lat="42.9778838" lon="13.3554303"><ele>471.3333333333333</ele><time>2026-04-04T10:16:52.409Z</time></trkpt><trkpt lat="42.9779339" lon="13.3553607"><ele>471.66666666666663</ele><time>2026-04-04T10:16:55.409Z</time></trkpt><trkpt lat="42.9779326" lon="13.3552496"><ele>472.0</ele><time>2026-04-04T10:16:58.409Z</time></trkpt><trkpt lat="42.9779093" lon="13.3551511"><ele>472.3333333333333</ele><time>2026-04-04T10:17:00.409Z</time></trkpt><trkpt lat="42.9778959" lon="13.3550453"><ele>472.66666666666663</ele><time>2026-04-04T10:17:02.409Z</time></trkpt><trkpt lat="42.9778782" lon="13.3549288"><ele>473.0</ele><time>2026-04-04T10:17:04.409Z</time></trkpt><trkpt lat="42.9778588" lon="13.3548206"><ele>472.99999999999994</ele><time>2026-04-04T10:17:06.409Z</time></trkpt><trkpt lat="42.977839" lon="13.3547283"><ele>473.0</ele><time>2026-04-04T10:17:08.409Z</time></trkpt><trkpt lat="42.9778141" lon="13.3546181"><ele>473.0</ele><time>2026-04-04T10:17:11.409Z</time></trkpt><trkpt lat="42.9777753" lon="13.3545282"><ele>473.0</ele><time>2026-04-04T10:17:14.409Z</time></trkpt><trkpt lat="42.9777394" lon="13.3544435"><ele>472.99999999999994</ele><time>2026-04-04T10:17:16.409Z</time></trkpt><trkpt lat="42.9777094" lon="13.3543469"><ele>473.0</ele><time>2026-04-04T10:17:18.409Z</time></trkpt><trkpt lat="42.9776707" lon="13.3542404"><ele>473.8333333333333</ele><time>2026-04-04T10:17:20.409Z</time></trkpt><trkpt lat="42.9776324" lon="13.3541447"><ele>474.66666666666663</ele><time>2026-04-04T10:17:22.409Z</time></trkpt><trkpt lat="42.9776091" lon="13.3540294"><ele>475.5</ele><time>2026-04-04T10:17:24.409Z</time></trkpt><trkpt lat="42.977571" lon="13.353956"><ele>476.33333333333337</ele><time>2026-04-04T10:17:26.409Z</time></trkpt><trkpt lat="42.9775198" lon="13.3538537"><ele>477.1666666666667</ele><time>2026-04-04T10:17:28.409Z</time></trkpt><trkpt lat="42.9774758" lon="13.3537531"><ele>478.0</ele><time>2026-04-04T10:17:30.409Z</time></trkpt><trkpt lat="42.9774375" lon="13.3536504"><ele>474.79999999999995</ele><time>2026-04-04T10:17:32.409Z</time></trkpt><trkpt lat="42.9773986" lon="13.353538"><ele>471.59999999999997</ele><time>2026-04-04T10:17:34.409Z</time></trkpt><trkpt lat="42.9773576" lon="13.353425"><ele>468.40000000000003</ele><time>2026-04-04T10:17:36.409Z</time></trkpt><trkpt lat="42.97732" lon="13.353302"><ele>465.20000000000005</ele><time>2026-04-04T10:17:38.409Z</time></trkpt><trkpt lat="42.9772938" lon="13.3531937"><ele>462.0</ele><time>2026-04-04T10:17:40.409Z</time></trkpt><trkpt lat="42.9772492" lon="13.3530828"><ele>463.3333333333333</ele><time>2026-04-04T10:17:42.409Z</time></trkpt><trkpt lat="42.9771967" lon="13.3529819"><ele>464.66666666666663</ele><time>2026-04-04T10:17:44.409Z</time></trkpt><trkpt lat="42.9771523" lon="13.3528724"><ele>466.0</ele><time>2026-04-04T10:17:46.409Z</time></trkpt><trkpt lat="42.977134" lon="13.3527813"><ele>467.3333333333333</ele><time>2026-04-04T10:17:48.409Z</time></trkpt><trkpt lat="42.9770892" lon="13.3526959"><ele>468.66666666666663</ele><time>2026-04-04T10:17:50.409Z</time></trkpt><trkpt lat="42.9770549" lon="13.3525811"><ele>470.0</ele><time>2026-04-04T10:17:52.409Z</time></trkpt><trkpt lat="42.9770152" lon="13.3524714"><ele>469.99999999999994</ele><time>2026-04-04T10:17:54.409Z</time></trkpt><trkpt lat="42.9769667" lon="13.352368"><ele>470.0</ele><time>2026-04-04T10:17:56.409Z</time></trkpt><trkpt lat="42.9769106" lon="13.3522751"><ele>470.0</ele><time>2026-04-04T10:17:58.409Z</time></trkpt><trkpt lat="42.9768723" lon="13.3521886"><ele>470.0</ele><time>2026-04-04T10:18:00.409Z</time></trkpt><trkpt lat="42.9768387" lon="13.3520897"><ele>469.99999999999994</ele><time>2026-04-04T10:18:02.409Z</time></trkpt><trkpt lat="42.9767849" lon="13.3520236"><ele>470.0</ele><time>2026-04-04T10:18:04.408Z</time></trkpt><trkpt lat="42.9767416" lon="13.3519366"><ele>468.99999999999994</ele><time>2026-04-04T10:18:06.408Z</time></trkpt><trkpt lat="42.9767118" lon="13.3518169"><ele>468.0</ele><time>2026-04-04T10:18:08.409Z</time></trkpt><trkpt lat="42.9766603" lon="13.3517415"><ele>467.0</ele><time>2026-04-04T10:18:10.409Z</time></trkpt><trkpt lat="42.9766037" lon="13.3516547"><ele>466.0</ele><time>2026-04-04T10:18:12.409Z</time></trkpt><trkpt lat="42.9765443" lon="13.3515701"><ele>464.99999999999994</ele><time>2026-04-04T10:18:14.409Z</time></trkpt><trkpt lat="42.9764729" lon="13.3515014"><ele>464.0</ele><time>2026-04-04T10:18:16.409Z</time></trkpt><trkpt lat="42.9764277" lon="13.3514156"><ele>465.49999999999994</ele><time>2026-04-04T10:18:18.409Z</time></trkpt><trkpt lat="42.976366" lon="13.3513247"><ele>467.0</ele><time>2026-04-04T10:18:20.409Z</time></trkpt><trkpt lat="42.9762902" lon="13.3512221"><ele>468.5</ele><time>2026-04-04T10:18:22.409Z</time></trkpt><trkpt lat="42.9762449" lon="13.35112"><ele>470.0</ele><time>2026-04-04T10:18:24.408Z</time></trkpt><trkpt lat="42.9761978" lon="13.3510397"><ele>471.49999999999994</ele><time>2026-04-04T10:18:27.409Z</time></trkpt><trkpt lat="42.9761918" lon="13.3509357"><ele>473.0</ele><time>2026-04-04T10:18:31.409Z</time></trkpt><trkpt lat="42.9761561" lon="13.3508177"><ele>473.0</ele><time>2026-04-04T10:18:34.409Z</time></trkpt><trkpt lat="42.9761269" lon="13.3507398"><ele>473.0</ele><time>2026-04-04T10:18:36.409Z</time></trkpt><trkpt lat="42.9761056" lon="13.3506572"><ele>473.0</ele><time>2026-04-04T10:18:40.409Z</time></trkpt><trkpt lat="42.9760482" lon="13.3507338"><ele>473.0</ele><time>2026-04-04T10:18:43.409Z</time></trkpt><trkpt lat="42.9759945" lon="13.3508423"><ele>473.0</ele><time>2026-04-04T10:18:45.409Z</time></trkpt><trkpt lat="42.9759295" lon="13.3508669"><ele>473.0</ele><time>2026-04-04T10:18:46.409Z</time></trkpt><trkpt lat="42.9758647" lon="13.3509174"><ele>473.0</ele><time>2026-04-04T10:18:48.409Z</time></trkpt><trkpt lat="42.9758539" lon="13.350829"><ele>472.99999999999994</ele><time>2026-04-04T10:19:39.409Z</time></trkpt><trkpt lat="42.9758989" lon="13.3508979"><ele>473.0</ele><time>2026-04-04T10:20:44.428Z</time></trkpt><trkpt lat="42.9758345" lon="13.3509155"><ele>473.0</ele><time>2026-04-04T10:24:01.456Z</time></trkpt><trkpt lat="42.9759675" lon="13.3508382"><ele>473.0</ele><time>2026-04-04T10:26:07.41Z</time></trkpt><trkpt lat="42.9759052" lon="13.3508806"><ele>472.99999999999994</ele><time>2026-04-04T10:26:21.41Z</time></trkpt><trkpt lat="42.9758392" lon="13.3509306"><ele>473.0</ele><time>2026-04-04T10:26:26.41Z</time></trkpt><trkpt lat="42.9758842" lon="13.3508688"><ele>472.99999999999994</ele><time>2026-04-04T10:36:39.468Z</time></trkpt><trkpt lat="42.9759155" lon="13.3509561"><ele>473.0</ele><time>2026-04-04T10:39:07.402Z</time></trkpt><trkpt lat="42.9759425" lon="13.3508515"><ele>473.0</ele><time>2026-04-04T10:39:58.404Z</time></trkpt><trkpt lat="42.9760261" lon="13.350805"><ele>473.0</ele><time>2026-04-04T10:40:01.406Z</time></trkpt><trkpt lat="42.9760827" lon="13.3507562"><ele>472.99999999999994</ele><time>2026-04-04T10:40:04.401Z</time></trkpt><trkpt lat="42.9760892" lon="13.3506586"><ele>473.0</ele><time>2026-04-04T10:40:08.403Z</time></trkpt><trkpt lat="42.976089" lon="13.3505301"><ele>472.7142857142857</ele><time>2026-04-04T10:40:11.403Z</time></trkpt><trkpt lat="42.9760573" lon="13.3504471"><ele>472.42857142857144</ele><time>2026-04-04T10:40:15.403Z</time></trkpt><trkpt lat="42.9759869" lon="13.3504288"><ele>472.14285714285717</ele><time>2026-04-04T10:40:19.403Z</time></trkpt><trkpt lat="42.9759194" lon="13.3504003"><ele>471.8571428571429</ele><time>2026-04-04T10:40:21.403Z</time></trkpt><trkpt lat="42.9758767" lon="13.3503046"><ele>471.57142857142856</ele><time>2026-04-04T10:40:24.403Z</time></trkpt><trkpt lat="42.9758383" lon="13.3502308"><ele>471.28571428571433</ele><time>2026-04-04T10:40:26.403Z</time></trkpt><trkpt lat="42.9757938" lon="13.3501464"><ele>471.00000000000006</ele><time>2026-04-04T10:40:29.403Z</time></trkpt><trkpt lat="42.9757517" lon="13.3500598"><ele>471.0</ele><time>2026-04-04T10:40:32.403Z</time></trkpt><trkpt lat="42.9757046" lon="13.3499524"><ele>471.0</ele><time>2026-04-04T10:40:35.403Z</time></trkpt><trkpt lat="42.9756546" lon="13.3498593"><ele>471.0</ele><time>2026-04-04T10:40:38.403Z</time></trkpt><trkpt lat="42.9756131" lon="13.3497641"><ele>471.0</ele><time>2026-04-04T10:40:41.403Z</time></trkpt><trkpt lat="42.9755832" lon="13.3496878"><ele>471.0</ele><time>2026-04-04T10:40:43.403Z</time></trkpt><trkpt lat="42.9755575" lon="13.3496071"><ele>471.0</ele><time>2026-04-04T10:40:45.403Z</time></trkpt><trkpt lat="42.975522" lon="13.3495308"><ele>472.0</ele><time>2026-04-04T10:40:47.403Z</time></trkpt><trkpt lat="42.9754606" lon="13.3494354"><ele>473.0</ele><time>2026-04-04T10:40:50.402Z</time></trkpt><trkpt lat="42.9753977" lon="13.3493402"><ele>474.0</ele><time>2026-04-04T10:40:53.403Z</time></trkpt><trkpt lat="42.975356" lon="13.3492719"><ele>475.0</ele><time>2026-04-04T10:40:55.402Z</time></trkpt><trkpt lat="42.9753079" lon="13.3491972"><ele>476.0</ele><time>2026-04-04T10:40:57.403Z</time></trkpt><trkpt lat="42.9752747" lon="13.3490964"><ele>477.0</ele><time>2026-04-04T10:41:00.403Z</time></trkpt><trkpt lat="42.9752317" lon="13.3490249"><ele>477.0</ele><time>2026-04-04T10:41:02.403Z</time></trkpt><trkpt lat="42.975176" lon="13.3489292"><ele>477.0</ele><time>2026-04-04T10:41:05.403Z</time></trkpt><trkpt lat="42.9751351" lon="13.3488302"><ele>477.0</ele><time>2026-04-04T10:41:08.403Z</time></trkpt><trkpt lat="42.9751073" lon="13.3487332"><ele>477.0</ele><time>2026-04-04T10:41:11.403Z</time></trkpt><trkpt lat="42.9750598" lon="13.3486341"><ele>477.0</ele><time>2026-04-04T10:41:14.403Z</time></trkpt><trkpt lat="42.9750193" lon="13.3485402"><ele>477.0</ele><time>2026-04-04T10:41:17.403Z</time></trkpt><trkpt lat="42.9749693" lon="13.3484548"><ele>477.8333333333333</ele><time>2026-04-04T10:41:20.403Z</time></trkpt><trkpt lat="42.9749429" lon="13.34836"><ele>478.66666666666663</ele><time>2026-04-04T10:41:23.403Z</time></trkpt><trkpt lat="42.97492" lon="13.3482771"><ele>479.5</ele><time>2026-04-04T10:41:25.403Z</time></trkpt><trkpt lat="42.9748759" lon="13.348183"><ele>480.3333333333333</ele><time>2026-04-04T10:41:28.403Z</time></trkpt><trkpt lat="42.974844" lon="13.3480958"><ele>481.16666666666663</ele><time>2026-04-04T10:41:30.403Z</time></trkpt><trkpt lat="42.9748046" lon="13.3480081"><ele>482.0</ele><time>2026-04-04T10:41:33.403Z</time></trkpt><trkpt lat="42.974777" lon="13.3478934"><ele>481.99999999999994</ele><time>2026-04-04T10:41:36.403Z</time></trkpt><trkpt lat="42.9747318" lon="13.3477829"><ele>482.0</ele><time>2026-04-04T10:41:39.402Z</time></trkpt><trkpt lat="42.9746921" lon="13.3477118"><ele>482.0</ele><time>2026-04-04T10:41:41.402Z</time></trkpt><trkpt lat="42.9746388" lon="13.3476214"><ele>482.0</ele><time>2026-04-04T10:41:44.403Z</time></trkpt><trkpt lat="42.9746003" lon="13.3475402"><ele>481.99999999999994</ele><time>2026-04-04T10:41:47.403Z</time></trkpt><trkpt lat="42.974559" lon="13.3474428"><ele>482.0</ele><time>2026-04-04T10:41:50.403Z</time></trkpt><trkpt lat="42.9745094" lon="13.3473675"><ele>481.99999999999994</ele><time>2026-04-04T10:41:53.403Z</time></trkpt><trkpt lat="42.974456" lon="13.347278"><ele>482.0</ele><time>2026-04-04T10:41:56.403Z</time></trkpt><trkpt lat="42.9743986" lon="13.3471819"><ele>482.0</ele><time>2026-04-04T10:41:59.403Z</time></trkpt><trkpt lat="42.9743597" lon="13.3470997"><ele>482.0</ele><time>2026-04-04T10:42:02.403Z</time></trkpt><trkpt lat="42.9742966" lon="13.3470345"><ele>481.99999999999994</ele><time>2026-04-04T10:42:05.403Z</time></trkpt><trkpt lat="42.9742361" lon="13.3469816"><ele>482.0</ele><time>2026-04-04T10:42:08.403Z</time></trkpt><trkpt lat="42.9741932" lon="13.3469011"><ele>481.66666666666663</ele><time>2026-04-04T10:42:11.403Z</time></trkpt><trkpt lat="42.9741652" lon="13.3468211"><ele>481.3333333333333</ele><time>2026-04-04T10:42:14.403Z</time></trkpt><trkpt lat="42.9741281" lon="13.346738"><ele>481.0</ele><time>2026-04-04T10:42:17.403Z</time></trkpt><trkpt lat="42.9740918" lon="13.3466334"><ele>480.66666666666663</ele><time>2026-04-04T10:42:19.403Z</time></trkpt><trkpt lat="42.9740563" lon="13.346542"><ele>480.3333333333333</ele><time>2026-04-04T10:42:21.403Z</time></trkpt><trkpt lat="42.9740136" lon="13.3464285"><ele>480.0</ele><time>2026-04-04T10:42:24.402Z</time></trkpt><trkpt lat="42.9739766" lon="13.3463412"><ele>481.1666666666667</ele><time>2026-04-04T10:42:27.403Z</time></trkpt><trkpt lat="42.9739425" lon="13.346266"><ele>482.33333333333337</ele><time>2026-04-04T10:42:29.403Z</time></trkpt><trkpt lat="42.9739071" lon="13.3461898"><ele>483.5</ele><time>2026-04-04T10:42:31.403Z</time></trkpt><trkpt lat="42.9738695" lon="13.3460989"><ele>484.6666666666667</ele><time>2026-04-04T10:42:33.403Z</time></trkpt><trkpt lat="42.9738262" lon="13.3460141"><ele>485.83333333333337</ele><time>2026-04-04T10:42:35.402Z</time></trkpt><trkpt lat="42.9737809" lon="13.3459187"><ele>487.0</ele><time>2026-04-04T10:42:37.403Z</time></trkpt><trkpt lat="42.9737272" lon="13.3458221"><ele>487.0</ele><time>2026-04-04T10:42:39.403Z</time></trkpt><trkpt lat="42.9736893" lon="13.3457451"><ele>487.00000000000006</ele><time>2026-04-04T10:42:40.403Z</time></trkpt><trkpt lat="42.9736244" lon="13.3456536"><ele>487.00000000000006</ele><time>2026-04-04T10:42:42.403Z</time></trkpt><trkpt lat="42.9735383" lon="13.3455601"><ele>487.0</ele><time>2026-04-04T10:42:44.403Z</time></trkpt><trkpt lat="42.973442" lon="13.3454782"><ele>487.0</ele><time>2026-04-04T10:42:46.403Z</time></trkpt><trkpt lat="42.9733349" lon="13.3453873"><ele>485.0</ele><time>2026-04-04T10:42:48.403Z</time></trkpt><trkpt lat="42.9732388" lon="13.3453057"><ele>483.00000000000006</ele><time>2026-04-04T10:42:50.402Z</time></trkpt><trkpt lat="42.9731493" lon="13.3452321"><ele>481.00000000000006</ele><time>2026-04-04T10:42:52.403Z</time></trkpt><trkpt lat="42.9730794" lon="13.3451244"><ele>479.0</ele><time>2026-04-04T10:42:54.403Z</time></trkpt><trkpt lat="42.9730355" lon="13.3450318"><ele>477.0</ele><time>2026-04-04T10:42:59.403Z</time></trkpt><trkpt lat="42.9729733" lon="13.3449779"><ele>477.0</ele><time>2026-04-04T10:43:01.403Z</time></trkpt><trkpt lat="42.9728775" lon="13.3449209"><ele>477.00000000000006</ele><time>2026-04-04T10:43:03.403Z</time></trkpt><trkpt lat="42.9727955" lon="13.3448868"><ele>477.00000000000006</ele><time>2026-04-04T10:43:05.403Z</time></trkpt><trkpt lat="42.9726798" lon="13.3448566"><ele>477.0</ele><time>2026-04-04T10:43:07.403Z</time></trkpt><trkpt lat="42.9725675" lon="13.3448843"><ele>477.0</ele><time>2026-04-04T10:43:09.403Z</time></trkpt><trkpt lat="42.9724826" lon="13.3449432"><ele>476.3333333333333</ele><time>2026-04-04T10:43:11.403Z</time></trkpt><trkpt lat="42.9723565" lon="13.344991"><ele>475.66666666666663</ele><time>2026-04-04T10:43:13.403Z</time></trkpt><trkpt lat="42.9722931" lon="13.3450314"><ele>475.0</ele><time>2026-04-04T10:43:14.403Z</time></trkpt><trkpt lat="42.9722305" lon="13.3450414"><ele>474.3333333333333</ele><time>2026-04-04T10:43:15.403Z</time></trkpt><trkpt lat="42.9721608" lon="13.3451181"><ele>473.66666666666663</ele><time>2026-04-04T10:43:16.403Z</time></trkpt><trkpt lat="42.9720983" lon="13.345144"><ele>473.0</ele><time>2026-04-04T10:43:17.402Z</time></trkpt><trkpt lat="42.9720337" lon="13.3451755"><ele>473.0</ele><time>2026-04-04T10:43:18.403Z</time></trkpt><trkpt lat="42.9719663" lon="13.3452221"><ele>472.99999999999994</ele><time>2026-04-04T10:43:19.403Z</time></trkpt><trkpt lat="42.9719019" lon="13.3452483"><ele>472.99999999999994</ele><time>2026-04-04T10:43:20.402Z</time></trkpt><trkpt lat="42.9717943" lon="13.3452392"><ele>473.0</ele><time>2026-04-04T10:43:22.402Z</time></trkpt><trkpt lat="42.9716874" lon="13.3452207"><ele>473.0</ele><time>2026-04-04T10:43:24.403Z</time></trkpt><trkpt lat="42.9715804" lon="13.3451975"><ele>472.2</ele><time>2026-04-04T10:43:26.403Z</time></trkpt><trkpt lat="42.9714968" lon="13.3451844"><ele>471.4</ele><time>2026-04-04T10:43:28.403Z</time></trkpt><trkpt lat="42.9713961" lon="13.3451433"><ele>470.59999999999997</ele><time>2026-04-04T10:43:30.403Z</time></trkpt><trkpt lat="42.9713084" lon="13.3450721"><ele>469.79999999999995</ele><time>2026-04-04T10:43:32.403Z</time></trkpt><trkpt lat="42.9712285" lon="13.344948"><ele>469.0</ele><time>2026-04-04T10:43:34.403Z</time></trkpt><trkpt lat="42.9711782" lon="13.3448903"><ele>469.0</ele><time>2026-04-04T10:43:35.403Z</time></trkpt><trkpt lat="42.9710787" lon="13.3447656"><ele>469.0</ele><time>2026-04-04T10:43:37.403Z</time></trkpt><trkpt lat="42.9709986" lon="13.344661"><ele>469.0</ele><time>2026-04-04T10:43:39.403Z</time></trkpt><trkpt lat="42.9709578" lon="13.3445431"><ele>469.0</ele><time>2026-04-04T10:43:41.403Z</time></trkpt><trkpt lat="42.9709183" lon="13.3444715"><ele>469.0</ele><time>2026-04-04T10:43:42.403Z</time></trkpt><trkpt lat="42.9708703" lon="13.3443312"><ele>468.6666666666667</ele><time>2026-04-04T10:43:44.403Z</time></trkpt><trkpt lat="42.9708276" lon="13.3441665"><ele>468.33333333333337</ele><time>2026-04-04T10:43:46.403Z</time></trkpt><trkpt lat="42.9708153" lon="13.344079"><ele>468.0</ele><time>2026-04-04T10:43:47.403Z</time></trkpt><trkpt lat="42.9707933" lon="13.3439978"><ele>467.66666666666663</ele><time>2026-04-04T10:43:48.403Z</time></trkpt><trkpt lat="42.9707661" lon="13.343842"><ele>467.3333333333333</ele><time>2026-04-04T10:43:50.403Z</time></trkpt><trkpt lat="42.9707302" lon="13.343763"><ele>467.0</ele><time>2026-04-04T10:43:51.403Z</time></trkpt><trkpt lat="42.9706952" lon="13.3436117"><ele>468.8333333333333</ele><time>2026-04-04T10:43:53.403Z</time></trkpt><trkpt lat="42.9706657" lon="13.3434866"><ele>470.66666666666663</ele><time>2026-04-04T10:43:55.403Z</time></trkpt><trkpt lat="42.9706359" lon="13.3433555"><ele>472.5</ele><time>2026-04-04T10:43:57.403Z</time></trkpt><trkpt lat="42.9706128" lon="13.3432573"><ele>474.33333333333337</ele><time>2026-04-04T10:43:59.403Z</time></trkpt><trkpt lat="42.9705652" lon="13.3431827"><ele>476.1666666666667</ele><time>2026-04-04T10:44:01.403Z</time></trkpt><trkpt lat="42.9705431" lon="13.3430926"><ele>478.0</ele><time>2026-04-04T10:44:05.403Z</time></trkpt><trkpt lat="42.9705184" lon="13.3430096"><ele>481.83333333333337</ele><time>2026-04-04T10:44:07.403Z</time></trkpt><trkpt lat="42.9704366" lon="13.3429635"><ele>485.6666666666667</ele><time>2026-04-04T10:44:11.403Z</time></trkpt><trkpt lat="42.970355" lon="13.3429265"><ele>489.5</ele><time>2026-04-04T10:44:14.403Z</time></trkpt><trkpt lat="42.9702767" lon="13.3428891"><ele>493.33333333333337</ele><time>2026-04-04T10:44:17.403Z</time></trkpt><trkpt lat="42.9702058" lon="13.3428362"><ele>497.1666666666667</ele><time>2026-04-04T10:44:20.403Z</time></trkpt><trkpt lat="42.9701349" lon="13.3427926"><ele>501.0</ele><time>2026-04-04T10:44:23.403Z</time></trkpt><trkpt lat="42.9700491" lon="13.3427539"><ele>498.1666666666667</ele><time>2026-04-04T10:44:26.403Z</time></trkpt><trkpt lat="42.9699747" lon="13.3427168"><ele>495.33333333333337</ele><time>2026-04-04T10:44:29.403Z</time></trkpt><trkpt lat="42.9698977" lon="13.3426706"><ele>492.5</ele><time>2026-04-04T10:44:33.403Z</time></trkpt><trkpt lat="42.9698412" lon="13.3425994"><ele>489.6666666666667</ele><time>2026-04-04T10:44:36.403Z</time></trkpt><trkpt lat="42.9697936" lon="13.3425238"><ele>486.83333333333337</ele><time>2026-04-04T10:44:39.403Z</time></trkpt><trkpt lat="42.9697375" lon="13.3424722"><ele>484.0</ele><time>2026-04-04T10:44:42.403Z</time></trkpt><trkpt lat="42.9696753" lon="13.3424182"><ele>484.00000000000006</ele><time>2026-04-04T10:44:45.402Z</time></trkpt><trkpt lat="42.9696047" lon="13.3423579"><ele>484.0</ele><time>2026-04-04T10:44:48.403Z</time></trkpt><trkpt lat="42.9695421" lon="13.3422761"><ele>484.0</ele><time>2026-04-04T10:44:51.403Z</time></trkpt><trkpt lat="42.9694705" lon="13.3422253"><ele>484.0</ele><time>2026-04-04T10:44:54.403Z</time></trkpt><trkpt lat="42.9693965" lon="13.3421649"><ele>484.00000000000006</ele><time>2026-04-04T10:44:57.403Z</time></trkpt><trkpt lat="42.9693288" lon="13.3421364"><ele>484.0</ele><time>2026-04-04T10:44:59.403Z</time></trkpt><trkpt lat="42.969255" lon="13.3421157"><ele>483.71428571428567</ele><time>2026-04-04T10:45:01.403Z</time></trkpt><trkpt lat="42.9691963" lon="13.3420808"><ele>483.4285714285714</ele><time>2026-04-04T10:45:03.403Z</time></trkpt><trkpt lat="42.9691439" lon="13.3420181"><ele>483.1428571428571</ele><time>2026-04-04T10:45:05.402Z</time></trkpt><trkpt lat="42.9691017" lon="13.3419524"><ele>482.8571428571429</ele><time>2026-04-04T10:45:07.403Z</time></trkpt><trkpt lat="42.9690359" lon="13.3418914"><ele>482.5714285714286</ele><time>2026-04-04T10:45:10.403Z</time></trkpt><trkpt lat="42.9689668" lon="13.3418517"><ele>482.28571428571433</ele><time>2026-04-04T10:45:13.403Z</time></trkpt><trkpt lat="42.9689059" lon="13.3417721"><ele>482.0</ele><time>2026-04-04T10:45:16.403Z</time></trkpt><trkpt lat="42.9688706" lon="13.3416898"><ele>481.99999999999994</ele><time>2026-04-04T10:45:18.403Z</time></trkpt><trkpt lat="42.9688425" lon="13.3415994"><ele>482.0</ele><time>2026-04-04T10:45:20.403Z</time></trkpt><trkpt lat="42.9688293" lon="13.3415091"><ele>482.0</ele><time>2026-04-04T10:45:22.403Z</time></trkpt><trkpt lat="42.9688502" lon="13.3413996"><ele>482.0</ele><time>2026-04-04T10:45:25.403Z</time></trkpt><trkpt lat="42.9689035" lon="13.3413088"><ele>481.99999999999994</ele><time>2026-04-04T10:45:28.403Z</time></trkpt><trkpt lat="42.9689785" lon="13.3412431"><ele>482.0</ele><time>2026-04-04T10:45:31.403Z</time></trkpt><trkpt lat="42.9690448" lon="13.3411666"><ele>481.99999999999994</ele><time>2026-04-04T10:45:34.403Z</time></trkpt><trkpt lat="42.9691184" lon="13.3410941"><ele>482.0</ele><time>2026-04-04T10:45:37.403Z</time></trkpt><trkpt lat="42.9691807" lon="13.3410274"><ele>482.0</ele><time>2026-04-04T10:45:40.403Z</time></trkpt><trkpt lat="42.9692425" lon="13.3409448"><ele>482.0</ele><time>2026-04-04T10:45:43.403Z</time></trkpt><trkpt lat="42.9693017" lon="13.3408931"><ele>481.99999999999994</ele><time>2026-04-04T10:45:45.403Z</time></trkpt><trkpt lat="42.9693569" lon="13.3408372"><ele>482.0</ele><time>2026-04-04T10:45:47.403Z</time></trkpt><trkpt lat="42.969415" lon="13.3407947"><ele>482.8333333333333</ele><time>2026-04-04T10:45:49.403Z</time></trkpt><trkpt lat="42.9694746" lon="13.3407409"><ele>483.66666666666663</ele><time>2026-04-04T10:45:51.403Z</time></trkpt><trkpt lat="42.9695203" lon="13.3406433"><ele>484.5</ele><time>2026-04-04T10:45:53.403Z</time></trkpt><trkpt lat="42.9695293" lon="13.3405518"><ele>485.33333333333337</ele><time>2026-04-04T10:45:54.403Z</time></trkpt><trkpt lat="42.969588" lon="13.3404399"><ele>486.1666666666667</ele><time>2026-04-04T10:45:56.403Z</time></trkpt><trkpt lat="42.9695998" lon="13.3403005"><ele>487.0</ele><time>2026-04-04T10:45:58.403Z</time></trkpt><trkpt lat="42.9696286" lon="13.3402023"><ele>487.00000000000006</ele><time>2026-04-04T10:46:00.403Z</time></trkpt><trkpt lat="42.9697035" lon="13.340136"><ele>487.0</ele><time>2026-04-04T10:46:02.403Z</time></trkpt><trkpt lat="42.9697714" lon="13.3400523"><ele>487.0</ele><time>2026-04-04T10:46:04.403Z</time></trkpt><trkpt lat="42.9698305" lon="13.3399727"><ele>487.0</ele><time>2026-04-04T10:46:06.403Z</time></trkpt><trkpt lat="42.9698962" lon="13.3399223"><ele>487.00000000000006</ele><time>2026-04-04T10:46:08.403Z</time></trkpt><trkpt lat="42.969959" lon="13.3398984"><ele>487.0</ele><time>2026-04-04T10:46:10.403Z</time></trkpt><trkpt lat="42.9700314" lon="13.3398819"><ele>487.6666666666667</ele><time>2026-04-04T10:46:12.403Z</time></trkpt><trkpt lat="42.970107" lon="13.3398527"><ele>488.33333333333337</ele><time>2026-04-04T10:46:14.403Z</time></trkpt><trkpt lat="42.9701789" lon="13.3398267"><ele>489.0</ele><time>2026-04-04T10:46:16.403Z</time></trkpt><trkpt lat="42.9702503" lon="13.3398052"><ele>489.66666666666663</ele><time>2026-04-04T10:46:18.403Z</time></trkpt><trkpt lat="42.9703181" lon="13.3397677"><ele>490.3333333333333</ele><time>2026-04-04T10:46:20.403Z</time></trkpt><trkpt lat="42.9703717" lon="13.3397167"><ele>491.0</ele><time>2026-04-04T10:46:22.402Z</time></trkpt><trkpt lat="42.9703906" lon="13.339602"><ele>490.99999999999994</ele><time>2026-04-04T10:46:24.403Z</time></trkpt><trkpt lat="42.9703381" lon="13.3394826"><ele>491.0</ele><time>2026-04-04T10:46:25.403Z</time></trkpt><trkpt lat="42.9703127" lon="13.3393814"><ele>491.0</ele><time>2026-04-04T10:46:27.403Z</time></trkpt><trkpt lat="42.9702727" lon="13.3392956"><ele>491.0</ele><time>2026-04-04T10:46:29.403Z</time></trkpt><trkpt lat="42.9702369" lon="13.3392202"><ele>490.99999999999994</ele><time>2026-04-04T10:46:31.402Z</time></trkpt><trkpt lat="42.9701433" lon="13.3391763"><ele>491.0</ele><time>2026-04-04T10:46:33.403Z</time></trkpt><trkpt lat="42.9700835" lon="13.3391231"><ele>489.57142857142856</ele><time>2026-04-04T10:46:35.403Z</time></trkpt><trkpt lat="42.9700205" lon="13.3390657"><ele>488.1428571428571</ele><time>2026-04-04T10:46:38.402Z</time></trkpt><trkpt lat="42.9699799" lon="13.3389952"><ele>486.71428571428567</ele><time>2026-04-04T10:46:43.403Z</time></trkpt><trkpt lat="42.9699233" lon="13.3389055"><ele>485.2857142857142</ele><time>2026-04-04T10:46:46.403Z</time></trkpt><trkpt lat="42.9698908" lon="13.3388195"><ele>483.85714285714283</ele><time>2026-04-04T10:46:49.403Z</time></trkpt><trkpt lat="42.9698483" lon="13.3387493"><ele>482.42857142857133</ele><time>2026-04-04T10:49:31.403Z</time></trkpt><trkpt lat="42.9699082" lon="13.3386824"><ele>480.99999999999994</ele><time>2026-04-04T10:49:36.403Z</time></trkpt><trkpt lat="42.9699318" lon="13.338585"><ele>481.00000000000006</ele><time>2026-04-04T10:49:39.403Z</time></trkpt><trkpt lat="42.9699553" lon="13.3384769"><ele>481.0</ele><time>2026-04-04T10:49:43.403Z</time></trkpt><trkpt lat="42.9700191" lon="13.338395"><ele>481.0</ele><time>2026-04-04T10:49:46.403Z</time></trkpt><trkpt lat="42.9700868" lon="13.3383189"><ele>481.0</ele><time>2026-04-04T10:49:49.403Z</time></trkpt><trkpt lat="42.9701412" lon="13.3382752"><ele>481.00000000000006</ele><time>2026-04-04T10:49:51.403Z</time></trkpt><trkpt lat="42.9702019" lon="13.3382142"><ele>481.0</ele><time>2026-04-04T10:49:54.402Z</time></trkpt><trkpt lat="42.9702481" lon="13.3381519"><ele>483.1428571428571</ele><time>2026-04-04T10:49:57.403Z</time></trkpt><trkpt lat="42.9702869" lon="13.3380814"><ele>485.2857142857143</ele><time>2026-04-04T10:49:59.403Z</time></trkpt><trkpt lat="42.9703382" lon="13.3380174"><ele>487.42857142857144</ele><time>2026-04-04T10:50:02.403Z</time></trkpt><trkpt lat="42.9704029" lon="13.3379628"><ele>489.57142857142856</ele><time>2026-04-04T10:50:05.403Z</time></trkpt><trkpt lat="42.9704543" lon="13.3378965"><ele>491.7142857142858</ele><time>2026-04-04T10:50:08.403Z</time></trkpt><trkpt lat="42.970503" lon="13.3378389"><ele>493.8571428571429</ele><time>2026-04-04T10:50:11.403Z</time></trkpt><trkpt lat="42.9705669" lon="13.3377701"><ele>496.0</ele><time>2026-04-04T10:50:15.403Z</time></trkpt><trkpt lat="42.9706259" lon="13.3377173"><ele>496.00000000000006</ele><time>2026-04-04T10:50:18.403Z</time></trkpt><trkpt lat="42.9706951" lon="13.3376824"><ele>496.0</ele><time>2026-04-04T10:50:21.403Z</time></trkpt><trkpt lat="42.9707629" lon="13.3376335"><ele>496.0</ele><time>2026-04-04T10:50:24.403Z</time></trkpt><trkpt lat="42.9708361" lon="13.3375709"><ele>496.0</ele><time>2026-04-04T10:50:27.403Z</time></trkpt><trkpt lat="42.9708884" lon="13.3374876"><ele>496.00000000000006</ele><time>2026-04-04T10:50:30.403Z</time></trkpt><trkpt lat="42.9709331" lon="13.3374059"><ele>496.0</ele><time>2026-04-04T10:50:33.403Z</time></trkpt><trkpt lat="42.9709665" lon="13.3373313"><ele>497.83333333333337</ele><time>2026-04-04T10:50:36.403Z</time></trkpt><trkpt lat="42.9710085" lon="13.3372255"><ele>499.6666666666667</ele><time>2026-04-04T10:50:39.403Z</time></trkpt><trkpt lat="42.9710464" lon="13.3371206"><ele>501.5</ele><time>2026-04-04T10:50:42.402Z</time></trkpt><trkpt lat="42.9710692" lon="13.3370358"><ele>503.33333333333337</ele><time>2026-04-04T10:50:44.403Z</time></trkpt><trkpt lat="42.9710981" lon="13.3369204"><ele>505.1666666666667</ele><time>2026-04-04T10:50:47.403Z</time></trkpt><trkpt lat="42.9711342" lon="13.3368032"><ele>507.0</ele><time>2026-04-04T10:50:50.403Z</time></trkpt><trkpt lat="42.9711598" lon="13.3366814"><ele>507.0</ele><time>2026-04-04T10:50:53.403Z</time></trkpt><trkpt lat="42.9711788" lon="13.3365942"><ele>507.0</ele><time>2026-04-04T10:50:55.403Z</time></trkpt><trkpt lat="42.9711982" lon="13.3365054"><ele>507.0</ele><time>2026-04-04T10:50:57.403Z</time></trkpt><trkpt lat="42.9712232" lon="13.3364238"><ele>507.0</ele><time>2026-04-04T10:50:59.402Z</time></trkpt><trkpt lat="42.9712522" lon="13.336344"><ele>507.0</ele><time>2026-04-04T10:51:01.403Z</time></trkpt><trkpt lat="42.9712723" lon="13.3362604"><ele>507.0</ele><time>2026-04-04T10:51:03.403Z</time></trkpt><trkpt lat="42.9713052" lon="13.3361429"><ele>507.0</ele><time>2026-04-04T10:51:06.403Z</time></trkpt><trkpt lat="42.9713298" lon="13.3360385"><ele>506.6666666666667</ele><time>2026-04-04T10:51:09.403Z</time></trkpt><trkpt lat="42.9713548" lon="13.3359481"><ele>506.33333333333337</ele><time>2026-04-04T10:51:12.403Z</time></trkpt><trkpt lat="42.9713734" lon="13.3358587"><ele>506.0</ele><time>2026-04-04T10:51:15.403Z</time></trkpt><trkpt lat="42.9714141" lon="13.3357544"><ele>505.6666666666667</ele><time>2026-04-04T10:51:18.403Z</time></trkpt><trkpt lat="42.9714357" lon="13.3356647"><ele>505.33333333333337</ele><time>2026-04-04T10:51:20.403Z</time></trkpt><trkpt lat="42.9714613" lon="13.3355649"><ele>505.0</ele><time>2026-04-04T10:51:22.403Z</time></trkpt><trkpt lat="42.9714884" lon="13.3354555"><ele>504.33333333333337</ele><time>2026-04-04T10:51:25.403Z</time></trkpt><trkpt lat="42.9715057" lon="13.3353356"><ele>503.6666666666667</ele><time>2026-04-04T10:51:28.403Z</time></trkpt><trkpt lat="42.9715286" lon="13.3352449"><ele>503.0</ele><time>2026-04-04T10:51:31.403Z</time></trkpt><trkpt lat="42.9715694" lon="13.3351527"><ele>502.33333333333337</ele><time>2026-04-04T10:51:34.403Z</time></trkpt><trkpt lat="42.9716251" lon="13.33507"><ele>501.6666666666667</ele><time>2026-04-04T10:51:37.403Z</time></trkpt><trkpt lat="42.9716571" lon="13.3349804"><ele>501.0</ele><time>2026-04-04T10:51:40.403Z</time></trkpt><trkpt lat="42.9717067" lon="13.3348875"><ele>505.1666666666667</ele><time>2026-04-04T10:51:43.403Z</time></trkpt><trkpt lat="42.9717348" lon="13.3347645"><ele>509.33333333333337</ele><time>2026-04-04T10:51:46.403Z</time></trkpt><trkpt lat="42.9717623" lon="13.3346545"><ele>513.5</ele><time>2026-04-04T10:51:49.403Z</time></trkpt><trkpt lat="42.9717861" lon="13.3345333"><ele>517.6666666666667</ele><time>2026-04-04T10:51:52.403Z</time></trkpt><trkpt lat="42.9718058" lon="13.3344488"><ele>521.8333333333334</ele><time>2026-04-04T10:51:54.403Z</time></trkpt><trkpt lat="42.9718303" lon="13.3343447"><ele>526.0</ele><time>2026-04-04T10:51:57.403Z</time></trkpt><trkpt lat="42.971868" lon="13.3342299"><ele>526.0</ele><time>2026-04-04T10:52:00.403Z</time></trkpt><trkpt lat="42.9719169" lon="13.3341254"><ele>526.0</ele><time>2026-04-04T10:52:03.403Z</time></trkpt><trkpt lat="42.9719741" lon="13.3340434"><ele>526.0</ele><time>2026-04-04T10:52:06.403Z</time></trkpt><trkpt lat="42.9720323" lon="13.3339679"><ele>526.0</ele><time>2026-04-04T10:52:09.403Z</time></trkpt><trkpt lat="42.972074" lon="13.3338844"><ele>526.0</ele><time>2026-04-04T10:52:11.402Z</time></trkpt><trkpt lat="42.9721144" lon="13.3337635"><ele>526.0</ele><time>2026-04-04T10:52:14.403Z</time></trkpt><trkpt lat="42.9721444" lon="13.3336859"><ele>523.1666666666667</ele><time>2026-04-04T10:52:16.402Z</time></trkpt><trkpt lat="42.9721891" lon="13.3335891"><ele>520.3333333333334</ele><time>2026-04-04T10:52:19.402Z</time></trkpt><trkpt lat="42.9722459" lon="13.3334992"><ele>517.5</ele><time>2026-04-04T10:52:23.403Z</time></trkpt><trkpt lat="42.9722961" lon="13.3333908"><ele>514.6666666666666</ele><time>2026-04-04T10:52:26.403Z</time></trkpt><trkpt lat="42.9723447" lon="13.3332959"><ele>511.8333333333333</ele><time>2026-04-04T10:52:29.403Z</time></trkpt><trkpt lat="42.9723937" lon="13.3332323"><ele>509.0</ele><time>2026-04-04T10:52:31.402Z</time></trkpt><trkpt lat="42.9724474" lon="13.333154"><ele>508.99999999999994</ele><time>2026-04-04T10:52:34.403Z</time></trkpt><trkpt lat="42.9725122" lon="13.3330833"><ele>509.0</ele><time>2026-04-04T10:52:37.403Z</time></trkpt><trkpt lat="42.9725901" lon="13.3330444"><ele>509.0</ele><time>2026-04-04T10:52:40.403Z</time></trkpt><trkpt lat="42.9726616" lon="13.3330318"><ele>509.0</ele><time>2026-04-04T10:52:43.402Z</time></trkpt><trkpt lat="42.9727432" lon="13.3329933"><ele>508.99999999999994</ele><time>2026-04-04T10:52:48.403Z</time></trkpt><trkpt lat="42.9728167" lon="13.3329422"><ele>509.0</ele><time>2026-04-04T10:52:51.402Z</time></trkpt><trkpt lat="42.9729054" lon="13.3329324"><ele>507.99999999999994</ele><time>2026-04-04T10:52:54.403Z</time></trkpt><trkpt lat="42.97297" lon="13.3329219"><ele>507.0</ele><time>2026-04-04T10:52:56.403Z</time></trkpt><trkpt lat="42.9730341" lon="13.3329043"><ele>505.99999999999994</ele><time>2026-04-04T10:52:58.403Z</time></trkpt><trkpt lat="42.9731088" lon="13.3328897"><ele>504.99999999999994</ele><time>2026-04-04T10:53:00.403Z</time></trkpt><trkpt lat="42.9731724" lon="13.3328396"><ele>504.0</ele><time>2026-04-04T10:53:03.403Z</time></trkpt><trkpt lat="42.9732268" lon="13.3327841"><ele>502.99999999999994</ele><time>2026-04-04T10:53:06.403Z</time></trkpt><trkpt lat="42.9732993" lon="13.3327619"><ele>501.99999999999994</ele><time>2026-04-04T10:53:08.403Z</time></trkpt><trkpt lat="42.9733837" lon="13.3327014"><ele>504.33333333333337</ele><time>2026-04-04T10:53:11.403Z</time></trkpt><trkpt lat="42.9734594" lon="13.3326641"><ele>506.6666666666667</ele><time>2026-04-04T10:53:13.403Z</time></trkpt><trkpt lat="42.9735306" lon="13.3326527"><ele>509.0</ele><time>2026-04-04T10:53:15.403Z</time></trkpt><trkpt lat="42.9736057" lon="13.3326386"><ele>511.33333333333337</ele><time>2026-04-04T10:53:18.403Z</time></trkpt><trkpt lat="42.9736883" lon="13.3326464"><ele>513.6666666666666</ele><time>2026-04-04T10:53:22.403Z</time></trkpt><trkpt lat="42.9737787" lon="13.3326735"><ele>516.0</ele><time>2026-04-04T10:53:25.402Z</time></trkpt><trkpt lat="42.9738448" lon="13.3327083"><ele>516.0</ele><time>2026-04-04T10:53:27.403Z</time></trkpt><trkpt lat="42.9739099" lon="13.3327362"><ele>516.0</ele><time>2026-04-04T10:53:29.403Z</time></trkpt><trkpt lat="42.9740357" lon="13.3327224"><ele>516.0</ele><time>2026-04-04T10:53:31.403Z</time></trkpt><trkpt lat="42.9741338" lon="13.3326755"><ele>516.0</ele><time>2026-04-04T10:53:33.403Z</time></trkpt><trkpt lat="42.9741928" lon="13.3326006"><ele>516.0</ele><time>2026-04-04T10:53:35.403Z</time></trkpt><trkpt lat="42.9742086" lon="13.3324621"><ele>515.9999999999999</ele><time>2026-04-04T10:53:38.403Z</time></trkpt><trkpt lat="42.9741769" lon="13.3323506"><ele>516.0</ele><time>2026-04-04T10:53:40.403Z</time></trkpt><trkpt lat="42.9741352" lon="13.3322544"><ele>516.0</ele><time>2026-04-04T10:53:42.403Z</time></trkpt><trkpt lat="42.9740979" lon="13.332185"><ele>516.0</ele><time>2026-04-04T10:53:44.403Z</time></trkpt><trkpt lat="42.9740451" lon="13.3321027"><ele>516.0</ele><time>2026-04-04T10:53:47.403Z</time></trkpt><trkpt lat="42.9739945" lon="13.3320385"><ele>515.9999999999999</ele><time>2026-04-04T10:53:49.403Z</time></trkpt><trkpt lat="42.9739888" lon="13.3319474"><ele>516.0</ele><time>2026-04-04T10:53:51.403Z</time></trkpt><trkpt lat="42.9740112" lon="13.331856"><ele>515.8571428571428</ele><time>2026-04-04T10:53:54.403Z</time></trkpt><trkpt lat="42.974055" lon="13.3317892"><ele>515.7142857142857</ele><time>2026-04-04T10:53:56.403Z</time></trkpt><trkpt lat="42.9741182" lon="13.3317102"><ele>515.5714285714286</ele><time>2026-04-04T10:53:59.403Z</time></trkpt><trkpt lat="42.9741642" lon="13.3316408"><ele>515.4285714285713</ele><time>2026-04-04T10:54:01.403Z</time></trkpt><trkpt lat="42.9742136" lon="13.3315647"><ele>515.2857142857142</ele><time>2026-04-04T10:54:03.403Z</time></trkpt><trkpt lat="42.974269" lon="13.3315002"><ele>515.1428571428571</ele><time>2026-04-04T10:54:05.403Z</time></trkpt><trkpt lat="42.9743201" lon="13.3314381"><ele>515.0</ele><time>2026-04-04T10:54:07.403Z</time></trkpt><trkpt lat="42.9743681" lon="13.331365"><ele>515.0</ele><time>2026-04-04T10:54:09.403Z</time></trkpt><trkpt lat="42.9744154" lon="13.3312948"><ele>515.0</ele><time>2026-04-04T10:54:11.403Z</time></trkpt><trkpt lat="42.9744794" lon="13.3312332"><ele>515.0</ele><time>2026-04-04T10:54:13.403Z</time></trkpt><trkpt lat="42.9745615" lon="13.3311573"><ele>515.0</ele><time>2026-04-04T10:54:15.403Z</time></trkpt><trkpt lat="42.9746272" lon="13.3311343"><ele>515.0</ele><time>2026-04-04T10:54:17.403Z</time></trkpt><trkpt lat="42.9747003" lon="13.3310987"><ele>515.0</ele><time>2026-04-04T10:54:19.403Z</time></trkpt><trkpt lat="42.9747837" lon="13.3310727"><ele>515.0</ele><time>2026-04-04T10:54:21.403Z</time></trkpt><trkpt lat="42.9748513" lon="13.330991"><ele>515.0</ele><time>2026-04-04T10:54:24.403Z</time></trkpt><trkpt lat="42.9749074" lon="13.3309502"><ele>515.0</ele><time>2026-04-04T10:54:26.403Z</time></trkpt><trkpt lat="42.9749727" lon="13.3308886"><ele>515.0</ele><time>2026-04-04T10:54:28.403Z</time></trkpt><trkpt lat="42.9750361" lon="13.3308273"><ele>515.0</ele><time>2026-04-04T10:54:30.403Z</time></trkpt><trkpt lat="42.9751021" lon="13.3307656"><ele>515.0</ele><time>2026-04-04T10:54:32.402Z</time></trkpt><trkpt lat="42.9751707" lon="13.3307087"><ele>513.8333333333333</ele><time>2026-04-04T10:54:34.403Z</time></trkpt><trkpt lat="42.9752442" lon="13.3306742"><ele>512.6666666666666</ele><time>2026-04-04T10:54:36.403Z</time></trkpt><trkpt lat="42.9753026" lon="13.3306401"><ele>511.5</ele><time>2026-04-04T10:54:38.403Z</time></trkpt><trkpt lat="42.9753705" lon="13.3305954"><ele>510.33333333333337</ele><time>2026-04-04T10:54:40.403Z</time></trkpt><trkpt lat="42.9754298" lon="13.3305621"><ele>509.1666666666667</ele><time>2026-04-04T10:54:42.403Z</time></trkpt><trkpt lat="42.9755216" lon="13.3305077"><ele>508.0</ele><time>2026-04-04T10:54:45.402Z</time></trkpt><trkpt lat="42.9755963" lon="13.3304629"><ele>508.0</ele><time>2026-04-04T10:54:47.403Z</time></trkpt><trkpt lat="42.9756901" lon="13.3303984"><ele>507.99999999999994</ele><time>2026-04-04T10:54:49.402Z</time></trkpt><trkpt lat="42.9757765" lon="13.3303669"><ele>507.99999999999994</ele><time>2026-04-04T10:54:51.403Z</time></trkpt><trkpt lat="42.9758647" lon="13.3303161"><ele>508.0</ele><time>2026-04-04T10:54:53.403Z</time></trkpt><trkpt lat="42.9759228" lon="13.3302672"><ele>508.0</ele><time>2026-04-04T10:54:55.403Z</time></trkpt><trkpt lat="42.9760019" lon="13.3301893"><ele>508.33333333333337</ele><time>2026-04-04T10:54:57.403Z</time></trkpt><trkpt lat="42.9760629" lon="13.3301555"><ele>508.6666666666667</ele><time>2026-04-04T10:54:59.402Z</time></trkpt><trkpt lat="42.9761276" lon="13.3301256"><ele>509.0</ele><time>2026-04-04T10:55:01.402Z</time></trkpt><trkpt lat="42.9761598" lon="13.3300199"><ele>509.33333333333337</ele><time>2026-04-04T10:55:03.402Z</time></trkpt><trkpt lat="42.976213" lon="13.3299053"><ele>509.6666666666667</ele><time>2026-04-04T10:55:05.403Z</time></trkpt><trkpt lat="42.9762915" lon="13.329806"><ele>510.0</ele><time>2026-04-04T10:55:07.403Z</time></trkpt><trkpt lat="42.9763706" lon="13.3297069"><ele>510.0</ele><time>2026-04-04T10:55:09.403Z</time></trkpt><trkpt lat="42.9764452" lon="13.3296268"><ele>510.0</ele><time>2026-04-04T10:55:11.403Z</time></trkpt><trkpt lat="42.9765214" lon="13.3295874"><ele>510.0</ele><time>2026-04-04T10:55:13.403Z</time></trkpt><trkpt lat="42.976604" lon="13.32951"><ele>510.0</ele><time>2026-04-04T10:55:15.403Z</time></trkpt><trkpt lat="42.9766593" lon="13.3294568"><ele>510.0</ele><time>2026-04-04T10:55:17.403Z</time></trkpt><trkpt lat="42.9767084" lon="13.3293964"><ele>510.0</ele><time>2026-04-04T10:55:19.403Z</time></trkpt><trkpt lat="42.9767978" lon="13.3293575"><ele>514.6666666666666</ele><time>2026-04-04T10:55:21.403Z</time></trkpt><trkpt lat="42.9768644" lon="13.3293102"><ele>519.3333333333334</ele><time>2026-04-04T10:55:23.403Z</time></trkpt><trkpt lat="42.976928" lon="13.3292223"><ele>524.0</ele><time>2026-04-04T10:55:26.403Z</time></trkpt><trkpt lat="42.9769911" lon="13.3291468"><ele>528.6666666666667</ele><time>2026-04-04T10:55:29.403Z</time></trkpt><trkpt lat="42.9770365" lon="13.3290819"><ele>533.3333333333334</ele><time>2026-04-04T10:55:31.403Z</time></trkpt><trkpt lat="42.9771115" lon="13.3290231"><ele>538.0</ele><time>2026-04-04T10:55:33.403Z</time></trkpt><trkpt lat="42.9771967" lon="13.3289684"><ele>538.0</ele><time>2026-04-04T10:55:35.403Z</time></trkpt><trkpt lat="42.9772681" lon="13.3289236"><ele>538.0</ele><time>2026-04-04T10:55:37.403Z</time></trkpt><trkpt lat="42.9773424" lon="13.3288927"><ele>538.0</ele><time>2026-04-04T10:55:39.403Z</time></trkpt><trkpt lat="42.977413" lon="13.3288529"><ele>538.0</ele><time>2026-04-04T10:55:41.403Z</time></trkpt><trkpt lat="42.9774915" lon="13.3288009"><ele>538.0</ele><time>2026-04-04T10:55:43.403Z</time></trkpt><trkpt lat="42.9775594" lon="13.3287616"><ele>538.0</ele><time>2026-04-04T10:55:45.403Z</time></trkpt><trkpt lat="42.9776342" lon="13.3287173"><ele>535.6</ele><time>2026-04-04T10:55:47.403Z</time></trkpt><trkpt lat="42.9777089" lon="13.3286664"><ele>533.1999999999999</ele><time>2026-04-04T10:55:49.403Z</time></trkpt><trkpt lat="42.9777858" lon="13.3286001"><ele>530.8</ele><time>2026-04-04T10:55:51.403Z</time></trkpt><trkpt lat="42.9778768" lon="13.3285141"><ele>528.4</ele><time>2026-04-04T10:55:53.403Z</time></trkpt><trkpt lat="42.9779354" lon="13.3284318"><ele>526.0</ele><time>2026-04-04T10:55:55.403Z</time></trkpt><trkpt lat="42.9780074" lon="13.3283768"><ele>526.0</ele><time>2026-04-04T10:55:57.403Z</time></trkpt><trkpt lat="42.9780626" lon="13.3283041"><ele>526.0</ele><time>2026-04-04T10:55:59.403Z</time></trkpt><trkpt lat="42.9781341" lon="13.3282457"><ele>526.0</ele><time>2026-04-04T10:56:01.403Z</time></trkpt><trkpt lat="42.9781943" lon="13.3281881"><ele>526.0</ele><time>2026-04-04T10:56:03.403Z</time></trkpt><trkpt lat="42.9782598" lon="13.3281304"><ele>526.0</ele><time>2026-04-04T10:56:05.403Z</time></trkpt><trkpt lat="42.9783326" lon="13.3280813"><ele>526.0</ele><time>2026-04-04T10:56:07.403Z</time></trkpt><trkpt lat="42.9784176" lon="13.3280207"><ele>528.1666666666667</ele><time>2026-04-04T10:56:10.403Z</time></trkpt><trkpt lat="42.9784808" lon="13.3279372"><ele>530.3333333333334</ele><time>2026-04-04T10:56:12.403Z</time></trkpt><trkpt lat="42.9785269" lon="13.32784"><ele>532.5</ele><time>2026-04-04T10:56:14.403Z</time></trkpt><trkpt lat="42.9785555" lon="13.3277365"><ele>534.6666666666666</ele><time>2026-04-04T10:56:16.403Z</time></trkpt><trkpt lat="42.9785745" lon="13.3276227"><ele>536.8333333333333</ele><time>2026-04-04T10:56:18.403Z</time></trkpt><trkpt lat="42.9785621" lon="13.3274884"><ele>539.0</ele><time>2026-04-04T10:56:19.403Z</time></trkpt><trkpt lat="42.9785884" lon="13.3273713"><ele>539.0</ele><time>2026-04-04T10:56:21.403Z</time></trkpt><trkpt lat="42.9786423" lon="13.3272611"><ele>539.0</ele><time>2026-04-04T10:56:23.403Z</time></trkpt><trkpt lat="42.9786826" lon="13.3271811"><ele>539.0</ele><time>2026-04-04T10:56:25.403Z</time></trkpt><trkpt lat="42.9787424" lon="13.3271307"><ele>539.0</ele><time>2026-04-04T10:56:27.403Z</time></trkpt><trkpt lat="42.9787928" lon="13.3270786"><ele>539.0</ele><time>2026-04-04T10:56:29.403Z</time></trkpt><trkpt lat="42.9788495" lon="13.3270205"><ele>539.0</ele><time>2026-04-04T10:56:31.403Z</time></trkpt><trkpt lat="42.9789516" lon="13.3269687"><ele>539.5</ele><time>2026-04-04T10:56:33.403Z</time></trkpt><trkpt lat="42.9790262" lon="13.3269145"><ele>540.0</ele><time>2026-04-04T10:56:35.402Z</time></trkpt><trkpt lat="42.979126" lon="13.3268633"><ele>540.5</ele><time>2026-04-04T10:56:37.403Z</time></trkpt><trkpt lat="42.9791939" lon="13.3268041"><ele>541.0</ele><time>2026-04-04T10:56:39.403Z</time></trkpt><trkpt lat="42.9792679" lon="13.3267756"><ele>541.5</ele><time>2026-04-04T10:56:41.403Z</time></trkpt><trkpt lat="42.9793443" lon="13.3267361"><ele>542.0</ele><time>2026-04-04T10:56:43.403Z</time></trkpt><trkpt lat="42.9794021" lon="13.3266901"><ele>542.0</ele><time>2026-04-04T10:56:45.403Z</time></trkpt><trkpt lat="42.9794989" lon="13.3266246"><ele>542.0</ele><time>2026-04-04T10:56:47.403Z</time></trkpt><trkpt lat="42.9795807" lon="13.3265757"><ele>542.0</ele><time>2026-04-04T10:56:49.403Z</time></trkpt><trkpt lat="42.9796663" lon="13.3265157"><ele>542.0</ele><time>2026-04-04T10:56:51.403Z</time></trkpt><trkpt lat="42.9797255" lon="13.3264161"><ele>542.0</ele><time>2026-04-04T10:56:53.403Z</time></trkpt><trkpt lat="42.9797661" lon="13.3263204"><ele>540.5</ele><time>2026-04-04T10:56:55.403Z</time></trkpt><trkpt lat="42.9798464" lon="13.326235"><ele>539.0</ele><time>2026-04-04T10:56:57.403Z</time></trkpt><trkpt lat="42.9799082" lon="13.3261732"><ele>537.5</ele><time>2026-04-04T10:56:59.403Z</time></trkpt><trkpt lat="42.9799638" lon="13.3261073"><ele>536.0</ele><time>2026-04-04T10:57:01.403Z</time></trkpt><trkpt lat="42.9800337" lon="13.3260585"><ele>534.5</ele><time>2026-04-04T10:57:03.403Z</time></trkpt><trkpt lat="42.9801084" lon="13.3260137"><ele>533.0</ele><time>2026-04-04T10:57:05.403Z</time></trkpt><trkpt lat="42.9801775" lon="13.3259699"><ele>533.0</ele><time>2026-04-04T10:57:07.403Z</time></trkpt><trkpt lat="42.9802447" lon="13.3259357"><ele>533.0</ele><time>2026-04-04T10:57:09.403Z</time></trkpt><trkpt lat="42.9803149" lon="13.3259108"><ele>533.0</ele><time>2026-04-04T10:57:11.403Z</time></trkpt><trkpt lat="42.9803874" lon="13.3258857"><ele>533.0</ele><time>2026-04-04T10:57:13.403Z</time></trkpt><trkpt lat="42.9804599" lon="13.3258605"><ele>533.0</ele><time>2026-04-04T10:57:15.403Z</time></trkpt><trkpt lat="42.9805255" lon="13.3258232"><ele>533.0</ele><time>2026-04-04T10:57:17.403Z</time></trkpt><trkpt lat="42.9805951" lon="13.3257936"><ele>533.0</ele><time>2026-04-04T10:57:19.403Z</time></trkpt><trkpt lat="42.9806556" lon="13.3257513"><ele>533.0</ele><time>2026-04-04T10:57:21.403Z</time></trkpt><trkpt lat="42.9807198" lon="13.325716"><ele>533.0</ele><time>2026-04-04T10:57:23.403Z</time></trkpt><trkpt lat="42.9807881" lon="13.3256929"><ele>533.0</ele><time>2026-04-04T10:57:25.403Z</time></trkpt><trkpt lat="42.9808692" lon="13.3256349"><ele>533.0</ele><time>2026-04-04T10:57:28.402Z</time></trkpt><trkpt lat="42.9809468" lon="13.3255848"><ele>533.0</ele><time>2026-04-04T10:57:31.403Z</time></trkpt><trkpt lat="42.9810199" lon="13.3255664"><ele>533.0</ele><time>2026-04-04T10:57:33.403Z</time></trkpt><trkpt lat="42.9810892" lon="13.325543"><ele>531.5714285714286</ele><time>2026-04-04T10:57:35.403Z</time></trkpt><trkpt lat="42.981162" lon="13.3255187"><ele>530.1428571428571</ele><time>2026-04-04T10:57:37.403Z</time></trkpt><trkpt lat="42.9812239" lon="13.3254879"><ele>528.7142857142857</ele><time>2026-04-04T10:57:39.402Z</time></trkpt><trkpt lat="42.9812984" lon="13.3254583"><ele>527.2857142857142</ele><time>2026-04-04T10:57:41.403Z</time></trkpt><trkpt lat="42.9813661" lon="13.3254472"><ele>525.8571428571429</ele><time>2026-04-04T10:57:43.403Z</time></trkpt><trkpt lat="42.9814306" lon="13.3254375"><ele>524.4285714285713</ele><time>2026-04-04T10:57:45.403Z</time></trkpt><trkpt lat="42.9814974" lon="13.3254197"><ele>523.0</ele><time>2026-04-04T10:57:47.403Z</time></trkpt><trkpt lat="42.9815728" lon="13.3253911"><ele>522.9999999999999</ele><time>2026-04-04T10:57:49.403Z</time></trkpt><trkpt lat="42.9816308" lon="13.3253256"><ele>523.0</ele><time>2026-04-04T10:57:51.403Z</time></trkpt><trkpt lat="42.9816773" lon="13.3252557"><ele>523.0</ele><time>2026-04-04T10:57:53.403Z</time></trkpt><trkpt lat="42.9817267" lon="13.3251867"><ele>523.0</ele><time>2026-04-04T10:57:55.403Z</time></trkpt><trkpt lat="42.9817744" lon="13.3251142"><ele>523.0</ele><time>2026-04-04T10:57:57.403Z</time></trkpt><trkpt lat="42.9818174" lon="13.3250468"><ele>522.9999999999999</ele><time>2026-04-04T10:57:59.403Z</time></trkpt><trkpt lat="42.9818573" lon="13.3249674"><ele>523.0</ele><time>2026-04-04T10:58:01.403Z</time></trkpt><trkpt lat="42.9818971" lon="13.3248936"><ele>523.4285714285713</ele><time>2026-04-04T10:58:03.403Z</time></trkpt><trkpt lat="42.981941" lon="13.3248303"><ele>523.8571428571429</ele><time>2026-04-04T10:58:05.403Z</time></trkpt><trkpt lat="42.981983" lon="13.324759"><ele>524.2857142857142</ele><time>2026-04-04T10:58:07.403Z</time></trkpt><trkpt lat="42.9820289" lon="13.3246674"><ele>524.7142857142857</ele><time>2026-04-04T10:58:10.403Z</time></trkpt><trkpt lat="42.9820779" lon="13.3245954"><ele>525.1428571428571</ele><time>2026-04-04T10:58:12.403Z</time></trkpt><trkpt lat="42.9821438" lon="13.3245425"><ele>525.5714285714286</ele><time>2026-04-04T10:58:14.403Z</time></trkpt><trkpt lat="42.9822145" lon="13.3245323"><ele>526.0</ele><time>2026-04-04T10:58:16.403Z</time></trkpt><trkpt lat="42.9822906" lon="13.3245442"><ele>526.0</ele><time>2026-04-04T10:58:18.403Z</time></trkpt><trkpt lat="42.9823589" lon="13.324554"><ele>526.0</ele><time>2026-04-04T10:58:20.403Z</time></trkpt><trkpt lat="42.9824311" lon="13.324568"><ele>526.0</ele><time>2026-04-04T10:58:22.403Z</time></trkpt><trkpt lat="42.9824923" lon="13.3245927"><ele>526.0</ele><time>2026-04-04T10:58:24.403Z</time></trkpt><trkpt lat="42.98256" lon="13.3246073"><ele>526.0</ele><time>2026-04-04T10:58:26.403Z</time></trkpt><trkpt lat="42.9826623" lon="13.324617"><ele>526.0</ele><time>2026-04-04T10:58:29.403Z</time></trkpt><trkpt lat="42.982736" lon="13.3246256"><ele>527.3333333333334</ele><time>2026-04-04T10:58:31.403Z</time></trkpt><trkpt lat="42.9828144" lon="13.3246067"><ele>528.6666666666667</ele><time>2026-04-04T10:58:33.403Z</time></trkpt><trkpt lat="42.9828906" lon="13.3245608"><ele>530.0</ele><time>2026-04-04T10:58:35.403Z</time></trkpt><trkpt lat="42.982957" lon="13.3245033"><ele>531.3333333333334</ele><time>2026-04-04T10:58:37.403Z</time></trkpt><trkpt lat="42.9830116" lon="13.3244229"><ele>532.6666666666666</ele><time>2026-04-04T10:58:39.403Z</time></trkpt><trkpt lat="42.9830538" lon="13.3243427"><ele>534.0</ele><time>2026-04-04T10:58:41.403Z</time></trkpt><trkpt lat="42.9830899" lon="13.3242578"><ele>534.0000000000001</ele><time>2026-04-04T10:58:43.403Z</time></trkpt><trkpt lat="42.9831246" lon="13.3241831"><ele>534.0</ele><time>2026-04-04T10:58:45.403Z</time></trkpt><trkpt lat="42.983164" lon="13.324107"><ele>534.0</ele><time>2026-04-04T10:58:47.403Z</time></trkpt><trkpt lat="42.9832156" lon="13.3240342"><ele>534.0</ele><time>2026-04-04T10:58:49.403Z</time></trkpt><trkpt lat="42.9832806" lon="13.3239903"><ele>534.0</ele><time>2026-04-04T10:58:51.403Z</time></trkpt><trkpt lat="42.983367" lon="13.3239674"><ele>534.0000000000001</ele><time>2026-04-04T10:58:54.403Z</time></trkpt><trkpt lat="42.9834431" lon="13.3239731"><ele>534.0</ele><time>2026-04-04T10:58:56.403Z</time></trkpt><trkpt lat="42.9835233" lon="13.3239904"><ele>536.1666666666666</ele><time>2026-04-04T10:58:58.403Z</time></trkpt><trkpt lat="42.9835948" lon="13.3239973"><ele>538.3333333333334</ele><time>2026-04-04T10:59:00.403Z</time></trkpt><trkpt lat="42.9836709" lon="13.323981"><ele>540.5</ele><time>2026-04-04T10:59:03.403Z</time></trkpt><trkpt lat="42.9837651" lon="13.3239579"><ele>542.6666666666667</ele><time>2026-04-04T10:59:06.403Z</time></trkpt><trkpt lat="42.9838339" lon="13.3239511"><ele>544.8333333333334</ele><time>2026-04-04T10:59:08.403Z</time></trkpt><trkpt lat="42.9839294" lon="13.3239306"><ele>547.0</ele><time>2026-04-04T10:59:11.403Z</time></trkpt><trkpt lat="42.9840046" lon="13.3239259"><ele>547.0</ele><time>2026-04-04T10:59:13.403Z</time></trkpt><trkpt lat="42.984078" lon="13.3239099"><ele>547.0</ele><time>2026-04-04T10:59:15.403Z</time></trkpt><trkpt lat="42.9841212" lon="13.3238426"><ele>547.0</ele><time>2026-04-04T10:59:17.403Z</time></trkpt><trkpt lat="42.984137" lon="13.3237063"><ele>547.0</ele><time>2026-04-04T10:59:19.403Z</time></trkpt><trkpt lat="42.9841201" lon="13.3235763"><ele>547.0</ele><time>2026-04-04T10:59:21.403Z</time></trkpt><trkpt lat="42.9841063" lon="13.3234674"><ele>547.0</ele><time>2026-04-04T10:59:23.403Z</time></trkpt><trkpt lat="42.9841023" lon="13.3233643"><ele>544.8333333333334</ele><time>2026-04-04T10:59:25.403Z</time></trkpt><trkpt lat="42.9840941" lon="13.3232781"><ele>542.6666666666667</ele><time>2026-04-04T10:59:27.403Z</time></trkpt><trkpt lat="42.9840859" lon="13.3231696"><ele>540.5</ele><time>2026-04-04T10:59:29.403Z</time></trkpt><trkpt lat="42.9840736" lon="13.3230591"><ele>538.3333333333334</ele><time>2026-04-04T10:59:31.403Z</time></trkpt><trkpt lat="42.9840641" lon="13.3229564"><ele>536.1666666666666</ele><time>2026-04-04T10:59:33.402Z</time></trkpt><trkpt lat="42.9840508" lon="13.3228317"><ele>534.0</ele><time>2026-04-04T10:59:36.403Z</time></trkpt><trkpt lat="42.9840373" lon="13.3227368"><ele>534.0000000000001</ele><time>2026-04-04T10:59:38.403Z</time></trkpt><trkpt lat="42.9840276" lon="13.3226334"><ele>534.0</ele><time>2026-04-04T10:59:40.402Z</time></trkpt><trkpt lat="42.9840239" lon="13.3225255"><ele>534.0</ele><time>2026-04-04T10:59:42.403Z</time></trkpt><trkpt lat="42.984013" lon="13.3224271"><ele>534.0</ele><time>2026-04-04T10:59:44.403Z</time></trkpt><trkpt lat="42.984011" lon="13.3223306"><ele>534.0</ele><time>2026-04-04T10:59:46.403Z</time></trkpt><trkpt lat="42.984018" lon="13.3222402"><ele>534.0000000000001</ele><time>2026-04-04T10:59:48.403Z</time></trkpt><trkpt lat="42.9840297" lon="13.3221504"><ele>534.0</ele><time>2026-04-04T10:59:50.403Z</time></trkpt><trkpt lat="42.9840417" lon="13.3220486"><ele>534.6666666666666</ele><time>2026-04-04T10:59:53.403Z</time></trkpt><trkpt lat="42.984063" lon="13.3219558"><ele>535.3333333333334</ele><time>2026-04-04T10:59:56.403Z</time></trkpt><trkpt lat="42.9840971" lon="13.3218516"><ele>536.0</ele><time>2026-04-04T11:00:00.403Z</time></trkpt><trkpt lat="42.9841238" lon="13.3217545"><ele>536.6666666666667</ele><time>2026-04-04T11:00:03.403Z</time></trkpt><trkpt lat="42.9841555" lon="13.3216766"><ele>537.3333333333334</ele><time>2026-04-04T11:00:06.403Z</time></trkpt><trkpt lat="42.9841844" lon="13.3215705"><ele>538.0</ele><time>2026-04-04T11:00:09.403Z</time></trkpt><trkpt lat="42.9842146" lon="13.3214454"><ele>539.5714285714286</ele><time>2026-04-04T11:00:12.403Z</time></trkpt><trkpt lat="42.9842459" lon="13.3213477"><ele>541.1428571428572</ele><time>2026-04-04T11:00:14.403Z</time></trkpt><trkpt lat="42.9842717" lon="13.3212605"><ele>542.7142857142858</ele><time>2026-04-04T11:00:16.403Z</time></trkpt><trkpt lat="42.98429" lon="13.3211734"><ele>544.2857142857143</ele><time>2026-04-04T11:00:18.402Z</time></trkpt><trkpt lat="42.9843126" lon="13.3210919"><ele>545.8571428571429</ele><time>2026-04-04T11:00:20.403Z</time></trkpt><trkpt lat="42.9843466" lon="13.3209931"><ele>547.4285714285714</ele><time>2026-04-04T11:00:22.403Z</time></trkpt><trkpt lat="42.9843652" lon="13.320895"><ele>549.0</ele><time>2026-04-04T11:00:24.403Z</time></trkpt><trkpt lat="42.9843888" lon="13.3207973"><ele>549.0</ele><time>2026-04-04T11:00:26.403Z</time></trkpt><trkpt lat="42.9844248" lon="13.3206876"><ele>549.0</ele><time>2026-04-04T11:00:29.403Z</time></trkpt><trkpt lat="42.9844696" lon="13.32058"><ele>549.0</ele><time>2026-04-04T11:00:31.403Z</time></trkpt><trkpt lat="42.9845113" lon="13.3204845"><ele>549.0</ele><time>2026-04-04T11:00:33.403Z</time></trkpt><trkpt lat="42.9845414" lon="13.3203921"><ele>549.0</ele><time>2026-04-04T11:00:35.403Z</time></trkpt><trkpt lat="42.9845798" lon="13.3203089"><ele>549.0</ele><time>2026-04-04T11:00:37.403Z</time></trkpt><trkpt lat="42.9846349" lon="13.3202234"><ele>548.6</ele><time>2026-04-04T11:00:38.403Z</time></trkpt><trkpt lat="42.9846929" lon="13.320117"><ele>548.2</ele><time>2026-04-04T11:00:40.403Z</time></trkpt><trkpt lat="42.9847606" lon="13.3200253"><ele>547.8000000000001</ele><time>2026-04-04T11:00:43.403Z</time></trkpt><trkpt lat="42.9848203" lon="13.3199308"><ele>547.4</ele><time>2026-04-04T11:00:45.403Z</time></trkpt><trkpt lat="42.9848593" lon="13.3198246"><ele>547.0</ele><time>2026-04-04T11:00:47.403Z</time></trkpt><trkpt lat="42.9848749" lon="13.3196896"><ele>547.0</ele><time>2026-04-04T11:00:49.403Z</time></trkpt><trkpt lat="42.9848969" lon="13.3195518"><ele>547.0</ele><time>2026-04-04T11:00:51.403Z</time></trkpt><trkpt lat="42.984941" lon="13.3194714"><ele>547.0</ele><time>2026-04-04T11:00:53.403Z</time></trkpt><trkpt lat="42.984988" lon="13.3193761"><ele>547.0</ele><time>2026-04-04T11:00:55.403Z</time></trkpt><trkpt lat="42.9850195" lon="13.319295"><ele>547.0</ele><time>2026-04-04T11:00:57.403Z</time></trkpt><trkpt lat="42.9850459" lon="13.3191993"><ele>547.0</ele><time>2026-04-04T11:00:59.402Z</time></trkpt><trkpt lat="42.9850683" lon="13.3190828"><ele>549.6666666666667</ele><time>2026-04-04T11:01:02.403Z</time></trkpt><trkpt lat="42.9851205" lon="13.3190048"><ele>552.3333333333334</ele><time>2026-04-04T11:01:04.403Z</time></trkpt><trkpt lat="42.9851788" lon="13.3189505"><ele>555.0</ele><time>2026-04-04T11:01:06.403Z</time></trkpt><trkpt lat="42.9852378" lon="13.3188822"><ele>557.6666666666666</ele><time>2026-04-04T11:01:09.403Z</time></trkpt><trkpt lat="42.9852741" lon="13.3187972"><ele>560.3333333333333</ele><time>2026-04-04T11:01:11.403Z</time></trkpt><trkpt lat="42.9852914" lon="13.3187111"><ele>563.0</ele><time>2026-04-04T11:01:13.403Z</time></trkpt><trkpt lat="42.9852569" lon="13.3185911"><ele>563.0</ele><time>2026-04-04T11:01:16.403Z</time></trkpt><trkpt lat="42.9852201" lon="13.3184995"><ele>563.0</ele><time>2026-04-04T11:01:18.403Z</time></trkpt><trkpt lat="42.9851788" lon="13.3184122"><ele>563.0</ele><time>2026-04-04T11:01:21.403Z</time></trkpt><trkpt lat="42.9851247" lon="13.3183275"><ele>563.0</ele><time>2026-04-04T11:01:24.403Z</time></trkpt><trkpt lat="42.9850757" lon="13.318265"><ele>563.0</ele><time>2026-04-04T11:01:27.403Z</time></trkpt><trkpt lat="42.985008" lon="13.3182142"><ele>563.0</ele><time>2026-04-04T11:01:30.403Z</time></trkpt><trkpt lat="42.9849418" lon="13.3181696"><ele>561.2857142857142</ele><time>2026-04-04T11:01:33.403Z</time></trkpt><trkpt lat="42.9848904" lon="13.3181184"><ele>559.5714285714286</ele><time>2026-04-04T11:01:36.403Z</time></trkpt><trkpt lat="42.9848536" lon="13.3180246"><ele>557.8571428571429</ele><time>2026-04-04T11:01:39.403Z</time></trkpt><trkpt lat="42.9848285" lon="13.3179398"><ele>556.1428571428571</ele><time>2026-04-04T11:01:42.403Z</time></trkpt><trkpt lat="42.9847872" lon="13.3178533"><ele>554.4285714285714</ele><time>2026-04-04T11:01:45.403Z</time></trkpt><trkpt lat="42.9847549" lon="13.3177622"><ele>552.7142857142857</ele><time>2026-04-04T11:01:48.403Z</time></trkpt><trkpt lat="42.9847001" lon="13.3176812"><ele>551.0</ele><time>2026-04-04T11:01:52.403Z</time></trkpt><trkpt lat="42.9846529" lon="13.317599"><ele>550.9999999999999</ele><time>2026-04-04T11:01:56.403Z</time></trkpt><trkpt lat="42.9846083" lon="13.317512"><ele>551.0</ele><time>2026-04-04T11:02:00.403Z</time></trkpt><trkpt lat="42.9845605" lon="13.3174466"><ele>551.0</ele><time>2026-04-04T11:02:03.403Z</time></trkpt><trkpt lat="42.9845282" lon="13.3173724"><ele>551.0</ele><time>2026-04-04T11:02:07.403Z</time></trkpt><trkpt lat="42.9845305" lon="13.3172764"><ele>551.0</ele><time>2026-04-04T11:02:12.403Z</time></trkpt><trkpt lat="42.9845995" lon="13.3172798"><ele>550.9999999999999</ele><time>2026-04-04T11:02:19.403Z</time></trkpt><trkpt lat="42.9846005" lon="13.3173795"><ele>551.0</ele><time>2026-04-04T11:02:27.403Z</time></trkpt><trkpt lat="42.9846406" lon="13.3174521"><ele>550.9999999999999</ele><time>2026-04-04T11:02:30.403Z</time></trkpt><trkpt lat="42.984686" lon="13.3175178"><ele>551.0</ele><time>2026-04-04T11:02:33.403Z</time></trkpt><trkpt lat="42.9847278" lon="13.317584"><ele>551.0</ele><time>2026-04-04T11:02:36.403Z</time></trkpt><trkpt lat="42.9847671" lon="13.3176718"><ele>551.0</ele><time>2026-04-04T11:02:40.403Z</time></trkpt><trkpt lat="42.9848161" lon="13.3177467"><ele>551.0</ele><time>2026-04-04T11:02:44.403Z</time></trkpt><trkpt lat="42.9848811" lon="13.3177733"><ele>550.9999999999999</ele><time>2026-04-04T11:02:47.403Z</time></trkpt><trkpt lat="42.9849508" lon="13.3177551"><ele>551.0</ele><time>2026-04-04T11:02:50.403Z</time></trkpt><trkpt lat="42.9850194" lon="13.3176906"><ele>551.3333333333333</ele><time>2026-04-04T11:02:54.403Z</time></trkpt><trkpt lat="42.9850803" lon="13.3176275"><ele>551.6666666666666</ele><time>2026-04-04T11:02:58.403Z</time></trkpt><trkpt lat="42.9851209" lon="13.3175513"><ele>552.0</ele><time>2026-04-04T11:03:01.403Z</time></trkpt><trkpt lat="42.9851586" lon="13.3174588"><ele>552.3333333333334</ele><time>2026-04-04T11:03:05.403Z</time></trkpt><trkpt lat="42.9851638" lon="13.3173476"><ele>552.6666666666667</ele><time>2026-04-04T11:03:10.403Z</time></trkpt><trkpt lat="42.9851682" lon="13.3172483"><ele>553.0</ele><time>2026-04-04T11:03:14.403Z</time></trkpt><trkpt lat="42.9851006" lon="13.3171937"><ele>554.2857142857143</ele><time>2026-04-04T11:03:19.403Z</time></trkpt><trkpt lat="42.9850374" lon="13.3171823"><ele>555.5714285714286</ele><time>2026-04-04T11:03:22.403Z</time></trkpt><trkpt lat="42.9849913" lon="13.3171074"><ele>556.8571428571429</ele><time>2026-04-04T11:03:26.402Z</time></trkpt><trkpt lat="42.9849754" lon="13.3170161"><ele>558.1428571428571</ele><time>2026-04-04T11:03:29.403Z</time></trkpt><trkpt lat="42.9849962" lon="13.3169283"><ele>559.4285714285714</ele><time>2026-04-04T11:03:32.403Z</time></trkpt><trkpt lat="42.9850352" lon="13.316836"><ele>560.7142857142858</ele><time>2026-04-04T11:03:36.403Z</time></trkpt><trkpt lat="42.9850976" lon="13.3167801"><ele>562.0</ele><time>2026-04-04T11:03:40.403Z</time></trkpt><trkpt lat="42.9851676" lon="13.3167459"><ele>562.0000000000001</ele><time>2026-04-04T11:03:45.403Z</time></trkpt><trkpt lat="42.9852252" lon="13.3167087"><ele>562.0</ele><time>2026-04-04T11:03:50.403Z</time></trkpt><trkpt lat="42.9852589" lon="13.3166338"><ele>562.0</ele><time>2026-04-04T11:03:54.403Z</time></trkpt><trkpt lat="42.9853031" lon="13.3165575"><ele>562.0</ele><time>2026-04-04T11:03:58.403Z</time></trkpt><trkpt lat="42.9853242" lon="13.316467"><ele>562.0</ele><time>2026-04-04T11:04:01.403Z</time></trkpt><trkpt lat="42.9853697" lon="13.3163895"><ele>562.0000000000001</ele><time>2026-04-04T11:04:05.403Z</time></trkpt><trkpt lat="42.9854376" lon="13.3163629"><ele>562.0</ele><time>2026-04-04T11:04:11.403Z</time></trkpt><trkpt lat="42.9854918" lon="13.3163076"><ele>563.0000000000001</ele><time>2026-04-04T11:04:16.403Z</time></trkpt><trkpt lat="42.9855544" lon="13.3162696"><ele>564.0</ele><time>2026-04-04T11:04:22.403Z</time></trkpt><trkpt lat="42.9856002" lon="13.3162031"><ele>565.0</ele><time>2026-04-04T11:04:26.403Z</time></trkpt><trkpt lat="42.9856601" lon="13.3161282"><ele>566.0</ele><time>2026-04-04T11:04:31.403Z</time></trkpt><trkpt lat="42.9857317" lon="13.3160803"><ele>567.0</ele><time>2026-04-04T11:04:35.403Z</time></trkpt><trkpt lat="42.985794" lon="13.3160139"><ele>568.0000000000001</ele><time>2026-04-04T11:04:40.403Z</time></trkpt><trkpt lat="42.9858469" lon="13.3159603"><ele>569.0</ele><time>2026-04-04T11:04:44.403Z</time></trkpt><trkpt lat="42.985895" lon="13.3159038"><ele>569.0000000000001</ele><time>2026-04-04T11:04:49.403Z</time></trkpt><trkpt lat="42.9859452" lon="13.3158341"><ele>569.0</ele><time>2026-04-04T11:04:53.403Z</time></trkpt><trkpt lat="42.9859948" lon="13.3157673"><ele>569.0</ele><time>2026-04-04T11:04:57.403Z</time></trkpt><trkpt lat="42.9860348" lon="13.3156926"><ele>569.0</ele><time>2026-04-04T11:05:01.403Z</time></trkpt><trkpt lat="42.9860834" lon="13.3156301"><ele>569.0</ele><time>2026-04-04T11:05:06.402Z</time></trkpt><trkpt lat="42.9861408" lon="13.3155688"><ele>569.0000000000001</ele><time>2026-04-04T11:05:11.403Z</time></trkpt><trkpt lat="42.9862039" lon="13.3155078"><ele>569.0</ele><time>2026-04-04T11:05:16.403Z</time></trkpt><trkpt lat="42.9862659" lon="13.3154611"><ele>571.4285714285714</ele><time>2026-04-04T11:05:20.402Z</time></trkpt><trkpt lat="42.9863289" lon="13.3153991"><ele>573.8571428571429</ele><time>2026-04-04T11:05:24.403Z</time></trkpt><trkpt lat="42.9863784" lon="13.3153444"><ele>576.2857142857142</ele><time>2026-04-04T11:05:28.403Z</time></trkpt><trkpt lat="42.9864363" lon="13.3153079"><ele>578.7142857142858</ele><time>2026-04-04T11:05:32.402Z</time></trkpt><trkpt lat="42.9864899" lon="13.3152425"><ele>581.1428571428571</ele><time>2026-04-04T11:05:36.403Z</time></trkpt><trkpt lat="42.9865126" lon="13.3151565"><ele>583.5714285714286</ele><time>2026-04-04T11:05:41.403Z</time></trkpt><trkpt lat="42.9864809" lon="13.3150653"><ele>586.0</ele><time>2026-04-04T11:05:47.403Z</time></trkpt><trkpt lat="42.986401" lon="13.3150616"><ele>585.9999999999999</ele><time>2026-04-04T11:05:51.403Z</time></trkpt><trkpt lat="42.9863295" lon="13.3150816"><ele>586.0</ele><time>2026-04-04T11:05:55.402Z</time></trkpt><trkpt lat="42.9862688" lon="13.3151066"><ele>586.0</ele><time>2026-04-04T11:05:58.402Z</time></trkpt><trkpt lat="42.9861932" lon="13.3151458"><ele>586.0</ele><time>2026-04-04T11:06:02.403Z</time></trkpt><trkpt lat="42.9861246" lon="13.3151766"><ele>586.0</ele><time>2026-04-04T11:06:06.402Z</time></trkpt><trkpt lat="42.9860654" lon="13.3152225"><ele>585.9999999999999</ele><time>2026-04-04T11:06:11.402Z</time></trkpt><trkpt lat="42.9859948" lon="13.3152288"><ele>586.0</ele><time>2026-04-04T11:06:15.403Z</time></trkpt><trkpt lat="42.9859216" lon="13.3152332"><ele>585.9999999999999</ele><time>2026-04-04T11:06:20.403Z</time></trkpt><trkpt lat="42.9858726" lon="13.3151529"><ele>586.0</ele><time>2026-04-04T11:06:26.403Z</time></trkpt><trkpt lat="42.9858941" lon="13.3150642"><ele>586.0</ele><time>2026-04-04T11:06:29.403Z</time></trkpt><trkpt lat="42.9859609" lon="13.3150232"><ele>586.0</ele><time>2026-04-04T11:06:33.403Z</time></trkpt><trkpt lat="42.9860276" lon="13.3150219"><ele>586.0</ele><time>2026-04-04T11:06:37.403Z</time></trkpt><trkpt lat="42.9860854" lon="13.314983"><ele>585.9999999999999</ele><time>2026-04-04T11:06:41.403Z</time></trkpt><trkpt lat="42.9861441" lon="13.3149485"><ele>586.0</ele><time>2026-04-04T11:06:44.403Z</time></trkpt><trkpt lat="42.9862019" lon="13.3148885"><ele>585.9999999999999</ele><time>2026-04-04T11:06:48.403Z</time></trkpt><trkpt lat="42.986247" lon="13.3148006"><ele>586.0</ele><time>2026-04-04T11:06:53.403Z</time></trkpt><trkpt lat="42.986289" lon="13.314729"><ele>586.0</ele><time>2026-04-04T11:06:56.403Z</time></trkpt><trkpt lat="42.9863427" lon="13.3146637"><ele>586.0</ele><time>2026-04-04T11:06:59.403Z</time></trkpt><trkpt lat="42.9863979" lon="13.3145784"><ele>586.0</ele><time>2026-04-04T11:07:03.403Z</time></trkpt><trkpt lat="42.9864419" lon="13.3144987"><ele>585.9999999999999</ele><time>2026-04-04T11:07:07.403Z</time></trkpt><trkpt lat="42.9864754" lon="13.3144112"><ele>586.0</ele><time>2026-04-04T11:07:11.403Z</time></trkpt><trkpt lat="42.9865248" lon="13.3143399"><ele>587.4285714285713</ele><time>2026-04-04T11:07:15.403Z</time></trkpt><trkpt lat="42.9865703" lon="13.3142633"><ele>588.8571428571429</ele><time>2026-04-04T11:07:19.403Z</time></trkpt><trkpt lat="42.9866043" lon="13.3141864"><ele>590.2857142857142</ele><time>2026-04-04T11:07:23.403Z</time></trkpt><trkpt lat="42.9866408" lon="13.3141031"><ele>591.7142857142857</ele><time>2026-04-04T11:07:26.403Z</time></trkpt><trkpt lat="42.9866923" lon="13.3140381"><ele>593.1428571428571</ele><time>2026-04-04T11:07:31.403Z</time></trkpt><trkpt lat="42.9867433" lon="13.3139833"><ele>594.5714285714286</ele><time>2026-04-04T11:07:35.403Z</time></trkpt><trkpt lat="42.9868209" lon="13.3139426"><ele>596.0</ele><time>2026-04-04T11:07:39.402Z</time></trkpt><trkpt lat="42.9868828" lon="13.3139254"><ele>597.1666666666666</ele><time>2026-04-04T11:07:43.403Z</time></trkpt><trkpt lat="42.986951" lon="13.3138894"><ele>598.3333333333333</ele><time>2026-04-04T11:07:48.403Z</time></trkpt><trkpt lat="42.9870214" lon="13.3138629"><ele>599.5</ele><time>2026-04-04T11:07:52.403Z</time></trkpt><trkpt lat="42.9870945" lon="13.313833"><ele>600.6666666666666</ele><time>2026-04-04T11:07:57.403Z</time></trkpt><trkpt lat="42.9871642" lon="13.3137929"><ele>601.8333333333334</ele><time>2026-04-04T11:08:01.403Z</time></trkpt><trkpt lat="42.987229" lon="13.3137659"><ele>603.0</ele><time>2026-04-04T11:08:05.403Z</time></trkpt><trkpt lat="42.9873172" lon="13.3137292"><ele>603.0</ele><time>2026-04-04T11:08:08.907Z</time></trkpt><trkpt lat="42.9873828" lon="13.3137227"><ele>603.0</ele><time>2026-04-04T11:08:12.906Z</time></trkpt><trkpt lat="42.9874503" lon="13.3136842"><ele>603.0</ele><time>2026-04-04T11:08:17.907Z</time></trkpt><trkpt lat="42.9875065" lon="13.3136154"><ele>603.0</ele><time>2026-04-04T11:08:21.906Z</time></trkpt><trkpt lat="42.9875592" lon="13.3135577"><ele>603.0</ele><time>2026-04-04T11:08:25.907Z</time></trkpt><trkpt lat="42.9876248" lon="13.3134903"><ele>603.0</ele><time>2026-04-04T11:08:30.906Z</time></trkpt><trkpt lat="42.9876804" lon="13.3134355"><ele>603.0</ele><time>2026-04-04T11:08:34.906Z</time></trkpt><trkpt lat="42.9877364" lon="13.3133738"><ele>604.5714285714286</ele><time>2026-04-04T11:08:38.907Z</time></trkpt><trkpt lat="42.9877987" lon="13.3133185"><ele>606.1428571428571</ele><time>2026-04-04T11:08:42.907Z</time></trkpt><trkpt lat="42.987852" lon="13.3132591"><ele>607.7142857142857</ele><time>2026-04-04T11:08:46.906Z</time></trkpt><trkpt lat="42.9879131" lon="13.313209"><ele>609.2857142857142</ele><time>2026-04-04T11:08:50.907Z</time></trkpt><trkpt lat="42.9879812" lon="13.3131517"><ele>610.8571428571429</ele><time>2026-04-04T11:08:54.907Z</time></trkpt><trkpt lat="42.988037" lon="13.3130949"><ele>612.4285714285713</ele><time>2026-04-04T11:08:58.906Z</time></trkpt><trkpt lat="42.9881003" lon="13.3130425"><ele>614.0</ele><time>2026-04-04T11:09:02.906Z</time></trkpt><trkpt lat="42.988164" lon="13.3130027"><ele>613.9999999999999</ele><time>2026-04-04T11:09:06.906Z</time></trkpt><trkpt lat="42.9882254" lon="13.3129456"><ele>614.0</ele><time>2026-04-04T11:09:10.906Z</time></trkpt><trkpt lat="42.9882882" lon="13.3129052"><ele>614.0</ele><time>2026-04-04T11:09:13.907Z</time></trkpt><trkpt lat="42.9883537" lon="13.3128677"><ele>614.0</ele><time>2026-04-04T11:09:16.906Z</time></trkpt><trkpt lat="42.988421" lon="13.3128563"><ele>614.0</ele><time>2026-04-04T11:09:19.907Z</time></trkpt><trkpt lat="42.9884939" lon="13.3128282"><ele>613.9999999999999</ele><time>2026-04-04T11:09:23.907Z</time></trkpt><trkpt lat="42.9885622" lon="13.312825"><ele>614.0</ele><time>2026-04-04T11:09:26.907Z</time></trkpt><trkpt lat="42.9886227" lon="13.3128007"><ele>616.5714285714286</ele><time>2026-04-04T11:09:30.906Z</time></trkpt><trkpt lat="42.9886723" lon="13.312745"><ele>619.1428571428571</ele><time>2026-04-04T11:09:34.906Z</time></trkpt><trkpt lat="42.9887438" lon="13.3127131"><ele>621.7142857142858</ele><time>2026-04-04T11:09:38.907Z</time></trkpt><trkpt lat="42.988811" lon="13.3126767"><ele>624.2857142857142</ele><time>2026-04-04T11:09:42.907Z</time></trkpt><trkpt lat="42.9888715" lon="13.3126207"><ele>626.8571428571429</ele><time>2026-04-04T11:09:46.906Z</time></trkpt><trkpt lat="42.9889263" lon="13.3125762"><ele>629.4285714285714</ele><time>2026-04-04T11:09:49.906Z</time></trkpt><trkpt lat="42.9889856" lon="13.3125399"><ele>632.0</ele><time>2026-04-04T11:09:52.907Z</time></trkpt><trkpt lat="42.9890452" lon="13.3124804"><ele>632.0000000000001</ele><time>2026-04-04T11:09:55.907Z</time></trkpt><trkpt lat="42.9891015" lon="13.3124157"><ele>632.0</ele><time>2026-04-04T11:09:59.907Z</time></trkpt><trkpt lat="42.9891595" lon="13.3123554"><ele>632.0</ele><time>2026-04-04T11:10:02.907Z</time></trkpt><trkpt lat="42.9892115" lon="13.3122959"><ele>632.0</ele><time>2026-04-04T11:10:05.906Z</time></trkpt><trkpt lat="42.9892572" lon="13.3122147"><ele>632.0</ele><time>2026-04-04T11:10:08.907Z</time></trkpt><trkpt lat="42.9893092" lon="13.3121566"><ele>632.0000000000001</ele><time>2026-04-04T11:10:11.906Z</time></trkpt><trkpt lat="42.9893571" lon="13.312082"><ele>632.0</ele><time>2026-04-04T11:10:14.906Z</time></trkpt><trkpt lat="42.9894076" lon="13.3120065"><ele>633.5714285714287</ele><time>2026-04-04T11:10:17.907Z</time></trkpt><trkpt lat="42.9894492" lon="13.3119417"><ele>635.1428571428571</ele><time>2026-04-04T11:10:20.907Z</time></trkpt><trkpt lat="42.989513" lon="13.3119005"><ele>636.7142857142858</ele><time>2026-04-04T11:10:23.906Z</time></trkpt><trkpt lat="42.9895675" lon="13.3118566"><ele>638.2857142857143</ele><time>2026-04-04T11:10:26.907Z</time></trkpt><trkpt lat="42.9896553" lon="13.3118189"><ele>639.8571428571429</ele><time>2026-04-04T11:10:29.907Z</time></trkpt><trkpt lat="42.9897234" lon="13.3117915"><ele>641.4285714285714</ele><time>2026-04-04T11:10:32.906Z</time></trkpt><trkpt lat="42.9897939" lon="13.3117522"><ele>643.0</ele><time>2026-04-04T11:10:35.906Z</time></trkpt><trkpt lat="42.9898562" lon="13.3117328"><ele>643.0</ele><time>2026-04-04T11:10:38.906Z</time></trkpt><trkpt lat="42.9899273" lon="13.3117081"><ele>643.0</ele><time>2026-04-04T11:10:41.906Z</time></trkpt><trkpt lat="42.9899945" lon="13.3116671"><ele>643.0</ele><time>2026-04-04T11:10:44.907Z</time></trkpt><trkpt lat="42.990052" lon="13.3116061"><ele>643.0</ele><time>2026-04-04T11:10:47.906Z</time></trkpt><trkpt lat="42.9901118" lon="13.3115522"><ele>643.0</ele><time>2026-04-04T11:10:50.906Z</time></trkpt><trkpt lat="42.9901686" lon="13.3114911"><ele>643.0</ele><time>2026-04-04T11:10:53.907Z</time></trkpt><trkpt lat="42.9902502" lon="13.3114288"><ele>644.0</ele><time>2026-04-04T11:10:56.906Z</time></trkpt><trkpt lat="42.9903071" lon="13.3113844"><ele>645.0</ele><time>2026-04-04T11:10:58.906Z</time></trkpt><trkpt lat="42.9903619" lon="13.311341"><ele>646.0</ele><time>2026-04-04T11:11:00.906Z</time></trkpt><trkpt lat="42.9904322" lon="13.3112869"><ele>647.0</ele><time>2026-04-04T11:11:03.907Z</time></trkpt><trkpt lat="42.9905129" lon="13.3112685"><ele>648.0</ele><time>2026-04-04T11:11:06.907Z</time></trkpt><trkpt lat="42.9906024" lon="13.3112697"><ele>649.0</ele><time>2026-04-04T11:11:09.907Z</time></trkpt><trkpt lat="42.990667" lon="13.3112451"><ele>650.0</ele><time>2026-04-04T11:11:12.907Z</time></trkpt><trkpt lat="42.9907258" lon="13.3111913"><ele>650.0</ele><time>2026-04-04T11:11:15.906Z</time></trkpt><trkpt lat="42.9907949" lon="13.3111661"><ele>650.0</ele><time>2026-04-04T11:11:18.907Z</time></trkpt><trkpt lat="42.9908661" lon="13.3111336"><ele>650.0</ele><time>2026-04-04T11:11:21.907Z</time></trkpt><trkpt lat="42.9909274" lon="13.3111023"><ele>650.0</ele><time>2026-04-04T11:11:23.907Z</time></trkpt><trkpt lat="42.9909959" lon="13.3110681"><ele>650.0</ele><time>2026-04-04T11:11:26.907Z</time></trkpt><trkpt lat="42.9910838" lon="13.3110138"><ele>650.0</ele><time>2026-04-04T11:11:29.907Z</time></trkpt><trkpt lat="42.9911429" lon="13.3109669"><ele>652.1428571428571</ele><time>2026-04-04T11:11:31.906Z</time></trkpt><trkpt lat="42.9911972" lon="13.3108984"><ele>654.2857142857143</ele><time>2026-04-04T11:11:34.907Z</time></trkpt><trkpt lat="42.9912345" lon="13.3108145"><ele>656.4285714285714</ele><time>2026-04-04T11:11:36.907Z</time></trkpt><trkpt lat="42.9912636" lon="13.3107347"><ele>658.5714285714286</ele><time>2026-04-04T11:11:38.907Z</time></trkpt><trkpt lat="42.9912803" lon="13.3106505"><ele>660.7142857142858</ele><time>2026-04-04T11:11:40.907Z</time></trkpt><trkpt lat="42.9912911" lon="13.3105619"><ele>662.8571428571429</ele><time>2026-04-04T11:11:42.906Z</time></trkpt><trkpt lat="42.9912874" lon="13.3104758"><ele>665.0</ele><time>2026-04-04T11:11:46.907Z</time></trkpt><trkpt lat="42.9912674" lon="13.3103838"><ele>667.8571428571429</ele><time>2026-04-04T11:11:51.907Z</time></trkpt><trkpt lat="42.9912297" lon="13.3102891"><ele>670.7142857142858</ele><time>2026-04-04T11:11:56.907Z</time></trkpt><trkpt lat="42.991198" lon="13.3102101"><ele>673.5714285714286</ele><time>2026-04-04T11:12:00.907Z</time></trkpt><trkpt lat="42.9911987" lon="13.3101051"><ele>676.4285714285714</ele><time>2026-04-04T11:12:04.907Z</time></trkpt><trkpt lat="42.9912231" lon="13.3100094"><ele>679.2857142857143</ele><time>2026-04-04T11:12:08.907Z</time></trkpt><trkpt lat="42.9912489" lon="13.30992"><ele>682.1428571428571</ele><time>2026-04-04T11:12:11.907Z</time></trkpt><trkpt lat="42.9912999" lon="13.3098556"><ele>685.0</ele><time>2026-04-04T11:12:15.907Z</time></trkpt><trkpt lat="42.9913521" lon="13.3098011"><ele>685.0</ele><time>2026-04-04T11:12:18.906Z</time></trkpt><trkpt lat="42.991423" lon="13.3097452"><ele>685.0</ele><time>2026-04-04T11:12:21.906Z</time></trkpt><trkpt lat="42.9914821" lon="13.3096881"><ele>685.0</ele><time>2026-04-04T11:12:24.907Z</time></trkpt><trkpt lat="42.9915637" lon="13.3096175"><ele>685.0</ele><time>2026-04-04T11:12:28.907Z</time></trkpt><trkpt lat="42.9916043" lon="13.3095517"><ele>685.0</ele><time>2026-04-04T11:12:31.907Z</time></trkpt><trkpt lat="42.9916519" lon="13.3094743"><ele>685.0</ele><time>2026-04-04T11:12:35.907Z</time></trkpt><trkpt lat="42.9916965" lon="13.3094039"><ele>686.4</ele><time>2026-04-04T11:12:39.907Z</time></trkpt><trkpt lat="42.9917309" lon="13.3093149"><ele>687.8</ele><time>2026-04-04T11:12:43.907Z</time></trkpt><trkpt lat="42.9918084" lon="13.3091855"><ele>689.2</ele><time>2026-04-04T11:12:46.906Z</time></trkpt><trkpt lat="42.9918897" lon="13.3090631"><ele>690.6</ele><time>2026-04-04T11:12:48.907Z</time></trkpt><trkpt lat="42.991968" lon="13.3089585"><ele>692.0</ele><time>2026-04-04T11:12:50.907Z</time></trkpt><trkpt lat="42.9920093" lon="13.3088667"><ele>692.0</ele><time>2026-04-04T11:12:52.907Z</time></trkpt><trkpt lat="42.9920614" lon="13.3087914"><ele>692.0</ele><time>2026-04-04T11:12:55.906Z</time></trkpt><trkpt lat="42.9921106" lon="13.308716"><ele>692.0</ele><time>2026-04-04T11:12:59.906Z</time></trkpt><trkpt lat="42.9921478" lon="13.3086363"><ele>692.0</ele><time>2026-04-04T11:13:02.907Z</time></trkpt><trkpt lat="42.9921901" lon="13.3085493"><ele>692.0</ele><time>2026-04-04T11:13:05.907Z</time></trkpt><trkpt lat="42.9922345" lon="13.3084718"><ele>692.0</ele><time>2026-04-04T11:13:08.907Z</time></trkpt><trkpt lat="42.9922904" lon="13.3083851"><ele>692.0</ele><time>2026-04-04T11:13:12.906Z</time></trkpt><trkpt lat="42.9923519" lon="13.3083483"><ele>692.0</ele><time>2026-04-04T11:13:15.906Z</time></trkpt><trkpt lat="42.9924243" lon="13.3082997"><ele>692.0</ele><time>2026-04-04T11:13:19.907Z</time></trkpt><trkpt lat="42.9924829" lon="13.3082445"><ele>692.0</ele><time>2026-04-04T11:13:22.906Z</time></trkpt><trkpt lat="42.9925418" lon="13.3081936"><ele>692.0</ele><time>2026-04-04T11:13:25.906Z</time></trkpt><trkpt lat="42.9926027" lon="13.3081416"><ele>692.0</ele><time>2026-04-04T11:13:28.906Z</time></trkpt><trkpt lat="42.9926739" lon="13.3081151"><ele>692.0</ele><time>2026-04-04T11:13:31.906Z</time></trkpt><trkpt lat="42.9927503" lon="13.3080558"><ele>691.1666666666666</ele><time>2026-04-04T11:13:35.907Z</time></trkpt><trkpt lat="42.9928311" lon="13.3080315"><ele>690.3333333333333</ele><time>2026-04-04T11:13:38.907Z</time></trkpt><trkpt lat="42.9928985" lon="13.3079912"><ele>689.5</ele><time>2026-04-04T11:13:42.907Z</time></trkpt><trkpt lat="42.9929688" lon="13.3079236"><ele>688.6666666666666</ele><time>2026-04-04T11:13:47.906Z</time></trkpt><trkpt lat="42.9930373" lon="13.3078707"><ele>687.8333333333334</ele><time>2026-04-04T11:13:50.906Z</time></trkpt><trkpt lat="42.9931127" lon="13.3078421"><ele>687.0</ele><time>2026-04-04T11:13:53.907Z</time></trkpt><trkpt lat="42.9931774" lon="13.3077921"><ele>687.0</ele><time>2026-04-04T11:13:56.906Z</time></trkpt><trkpt lat="42.9932239" lon="13.3077198"><ele>687.0</ele><time>2026-04-04T11:13:58.907Z</time></trkpt><trkpt lat="42.9932641" lon="13.3076437"><ele>687.0</ele><time>2026-04-04T11:14:00.907Z</time></trkpt><trkpt lat="42.9933335" lon="13.3075756"><ele>687.0</ele><time>2026-04-04T11:14:02.907Z</time></trkpt><trkpt lat="42.9934187" lon="13.3075339"><ele>687.0</ele><time>2026-04-04T11:14:04.907Z</time></trkpt><trkpt lat="42.9935026" lon="13.3074763"><ele>687.0</ele><time>2026-04-04T11:14:06.906Z</time></trkpt><trkpt lat="42.9935733" lon="13.307444"><ele>685.3333333333334</ele><time>2026-04-04T11:14:07.906Z</time></trkpt><trkpt lat="42.9936361" lon="13.3073641"><ele>683.6666666666666</ele><time>2026-04-04T11:14:09.907Z</time></trkpt><trkpt lat="42.993689" lon="13.3072803"><ele>682.0</ele><time>2026-04-04T11:14:11.907Z</time></trkpt><trkpt lat="42.9937452" lon="13.3071964"><ele>680.3333333333333</ele><time>2026-04-04T11:14:13.907Z</time></trkpt><trkpt lat="42.9938174" lon="13.307152"><ele>678.6666666666666</ele><time>2026-04-04T11:14:15.906Z</time></trkpt><trkpt lat="42.9938794" lon="13.3070676"><ele>677.0</ele><time>2026-04-04T11:14:17.907Z</time></trkpt><trkpt lat="42.9939531" lon="13.3069819"><ele>677.0</ele><time>2026-04-04T11:14:19.907Z</time></trkpt><trkpt lat="42.9940338" lon="13.3068852"><ele>677.0</ele><time>2026-04-04T11:14:21.907Z</time></trkpt><trkpt lat="42.9941347" lon="13.3068257"><ele>677.0</ele><time>2026-04-04T11:14:23.907Z</time></trkpt><trkpt lat="42.9942115" lon="13.3067462"><ele>677.0</ele><time>2026-04-04T11:14:25.907Z</time></trkpt><trkpt lat="42.9943031" lon="13.3066868"><ele>677.0</ele><time>2026-04-04T11:14:27.907Z</time></trkpt><trkpt lat="42.9943844" lon="13.3066224"><ele>682.0</ele><time>2026-04-04T11:14:29.907Z</time></trkpt><trkpt lat="42.9944683" lon="13.3065291"><ele>687.0</ele><time>2026-04-04T11:14:31.907Z</time></trkpt><trkpt lat="42.9945829" lon="13.306484"><ele>692.0</ele><time>2026-04-04T11:14:33.907Z</time></trkpt><trkpt lat="42.9946903" lon="13.3064692"><ele>697.0</ele><time>2026-04-04T11:14:35.907Z</time></trkpt><trkpt lat="42.9947742" lon="13.3064485"><ele>702.0</ele><time>2026-04-04T11:14:37.907Z</time></trkpt><trkpt lat="42.9949387" lon="13.3064417"><ele>701.0</ele><time>2026-04-04T11:14:39.907Z</time></trkpt><trkpt lat="42.9950384" lon="13.3064097"><ele>700.0</ele><time>2026-04-04T11:14:41.906Z</time></trkpt><trkpt lat="42.9951058" lon="13.3063844"><ele>699.0</ele><time>2026-04-04T11:14:43.907Z</time></trkpt><trkpt lat="42.9951712" lon="13.3064241"><ele>698.0</ele><time>2026-04-04T11:14:44.906Z</time></trkpt><trkpt lat="42.9952818" lon="13.3063874"><ele>697.0</ele><time>2026-04-04T11:14:46.907Z</time></trkpt><trkpt lat="42.9953586" lon="13.306327"><ele>696.0</ele><time>2026-04-04T11:14:48.907Z</time></trkpt><trkpt lat="42.9953705" lon="13.3061752"><ele>696.0</ele><time>2026-04-04T11:14:50.907Z</time></trkpt><trkpt lat="42.995471" lon="13.3061487"><ele>696.0</ele><time>2026-04-04T11:14:52.907Z</time></trkpt><trkpt lat="42.9955249" lon="13.3060952"><ele>696.0</ele><time>2026-04-04T11:14:54.907Z</time></trkpt><trkpt lat="42.9956018" lon="13.3060576"><ele>696.0</ele><time>2026-04-04T11:14:56.906Z</time></trkpt><trkpt lat="42.9956834" lon="13.3060184"><ele>696.0</ele><time>2026-04-04T11:14:58.907Z</time></trkpt><trkpt lat="42.9957499" lon="13.3059605"><ele>696.0</ele><time>2026-04-04T11:15:00.906Z</time></trkpt><trkpt lat="42.9958334" lon="13.3059017"><ele>696.2857142857142</ele><time>2026-04-04T11:15:03.907Z</time></trkpt><trkpt lat="42.9958923" lon="13.3058634"><ele>696.5714285714286</ele><time>2026-04-04T11:15:05.906Z</time></trkpt><trkpt lat="42.9959497" lon="13.3058204"><ele>696.8571428571429</ele><time>2026-04-04T11:15:07.906Z</time></trkpt><trkpt lat="42.99603" lon="13.3057689"><ele>697.1428571428571</ele><time>2026-04-04T11:15:10.907Z</time></trkpt><trkpt lat="42.9960996" lon="13.3057064"><ele>697.4285714285714</ele><time>2026-04-04T11:15:13.906Z</time></trkpt><trkpt lat="42.9961595" lon="13.30564"><ele>697.7142857142857</ele><time>2026-04-04T11:15:15.907Z</time></trkpt><trkpt lat="42.996214" lon="13.3055868"><ele>698.0</ele><time>2026-04-04T11:15:17.907Z</time></trkpt><trkpt lat="42.9962713" lon="13.3055214"><ele>698.0</ele><time>2026-04-04T11:15:20.907Z</time></trkpt><trkpt lat="42.9963308" lon="13.3054259"><ele>698.0</ele><time>2026-04-04T11:15:23.907Z</time></trkpt><trkpt lat="42.9963884" lon="13.3053775"><ele>698.0</ele><time>2026-04-04T11:15:25.906Z</time></trkpt><trkpt lat="42.9964735" lon="13.3053429"><ele>698.0</ele><time>2026-04-04T11:15:28.907Z</time></trkpt><trkpt lat="42.9965353" lon="13.3053067"><ele>698.0</ele><time>2026-04-04T11:15:31.906Z</time></trkpt><trkpt lat="42.9965859" lon="13.305231"><ele>698.0</ele><time>2026-04-04T11:15:34.907Z</time></trkpt><trkpt lat="42.9966617" lon="13.3051716"><ele>701.3333333333333</ele><time>2026-04-04T11:15:37.907Z</time></trkpt><trkpt lat="42.9967434" lon="13.3051316"><ele>704.6666666666666</ele><time>2026-04-04T11:15:40.907Z</time></trkpt><trkpt lat="42.9968275" lon="13.3051243"><ele>708.0</ele><time>2026-04-04T11:15:43.907Z</time></trkpt><trkpt lat="42.9968917" lon="13.305094"><ele>711.3333333333334</ele><time>2026-04-04T11:15:46.907Z</time></trkpt><trkpt lat="42.9969562" lon="13.3050508"><ele>714.6666666666667</ele><time>2026-04-04T11:15:49.906Z</time></trkpt><trkpt lat="42.9970296" lon="13.3049969"><ele>718.0</ele><time>2026-04-04T11:15:52.907Z</time></trkpt><trkpt lat="42.997105" lon="13.3049553"><ele>718.0</ele><time>2026-04-04T11:15:55.907Z</time></trkpt><trkpt lat="42.9971634" lon="13.304889"><ele>718.0</ele><time>2026-04-04T11:15:58.907Z</time></trkpt><trkpt lat="42.9972297" lon="13.3048324"><ele>718.0</ele><time>2026-04-04T11:16:01.906Z</time></trkpt><trkpt lat="42.9972763" lon="13.3047669"><ele>718.0</ele><time>2026-04-04T11:16:04.906Z</time></trkpt><trkpt lat="42.9972908" lon="13.3046802"><ele>718.0</ele><time>2026-04-04T11:16:06.907Z</time></trkpt><trkpt lat="42.9972925" lon="13.3045844"><ele>718.0</ele><time>2026-04-04T11:16:08.907Z</time></trkpt><trkpt lat="42.9972787" lon="13.3044968"><ele>718.0</ele><time>2026-04-04T11:16:10.907Z</time></trkpt><trkpt lat="42.9972463" lon="13.3044208"><ele>716.8333333333334</ele><time>2026-04-04T11:16:12.907Z</time></trkpt><trkpt lat="42.9971901" lon="13.304325"><ele>715.6666666666667</ele><time>2026-04-04T11:16:15.907Z</time></trkpt><trkpt lat="42.9971337" lon="13.3042343"><ele>714.5</ele><time>2026-04-04T11:16:18.906Z</time></trkpt><trkpt lat="42.997073" lon="13.3041432"><ele>713.3333333333334</ele><time>2026-04-04T11:16:21.907Z</time></trkpt><trkpt lat="42.9969995" lon="13.3040739"><ele>712.1666666666666</ele><time>2026-04-04T11:16:24.907Z</time></trkpt><trkpt lat="42.9969353" lon="13.3040258"><ele>711.0</ele><time>2026-04-04T11:16:27.907Z</time></trkpt><trkpt lat="42.9968597" lon="13.3039914"><ele>711.0</ele><time>2026-04-04T11:16:30.907Z</time></trkpt><trkpt lat="42.9968078" lon="13.3039398"><ele>711.0</ele><time>2026-04-04T11:16:32.907Z</time></trkpt><trkpt lat="42.9967832" lon="13.3038284"><ele>711.0</ele><time>2026-04-04T11:16:35.907Z</time></trkpt><trkpt lat="42.9968146" lon="13.3037231"><ele>711.0</ele><time>2026-04-04T11:16:38.906Z</time></trkpt><trkpt lat="42.9968645" lon="13.3036343"><ele>711.0</ele><time>2026-04-04T11:16:41.907Z</time></trkpt><trkpt lat="42.9969202" lon="13.3035734"><ele>711.0</ele><time>2026-04-04T11:16:44.907Z</time></trkpt><trkpt lat="42.9969873" lon="13.3035078"><ele>711.4285714285714</ele><time>2026-04-04T11:16:47.907Z</time></trkpt><trkpt lat="42.9970426" lon="13.3034467"><ele>711.8571428571429</ele><time>2026-04-04T11:16:50.907Z</time></trkpt><trkpt lat="42.9970893" lon="13.3033764"><ele>712.2857142857142</ele><time>2026-04-04T11:16:53.906Z</time></trkpt><trkpt lat="42.9971536" lon="13.3033339"><ele>712.7142857142858</ele><time>2026-04-04T11:16:56.906Z</time></trkpt><trkpt lat="42.9972139" lon="13.303272"><ele>713.1428571428571</ele><time>2026-04-04T11:16:59.907Z</time></trkpt><trkpt lat="42.9972811" lon="13.30323"><ele>713.5714285714286</ele><time>2026-04-04T11:17:02.907Z</time></trkpt><trkpt lat="42.9973582" lon="13.3031858"><ele>714.0</ele><time>2026-04-04T11:17:06.907Z</time></trkpt><trkpt lat="42.9974318" lon="13.3031538"><ele>714.0</ele><time>2026-04-04T11:17:09.907Z</time></trkpt><trkpt lat="42.9974954" lon="13.3031068"><ele>714.0</ele><time>2026-04-04T11:17:12.907Z</time></trkpt><trkpt lat="42.9975502" lon="13.3030505"><ele>714.0</ele><time>2026-04-04T11:17:15.906Z</time></trkpt><trkpt lat="42.9976334" lon="13.3030108"><ele>714.0</ele><time>2026-04-04T11:17:18.906Z</time></trkpt><trkpt lat="42.9977123" lon="13.3029944"><ele>714.0</ele><time>2026-04-04T11:17:21.907Z</time></trkpt><trkpt lat="42.9977834" lon="13.3029626"><ele>714.0</ele><time>2026-04-04T11:17:24.907Z</time></trkpt><trkpt lat="42.9978449" lon="13.3029064"><ele>712.8571428571429</ele><time>2026-04-04T11:17:28.907Z</time></trkpt><trkpt lat="42.9979074" lon="13.30288"><ele>711.7142857142858</ele><time>2026-04-04T11:17:31.906Z</time></trkpt><trkpt lat="42.9979793" lon="13.3028213"><ele>710.5714285714286</ele><time>2026-04-04T11:17:35.907Z</time></trkpt><trkpt lat="42.9980229" lon="13.3027376"><ele>709.4285714285714</ele><time>2026-04-04T11:17:38.906Z</time></trkpt><trkpt lat="42.9980452" lon="13.3026454"><ele>708.2857142857143</ele><time>2026-04-04T11:17:40.907Z</time></trkpt><trkpt lat="42.9980564" lon="13.3025504"><ele>707.1428571428571</ele><time>2026-04-04T11:17:42.906Z</time></trkpt><trkpt lat="42.9980616" lon="13.3024551"><ele>706.0</ele><time>2026-04-04T11:17:45.907Z</time></trkpt><trkpt lat="42.9980689" lon="13.3023613"><ele>707.5714285714286</ele><time>2026-04-04T11:17:48.907Z</time></trkpt><trkpt lat="42.9980637" lon="13.3022452"><ele>709.1428571428572</ele><time>2026-04-04T11:17:51.906Z</time></trkpt><trkpt lat="42.9980469" lon="13.3021358"><ele>710.7142857142858</ele><time>2026-04-04T11:17:54.906Z</time></trkpt><trkpt lat="42.9980761" lon="13.3020452"><ele>712.2857142857142</ele><time>2026-04-04T11:17:58.907Z</time></trkpt><trkpt lat="42.9981216" lon="13.3019754"><ele>713.8571428571429</ele><time>2026-04-04T11:18:05.907Z</time></trkpt><trkpt lat="42.9981532" lon="13.3018852"><ele>715.4285714285714</ele><time>2026-04-04T11:18:11.907Z</time></trkpt><trkpt lat="42.998175" lon="13.301802"><ele>717.0</ele><time>2026-04-04T11:18:17.906Z</time></trkpt><trkpt lat="42.9981979" lon="13.3017134"><ele>717.0</ele><time>2026-04-04T11:18:22.907Z</time></trkpt><trkpt lat="42.9982306" lon="13.3016335"><ele>717.0</ele><time>2026-04-04T11:18:28.906Z</time></trkpt><trkpt lat="42.9982703" lon="13.3015446"><ele>717.0</ele><time>2026-04-04T11:18:34.907Z</time></trkpt><trkpt lat="42.9983154" lon="13.3014704"><ele>717.0</ele><time>2026-04-04T11:18:40.906Z</time></trkpt><trkpt lat="42.9983811" lon="13.3014334"><ele>717.0</ele><time>2026-04-04T11:18:48.906Z</time></trkpt><trkpt lat="42.9984252" lon="13.3013464"><ele>717.0</ele><time>2026-04-04T11:18:53.907Z</time></trkpt><trkpt lat="42.9984705" lon="13.3012845"><ele>717.0</ele><time>2026-04-04T11:19:00.907Z</time></trkpt><trkpt lat="42.9985129" lon="13.3012121"><ele>717.2857142857142</ele><time>2026-04-04T11:19:16.907Z</time></trkpt><trkpt lat="42.998571" lon="13.3011412"><ele>717.5714285714286</ele><time>2026-04-04T11:19:19.906Z</time></trkpt><trkpt lat="42.9986349" lon="13.3010634"><ele>717.8571428571429</ele><time>2026-04-04T11:19:22.907Z</time></trkpt><trkpt lat="42.998681" lon="13.3009891"><ele>718.1428571428571</ele><time>2026-04-04T11:19:26.907Z</time></trkpt><trkpt lat="42.998711" lon="13.3008982"><ele>718.4285714285714</ele><time>2026-04-04T11:19:30.907Z</time></trkpt><trkpt lat="42.9987525" lon="13.3008298"><ele>718.7142857142857</ele><time>2026-04-04T11:19:33.906Z</time></trkpt><trkpt lat="42.9988064" lon="13.3007576"><ele>719.0</ele><time>2026-04-04T11:19:36.906Z</time></trkpt><trkpt lat="42.9988656" lon="13.3006996"><ele>719.0</ele><time>2026-04-04T11:19:39.907Z</time></trkpt><trkpt lat="42.9989222" lon="13.3006592"><ele>719.0</ele><time>2026-04-04T11:19:43.906Z</time></trkpt><trkpt lat="42.9989976" lon="13.3006049"><ele>719.0</ele><time>2026-04-04T11:19:57.907Z</time></trkpt><trkpt lat="42.9990728" lon="13.3005517"><ele>719.0</ele><time>2026-04-04T11:20:00.906Z</time></trkpt><trkpt lat="42.9991342" lon="13.3005044"><ele>719.0</ele><time>2026-04-04T11:20:02.907Z</time></trkpt><trkpt lat="42.9992029" lon="13.3004499"><ele>719.0</ele><time>2026-04-04T11:20:04.906Z</time></trkpt><trkpt lat="42.999315" lon="13.3003372"><ele>721.3333333333333</ele><time>2026-04-04T11:20:06.907Z</time></trkpt><trkpt lat="42.9993947" lon="13.3002634"><ele>723.6666666666666</ele><time>2026-04-04T11:20:08.907Z</time></trkpt><trkpt lat="42.9994515" lon="13.3002122"><ele>726.0</ele><time>2026-04-04T11:20:10.907Z</time></trkpt><trkpt lat="42.9995149" lon="13.3001468"><ele>728.3333333333334</ele><time>2026-04-04T11:20:12.906Z</time></trkpt><trkpt lat="42.9995688" lon="13.3000609"><ele>730.6666666666667</ele><time>2026-04-04T11:20:14.906Z</time></trkpt><trkpt lat="42.9996114" lon="13.2999822"><ele>733.0</ele><time>2026-04-04T11:20:16.906Z</time></trkpt><trkpt lat="42.9996885" lon="13.2999083"><ele>732.9999999999999</ele><time>2026-04-04T11:20:19.907Z</time></trkpt><trkpt lat="42.9997494" lon="13.2998545"><ele>733.0</ele><time>2026-04-04T11:20:22.906Z</time></trkpt><trkpt lat="42.9998193" lon="13.2998141"><ele>733.0</ele><time>2026-04-04T11:20:25.907Z</time></trkpt><trkpt lat="42.9998827" lon="13.2998056"><ele>733.0</ele><time>2026-04-04T11:20:28.907Z</time></trkpt><trkpt lat="42.9999487" lon="13.2997465"><ele>733.0</ele><time>2026-04-04T11:20:31.907Z</time></trkpt><trkpt lat="43.000016" lon="13.2996889"><ele>732.9999999999999</ele><time>2026-04-04T11:20:35.906Z</time></trkpt><trkpt lat="43.0000661" lon="13.2996297"><ele>733.0</ele><time>2026-04-04T11:20:38.907Z</time></trkpt><trkpt lat="43.0001259" lon="13.2995514"><ele>738.0</ele><time>2026-04-04T11:20:42.907Z</time></trkpt><trkpt lat="43.0001828" lon="13.2994902"><ele>743.0</ele><time>2026-04-04T11:20:45.907Z</time></trkpt><trkpt lat="43.0002523" lon="13.2994336"><ele>748.0</ele><time>2026-04-04T11:20:49.906Z</time></trkpt><trkpt lat="43.0003103" lon="13.2993595"><ele>753.0</ele><time>2026-04-04T11:20:52.906Z</time></trkpt><trkpt lat="43.0003547" lon="13.2992744"><ele>758.0</ele><time>2026-04-04T11:20:55.906Z</time></trkpt><trkpt lat="43.0003835" lon="13.2991977"><ele>763.0</ele><time>2026-04-04T11:20:58.907Z</time></trkpt><trkpt lat="43.0004322" lon="13.2991032"><ele>763.0</ele><time>2026-04-04T11:21:02.907Z</time></trkpt><trkpt lat="43.0004705" lon="13.2990274"><ele>763.0</ele><time>2026-04-04T11:21:06.907Z</time></trkpt><trkpt lat="43.0004952" lon="13.298942"><ele>763.0</ele><time>2026-04-04T11:21:11.906Z</time></trkpt><trkpt lat="43.0005223" lon="13.2988547"><ele>763.0</ele><time>2026-04-04T11:21:15.906Z</time></trkpt><trkpt lat="43.0005315" lon="13.2989567"><ele>763.0</ele><time>2026-04-04T11:21:47.97Z</time></trkpt><trkpt lat="43.000489" lon="13.2990291"><ele>763.0</ele><time>2026-04-04T11:21:54.331Z</time></trkpt><trkpt lat="43.0005144" lon="13.2989193"><ele>763.0</ele><time>2026-04-04T11:22:24.037Z</time></trkpt><trkpt lat="43.0005471" lon="13.2988395"><ele>763.5</ele><time>2026-04-04T11:22:31.691Z</time></trkpt><trkpt lat="43.0006331" lon="13.29884"><ele>764.0</ele><time>2026-04-04T11:24:19.907Z</time></trkpt><trkpt lat="43.0008043" lon="13.2988232"><ele>764.5</ele><time>2026-04-04T11:24:21.907Z</time></trkpt><trkpt lat="43.0008869" lon="13.2988274"><ele>765.0</ele><time>2026-04-04T11:24:22.919Z</time></trkpt><trkpt lat="43.0009982" lon="13.2988258"><ele>765.0</ele><time>2026-04-04T11:24:23.907Z</time></trkpt><trkpt lat="43.0010786" lon="13.2988512"><ele>765.0</ele><time>2026-04-04T11:24:25.907Z</time></trkpt><trkpt lat="43.0011814" lon="13.298798"><ele>765.0</ele><time>2026-04-04T11:24:27.907Z</time></trkpt><trkpt lat="43.0012589" lon="13.2987787"><ele>765.0</ele><time>2026-04-04T11:24:29.907Z</time></trkpt><trkpt lat="43.0013486" lon="13.2987774"><ele>765.0</ele><time>2026-04-04T11:24:31.906Z</time></trkpt><trkpt lat="43.0014378" lon="13.2988236"><ele>765.0</ele><time>2026-04-04T11:24:33.907Z</time></trkpt><trkpt lat="43.0015109" lon="13.298871"><ele>765.0</ele><time>2026-04-04T11:24:35.906Z</time></trkpt><trkpt lat="43.001591" lon="13.2989328"><ele>765.0</ele><time>2026-04-04T11:24:37.906Z</time></trkpt><trkpt lat="43.0017134" lon="13.2990784"><ele>765.0</ele><time>2026-04-04T11:24:39.907Z</time></trkpt><trkpt lat="43.001845" lon="13.2991475"><ele>761.6666666666666</ele><time>2026-04-04T11:24:41.907Z</time></trkpt><trkpt lat="43.0019464" lon="13.2991949"><ele>758.3333333333334</ele><time>2026-04-04T11:24:43.906Z</time></trkpt><trkpt lat="43.0020595" lon="13.2992064"><ele>755.0</ele><time>2026-04-04T11:24:45.907Z</time></trkpt><trkpt lat="43.0020448" lon="13.2993141"><ele>751.6666666666667</ele><time>2026-04-04T11:24:46.907Z</time></trkpt><trkpt lat="43.0020534" lon="13.299415"><ele>748.3333333333334</ele><time>2026-04-04T11:24:47.906Z</time></trkpt><trkpt lat="43.002072" lon="13.2995012"><ele>745.0</ele><time>2026-04-04T11:24:48.907Z</time></trkpt><trkpt lat="43.0021304" lon="13.2996308"><ele>745.0</ele><time>2026-04-04T11:24:50.907Z</time></trkpt><trkpt lat="43.0021855" lon="13.2997316"><ele>745.0</ele><time>2026-04-04T11:24:52.907Z</time></trkpt><trkpt lat="43.0022336" lon="13.2998041"><ele>745.0</ele><time>2026-04-04T11:24:54.906Z</time></trkpt><trkpt lat="43.0023294" lon="13.2997629"><ele>745.0</ele><time>2026-04-04T11:24:56.907Z</time></trkpt><trkpt lat="43.0024363" lon="13.2997185"><ele>745.0</ele><time>2026-04-04T11:24:58.906Z</time></trkpt><trkpt lat="43.0025035" lon="13.2996664"><ele>743.8</ele><time>2026-04-04T11:24:59.907Z</time></trkpt><trkpt lat="43.002631" lon="13.2996046"><ele>742.6</ele><time>2026-04-04T11:25:01.907Z</time></trkpt><trkpt lat="43.002693" lon="13.2995872"><ele>741.4000000000001</ele><time>2026-04-04T11:25:02.906Z</time></trkpt><trkpt lat="43.0028141" lon="13.2995848"><ele>740.2</ele><time>2026-04-04T11:25:03.907Z</time></trkpt><trkpt lat="43.0028997" lon="13.2995715"><ele>739.0</ele><time>2026-04-04T11:25:04.907Z</time></trkpt><trkpt lat="43.0029999" lon="13.2995935"><ele>739.0</ele><time>2026-04-04T11:25:05.907Z</time></trkpt><trkpt lat="43.0030979" lon="13.2995586"><ele>739.0</ele><time>2026-04-04T11:25:07.907Z</time></trkpt><trkpt lat="43.0032018" lon="13.2995152"><ele>739.0</ele><time>2026-04-04T11:25:09.907Z</time></trkpt><trkpt lat="43.0032649" lon="13.2995145"><ele>739.0</ele><time>2026-04-04T11:25:10.906Z</time></trkpt><trkpt lat="43.0033315" lon="13.2995111"><ele>739.0</ele><time>2026-04-04T11:25:11.907Z</time></trkpt><trkpt lat="43.0034179" lon="13.2994484"><ele>739.0</ele><time>2026-04-04T11:25:13.906Z</time></trkpt><trkpt lat="43.0034787" lon="13.2994193"><ele>735.6</ele><time>2026-04-04T11:25:14.906Z</time></trkpt><trkpt lat="43.0036376" lon="13.2993464"><ele>732.2</ele><time>2026-04-04T11:25:16.906Z</time></trkpt><trkpt lat="43.003715" lon="13.2993128"><ele>728.8000000000001</ele><time>2026-04-04T11:25:17.907Z</time></trkpt><trkpt lat="43.0037884" lon="13.2992857"><ele>725.4000000000001</ele><time>2026-04-04T11:25:18.907Z</time></trkpt><trkpt lat="43.0038164" lon="13.2991961"><ele>722.0</ele><time>2026-04-04T11:25:19.907Z</time></trkpt><trkpt lat="43.0038855" lon="13.2991976"><ele>722.0</ele><time>2026-04-04T11:25:20.907Z</time></trkpt><trkpt lat="43.0039603" lon="13.2992103"><ele>722.0</ele><time>2026-04-04T11:25:21.906Z</time></trkpt><trkpt lat="43.004024" lon="13.29918"><ele>722.0</ele><time>2026-04-04T11:25:22.907Z</time></trkpt><trkpt lat="43.0040978" lon="13.2991631"><ele>722.0</ele><time>2026-04-04T11:25:23.907Z</time></trkpt><trkpt lat="43.0041759" lon="13.2991263"><ele>722.0</ele><time>2026-04-04T11:25:24.907Z</time></trkpt><trkpt lat="43.004249" lon="13.2991193"><ele>722.0</ele><time>2026-04-04T11:25:25.907Z</time></trkpt><trkpt lat="43.0043213" lon="13.2991076"><ele>722.0</ele><time>2026-04-04T11:25:26.906Z</time></trkpt><trkpt lat="43.0044201" lon="13.2990532"><ele>719.6666666666666</ele><time>2026-04-04T11:25:28.906Z</time></trkpt><trkpt lat="43.0045011" lon="13.2990446"><ele>717.3333333333333</ele><time>2026-04-04T11:25:30.906Z</time></trkpt><trkpt lat="43.0045788" lon="13.2990449"><ele>715.0</ele><time>2026-04-04T11:25:33.906Z</time></trkpt><trkpt lat="43.0046524" lon="13.2990756"><ele>712.6666666666666</ele><time>2026-04-04T11:25:37.907Z</time></trkpt><trkpt lat="43.0047288" lon="13.2990811"><ele>710.3333333333334</ele><time>2026-04-04T11:25:40.907Z</time></trkpt><trkpt lat="43.0048085" lon="13.2991115"><ele>708.0</ele><time>2026-04-04T11:25:43.907Z</time></trkpt><trkpt lat="43.0048685" lon="13.299152"><ele>708.0</ele><time>2026-04-04T11:25:46.907Z</time></trkpt><trkpt lat="43.0049338" lon="13.299152"><ele>708.0</ele><time>2026-04-04T11:25:50.906Z</time></trkpt><trkpt lat="43.0049451" lon="13.2989811"><ele>708.0</ele><time>2026-04-04T11:26:00.906Z</time></trkpt><trkpt lat="43.0050704" lon="13.2989093"><ele>708.0</ele><time>2026-04-04T11:26:26.907Z</time></trkpt><trkpt lat="43.0053249" lon="13.2989332"><ele>707.7142857142858</ele><time>2026-04-04T11:26:34.906Z</time></trkpt><trkpt lat="43.0053881" lon="13.2989366"><ele>707.4285714285713</ele><time>2026-04-04T11:26:36.907Z</time></trkpt><trkpt lat="43.0054561" lon="13.298912"><ele>707.1428571428571</ele><time>2026-04-04T11:26:38.907Z</time></trkpt><trkpt lat="43.0055282" lon="13.2989015"><ele>706.8571428571429</ele><time>2026-04-04T11:26:40.907Z</time></trkpt><trkpt lat="43.0055814" lon="13.2988341"><ele>706.5714285714287</ele><time>2026-04-04T11:26:43.907Z</time></trkpt><trkpt lat="43.0056321" lon="13.2987752"><ele>706.2857142857142</ele><time>2026-04-04T11:26:47.906Z</time></trkpt><trkpt lat="43.0056974" lon="13.2987214"><ele>706.0</ele><time>2026-04-04T11:26:52.907Z</time></trkpt><trkpt lat="43.0057671" lon="13.2986319"><ele>702.3333333333334</ele><time>2026-04-04T11:26:55.907Z</time></trkpt><trkpt lat="43.0058852" lon="13.2985125"><ele>698.6666666666666</ele><time>2026-04-04T11:26:57.906Z</time></trkpt><trkpt lat="43.006009" lon="13.298442"><ele>695.0</ele><time>2026-04-04T11:26:59.907Z</time></trkpt><trkpt lat="43.0061271" lon="13.2982663"><ele>695.0</ele><time>2026-04-04T11:27:01.906Z</time></trkpt><trkpt lat="43.0061956" lon="13.2982417"><ele>695.0</ele><time>2026-04-04T11:27:02.907Z</time></trkpt><trkpt lat="43.0062651" lon="13.2981955"><ele>695.0</ele><time>2026-04-04T11:27:04.907Z</time></trkpt><trkpt lat="43.0063067" lon="13.2983078"><ele>695.0</ele><time>2026-04-04T11:27:07.906Z</time></trkpt><trkpt lat="43.0063424" lon="13.2983803"><ele>695.0</ele><time>2026-04-04T11:27:09.906Z</time></trkpt><trkpt lat="43.0064282" lon="13.2983386"><ele>695.0</ele><time>2026-04-04T11:27:11.907Z</time></trkpt><trkpt lat="43.0065213" lon="13.2983249"><ele>695.0</ele><time>2026-04-04T11:27:14.907Z</time></trkpt><trkpt lat="43.006645" lon="13.2982733"><ele>695.0</ele><time>2026-04-04T11:27:18.906Z</time></trkpt><trkpt lat="43.0067202" lon="13.2982378"><ele>695.0</ele><time>2026-04-04T11:27:20.906Z</time></trkpt><trkpt lat="43.0068004" lon="13.2982177"><ele>695.0</ele><time>2026-04-04T11:27:22.907Z</time></trkpt><trkpt lat="43.0068636" lon="13.2982038"><ele>695.0</ele><time>2026-04-04T11:27:24.907Z</time></trkpt><trkpt lat="43.0069267" lon="13.2981197"><ele>695.0</ele><time>2026-04-04T11:27:27.907Z</time></trkpt><trkpt lat="43.0069744" lon="13.2980416"><ele>689.6</ele><time>2026-04-04T11:27:29.906Z</time></trkpt><trkpt lat="43.0070797" lon="13.2979721"><ele>684.2</ele><time>2026-04-04T11:27:31.907Z</time></trkpt><trkpt lat="43.0071635" lon="13.2979166"><ele>678.8</ele><time>2026-04-04T11:27:33.906Z</time></trkpt><trkpt lat="43.007242" lon="13.2978359"><ele>673.4</ele><time>2026-04-04T11:27:35.907Z</time></trkpt><trkpt lat="43.0073633" lon="13.2978233"><ele>668.0</ele><time>2026-04-04T11:27:37.907Z</time></trkpt><trkpt lat="43.007495" lon="13.2977763"><ele>664.3333333333333</ele><time>2026-04-04T11:27:39.907Z</time></trkpt><trkpt lat="43.0075628" lon="13.2977727"><ele>660.6666666666666</ele><time>2026-04-04T11:27:40.907Z</time></trkpt><trkpt lat="43.0076448" lon="13.2977302"><ele>657.0</ele><time>2026-04-04T11:27:41.907Z</time></trkpt><trkpt lat="43.0077163" lon="13.2976833"><ele>653.3333333333334</ele><time>2026-04-04T11:27:42.907Z</time></trkpt><trkpt lat="43.0077536" lon="13.2975859"><ele>649.6666666666667</ele><time>2026-04-04T11:27:44.907Z</time></trkpt><trkpt lat="43.0077851" lon="13.297506"><ele>646.0</ele><time>2026-04-04T11:27:47.906Z</time></trkpt><trkpt lat="43.0078796" lon="13.297539"><ele>646.0</ele><time>2026-04-04T11:27:50.907Z</time></trkpt><trkpt lat="43.0080372" lon="13.2975235"><ele>646.0</ele><time>2026-04-04T11:27:53.907Z</time></trkpt><trkpt lat="43.0081461" lon="13.2974822"><ele>646.0</ele><time>2026-04-04T11:27:55.907Z</time></trkpt><trkpt lat="43.0082246" lon="13.2974694"><ele>646.0</ele><time>2026-04-04T11:27:57.906Z</time></trkpt><trkpt lat="43.0083277" lon="13.297389"><ele>645.5</ele><time>2026-04-04T11:27:59.907Z</time></trkpt><trkpt lat="43.008405" lon="13.2973411"><ele>645.0</ele><time>2026-04-04T11:28:01.907Z</time></trkpt><trkpt lat="43.0084573" lon="13.2971949"><ele>644.5</ele><time>2026-04-04T11:28:29.907Z</time></trkpt><trkpt lat="43.0084099" lon="13.297121"><ele>644.0</ele><time>2026-04-04T11:28:46.907Z</time></trkpt><trkpt lat="43.008344" lon="13.2971626"><ele>643.5</ele><time>2026-04-04T11:28:54.907Z</time></trkpt><trkpt lat="43.008279" lon="13.2971796"><ele>643.0</ele><time>2026-04-04T11:28:59.907Z</time></trkpt><trkpt lat="43.0082246" lon="13.2972272"><ele>643.5</ele><time>2026-04-04T11:29:10.907Z</time></trkpt><trkpt lat="43.0082956" lon="13.2972673"><ele>644.0</ele><time>2026-04-04T11:29:37.907Z</time></trkpt><trkpt lat="43.0083608" lon="13.2972362"><ele>644.5</ele><time>2026-04-04T11:29:39.906Z</time></trkpt><trkpt lat="43.0084236" lon="13.2971997"><ele>645.0</ele><time>2026-04-04T11:29:40.906Z</time></trkpt><trkpt lat="43.0084827" lon="13.2971603"><ele>645.5</ele><time>2026-04-04T11:29:41.907Z</time></trkpt><trkpt lat="43.0085416" lon="13.2970663"><ele>646.0</ele><time>2026-04-04T11:29:42.907Z</time></trkpt><trkpt lat="43.0086106" lon="13.296999"><ele>641.0</ele><time>2026-04-04T11:29:44.907Z</time></trkpt><trkpt lat="43.008681" lon="13.2969394"><ele>636.0</ele><time>2026-04-04T11:29:46.907Z</time></trkpt><trkpt lat="43.0088901" lon="13.2968903"><ele>631.0</ele><time>2026-04-04T11:29:52.907Z</time></trkpt><trkpt lat="43.0089914" lon="13.2968908"><ele>626.0</ele><time>2026-04-04T11:29:56.907Z</time></trkpt><trkpt lat="43.0090698" lon="13.2969232"><ele>626.0</ele><time>2026-04-04T11:30:00.907Z</time></trkpt><trkpt lat="43.0091472" lon="13.2969131"><ele>626.0</ele><time>2026-04-04T11:30:03.907Z</time></trkpt><trkpt lat="43.0092256" lon="13.2968591"><ele>626.0</ele><time>2026-04-04T11:30:07.907Z</time></trkpt><trkpt lat="43.0092951" lon="13.2968541"><ele>626.0</ele><time>2026-04-04T11:30:09.907Z</time></trkpt><trkpt lat="43.0093607" lon="13.2968627"><ele>626.0</ele><time>2026-04-04T11:30:11.906Z</time></trkpt><trkpt lat="43.0094399" lon="13.2968617"><ele>626.0</ele><time>2026-04-04T11:30:14.906Z</time></trkpt><trkpt lat="43.0095198" lon="13.2968557"><ele>624.8</ele><time>2026-04-04T11:30:17.907Z</time></trkpt><trkpt lat="43.0096268" lon="13.2968191"><ele>623.6</ele><time>2026-04-04T11:30:19.906Z</time></trkpt><trkpt lat="43.0097033" lon="13.2968006"><ele>622.4</ele><time>2026-04-04T11:30:21.907Z</time></trkpt><trkpt lat="43.0097915" lon="13.2967832"><ele>621.2</ele><time>2026-04-04T11:30:23.906Z</time></trkpt><trkpt lat="43.0098932" lon="13.2967615"><ele>620.0</ele><time>2026-04-04T11:30:25.906Z</time></trkpt><trkpt lat="43.0099762" lon="13.2967312"><ele>620.3333333333333</ele><time>2026-04-04T11:30:27.907Z</time></trkpt><trkpt lat="43.0100467" lon="13.2966726"><ele>620.6666666666666</ele><time>2026-04-04T11:30:30.907Z</time></trkpt><trkpt lat="43.0101145" lon="13.2966336"><ele>621.0</ele><time>2026-04-04T11:30:35.907Z</time></trkpt><trkpt lat="43.0101841" lon="13.2965912"><ele>621.3333333333334</ele><time>2026-04-04T11:30:39.907Z</time></trkpt><trkpt lat="43.0102348" lon="13.296534"><ele>621.6666666666667</ele><time>2026-04-04T11:31:43.907Z</time></trkpt><trkpt lat="43.0102868" lon="13.2964533"><ele>622.0</ele><time>2026-04-04T11:32:28.906Z</time></trkpt><trkpt lat="43.0103509" lon="13.296389"><ele>617.6</ele><time>2026-04-04T11:32:30.907Z</time></trkpt><trkpt lat="43.0104718" lon="13.2963341"><ele>613.2</ele><time>2026-04-04T11:32:32.907Z</time></trkpt><trkpt lat="43.0105206" lon="13.296253"><ele>608.8</ele><time>2026-04-04T11:32:36.907Z</time></trkpt><trkpt lat="43.0105855" lon="13.2961905"><ele>604.4</ele><time>2026-04-04T11:32:38.907Z</time></trkpt><trkpt lat="43.0106921" lon="13.2961597"><ele>600.0</ele><time>2026-04-04T11:32:40.907Z</time></trkpt><trkpt lat="43.0107465" lon="13.2961055"><ele>600.0</ele><time>2026-04-04T11:32:41.907Z</time></trkpt><trkpt lat="43.0108167" lon="13.296001"><ele>600.0</ele><time>2026-04-04T11:32:42.906Z</time></trkpt><trkpt lat="43.0109148" lon="13.2959705"><ele>600.0</ele><time>2026-04-04T11:32:43.907Z</time></trkpt><trkpt lat="43.0109695" lon="13.2959103"><ele>600.0</ele><time>2026-04-04T11:32:44.907Z</time></trkpt><trkpt lat="43.0110405" lon="13.2958967"><ele>600.0</ele><time>2026-04-04T11:32:45.906Z</time></trkpt><trkpt lat="43.0111296" lon="13.2958275"><ele>600.0</ele><time>2026-04-04T11:32:46.907Z</time></trkpt><trkpt lat="43.0112247" lon="13.2958023"><ele>599.8</ele><time>2026-04-04T11:32:47.906Z</time></trkpt><trkpt lat="43.0112952" lon="13.2957607"><ele>599.6</ele><time>2026-04-04T11:32:48.907Z</time></trkpt><trkpt lat="43.0113743" lon="13.2957073"><ele>599.4</ele><time>2026-04-04T11:32:49.906Z</time></trkpt><trkpt lat="43.0114766" lon="13.2956599"><ele>599.2</ele><time>2026-04-04T11:32:51.906Z</time></trkpt><trkpt lat="43.0115828" lon="13.2955956"><ele>599.0</ele><time>2026-04-04T11:32:53.907Z</time></trkpt><trkpt lat="43.0116736" lon="13.2955039"><ele>596.1666666666666</ele><time>2026-04-04T11:32:55.907Z</time></trkpt><trkpt lat="43.0117358" lon="13.2954867"><ele>593.3333333333333</ele><time>2026-04-04T11:32:56.907Z</time></trkpt><trkpt lat="43.0118396" lon="13.295434"><ele>590.5</ele><time>2026-04-04T11:32:58.907Z</time></trkpt><trkpt lat="43.0119057" lon="13.2954344"><ele>587.6666666666666</ele><time>2026-04-04T11:33:00.906Z</time></trkpt><trkpt lat="43.0119653" lon="13.2954917"><ele>584.8333333333334</ele><time>2026-04-04T11:33:03.907Z</time></trkpt><trkpt lat="43.0120273" lon="13.2954745"><ele>582.0</ele><time>2026-04-04T11:33:08.907Z</time></trkpt><trkpt lat="43.0120904" lon="13.2954215"><ele>582.0</ele><time>2026-04-04T11:33:10.906Z</time></trkpt><trkpt lat="43.0121508" lon="13.2953936"><ele>582.0</ele><time>2026-04-04T11:33:12.906Z</time></trkpt><trkpt lat="43.0122185" lon="13.2953798"><ele>582.0</ele><time>2026-04-04T11:33:14.906Z</time></trkpt><trkpt lat="43.0123148" lon="13.2953696"><ele>582.0</ele><time>2026-04-04T11:33:16.906Z</time></trkpt><trkpt lat="43.0123699" lon="13.2953154"><ele>582.0</ele><time>2026-04-04T11:33:17.906Z</time></trkpt><trkpt lat="43.0124483" lon="13.2952459"><ele>582.0</ele><time>2026-04-04T11:33:19.906Z</time></trkpt><trkpt lat="43.0125542" lon="13.2952749"><ele>582.6666666666666</ele><time>2026-04-04T11:33:21.907Z</time></trkpt><trkpt lat="43.0126232" lon="13.2952127"><ele>583.3333333333334</ele><time>2026-04-04T11:33:23.907Z</time></trkpt><trkpt lat="43.0127132" lon="13.2950769"><ele>584.0</ele><time>2026-04-04T11:33:25.906Z</time></trkpt><trkpt lat="43.0127736" lon="13.2950333"><ele>584.6666666666667</ele><time>2026-04-04T11:33:26.907Z</time></trkpt><trkpt lat="43.012836" lon="13.2949508"><ele>585.3333333333334</ele><time>2026-04-04T11:33:27.906Z</time></trkpt><trkpt lat="43.0128915" lon="13.2949014"><ele>586.0</ele><time>2026-04-04T11:33:28.907Z</time></trkpt><trkpt lat="43.0129709" lon="13.2948654"><ele>586.0</ele><time>2026-04-04T11:33:29.906Z</time></trkpt><trkpt lat="43.013105" lon="13.2947836"><ele>586.0</ele><time>2026-04-04T11:33:31.907Z</time></trkpt><trkpt lat="43.0131556" lon="13.2947146"><ele>586.0</ele><time>2026-04-04T11:33:32.907Z</time></trkpt><trkpt lat="43.0131931" lon="13.2946432"><ele>586.0</ele><time>2026-04-04T11:33:33.907Z</time></trkpt><trkpt lat="43.0132353" lon="13.2945692"><ele>586.0</ele><time>2026-04-04T11:33:34.907Z</time></trkpt><trkpt lat="43.0133482" lon="13.2944879"><ele>584.1666666666667</ele><time>2026-04-04T11:33:36.907Z</time></trkpt><trkpt lat="43.0134018" lon="13.2944353"><ele>582.3333333333334</ele><time>2026-04-04T11:33:37.907Z</time></trkpt><trkpt lat="43.0134507" lon="13.2943397"><ele>580.5</ele><time>2026-04-04T11:33:38.907Z</time></trkpt><trkpt lat="43.0135583" lon="13.2942602"><ele>578.6666666666666</ele><time>2026-04-04T11:33:40.907Z</time></trkpt><trkpt lat="43.0136263" lon="13.2942397"><ele>576.8333333333333</ele><time>2026-04-04T11:33:41.906Z</time></trkpt><trkpt lat="43.0136919" lon="13.2941353"><ele>575.0</ele><time>2026-04-04T11:33:43.907Z</time></trkpt><trkpt lat="43.013733" lon="13.2940544"><ele>575.0</ele><time>2026-04-04T11:33:44.907Z</time></trkpt><trkpt lat="43.0138118" lon="13.294022"><ele>575.0</ele><time>2026-04-04T11:33:46.906Z</time></trkpt><trkpt lat="43.0138967" lon="13.2939842"><ele>575.0</ele><time>2026-04-04T11:33:48.906Z</time></trkpt><trkpt lat="43.0139974" lon="13.2939076"><ele>575.0</ele><time>2026-04-04T11:33:51.907Z</time></trkpt><trkpt lat="43.0140827" lon="13.2938479"><ele>575.0</ele><time>2026-04-04T11:33:53.907Z</time></trkpt><trkpt lat="43.0141917" lon="13.293786"><ele>573.2</ele><time>2026-04-04T11:33:55.906Z</time></trkpt><trkpt lat="43.0142551" lon="13.2936824"><ele>571.4</ele><time>2026-04-04T11:33:57.907Z</time></trkpt><trkpt lat="43.0143108" lon="13.2936317"><ele>569.6</ele><time>2026-04-04T11:33:58.907Z</time></trkpt><trkpt lat="43.0143632" lon="13.2935692"><ele>567.8</ele><time>2026-04-04T11:33:59.907Z</time></trkpt><trkpt lat="43.0144196" lon="13.2934941"><ele>566.0</ele><time>2026-04-04T11:34:00.907Z</time></trkpt><trkpt lat="43.0145305" lon="13.29338"><ele>566.0</ele><time>2026-04-04T11:34:02.907Z</time></trkpt><trkpt lat="43.0146255" lon="13.2933311"><ele>566.0</ele><time>2026-04-04T11:34:04.906Z</time></trkpt><trkpt lat="43.0146547" lon="13.2932464"><ele>566.0</ele><time>2026-04-04T11:34:05.907Z</time></trkpt><trkpt lat="43.0147775" lon="13.2931678"><ele>566.0</ele><time>2026-04-04T11:34:07.907Z</time></trkpt><trkpt lat="43.0148538" lon="13.2931468"><ele>566.0</ele><time>2026-04-04T11:34:08.906Z</time></trkpt><trkpt lat="43.0149181" lon="13.2931229"><ele>566.5714285714286</ele><time>2026-04-04T11:34:09.907Z</time></trkpt><trkpt lat="43.0149972" lon="13.2931181"><ele>567.1428571428572</ele><time>2026-04-04T11:34:10.906Z</time></trkpt><trkpt lat="43.0150517" lon="13.293061"><ele>567.7142857142858</ele><time>2026-04-04T11:34:11.907Z</time></trkpt><trkpt lat="43.0151227" lon="13.293058"><ele>568.2857142857143</ele><time>2026-04-04T11:34:12.906Z</time></trkpt><trkpt lat="43.0151913" lon="13.2930564"><ele>568.8571428571429</ele><time>2026-04-04T11:34:13.907Z</time></trkpt><trkpt lat="43.0152544" lon="13.2930225"><ele>569.4285714285714</ele><time>2026-04-04T11:34:14.907Z</time></trkpt><trkpt lat="43.0153172" lon="13.2929808"><ele>570.0</ele><time>2026-04-04T11:34:15.907Z</time></trkpt><trkpt lat="43.0153804" lon="13.2929458"><ele>567.5</ele><time>2026-04-04T11:34:16.906Z</time></trkpt><trkpt lat="43.0154542" lon="13.2928932"><ele>565.0</ele><time>2026-04-04T11:34:18.906Z</time></trkpt><trkpt lat="43.015523" lon="13.2928882"><ele>562.5</ele><time>2026-04-04T11:34:20.906Z</time></trkpt><trkpt lat="43.0155919" lon="13.292967"><ele>560.0</ele><time>2026-04-04T11:34:22.907Z</time></trkpt><trkpt lat="43.0156703" lon="13.292994"><ele>557.5</ele><time>2026-04-04T11:34:24.907Z</time></trkpt><trkpt lat="43.0157582" lon="13.2929566"><ele>555.0</ele><time>2026-04-04T11:34:26.907Z</time></trkpt><trkpt lat="43.0158379" lon="13.29292"><ele>554.0</ele><time>2026-04-04T11:34:27.907Z</time></trkpt><trkpt lat="43.0159421" lon="13.2928636"><ele>553.0</ele><time>2026-04-04T11:34:29.907Z</time></trkpt><trkpt lat="43.0160357" lon="13.2928245"><ele>552.0</ele><time>2026-04-04T11:34:30.907Z</time></trkpt><trkpt lat="43.0161986" lon="13.292752"><ele>551.0</ele><time>2026-04-04T11:34:32.906Z</time></trkpt><trkpt lat="43.0163156" lon="13.2927446"><ele>551.0</ele><time>2026-04-04T11:34:34.907Z</time></trkpt><trkpt lat="43.0164226" lon="13.2927024"><ele>551.0</ele><time>2026-04-04T11:34:36.906Z</time></trkpt><trkpt lat="43.0165121" lon="13.2926349"><ele>551.0</ele><time>2026-04-04T11:34:38.907Z</time></trkpt><trkpt lat="43.0165908" lon="13.2925334"><ele>551.0</ele><time>2026-04-04T11:34:40.907Z</time></trkpt><trkpt lat="43.0167304" lon="13.2924229"><ele>551.5</ele><time>2026-04-04T11:34:42.907Z</time></trkpt><trkpt lat="43.0168141" lon="13.292396"><ele>552.0</ele><time>2026-04-04T11:34:44.907Z</time></trkpt><trkpt lat="43.016899" lon="13.2923615"><ele>552.5</ele><time>2026-04-04T11:34:46.906Z</time></trkpt><trkpt lat="43.0169838" lon="13.292362"><ele>553.0</ele><time>2026-04-04T11:34:48.907Z</time></trkpt><trkpt lat="43.0170697" lon="13.2923169"><ele>553.5</ele><time>2026-04-04T11:34:50.907Z</time></trkpt><trkpt lat="43.0171402" lon="13.2922497"><ele>554.0</ele><time>2026-04-04T11:34:52.906Z</time></trkpt><trkpt lat="43.0172201" lon="13.292208"><ele>552.6666666666666</ele><time>2026-04-04T11:34:54.907Z</time></trkpt><trkpt lat="43.017294" lon="13.2921814"><ele>551.3333333333333</ele><time>2026-04-04T11:34:56.907Z</time></trkpt><trkpt lat="43.0173861" lon="13.2921523"><ele>550.0</ele><time>2026-04-04T11:34:58.906Z</time></trkpt><trkpt lat="43.017468" lon="13.2921066"><ele>548.6666666666666</ele><time>2026-04-04T11:35:00.907Z</time></trkpt><trkpt lat="43.0175563" lon="13.2920701"><ele>547.3333333333334</ele><time>2026-04-04T11:35:02.906Z</time></trkpt><trkpt lat="43.0176311" lon="13.2920523"><ele>546.0</ele><time>2026-04-04T11:35:04.907Z</time></trkpt><trkpt lat="43.0177294" lon="13.2920135"><ele>545.4</ele><time>2026-04-04T11:35:06.906Z</time></trkpt><trkpt lat="43.0178241" lon="13.2919305"><ele>544.8</ele><time>2026-04-04T11:35:08.907Z</time></trkpt><trkpt lat="43.0179325" lon="13.2919231"><ele>544.1999999999999</ele><time>2026-04-04T11:35:10.907Z</time></trkpt><trkpt lat="43.0180451" lon="13.291923"><ele>543.6</ele><time>2026-04-04T11:35:12.907Z</time></trkpt><trkpt lat="43.0181357" lon="13.2919322"><ele>543.0</ele><time>2026-04-04T11:35:14.907Z</time></trkpt><trkpt lat="43.0182143" lon="13.2919395"><ele>542.0</ele><time>2026-04-04T11:35:16.906Z</time></trkpt><trkpt lat="43.0183219" lon="13.2919373"><ele>541.0</ele><time>2026-04-04T11:35:18.907Z</time></trkpt><trkpt lat="43.018416" lon="13.2919267"><ele>540.0</ele><time>2026-04-04T11:35:19.907Z</time></trkpt><trkpt lat="43.018497" lon="13.2918464"><ele>539.0</ele><time>2026-04-04T11:35:21.906Z</time></trkpt><trkpt lat="43.0186027" lon="13.2917341"><ele>538.0</ele><time>2026-04-04T11:35:23.907Z</time></trkpt><trkpt lat="43.018727" lon="13.2916525"><ele>538.0</ele><time>2026-04-04T11:35:25.907Z</time></trkpt><trkpt lat="43.0188004" lon="13.2915894"><ele>538.0</ele><time>2026-04-04T11:35:27.907Z</time></trkpt><trkpt lat="43.018913" lon="13.2916341"><ele>538.0</ele><time>2026-04-04T11:35:28.907Z</time></trkpt><trkpt lat="43.0189876" lon="13.2916451"><ele>538.0</ele><time>2026-04-04T11:35:29.907Z</time></trkpt><trkpt lat="43.0190742" lon="13.2915948"><ele>538.0</ele><time>2026-04-04T11:35:31.907Z</time></trkpt><trkpt lat="43.0191191" lon="13.2915058"><ele>535.8</ele><time>2026-04-04T11:35:32.906Z</time></trkpt><trkpt lat="43.0192069" lon="13.2913848"><ele>533.5999999999999</ele><time>2026-04-04T11:35:34.907Z</time></trkpt><trkpt lat="43.0192466" lon="13.2913146"><ele>531.4000000000001</ele><time>2026-04-04T11:35:35.907Z</time></trkpt><trkpt lat="43.0193356" lon="13.2912509"><ele>529.2</ele><time>2026-04-04T11:35:37.907Z</time></trkpt><trkpt lat="43.0194102" lon="13.2911868"><ele>527.0</ele><time>2026-04-04T11:35:39.906Z</time></trkpt><trkpt lat="43.0194855" lon="13.2910894"><ele>527.0</ele><time>2026-04-04T11:35:41.907Z</time></trkpt><trkpt lat="43.019581" lon="13.2910079"><ele>527.0</ele><time>2026-04-04T11:35:43.907Z</time></trkpt><trkpt lat="43.0196669" lon="13.2909708"><ele>527.0</ele><time>2026-04-04T11:35:44.907Z</time></trkpt><trkpt lat="43.0197764" lon="13.2908902"><ele>527.0</ele><time>2026-04-04T11:35:46.907Z</time></trkpt><trkpt lat="43.0198614" lon="13.290857"><ele>527.0</ele><time>2026-04-04T11:35:48.906Z</time></trkpt><trkpt lat="43.0199586" lon="13.290821"><ele>527.1666666666666</ele><time>2026-04-04T11:35:50.907Z</time></trkpt><trkpt lat="43.0200605" lon="13.2907763"><ele>527.3333333333333</ele><time>2026-04-04T11:35:52.907Z</time></trkpt><trkpt lat="43.0201435" lon="13.2907394"><ele>527.5</ele><time>2026-04-04T11:35:54.906Z</time></trkpt><trkpt lat="43.0202242" lon="13.290694"><ele>527.6666666666666</ele><time>2026-04-04T11:35:56.907Z</time></trkpt><trkpt lat="43.0203104" lon="13.290658"><ele>527.8333333333334</ele><time>2026-04-04T11:35:58.907Z</time></trkpt><trkpt lat="43.0203719" lon="13.2906022"><ele>528.0</ele><time>2026-04-04T11:36:00.906Z</time></trkpt><trkpt lat="43.0204326" lon="13.2905539"><ele>527.0</ele><time>2026-04-04T11:36:03.906Z</time></trkpt><trkpt lat="43.0204513" lon="13.2904688"><ele>526.0</ele><time>2026-04-04T11:36:24.906Z</time></trkpt><trkpt lat="43.0204634" lon="13.2903455"><ele>525.0</ele><time>2026-04-04T11:36:27.907Z</time></trkpt><trkpt lat="43.0204814" lon="13.2902454"><ele>524.0</ele><time>2026-04-04T11:36:29.907Z</time></trkpt><trkpt lat="43.0205471" lon="13.2901901"><ele>523.0</ele><time>2026-04-04T11:36:30.907Z</time></trkpt><trkpt lat="43.0205858" lon="13.2900443"><ele>522.0</ele><time>2026-04-04T11:36:32.907Z</time></trkpt><trkpt lat="43.0206293" lon="13.2898442"><ele>522.0</ele><time>2026-04-04T11:36:34.906Z</time></trkpt><trkpt lat="43.0206522" lon="13.2897598"><ele>522.0</ele><time>2026-04-04T11:36:35.907Z</time></trkpt><trkpt lat="43.0206759" lon="13.2896405"><ele>522.0</ele><time>2026-04-04T11:36:36.906Z</time></trkpt><trkpt lat="43.0206985" lon="13.2895378"><ele>522.0</ele><time>2026-04-04T11:36:37.906Z</time></trkpt><trkpt lat="43.0207496" lon="13.2894851"><ele>522.0</ele><time>2026-04-04T11:36:39.907Z</time></trkpt><trkpt lat="43.0208167" lon="13.2895027"><ele>522.0</ele><time>2026-04-04T11:36:43.907Z</time></trkpt><trkpt lat="43.0208863" lon="13.2895251"><ele>522.0</ele><time>2026-04-04T11:36:46.906Z</time></trkpt><trkpt lat="43.0209628" lon="13.2895406"><ele>520.6</ele><time>2026-04-04T11:36:49.907Z</time></trkpt><trkpt lat="43.021033" lon="13.2895445"><ele>519.2</ele><time>2026-04-04T11:36:51.907Z</time></trkpt><trkpt lat="43.0211401" lon="13.2895608"><ele>517.8</ele><time>2026-04-04T11:36:53.907Z</time></trkpt><trkpt lat="43.0212272" lon="13.2895631"><ele>516.4</ele><time>2026-04-04T11:36:55.907Z</time></trkpt><trkpt lat="43.0213124" lon="13.2895545"><ele>515.0</ele><time>2026-04-04T11:36:57.907Z</time></trkpt><trkpt lat="43.0214152" lon="13.2895585"><ele>515.0</ele><time>2026-04-04T11:36:59.907Z</time></trkpt><trkpt lat="43.0215352" lon="13.2895809"><ele>515.0</ele><time>2026-04-04T11:37:01.906Z</time></trkpt><trkpt lat="43.021632" lon="13.2896214"><ele>515.0</ele><time>2026-04-04T11:37:03.907Z</time></trkpt><trkpt lat="43.021725" lon="13.2896532"><ele>515.0</ele><time>2026-04-04T11:37:05.906Z</time></trkpt><trkpt lat="43.0218158" lon="13.2896994"><ele>515.0</ele><time>2026-04-04T11:37:07.906Z</time></trkpt><trkpt lat="43.0219126" lon="13.2897337"><ele>515.4</ele><time>2026-04-04T11:37:09.907Z</time></trkpt><trkpt lat="43.0220081" lon="13.2897812"><ele>515.8</ele><time>2026-04-04T11:37:11.907Z</time></trkpt><trkpt lat="43.0220986" lon="13.2897658"><ele>516.2</ele><time>2026-04-04T11:37:13.906Z</time></trkpt><trkpt lat="43.0221864" lon="13.2898541"><ele>516.6</ele><time>2026-04-04T11:37:14.906Z</time></trkpt><trkpt lat="43.0222865" lon="13.2899263"><ele>517.0</ele><time>2026-04-04T11:37:16.907Z</time></trkpt><trkpt lat="43.0223982" lon="13.2899894"><ele>517.0</ele><time>2026-04-04T11:37:18.907Z</time></trkpt><trkpt lat="43.022461" lon="13.2900362"><ele>517.0</ele><time>2026-04-04T11:37:19.907Z</time></trkpt><trkpt lat="43.0225665" lon="13.2900582"><ele>517.0</ele><time>2026-04-04T11:37:21.907Z</time></trkpt><trkpt lat="43.0226554" lon="13.2901093"><ele>517.0</ele><time>2026-04-04T11:37:23.907Z</time></trkpt><trkpt lat="43.0227652" lon="13.290133"><ele>517.0</ele><time>2026-04-04T11:37:25.907Z</time></trkpt><trkpt lat="43.0228652" lon="13.2901756"><ele>515.8333333333334</ele><time>2026-04-04T11:37:27.907Z</time></trkpt><trkpt lat="43.0229389" lon="13.2901876"><ele>514.6666666666667</ele><time>2026-04-04T11:37:29.906Z</time></trkpt><trkpt lat="43.0230444" lon="13.2901792"><ele>513.5</ele><time>2026-04-04T11:37:31.907Z</time></trkpt><trkpt lat="43.023132" lon="13.290184"><ele>512.3333333333334</ele><time>2026-04-04T11:37:34.907Z</time></trkpt><trkpt lat="43.023201" lon="13.2901408"><ele>511.1666666666667</ele><time>2026-04-04T11:37:36.907Z</time></trkpt><trkpt lat="43.023272" lon="13.2901298"><ele>510.0</ele><time>2026-04-04T11:37:38.907Z</time></trkpt><trkpt lat="43.0233618" lon="13.2900883"><ele>509.8</ele><time>2026-04-04T11:37:40.906Z</time></trkpt><trkpt lat="43.0234494" lon="13.2900496"><ele>509.6</ele><time>2026-04-04T11:37:42.907Z</time></trkpt><trkpt lat="43.0235789" lon="13.2899752"><ele>509.4</ele><time>2026-04-04T11:37:44.907Z</time></trkpt><trkpt lat="43.0236547" lon="13.2899525"><ele>509.2</ele><time>2026-04-04T11:37:45.906Z</time></trkpt><trkpt lat="43.0237313" lon="13.2899389"><ele>509.0</ele><time>2026-04-04T11:37:46.906Z</time></trkpt><trkpt lat="43.0238117" lon="13.2899349"><ele>509.0</ele><time>2026-04-04T11:37:47.907Z</time></trkpt><trkpt lat="43.023897" lon="13.2899726"><ele>509.0</ele><time>2026-04-04T11:37:48.907Z</time></trkpt><trkpt lat="43.0239783" lon="13.2900609"><ele>509.0</ele><time>2026-04-04T11:37:49.907Z</time></trkpt><trkpt lat="43.024075" lon="13.2901232"><ele>509.0</ele><time>2026-04-04T11:37:50.906Z</time></trkpt><trkpt lat="43.0241581" lon="13.2901892"><ele>509.0</ele><time>2026-04-04T11:37:51.906Z</time></trkpt><trkpt lat="43.0242543" lon="13.2902585"><ele>506.0</ele><time>2026-04-04T11:37:52.907Z</time></trkpt><trkpt lat="43.024356" lon="13.2903244"><ele>503.0</ele><time>2026-04-04T11:37:53.907Z</time></trkpt><trkpt lat="43.0244558" lon="13.2903943"><ele>500.0</ele><time>2026-04-04T11:37:54.906Z</time></trkpt><trkpt lat="43.0245668" lon="13.2904833"><ele>497.0</ele><time>2026-04-04T11:37:55.907Z</time></trkpt><trkpt lat="43.0246671" lon="13.2905715"><ele>498.25</ele><time>2026-04-04T11:37:56.907Z</time></trkpt><trkpt lat="43.0247379" lon="13.2907035"><ele>499.5</ele><time>2026-04-04T11:37:57.907Z</time></trkpt><trkpt lat="43.0248167" lon="13.2908298"><ele>500.75</ele><time>2026-04-04T11:37:58.907Z</time></trkpt><trkpt lat="43.0249479" lon="13.2909092"><ele>502.0</ele><time>2026-04-04T11:37:59.906Z</time></trkpt><trkpt lat="43.0250446" lon="13.2910258"><ele>498.5</ele><time>2026-04-04T11:38:00.907Z</time></trkpt><trkpt lat="43.0251633" lon="13.2910793"><ele>495.0</ele><time>2026-04-04T11:38:01.906Z</time></trkpt><trkpt lat="43.0252782" lon="13.2911048"><ele>491.5</ele><time>2026-04-04T11:38:02.907Z</time></trkpt><trkpt lat="43.0253828" lon="13.291123"><ele>488.0</ele><time>2026-04-04T11:38:03.907Z</time></trkpt><trkpt lat="43.0254859" lon="13.2911672"><ele>488.0</ele><time>2026-04-04T11:38:04.907Z</time></trkpt><trkpt lat="43.0255974" lon="13.2912111"><ele>488.0</ele><time>2026-04-04T11:38:05.906Z</time></trkpt><trkpt lat="43.0257109" lon="13.2913406"><ele>488.0</ele><time>2026-04-04T11:38:06.906Z</time></trkpt><trkpt lat="43.0257902" lon="13.2914292"><ele>488.0</ele><time>2026-04-04T11:38:07.906Z</time></trkpt><trkpt lat="43.0258957" lon="13.2915354"><ele>486.2</ele><time>2026-04-04T11:38:08.907Z</time></trkpt><trkpt lat="43.0259897" lon="13.2916303"><ele>484.4</ele><time>2026-04-04T11:38:09.907Z</time></trkpt><trkpt lat="43.0261033" lon="13.2917191"><ele>482.59999999999997</ele><time>2026-04-04T11:38:10.906Z</time></trkpt><trkpt lat="43.0261942" lon="13.2917681"><ele>480.79999999999995</ele><time>2026-04-04T11:38:11.907Z</time></trkpt><trkpt lat="43.026286" lon="13.2918341"><ele>479.0</ele><time>2026-04-04T11:38:12.907Z</time></trkpt><trkpt lat="43.0263556" lon="13.2919265"><ele>479.0</ele><time>2026-04-04T11:38:13.906Z</time></trkpt><trkpt lat="43.0264374" lon="13.291992"><ele>479.0</ele><time>2026-04-04T11:38:14.907Z</time></trkpt><trkpt lat="43.0264977" lon="13.29208"><ele>479.0</ele><time>2026-04-04T11:38:15.907Z</time></trkpt><trkpt lat="43.0265633" lon="13.2921666"><ele>479.0</ele><time>2026-04-04T11:38:16.907Z</time></trkpt><trkpt lat="43.0266219" lon="13.2922878"><ele>479.0</ele><time>2026-04-04T11:38:18.906Z</time></trkpt><trkpt lat="43.0266997" lon="13.2924118"><ele>479.49999999999994</ele><time>2026-04-04T11:38:21.907Z</time></trkpt><trkpt lat="43.0267316" lon="13.2924939"><ele>480.0</ele><time>2026-04-04T11:38:23.906Z</time></trkpt><trkpt lat="43.0267539" lon="13.2925865"><ele>480.5</ele><time>2026-04-04T11:38:25.907Z</time></trkpt><trkpt lat="43.0268169" lon="13.2926481"><ele>481.0</ele><time>2026-04-04T11:38:29.906Z</time></trkpt><trkpt lat="43.0268725" lon="13.292744"><ele>481.49999999999994</ele><time>2026-04-04T11:38:32.906Z</time></trkpt><trkpt lat="43.0269208" lon="13.2928412"><ele>482.0</ele><time>2026-04-04T11:38:35.907Z</time></trkpt><trkpt lat="43.026954" lon="13.2929153"><ele>481.99999999999994</ele><time>2026-04-04T11:38:37.906Z</time></trkpt><trkpt lat="43.0269856" lon="13.2929984"><ele>482.0</ele><time>2026-04-04T11:38:39.906Z</time></trkpt><trkpt lat="43.0270275" lon="13.2930787"><ele>482.0</ele><time>2026-04-04T11:38:42.906Z</time></trkpt><trkpt lat="43.0270848" lon="13.2931703"><ele>482.0</ele><time>2026-04-04T11:38:45.907Z</time></trkpt><trkpt lat="43.0271401" lon="13.2932491"><ele>481.99999999999994</ele><time>2026-04-04T11:38:47.907Z</time></trkpt><trkpt lat="43.0271971" lon="13.293335"><ele>482.0</ele><time>2026-04-04T11:38:50.906Z</time></trkpt><trkpt lat="43.0272476" lon="13.2934174"><ele>481.42857142857144</ele><time>2026-04-04T11:38:53.907Z</time></trkpt><trkpt lat="43.0273124" lon="13.2934812"><ele>480.8571428571429</ele><time>2026-04-04T11:38:56.907Z</time></trkpt><trkpt lat="43.0273664" lon="13.2935361"><ele>480.28571428571433</ele><time>2026-04-04T11:38:58.906Z</time></trkpt><trkpt lat="43.0274175" lon="13.2935961"><ele>479.7142857142858</ele><time>2026-04-04T11:39:00.906Z</time></trkpt><trkpt lat="43.0274582" lon="13.2936659"><ele>479.14285714285717</ele><time>2026-04-04T11:39:02.906Z</time></trkpt><trkpt lat="43.0275091" lon="13.2937393"><ele>478.57142857142867</ele><time>2026-04-04T11:39:04.907Z</time></trkpt><trkpt lat="43.0275665" lon="13.2938151"><ele>478.00000000000006</ele><time>2026-04-04T11:39:06.907Z</time></trkpt><trkpt lat="43.027613" lon="13.2938891"><ele>479.1428571428572</ele><time>2026-04-04T11:39:08.907Z</time></trkpt><trkpt lat="43.0276471" lon="13.2939712"><ele>480.28571428571433</ele><time>2026-04-04T11:39:10.907Z</time></trkpt><trkpt lat="43.0276811" lon="13.2940561"><ele>481.42857142857144</ele><time>2026-04-04T11:39:12.907Z</time></trkpt><trkpt lat="43.0277396" lon="13.294131"><ele>482.5714285714286</ele><time>2026-04-04T11:39:15.907Z</time></trkpt><trkpt lat="43.027803" lon="13.2941727"><ele>483.7142857142858</ele><time>2026-04-04T11:39:17.906Z</time></trkpt><trkpt lat="43.0278695" lon="13.2942197"><ele>484.85714285714283</ele><time>2026-04-04T11:39:19.906Z</time></trkpt><trkpt lat="43.0279353" lon="13.2942825"><ele>486.0</ele><time>2026-04-04T11:39:21.907Z</time></trkpt><trkpt lat="43.027998" lon="13.2943501"><ele>486.0</ele><time>2026-04-04T11:39:23.907Z</time></trkpt><trkpt lat="43.0280995" lon="13.2943894"><ele>486.0</ele><time>2026-04-04T11:39:25.907Z</time></trkpt><trkpt lat="43.0281801" lon="13.2944475"><ele>486.0</ele><time>2026-04-04T11:39:27.906Z</time></trkpt><trkpt lat="43.0282484" lon="13.2945161"><ele>486.0</ele><time>2026-04-04T11:39:29.907Z</time></trkpt><trkpt lat="43.0283179" lon="13.2945914"><ele>486.0</ele><time>2026-04-04T11:39:31.907Z</time></trkpt><trkpt lat="43.028371" lon="13.2946775"><ele>485.8333333333333</ele><time>2026-04-04T11:39:33.906Z</time></trkpt><trkpt lat="43.0284044" lon="13.2948047"><ele>485.66666666666663</ele><time>2026-04-04T11:39:35.906Z</time></trkpt><trkpt lat="43.0284442" lon="13.2948871"><ele>485.5</ele><time>2026-04-04T11:39:37.906Z</time></trkpt><trkpt lat="43.0285067" lon="13.2949921"><ele>485.3333333333333</ele><time>2026-04-04T11:39:39.907Z</time></trkpt><trkpt lat="43.0285622" lon="13.2950517"><ele>485.16666666666663</ele><time>2026-04-04T11:39:41.907Z</time></trkpt><trkpt lat="43.0286228" lon="13.2951218"><ele>485.0</ele><time>2026-04-04T11:39:43.907Z</time></trkpt><trkpt lat="43.0286708" lon="13.2951935"><ele>484.99999999999994</ele><time>2026-04-04T11:39:45.907Z</time></trkpt><trkpt lat="43.0287326" lon="13.2952762"><ele>485.0</ele><time>2026-04-04T11:39:47.907Z</time></trkpt><trkpt lat="43.0287932" lon="13.2953584"><ele>485.0</ele><time>2026-04-04T11:39:49.906Z</time></trkpt><trkpt lat="43.0288541" lon="13.2954296"><ele>485.0</ele><time>2026-04-04T11:39:51.906Z</time></trkpt><trkpt lat="43.0289159" lon="13.2954958"><ele>484.99999999999994</ele><time>2026-04-04T11:39:53.907Z</time></trkpt><trkpt lat="43.0290064" lon="13.295551"><ele>485.0</ele><time>2026-04-04T11:39:55.907Z</time></trkpt><trkpt lat="43.0290874" lon="13.2956152"><ele>486.16666666666663</ele><time>2026-04-04T11:39:57.906Z</time></trkpt><trkpt lat="43.029155" lon="13.2956951"><ele>487.3333333333333</ele><time>2026-04-04T11:39:59.907Z</time></trkpt><trkpt lat="43.0292143" lon="13.2957602"><ele>488.5</ele><time>2026-04-04T11:40:01.907Z</time></trkpt><trkpt lat="43.0292809" lon="13.2958434"><ele>489.66666666666663</ele><time>2026-04-04T11:40:04.907Z</time></trkpt><trkpt lat="43.0293439" lon="13.295934"><ele>490.8333333333333</ele><time>2026-04-04T11:40:07.907Z</time></trkpt><trkpt lat="43.0293935" lon="13.2960101"><ele>492.0</ele><time>2026-04-04T11:40:09.906Z</time></trkpt><trkpt lat="43.0294351" lon="13.2960779"><ele>492.0</ele><time>2026-04-04T11:40:11.907Z</time></trkpt><trkpt lat="43.0294805" lon="13.2961462"><ele>492.0</ele><time>2026-04-04T11:40:13.907Z</time></trkpt><trkpt lat="43.0295281" lon="13.2962027"><ele>492.0</ele><time>2026-04-04T11:40:15.906Z</time></trkpt><trkpt lat="43.029592" lon="13.29629"><ele>492.0</ele><time>2026-04-04T11:40:18.907Z</time></trkpt><trkpt lat="43.0296721" lon="13.296375"><ele>492.0</ele><time>2026-04-04T11:40:21.907Z</time></trkpt><trkpt lat="43.0297369" lon="13.2964173"><ele>492.0</ele><time>2026-04-04T11:40:23.906Z</time></trkpt><trkpt lat="43.0297953" lon="13.2964495"><ele>492.1428571428572</ele><time>2026-04-04T11:40:25.907Z</time></trkpt><trkpt lat="43.0298569" lon="13.2964815"><ele>492.28571428571433</ele><time>2026-04-04T11:40:27.907Z</time></trkpt><trkpt lat="43.0299246" lon="13.2965102"><ele>492.42857142857144</ele><time>2026-04-04T11:40:29.907Z</time></trkpt><trkpt lat="43.0300069" lon="13.2965344"><ele>492.5714285714286</ele><time>2026-04-04T11:40:32.906Z</time></trkpt><trkpt lat="43.0300741" lon="13.2965553"><ele>492.7142857142858</ele><time>2026-04-04T11:40:34.907Z</time></trkpt><trkpt lat="43.0301467" lon="13.2965582"><ele>492.85714285714283</ele><time>2026-04-04T11:40:36.907Z</time></trkpt><trkpt lat="43.0302104" lon="13.2965455"><ele>493.0</ele><time>2026-04-04T11:40:38.907Z</time></trkpt><trkpt lat="43.0302871" lon="13.2965304"><ele>493.00000000000006</ele><time>2026-04-04T11:40:41.907Z</time></trkpt><trkpt lat="43.0303764" lon="13.2965346"><ele>493.0</ele><time>2026-04-04T11:40:44.907Z</time></trkpt><trkpt lat="43.0304705" lon="13.29649"><ele>493.0</ele><time>2026-04-04T11:40:47.907Z</time></trkpt><trkpt lat="43.0305315" lon="13.2964658"><ele>493.0</ele><time>2026-04-04T11:40:49.907Z</time></trkpt><trkpt lat="43.0306155" lon="13.2964235"><ele>493.00000000000006</ele><time>2026-04-04T11:40:52.907Z</time></trkpt><trkpt lat="43.0307018" lon="13.296393"><ele>493.0</ele><time>2026-04-04T11:40:55.906Z</time></trkpt><trkpt lat="43.0307852" lon="13.2963782"><ele>493.6666666666667</ele><time>2026-04-04T11:40:58.906Z</time></trkpt><trkpt lat="43.0308542" lon="13.2963741"><ele>494.33333333333337</ele><time>2026-04-04T11:41:00.906Z</time></trkpt><trkpt lat="43.030926" lon="13.296369"><ele>495.0</ele><time>2026-04-04T11:41:02.906Z</time></trkpt><trkpt lat="43.0310038" lon="13.296379"><ele>495.66666666666663</ele><time>2026-04-04T11:41:04.906Z</time></trkpt><trkpt lat="43.031065" lon="13.296407"><ele>496.3333333333333</ele><time>2026-04-04T11:41:06.907Z</time></trkpt><trkpt lat="43.0311322" lon="13.2964894"><ele>497.0</ele><time>2026-04-04T11:41:09.907Z</time></trkpt><trkpt lat="43.0311712" lon="13.2966012"><ele>496.99999999999994</ele><time>2026-04-04T11:41:12.906Z</time></trkpt><trkpt lat="43.0312045" lon="13.2966983"><ele>497.0</ele><time>2026-04-04T11:41:15.907Z</time></trkpt><trkpt lat="43.0312577" lon="13.2967915"><ele>497.0</ele><time>2026-04-04T11:41:18.907Z</time></trkpt><trkpt lat="43.0313188" lon="13.2968723"><ele>497.0</ele><time>2026-04-04T11:41:21.906Z</time></trkpt><trkpt lat="43.0313848" lon="13.2969172"><ele>496.99999999999994</ele><time>2026-04-04T11:41:23.906Z</time></trkpt><trkpt lat="43.0314612" lon="13.2969447"><ele>497.0</ele><time>2026-04-04T11:41:25.907Z</time></trkpt><trkpt lat="43.0315283" lon="13.2969517"><ele>496.99999999999994</ele><time>2026-04-04T11:41:27.907Z</time></trkpt><trkpt lat="43.0315988" lon="13.2969715"><ele>497.0</ele><time>2026-04-04T11:41:29.906Z</time></trkpt><trkpt lat="43.0316663" lon="13.2970035"><ele>497.0</ele><time>2026-04-04T11:41:31.907Z</time></trkpt><trkpt lat="43.0317453" lon="13.2970314"><ele>497.0</ele><time>2026-04-04T11:41:33.907Z</time></trkpt><trkpt lat="43.0318245" lon="13.2970526"><ele>496.99999999999994</ele><time>2026-04-04T11:41:35.907Z</time></trkpt><trkpt lat="43.0318992" lon="13.2970822"><ele>497.0</ele><time>2026-04-04T11:41:37.907Z</time></trkpt><trkpt lat="43.0319775" lon="13.2971128"><ele>496.8333333333333</ele><time>2026-04-04T11:41:39.906Z</time></trkpt><trkpt lat="43.0320483" lon="13.2971411"><ele>496.66666666666663</ele><time>2026-04-04T11:41:41.907Z</time></trkpt><trkpt lat="43.032112" lon="13.2971608"><ele>496.5</ele><time>2026-04-04T11:41:43.907Z</time></trkpt><trkpt lat="43.0321757" lon="13.2971723"><ele>496.33333333333337</ele><time>2026-04-04T11:41:45.907Z</time></trkpt><trkpt lat="43.0322505" lon="13.2972149"><ele>496.1666666666667</ele><time>2026-04-04T11:41:47.907Z</time></trkpt><trkpt lat="43.0323403" lon="13.2972268"><ele>496.0</ele><time>2026-04-04T11:41:49.907Z</time></trkpt><trkpt lat="43.032423" lon="13.2972675"><ele>497.20000000000005</ele><time>2026-04-04T11:41:51.907Z</time></trkpt><trkpt lat="43.0325286" lon="13.2973086"><ele>498.40000000000003</ele><time>2026-04-04T11:41:53.906Z</time></trkpt><trkpt lat="43.0326217" lon="13.2972789"><ele>499.6</ele><time>2026-04-04T11:41:55.907Z</time></trkpt><trkpt lat="43.0327096" lon="13.2971866"><ele>500.8</ele><time>2026-04-04T11:41:58.906Z</time></trkpt><trkpt lat="43.0327721" lon="13.2971006"><ele>502.0</ele><time>2026-04-04T11:42:01.907Z</time></trkpt><trkpt lat="43.0328183" lon="13.2970325"><ele>503.1428571428571</ele><time>2026-04-04T11:42:03.907Z</time></trkpt><trkpt lat="43.0328654" lon="13.2969737"><ele>504.2857142857143</ele><time>2026-04-04T11:42:05.907Z</time></trkpt><trkpt lat="43.0328816" lon="13.2968791"><ele>505.42857142857144</ele><time>2026-04-04T11:42:08.907Z</time></trkpt><trkpt lat="43.0329542" lon="13.296856"><ele>506.57142857142856</ele><time>2026-04-04T11:42:12.907Z</time></trkpt><trkpt lat="43.0330141" lon="13.2969138"><ele>507.7142857142858</ele><time>2026-04-04T11:42:16.906Z</time></trkpt><trkpt lat="43.033082" lon="13.2969622"><ele>508.8571428571429</ele><time>2026-04-04T11:42:22.907Z</time></trkpt><trkpt lat="43.0331543" lon="13.29698"><ele>510.0</ele><time>2026-04-04T11:42:25.907Z</time></trkpt><trkpt lat="43.0332323" lon="13.2970103"><ele>510.0</ele><time>2026-04-04T11:42:29.906Z</time></trkpt><trkpt lat="43.0332978" lon="13.2970351"><ele>510.0</ele><time>2026-04-04T11:42:32.906Z</time></trkpt><trkpt lat="43.033372" lon="13.2970791"><ele>510.0</ele><time>2026-04-04T11:42:35.906Z</time></trkpt><trkpt lat="43.0334438" lon="13.2971572"><ele>510.0</ele><time>2026-04-04T11:42:38.907Z</time></trkpt><trkpt lat="43.0335011" lon="13.2972143"><ele>510.0</ele><time>2026-04-04T11:42:40.906Z</time></trkpt><trkpt lat="43.0335636" lon="13.2972777"><ele>510.0</ele><time>2026-04-04T11:42:42.907Z</time></trkpt><trkpt lat="43.0336326" lon="13.2973402"><ele>509.42857142857144</ele><time>2026-04-04T11:42:44.907Z</time></trkpt><trkpt lat="43.0336965" lon="13.2974024"><ele>508.8571428571429</ele><time>2026-04-04T11:42:46.906Z</time></trkpt><trkpt lat="43.0337559" lon="13.2974568"><ele>508.28571428571433</ele><time>2026-04-04T11:42:48.907Z</time></trkpt><trkpt lat="43.0338216" lon="13.297454"><ele>507.7142857142858</ele><time>2026-04-04T11:42:52.906Z</time></trkpt><trkpt lat="43.033868" lon="13.297372"><ele>507.14285714285717</ele><time>2026-04-04T11:42:55.907Z</time></trkpt><trkpt lat="43.0339216" lon="13.2972862"><ele>506.57142857142867</ele><time>2026-04-04T11:42:58.907Z</time></trkpt><trkpt lat="43.0339711" lon="13.2972259"><ele>506.00000000000006</ele><time>2026-04-04T11:43:00.907Z</time></trkpt><trkpt lat="43.0340271" lon="13.2971799"><ele>507.57142857142867</ele><time>2026-04-04T11:43:02.906Z</time></trkpt><trkpt lat="43.0341031" lon="13.2971775"><ele>509.14285714285717</ele><time>2026-04-04T11:43:05.906Z</time></trkpt><trkpt lat="43.034169" lon="13.297165"><ele>510.7142857142858</ele><time>2026-04-04T11:43:09.907Z</time></trkpt><trkpt lat="43.0342326" lon="13.2971227"><ele>512.2857142857143</ele><time>2026-04-04T11:43:14.907Z</time></trkpt><trkpt lat="43.0342862" lon="13.2970402"><ele>513.8571428571429</ele><time>2026-04-04T11:43:18.906Z</time></trkpt><trkpt lat="43.0343521" lon="13.2970176"><ele>515.4285714285714</ele><time>2026-04-04T11:43:21.906Z</time></trkpt><trkpt lat="43.0343159" lon="13.2969436"><ele>517.0</ele><time>2026-04-04T11:43:28.907Z</time></trkpt><trkpt lat="43.0343875" lon="13.296962"><ele>516.1666666666667</ele><time>2026-04-04T11:43:34.906Z</time></trkpt><trkpt lat="43.0344368" lon="13.2970194"><ele>515.3333333333334</ele><time>2026-04-04T11:43:36.906Z</time></trkpt><trkpt lat="43.0344852" lon="13.297086"><ele>514.5</ele><time>2026-04-04T11:43:38.906Z</time></trkpt><trkpt lat="43.0345617" lon="13.297161"><ele>513.6666666666666</ele><time>2026-04-04T11:43:41.907Z</time></trkpt><trkpt lat="43.0346221" lon="13.29721"><ele>512.8333333333333</ele><time>2026-04-04T11:43:43.906Z</time></trkpt><trkpt lat="43.034691" lon="13.2972627"><ele>512.0</ele><time>2026-04-04T11:43:45.907Z</time></trkpt><trkpt lat="43.0347542" lon="13.2973346"><ele>511.99999999999994</ele><time>2026-04-04T11:43:47.906Z</time></trkpt><trkpt lat="43.0348088" lon="13.2974265"><ele>512.0</ele><time>2026-04-04T11:43:49.907Z</time></trkpt><trkpt lat="43.0348575" lon="13.2975048"><ele>512.0</ele><time>2026-04-04T11:43:51.907Z</time></trkpt><trkpt lat="43.0349148" lon="13.2975623"><ele>512.0</ele><time>2026-04-04T11:43:55.907Z</time></trkpt><trkpt lat="43.0349749" lon="13.2976722"><ele>511.99999999999994</ele><time>2026-04-04T11:43:58.907Z</time></trkpt><trkpt lat="43.0350337" lon="13.2977383"><ele>512.0</ele><time>2026-04-04T11:44:00.907Z</time></trkpt><trkpt lat="43.0351056" lon="13.2977755"><ele>512.3333333333333</ele><time>2026-04-04T11:44:03.907Z</time></trkpt><trkpt lat="43.0351879" lon="13.2978271"><ele>512.6666666666666</ele><time>2026-04-04T11:44:13.907Z</time></trkpt><trkpt lat="43.0352325" lon="13.2979073"><ele>513.0</ele><time>2026-04-04T11:44:15.907Z</time></trkpt><trkpt lat="43.0352856" lon="13.2979956"><ele>513.3333333333334</ele><time>2026-04-04T11:44:18.906Z</time></trkpt><trkpt lat="43.0353471" lon="13.2980554"><ele>513.6666666666667</ele><time>2026-04-04T11:44:21.906Z</time></trkpt><trkpt lat="43.0354111" lon="13.2980826"><ele>514.0</ele><time>2026-04-04T11:44:24.907Z</time></trkpt><trkpt lat="43.0354062" lon="13.2981873"><ele>514.0</ele><time>2026-04-04T11:44:29.906Z</time></trkpt><trkpt lat="43.0354308" lon="13.2982699"><ele>514.0</ele><time>2026-04-04T11:46:12.906Z</time></trkpt><trkpt lat="43.0354486" lon="13.2983545"><ele>514.0</ele><time>2026-04-04T11:46:15.907Z</time></trkpt><trkpt lat="43.0355194" lon="13.298402"><ele>514.0</ele><time>2026-04-04T11:46:19.907Z</time></trkpt><trkpt lat="43.0355793" lon="13.2984394"><ele>514.0</ele><time>2026-04-04T11:46:22.906Z</time></trkpt><trkpt lat="43.0356456" lon="13.298498"><ele>514.0</ele><time>2026-04-04T11:46:26.907Z</time></trkpt><trkpt lat="43.0357163" lon="13.2985019"><ele>514.0</ele><time>2026-04-04T11:46:28.907Z</time></trkpt><trkpt lat="43.0357948" lon="13.2984548"><ele>515.1666666666667</ele><time>2026-04-04T11:46:30.907Z</time></trkpt><trkpt lat="43.0358576" lon="13.2983961"><ele>516.3333333333334</ele><time>2026-04-04T11:46:32.907Z</time></trkpt><trkpt lat="43.0359363" lon="13.2983178"><ele>517.5</ele><time>2026-04-04T11:46:35.907Z</time></trkpt><trkpt lat="43.0360026" lon="13.2982589"><ele>518.6666666666666</ele><time>2026-04-04T11:46:37.907Z</time></trkpt><trkpt lat="43.0360625" lon="13.2981846"><ele>519.8333333333333</ele><time>2026-04-04T11:46:39.907Z</time></trkpt><trkpt lat="43.0361113" lon="13.2981142"><ele>521.0</ele><time>2026-04-04T11:46:41.907Z</time></trkpt><trkpt lat="43.0361677" lon="13.2980415"><ele>521.8</ele><time>2026-04-04T11:46:43.907Z</time></trkpt><trkpt lat="43.0362291" lon="13.2980006"><ele>522.6</ele><time>2026-04-04T11:46:44.907Z</time></trkpt><trkpt lat="43.0363166" lon="13.297931"><ele>523.4</ele><time>2026-04-04T11:46:46.907Z</time></trkpt><trkpt lat="43.0364189" lon="13.2978684"><ele>524.2</ele><time>2026-04-04T11:46:48.907Z</time></trkpt><trkpt lat="43.0364926" lon="13.2979327"><ele>525.0</ele><time>2026-04-04T11:46:50.907Z</time></trkpt><trkpt lat="43.0365773" lon="13.2980096"><ele>525.5</ele><time>2026-04-04T11:46:52.907Z</time></trkpt><trkpt lat="43.0366654" lon="13.2980497"><ele>526.0</ele><time>2026-04-04T11:46:54.907Z</time></trkpt><trkpt lat="43.0367328" lon="13.2980552"><ele>526.5</ele><time>2026-04-04T11:46:56.906Z</time></trkpt><trkpt lat="43.036847" lon="13.2980928"><ele>527.0</ele><time>2026-04-04T11:46:58.907Z</time></trkpt><trkpt lat="43.036937" lon="13.2980874"><ele>527.5</ele><time>2026-04-04T11:46:59.906Z</time></trkpt><trkpt lat="43.037002" lon="13.2980742"><ele>528.0</ele><time>2026-04-04T11:47:00.907Z</time></trkpt><trkpt lat="43.0370661" lon="13.2980625"><ele>528.0</ele><time>2026-04-04T11:47:01.907Z</time></trkpt><trkpt lat="43.0371512" lon="13.298023"><ele>528.0</ele><time>2026-04-04T11:47:02.906Z</time></trkpt><trkpt lat="43.0372176" lon="13.2979774"><ele>528.0</ele><time>2026-04-04T11:47:03.907Z</time></trkpt><trkpt lat="43.0372804" lon="13.297936"><ele>528.0</ele><time>2026-04-04T11:47:04.907Z</time></trkpt><trkpt lat="43.0373889" lon="13.2978221"><ele>528.0</ele><time>2026-04-04T11:47:06.907Z</time></trkpt><trkpt lat="43.0374433" lon="13.2977571"><ele>528.0</ele><time>2026-04-04T11:47:07.907Z</time></trkpt><trkpt lat="43.0374869" lon="13.2976911"><ele>528.8333333333334</ele><time>2026-04-04T11:47:08.906Z</time></trkpt><trkpt lat="43.0375375" lon="13.2976215"><ele>529.6666666666666</ele><time>2026-04-04T11:47:09.907Z</time></trkpt><trkpt lat="43.0375951" lon="13.2975629"><ele>530.5</ele><time>2026-04-04T11:47:10.907Z</time></trkpt><trkpt lat="43.0376396" lon="13.2974838"><ele>531.3333333333333</ele><time>2026-04-04T11:47:11.906Z</time></trkpt><trkpt lat="43.0376903" lon="13.2974211"><ele>532.1666666666666</ele><time>2026-04-04T11:47:12.906Z</time></trkpt><trkpt lat="43.0377437" lon="13.2973068"><ele>533.0</ele><time>2026-04-04T11:47:13.906Z</time></trkpt><trkpt lat="43.037802" lon="13.2972455"><ele>533.0</ele><time>2026-04-04T11:47:14.907Z</time></trkpt><trkpt lat="43.0378606" lon="13.2971878"><ele>533.0</ele><time>2026-04-04T11:47:15.906Z</time></trkpt><trkpt lat="43.0379122" lon="13.2970822"><ele>533.0</ele><time>2026-04-04T11:47:16.907Z</time></trkpt><trkpt lat="43.0380022" lon="13.2969591"><ele>533.0</ele><time>2026-04-04T11:47:18.906Z</time></trkpt><trkpt lat="43.0380498" lon="13.2968944"><ele>533.0</ele><time>2026-04-04T11:47:19.907Z</time></trkpt><trkpt lat="43.0381067" lon="13.2968435"><ele>533.0</ele><time>2026-04-04T11:47:20.906Z</time></trkpt><trkpt lat="43.0381883" lon="13.2967501"><ele>533.0</ele><time>2026-04-04T11:47:22.907Z</time></trkpt><trkpt lat="43.0382313" lon="13.2966641"><ele>533.0</ele><time>2026-04-04T11:47:23.907Z</time></trkpt><trkpt lat="43.0382761" lon="13.2965994"><ele>533.0</ele><time>2026-04-04T11:47:24.906Z</time></trkpt><trkpt lat="43.0383386" lon="13.2964789"><ele>533.0</ele><time>2026-04-04T11:47:26.907Z</time></trkpt><trkpt lat="43.0384286" lon="13.2963724"><ele>533.0</ele><time>2026-04-04T11:47:28.907Z</time></trkpt><trkpt lat="43.0385022" lon="13.296258"><ele>531.1999999999999</ele><time>2026-04-04T11:47:30.907Z</time></trkpt><trkpt lat="43.0385445" lon="13.2961793"><ele>529.4</ele><time>2026-04-04T11:47:31.907Z</time></trkpt><trkpt lat="43.0385874" lon="13.2961119"><ele>527.5999999999999</ele><time>2026-04-04T11:47:32.907Z</time></trkpt><trkpt lat="43.0385429" lon="13.2958673"><ele>525.8</ele><time>2026-04-04T11:47:34.907Z</time></trkpt><trkpt lat="43.0385763" lon="13.2957808"><ele>524.0</ele><time>2026-04-04T11:47:35.907Z</time></trkpt><trkpt lat="43.0386332" lon="13.2957147"><ele>526.0</ele><time>2026-04-04T11:47:36.906Z</time></trkpt><trkpt lat="43.038695" lon="13.2955798"><ele>528.0</ele><time>2026-04-04T11:47:38.907Z</time></trkpt><trkpt lat="43.0387534" lon="13.295401"><ele>530.0</ele><time>2026-04-04T11:47:39.907Z</time></trkpt><trkpt lat="43.038782" lon="13.2952296"><ele>532.0</ele><time>2026-04-04T11:47:41.907Z</time></trkpt><trkpt lat="43.0388021" lon="13.2951402"><ele>532.0</ele><time>2026-04-04T11:47:42.907Z</time></trkpt><trkpt lat="43.0388339" lon="13.295055"><ele>532.0</ele><time>2026-04-04T11:47:43.906Z</time></trkpt><trkpt lat="43.0388354" lon="13.2949686"><ele>532.0</ele><time>2026-04-04T11:47:44.906Z</time></trkpt><trkpt lat="43.0388301" lon="13.2948465"><ele>532.0</ele><time>2026-04-04T11:47:45.907Z</time></trkpt><trkpt lat="43.0388423" lon="13.2947429"><ele>532.0</ele><time>2026-04-04T11:47:46.907Z</time></trkpt><trkpt lat="43.0388668" lon="13.2945998"><ele>532.0</ele><time>2026-04-04T11:47:48.907Z</time></trkpt><trkpt lat="43.0388479" lon="13.2945145"><ele>532.0</ele><time>2026-04-04T11:47:49.907Z</time></trkpt><trkpt lat="43.038932" lon="13.294399"><ele>532.0</ele><time>2026-04-04T11:47:51.906Z</time></trkpt><trkpt lat="43.038925" lon="13.2942409"><ele>532.0</ele><time>2026-04-04T11:47:53.906Z</time></trkpt><trkpt lat="43.0389148" lon="13.2941437"><ele>532.0</ele><time>2026-04-04T11:47:54.907Z</time></trkpt><trkpt lat="43.0389223" lon="13.293983"><ele>532.0</ele><time>2026-04-04T11:47:56.907Z</time></trkpt><trkpt lat="43.0389045" lon="13.2938343"><ele>531.3333333333334</ele><time>2026-04-04T11:47:58.907Z</time></trkpt><trkpt lat="43.0388995" lon="13.2937426"><ele>530.6666666666667</ele><time>2026-04-04T11:47:59.906Z</time></trkpt><trkpt lat="43.0389108" lon="13.2936554"><ele>530.0</ele><time>2026-04-04T11:48:00.907Z</time></trkpt><trkpt lat="43.0389472" lon="13.2934772"><ele>529.3333333333334</ele><time>2026-04-04T11:48:02.907Z</time></trkpt><trkpt lat="43.0389809" lon="13.2933948"><ele>528.6666666666666</ele><time>2026-04-04T11:48:03.906Z</time></trkpt><trkpt lat="43.0390166" lon="13.2933193"><ele>528.0</ele><time>2026-04-04T11:48:04.907Z</time></trkpt><trkpt lat="43.0390704" lon="13.2932506"><ele>528.0</ele><time>2026-04-04T11:48:05.906Z</time></trkpt><trkpt lat="43.039115" lon="13.2931787"><ele>528.0</ele><time>2026-04-04T11:48:06.907Z</time></trkpt><trkpt lat="43.0391652" lon="13.2931124"><ele>528.0</ele><time>2026-04-04T11:48:07.907Z</time></trkpt><trkpt lat="43.0392121" lon="13.2930435"><ele>528.0</ele><time>2026-04-04T11:48:08.907Z</time></trkpt><trkpt lat="43.0392495" lon="13.2929741"><ele>528.0</ele><time>2026-04-04T11:48:09.907Z</time></trkpt><trkpt lat="43.0392831" lon="13.2928992"><ele>528.0</ele><time>2026-04-04T11:48:10.906Z</time></trkpt><trkpt lat="43.0393253" lon="13.2928264"><ele>528.0</ele><time>2026-04-04T11:48:11.907Z</time></trkpt><trkpt lat="43.039358" lon="13.2927356"><ele>526.8</ele><time>2026-04-04T11:48:12.907Z</time></trkpt><trkpt lat="43.0393904" lon="13.2926534"><ele>525.5999999999999</ele><time>2026-04-04T11:48:13.906Z</time></trkpt><trkpt lat="43.0394345" lon="13.2924734"><ele>524.4000000000001</ele><time>2026-04-04T11:48:15.907Z</time></trkpt><trkpt lat="43.0394491" lon="13.2923844"><ele>523.2</ele><time>2026-04-04T11:48:16.907Z</time></trkpt><trkpt lat="43.0394563" lon="13.292226"><ele>522.0</ele><time>2026-04-04T11:48:17.907Z</time></trkpt><trkpt lat="43.0394848" lon="13.2921278"><ele>522.0</ele><time>2026-04-04T11:48:18.906Z</time></trkpt><trkpt lat="43.0395185" lon="13.2919512"><ele>522.0</ele><time>2026-04-04T11:48:20.907Z</time></trkpt><trkpt lat="43.0395269" lon="13.2918615"><ele>522.0</ele><time>2026-04-04T11:48:21.907Z</time></trkpt><trkpt lat="43.03954" lon="13.2917746"><ele>522.0</ele><time>2026-04-04T11:48:22.906Z</time></trkpt><trkpt lat="43.0395547" lon="13.2916027"><ele>522.0</ele><time>2026-04-04T11:48:24.906Z</time></trkpt><trkpt lat="43.039569" lon="13.2915068"><ele>522.0</ele><time>2026-04-04T11:48:25.906Z</time></trkpt><trkpt lat="43.0396149" lon="13.2914288"><ele>522.0</ele><time>2026-04-04T11:48:26.907Z</time></trkpt><trkpt lat="43.0396688" lon="13.291332"><ele>522.0</ele><time>2026-04-04T11:48:27.907Z</time></trkpt><trkpt lat="43.0396971" lon="13.2912326"><ele>522.0</ele><time>2026-04-04T11:48:28.907Z</time></trkpt><trkpt lat="43.0397222" lon="13.2911448"><ele>522.0</ele><time>2026-04-04T11:48:29.907Z</time></trkpt><trkpt lat="43.0397506" lon="13.291058"><ele>522.0</ele><time>2026-04-04T11:48:30.906Z</time></trkpt><trkpt lat="43.0397771" lon="13.2909733"><ele>522.0</ele><time>2026-04-04T11:48:31.907Z</time></trkpt><trkpt lat="43.0398062" lon="13.2908888"><ele>522.5</ele><time>2026-04-04T11:48:32.907Z</time></trkpt><trkpt lat="43.039839" lon="13.2907512"><ele>523.0</ele><time>2026-04-04T11:48:34.907Z</time></trkpt><trkpt lat="43.0398859" lon="13.2906895"><ele>523.5</ele><time>2026-04-04T11:48:35.907Z</time></trkpt><trkpt lat="43.0399183" lon="13.2905329"><ele>524.0</ele><time>2026-04-04T11:48:37.907Z</time></trkpt><trkpt lat="43.0399986" lon="13.2903353"><ele>520.5</ele><time>2026-04-04T11:48:39.906Z</time></trkpt><trkpt lat="43.0400223" lon="13.2902362"><ele>517.0</ele><time>2026-04-04T11:48:40.906Z</time></trkpt><trkpt lat="43.0400525" lon="13.290123"><ele>513.5</ele><time>2026-04-04T11:48:41.906Z</time></trkpt><trkpt lat="43.0400744" lon="13.2900248"><ele>510.0</ele><time>2026-04-04T11:48:42.907Z</time></trkpt><trkpt lat="43.0401213" lon="13.2899012"><ele>506.49999999999994</ele><time>2026-04-04T11:48:44.907Z</time></trkpt><trkpt lat="43.0401496" lon="13.289819"><ele>503.0</ele><time>2026-04-04T11:48:45.907Z</time></trkpt><trkpt lat="43.0402206" lon="13.289634"><ele>502.99999999999994</ele><time>2026-04-04T11:48:47.907Z</time></trkpt><trkpt lat="43.0402457" lon="13.2895529"><ele>503.0</ele><time>2026-04-04T11:48:48.906Z</time></trkpt><trkpt lat="43.0402835" lon="13.289456"><ele>503.0</ele><time>2026-04-04T11:48:49.906Z</time></trkpt><trkpt lat="43.0403319" lon="13.2893489"><ele>503.0</ele><time>2026-04-04T11:48:50.906Z</time></trkpt><trkpt lat="43.0403619" lon="13.289267"><ele>502.99999999999994</ele><time>2026-04-04T11:48:51.907Z</time></trkpt><trkpt lat="43.0403778" lon="13.2891472"><ele>503.0</ele><time>2026-04-04T11:48:52.906Z</time></trkpt><trkpt lat="43.0404202" lon="13.2890703"><ele>502.99999999999994</ele><time>2026-04-04T11:48:53.906Z</time></trkpt><trkpt lat="43.0404794" lon="13.2889799"><ele>503.0</ele><time>2026-04-04T11:48:54.907Z</time></trkpt><trkpt lat="43.0405321" lon="13.2888819"><ele>503.0</ele><time>2026-04-04T11:48:55.907Z</time></trkpt><trkpt lat="43.0405767" lon="13.2888076"><ele>503.0</ele><time>2026-04-04T11:48:56.907Z</time></trkpt><trkpt lat="43.0406257" lon="13.2887469"><ele>502.99999999999994</ele><time>2026-04-04T11:48:57.907Z</time></trkpt><trkpt lat="43.0406717" lon="13.2886687"><ele>503.0</ele><time>2026-04-04T11:48:58.907Z</time></trkpt><trkpt lat="43.0407391" lon="13.2885284"><ele>502.25</ele><time>2026-04-04T11:49:00.906Z</time></trkpt><trkpt lat="43.0408226" lon="13.2883656"><ele>501.5</ele><time>2026-04-04T11:49:02.907Z</time></trkpt><trkpt lat="43.0408806" lon="13.2882452"><ele>500.75</ele><time>2026-04-04T11:49:04.907Z</time></trkpt><trkpt lat="43.0409411" lon="13.2881354"><ele>500.0</ele><time>2026-04-04T11:49:06.907Z</time></trkpt><trkpt lat="43.0409945" lon="13.2880052"><ele>500.0</ele><time>2026-04-04T11:49:08.907Z</time></trkpt><trkpt lat="43.0410528" lon="13.2879106"><ele>500.0</ele><time>2026-04-04T11:49:10.906Z</time></trkpt><trkpt lat="43.0411" lon="13.2877885"><ele>500.0</ele><time>2026-04-04T11:49:12.906Z</time></trkpt><trkpt lat="43.0411566" lon="13.2876542"><ele>500.0</ele><time>2026-04-04T11:49:14.907Z</time></trkpt><trkpt lat="43.0412768" lon="13.2875548"><ele>500.0</ele><time>2026-04-04T11:49:16.906Z</time></trkpt><trkpt lat="43.04134" lon="13.287452"><ele>500.0</ele><time>2026-04-04T11:49:17.907Z</time></trkpt><trkpt lat="43.0413925" lon="13.287382"><ele>500.0</ele><time>2026-04-04T11:49:19.906Z</time></trkpt><trkpt lat="43.0414553" lon="13.2873493"><ele>500.0</ele><time>2026-04-04T11:49:20.906Z</time></trkpt><trkpt lat="43.0415583" lon="13.2872722"><ele>500.0</ele><time>2026-04-04T11:49:22.907Z</time></trkpt><trkpt lat="43.0416245" lon="13.2872221"><ele>500.0</ele><time>2026-04-04T11:49:23.907Z</time></trkpt><trkpt lat="43.0417528" lon="13.2871543"><ele>500.6</ele><time>2026-04-04T11:49:25.907Z</time></trkpt><trkpt lat="43.041818" lon="13.2871295"><ele>501.2</ele><time>2026-04-04T11:49:26.906Z</time></trkpt><trkpt lat="43.0419295" lon="13.2870818"><ele>501.79999999999995</ele><time>2026-04-04T11:49:28.907Z</time></trkpt><trkpt lat="43.0420445" lon="13.2870312"><ele>502.4</ele><time>2026-04-04T11:49:30.907Z</time></trkpt><trkpt lat="43.0421492" lon="13.2869819"><ele>503.0</ele><time>2026-04-04T11:49:32.906Z</time></trkpt><trkpt lat="43.0422615" lon="13.2869381"><ele>502.99999999999994</ele><time>2026-04-04T11:49:34.906Z</time></trkpt><trkpt lat="43.0423164" lon="13.2868948"><ele>503.0</ele><time>2026-04-04T11:49:35.907Z</time></trkpt><trkpt lat="43.0424221" lon="13.2868452"><ele>503.0</ele><time>2026-04-04T11:49:37.907Z</time></trkpt><trkpt lat="43.0425177" lon="13.2868135"><ele>503.0</ele><time>2026-04-04T11:49:39.907Z</time></trkpt><trkpt lat="43.0425855" lon="13.2867778"><ele>502.99999999999994</ele><time>2026-04-04T11:49:40.906Z</time></trkpt><trkpt lat="43.0426542" lon="13.2867407"><ele>503.0</ele><time>2026-04-04T11:49:41.907Z</time></trkpt><trkpt lat="43.0427504" lon="13.2866762"><ele>502.99999999999994</ele><time>2026-04-04T11:49:43.906Z</time></trkpt><trkpt lat="43.042807" lon="13.2866143"><ele>503.0</ele><time>2026-04-04T11:49:44.906Z</time></trkpt><trkpt lat="43.0428836" lon="13.2865089"><ele>503.0</ele><time>2026-04-04T11:49:46.906Z</time></trkpt><trkpt lat="43.0429267" lon="13.2864379"><ele>503.0</ele><time>2026-04-04T11:49:47.907Z</time></trkpt><trkpt lat="43.0429748" lon="13.2863651"><ele>502.99999999999994</ele><time>2026-04-04T11:49:48.906Z</time></trkpt><trkpt lat="43.0430608" lon="13.2862649"><ele>503.0</ele><time>2026-04-04T11:49:50.907Z</time></trkpt><trkpt lat="43.0431408" lon="13.2861583"><ele>503.0</ele><time>2026-04-04T11:49:52.907Z</time></trkpt><trkpt lat="43.0432224" lon="13.2860157"><ele>503.0</ele><time>2026-04-04T11:49:54.907Z</time></trkpt><trkpt lat="43.0433277" lon="13.2858904"><ele>503.0</ele><time>2026-04-04T11:49:56.907Z</time></trkpt><trkpt lat="43.0434031" lon="13.2857849"><ele>503.0</ele><time>2026-04-04T11:49:58.906Z</time></trkpt><trkpt lat="43.04344" lon="13.2856414"><ele>503.59999999999997</ele><time>2026-04-04T11:50:00.907Z</time></trkpt><trkpt lat="43.043481" lon="13.2855106"><ele>504.19999999999993</ele><time>2026-04-04T11:50:02.906Z</time></trkpt><trkpt lat="43.0435637" lon="13.2853154"><ele>504.8</ele><time>2026-04-04T11:50:04.907Z</time></trkpt><trkpt lat="43.0435988" lon="13.2852326"><ele>505.4</ele><time>2026-04-04T11:50:05.906Z</time></trkpt><trkpt lat="43.0436479" lon="13.2851209"><ele>506.0</ele><time>2026-04-04T11:50:07.906Z</time></trkpt><trkpt lat="43.0436773" lon="13.2849927"><ele>506.0</ele><time>2026-04-04T11:50:09.907Z</time></trkpt><trkpt lat="43.0437124" lon="13.2848952"><ele>506.0</ele><time>2026-04-04T11:50:10.907Z</time></trkpt><trkpt lat="43.0437978" lon="13.2848065"><ele>506.0</ele><time>2026-04-04T11:50:12.907Z</time></trkpt><trkpt lat="43.0438741" lon="13.2847108"><ele>506.0</ele><time>2026-04-04T11:50:14.907Z</time></trkpt><trkpt lat="43.0439361" lon="13.2846881"><ele>506.0</ele><time>2026-04-04T11:50:15.907Z</time></trkpt><trkpt lat="43.044031" lon="13.2845992"><ele>506.8</ele><time>2026-04-04T11:50:17.906Z</time></trkpt><trkpt lat="43.044119" lon="13.2844632"><ele>507.6</ele><time>2026-04-04T11:50:19.907Z</time></trkpt><trkpt lat="43.044159" lon="13.2843833"><ele>508.4</ele><time>2026-04-04T11:50:20.907Z</time></trkpt><trkpt lat="43.0442449" lon="13.2843006"><ele>509.2</ele><time>2026-04-04T11:50:22.907Z</time></trkpt><trkpt lat="43.0443433" lon="13.2842205"><ele>510.0</ele><time>2026-04-04T11:50:24.907Z</time></trkpt><trkpt lat="43.0443923" lon="13.2841602"><ele>510.0</ele><time>2026-04-04T11:50:25.907Z</time></trkpt><trkpt lat="43.0444714" lon="13.2840789"><ele>510.0</ele><time>2026-04-04T11:50:27.906Z</time></trkpt><trkpt lat="43.0445618" lon="13.2839493"><ele>510.0</ele><time>2026-04-04T11:50:29.907Z</time></trkpt><trkpt lat="43.0446596" lon="13.2838932"><ele>510.0</ele><time>2026-04-04T11:50:31.907Z</time></trkpt><trkpt lat="43.0447509" lon="13.2838068"><ele>510.0</ele><time>2026-04-04T11:50:33.907Z</time></trkpt><trkpt lat="43.0448042" lon="13.2837109"><ele>511.2</ele><time>2026-04-04T11:50:35.907Z</time></trkpt><trkpt lat="43.0448619" lon="13.2836622"><ele>512.4</ele><time>2026-04-04T11:50:36.907Z</time></trkpt><trkpt lat="43.0449742" lon="13.2836246"><ele>513.6</ele><time>2026-04-04T11:50:38.907Z</time></trkpt><trkpt lat="43.0450797" lon="13.2835386"><ele>514.8</ele><time>2026-04-04T11:50:40.906Z</time></trkpt><trkpt lat="43.0451713" lon="13.2834777"><ele>516.0</ele><time>2026-04-04T11:50:42.907Z</time></trkpt><trkpt lat="43.0452853" lon="13.2834219"><ele>512.5</ele><time>2026-04-04T11:50:44.907Z</time></trkpt><trkpt lat="43.0453956" lon="13.2833755"><ele>509.0</ele><time>2026-04-04T11:50:46.907Z</time></trkpt><trkpt lat="43.045503" lon="13.2833119"><ele>505.5</ele><time>2026-04-04T11:50:48.906Z</time></trkpt><trkpt lat="43.0455989" lon="13.2832413"><ele>502.0</ele><time>2026-04-04T11:50:50.907Z</time></trkpt><trkpt lat="43.0457124" lon="13.2831851"><ele>502.0</ele><time>2026-04-04T11:50:52.906Z</time></trkpt><trkpt lat="43.0457785" lon="13.2831475"><ele>502.0</ele><time>2026-04-04T11:50:53.907Z</time></trkpt><trkpt lat="43.0458759" lon="13.2830662"><ele>502.0</ele><time>2026-04-04T11:50:55.907Z</time></trkpt><trkpt lat="43.0459681" lon="13.2829546"><ele>502.0</ele><time>2026-04-04T11:50:57.906Z</time></trkpt><trkpt lat="43.0460549" lon="13.2828021"><ele>502.6</ele><time>2026-04-04T11:50:59.907Z</time></trkpt><trkpt lat="43.0461269" lon="13.2827079"><ele>503.20000000000005</ele><time>2026-04-04T11:51:01.907Z</time></trkpt><trkpt lat="43.0462131" lon="13.2825926"><ele>503.8</ele><time>2026-04-04T11:51:03.907Z</time></trkpt><trkpt lat="43.0462842" lon="13.2824681"><ele>504.4</ele><time>2026-04-04T11:51:05.907Z</time></trkpt><trkpt lat="43.0463389" lon="13.2823854"><ele>505.0</ele><time>2026-04-04T11:51:06.907Z</time></trkpt><trkpt lat="43.0463883" lon="13.2823071"><ele>504.25</ele><time>2026-04-04T11:51:07.907Z</time></trkpt><trkpt lat="43.0464783" lon="13.2821761"><ele>503.5</ele><time>2026-04-04T11:51:09.907Z</time></trkpt><trkpt lat="43.0465666" lon="13.2821218"><ele>502.75</ele><time>2026-04-04T11:51:11.907Z</time></trkpt><trkpt lat="43.0466687" lon="13.282062"><ele>502.0</ele><time>2026-04-04T11:51:13.907Z</time></trkpt><trkpt lat="43.0467919" lon="13.2820669"><ele>504.40000000000003</ele><time>2026-04-04T11:51:15.906Z</time></trkpt><trkpt lat="43.0468536" lon="13.2820401"><ele>506.80000000000007</ele><time>2026-04-04T11:51:16.907Z</time></trkpt><trkpt lat="43.046964" lon="13.282021"><ele>509.2</ele><time>2026-04-04T11:51:18.907Z</time></trkpt><trkpt lat="43.047067" lon="13.2819937"><ele>511.6</ele><time>2026-04-04T11:51:20.906Z</time></trkpt><trkpt lat="43.04716" lon="13.2819433"><ele>514.0</ele><time>2026-04-04T11:51:22.906Z</time></trkpt><trkpt lat="43.0472245" lon="13.2818945"><ele>514.0</ele><time>2026-04-04T11:51:24.907Z</time></trkpt><trkpt lat="43.0473081" lon="13.2818369"><ele>514.0</ele><time>2026-04-04T11:51:26.907Z</time></trkpt><trkpt lat="43.0473889" lon="13.2818779"><ele>514.0</ele><time>2026-04-04T11:51:27.907Z</time></trkpt><trkpt lat="43.0474939" lon="13.2818468"><ele>514.0</ele><time>2026-04-04T11:51:29.907Z</time></trkpt><trkpt lat="43.0475952" lon="13.2818375"><ele>514.0</ele><time>2026-04-04T11:51:31.907Z</time></trkpt><trkpt lat="43.0476979" lon="13.2818068"><ele>514.6</ele><time>2026-04-04T11:51:33.907Z</time></trkpt><trkpt lat="43.0478057" lon="13.2817571"><ele>515.2</ele><time>2026-04-04T11:51:35.907Z</time></trkpt><trkpt lat="43.047898" lon="13.2816918"><ele>515.8000000000001</ele><time>2026-04-04T11:51:37.906Z</time></trkpt><trkpt lat="43.0479888" lon="13.281615"><ele>516.4</ele><time>2026-04-04T11:51:39.906Z</time></trkpt><trkpt lat="43.0480788" lon="13.2815349"><ele>517.0</ele><time>2026-04-04T11:51:41.907Z</time></trkpt><trkpt lat="43.0481614" lon="13.2814563"><ele>518.0</ele><time>2026-04-04T11:51:43.907Z</time></trkpt><trkpt lat="43.0482306" lon="13.2813804"><ele>519.0</ele><time>2026-04-04T11:51:44.907Z</time></trkpt><trkpt lat="43.0483091" lon="13.2813127"><ele>520.0</ele><time>2026-04-04T11:51:46.907Z</time></trkpt><trkpt lat="43.0484064" lon="13.2812368"><ele>521.0</ele><time>2026-04-04T11:51:48.907Z</time></trkpt><trkpt lat="43.0484485" lon="13.2811395"><ele>522.0</ele><time>2026-04-04T11:51:49.907Z</time></trkpt><trkpt lat="43.0485195" lon="13.2810212"><ele>522.0</ele><time>2026-04-04T11:51:51.907Z</time></trkpt><trkpt lat="43.0485593" lon="13.2809495"><ele>522.0</ele><time>2026-04-04T11:51:52.906Z</time></trkpt><trkpt lat="43.0486171" lon="13.280858"><ele>522.0</ele><time>2026-04-04T11:51:54.906Z</time></trkpt><trkpt lat="43.0486721" lon="13.280733"><ele>522.0</ele><time>2026-04-04T11:51:56.907Z</time></trkpt><trkpt lat="43.0487124" lon="13.2806328"><ele>522.0</ele><time>2026-04-04T11:51:58.907Z</time></trkpt><trkpt lat="43.0487584" lon="13.2804946"><ele>522.6</ele><time>2026-04-04T11:52:00.906Z</time></trkpt><trkpt lat="43.0487947" lon="13.2803567"><ele>523.2</ele><time>2026-04-04T11:52:02.907Z</time></trkpt><trkpt lat="43.0488133" lon="13.2802094"><ele>523.8</ele><time>2026-04-04T11:52:04.907Z</time></trkpt><trkpt lat="43.0488134" lon="13.2800639"><ele>524.4</ele><time>2026-04-04T11:52:06.907Z</time></trkpt><trkpt lat="43.0488058" lon="13.2799213"><ele>525.0</ele><time>2026-04-04T11:52:08.906Z</time></trkpt><trkpt lat="43.0487691" lon="13.2797867"><ele>526.6</ele><time>2026-04-04T11:52:10.907Z</time></trkpt><trkpt lat="43.0487284" lon="13.2796313"><ele>528.2</ele><time>2026-04-04T11:52:12.907Z</time></trkpt><trkpt lat="43.0487003" lon="13.2794954"><ele>529.8</ele><time>2026-04-04T11:52:14.906Z</time></trkpt><trkpt lat="43.048676" lon="13.2794127"><ele>531.4</ele><time>2026-04-04T11:52:15.907Z</time></trkpt><trkpt lat="43.0486273" lon="13.2792649"><ele>533.0</ele><time>2026-04-04T11:52:17.907Z</time></trkpt><trkpt lat="43.04861" lon="13.2791088"><ele>533.5</ele><time>2026-04-04T11:52:19.907Z</time></trkpt><trkpt lat="43.0485962" lon="13.2789184"><ele>534.0</ele><time>2026-04-04T11:52:21.907Z</time></trkpt><trkpt lat="43.0485732" lon="13.278783"><ele>534.5</ele><time>2026-04-04T11:52:23.907Z</time></trkpt><trkpt lat="43.0486125" lon="13.2786465"><ele>535.0</ele><time>2026-04-04T11:52:25.907Z</time></trkpt><trkpt lat="43.0485943" lon="13.2784915"><ele>535.0</ele><time>2026-04-04T11:52:27.906Z</time></trkpt><trkpt lat="43.0486066" lon="13.27834"><ele>535.0</ele><time>2026-04-04T11:52:29.907Z</time></trkpt><trkpt lat="43.0486654" lon="13.2781681"><ele>535.0</ele><time>2026-04-04T11:52:31.906Z</time></trkpt><trkpt lat="43.0487369" lon="13.2780374"><ele>535.0</ele><time>2026-04-04T11:52:33.907Z</time></trkpt><trkpt lat="43.0487971" lon="13.2779151"><ele>535.25</ele><time>2026-04-04T11:52:35.906Z</time></trkpt><trkpt lat="43.0488741" lon="13.2777535"><ele>535.5</ele><time>2026-04-04T11:52:37.907Z</time></trkpt><trkpt lat="43.0489481" lon="13.2776516"><ele>535.75</ele><time>2026-04-04T11:52:39.907Z</time></trkpt><trkpt lat="43.0490169" lon="13.2775332"><ele>536.0</ele><time>2026-04-04T11:52:41.906Z</time></trkpt><trkpt lat="43.0491017" lon="13.2774158"><ele>536.2</ele><time>2026-04-04T11:52:43.907Z</time></trkpt><trkpt lat="43.0491486" lon="13.2773569"><ele>536.4000000000001</ele><time>2026-04-04T11:52:44.907Z</time></trkpt><trkpt lat="43.0492338" lon="13.2772344"><ele>536.6</ele><time>2026-04-04T11:52:46.907Z</time></trkpt><trkpt lat="43.0493137" lon="13.2771176"><ele>536.8000000000001</ele><time>2026-04-04T11:52:48.906Z</time></trkpt><trkpt lat="43.0493594" lon="13.2770582"><ele>537.0</ele><time>2026-04-04T11:52:49.907Z</time></trkpt><trkpt lat="43.0494374" lon="13.2769437"><ele>536.4</ele><time>2026-04-04T11:52:51.906Z</time></trkpt><trkpt lat="43.0495213" lon="13.2768419"><ele>535.8000000000001</ele><time>2026-04-04T11:52:53.907Z</time></trkpt><trkpt lat="43.0496009" lon="13.2767372"><ele>535.2</ele><time>2026-04-04T11:52:55.907Z</time></trkpt><trkpt lat="43.0496817" lon="13.2766388"><ele>534.6</ele><time>2026-04-04T11:52:57.907Z</time></trkpt><trkpt lat="43.0497538" lon="13.276539"><ele>534.0</ele><time>2026-04-04T11:52:59.907Z</time></trkpt><trkpt lat="43.0498219" lon="13.2764363"><ele>534.0</ele><time>2026-04-04T11:53:01.907Z</time></trkpt><trkpt lat="43.0499026" lon="13.2763716"><ele>534.0</ele><time>2026-04-04T11:53:03.907Z</time></trkpt><trkpt lat="43.0499837" lon="13.2762724"><ele>534.0</ele><time>2026-04-04T11:53:05.907Z</time></trkpt><trkpt lat="43.050068" lon="13.2761781"><ele>534.0</ele><time>2026-04-04T11:53:07.907Z</time></trkpt><trkpt lat="43.0501463" lon="13.2760729"><ele>534.0</ele><time>2026-04-04T11:53:09.907Z</time></trkpt><trkpt lat="43.0502335" lon="13.2758772"><ele>534.6</ele><time>2026-04-04T11:53:11.906Z</time></trkpt><trkpt lat="43.0502737" lon="13.2757965"><ele>535.2</ele><time>2026-04-04T11:53:12.907Z</time></trkpt><trkpt lat="43.0503397" lon="13.2757061"><ele>535.8000000000001</ele><time>2026-04-04T11:53:14.907Z</time></trkpt><trkpt lat="43.0504312" lon="13.2756081"><ele>536.4</ele><time>2026-04-04T11:53:16.907Z</time></trkpt><trkpt lat="43.0505057" lon="13.2755239"><ele>537.0</ele><time>2026-04-04T11:53:18.907Z</time></trkpt><trkpt lat="43.0505705" lon="13.2754144"><ele>537.2</ele><time>2026-04-04T11:53:20.907Z</time></trkpt><trkpt lat="43.0506445" lon="13.2753269"><ele>537.4000000000001</ele><time>2026-04-04T11:53:22.907Z</time></trkpt><trkpt lat="43.0507188" lon="13.2752653"><ele>537.5999999999999</ele><time>2026-04-04T11:53:24.907Z</time></trkpt><trkpt lat="43.0507674" lon="13.2751714"><ele>537.8</ele><time>2026-04-04T11:53:25.907Z</time></trkpt><trkpt lat="43.0508288" lon="13.2750755"><ele>538.0</ele><time>2026-04-04T11:53:27.906Z</time></trkpt><trkpt lat="43.0508925" lon="13.2749862"><ele>538.3333333333334</ele><time>2026-04-04T11:53:29.907Z</time></trkpt><trkpt lat="43.0509097" lon="13.2748728"><ele>538.6666666666667</ele><time>2026-04-04T11:53:31.907Z</time></trkpt><trkpt lat="43.0510047" lon="13.2748351"><ele>539.0</ele><time>2026-04-04T11:53:33.906Z</time></trkpt><trkpt lat="43.0510667" lon="13.2747485"><ele>539.3333333333334</ele><time>2026-04-04T11:53:35.906Z</time></trkpt><trkpt lat="43.0511048" lon="13.2746665"><ele>539.6666666666666</ele><time>2026-04-04T11:53:36.907Z</time></trkpt><trkpt lat="43.0511543" lon="13.2745806"><ele>540.0</ele><time>2026-04-04T11:53:38.906Z</time></trkpt><trkpt lat="43.051185" lon="13.2744949"><ele>540.0</ele><time>2026-04-04T11:53:40.906Z</time></trkpt><trkpt lat="43.0512175" lon="13.2743735"><ele>540.0</ele><time>2026-04-04T11:53:42.907Z</time></trkpt><trkpt lat="43.0512464" lon="13.274229"><ele>540.0</ele><time>2026-04-04T11:53:44.906Z</time></trkpt><trkpt lat="43.0512672" lon="13.2740935"><ele>540.0</ele><time>2026-04-04T11:53:46.907Z</time></trkpt><trkpt lat="43.0513075" lon="13.2739438"><ele>540.0</ele><time>2026-04-04T11:53:48.906Z</time></trkpt><trkpt lat="43.0513531" lon="13.2737989"><ele>540.25</ele><time>2026-04-04T11:53:50.906Z</time></trkpt><trkpt lat="43.0514033" lon="13.2736672"><ele>540.5</ele><time>2026-04-04T11:53:52.907Z</time></trkpt><trkpt lat="43.0514578" lon="13.2735157"><ele>540.75</ele><time>2026-04-04T11:53:54.907Z</time></trkpt><trkpt lat="43.0515391" lon="13.2733983"><ele>541.0</ele><time>2026-04-04T11:53:56.907Z</time></trkpt><trkpt lat="43.05165" lon="13.2732707"><ele>541.2</ele><time>2026-04-04T11:53:58.906Z</time></trkpt><trkpt lat="43.0517366" lon="13.2732103"><ele>541.4000000000001</ele><time>2026-04-04T11:54:00.906Z</time></trkpt><trkpt lat="43.0518395" lon="13.2731357"><ele>541.6</ele><time>2026-04-04T11:54:02.906Z</time></trkpt><trkpt lat="43.0519096" lon="13.2731166"><ele>541.8000000000001</ele><time>2026-04-04T11:54:03.907Z</time></trkpt><trkpt lat="43.0519724" lon="13.2730765"><ele>542.0</ele><time>2026-04-04T11:54:04.907Z</time></trkpt><trkpt lat="43.0520857" lon="13.2730459"><ele>541.8000000000001</ele><time>2026-04-04T11:54:06.907Z</time></trkpt><trkpt lat="43.0521476" lon="13.2730043"><ele>541.6</ele><time>2026-04-04T11:54:07.906Z</time></trkpt><trkpt lat="43.0522556" lon="13.272955"><ele>541.4000000000001</ele><time>2026-04-04T11:54:09.907Z</time></trkpt><trkpt lat="43.052316" lon="13.2729286"><ele>541.2</ele><time>2026-04-04T11:54:10.907Z</time></trkpt><trkpt lat="43.052432" lon="13.2728816"><ele>541.0</ele><time>2026-04-04T11:54:12.907Z</time></trkpt><trkpt lat="43.0525528" lon="13.2728047"><ele>541.0</ele><time>2026-04-04T11:54:14.906Z</time></trkpt><trkpt lat="43.0526145" lon="13.2727702"><ele>541.0</ele><time>2026-04-04T11:54:15.907Z</time></trkpt><trkpt lat="43.0526786" lon="13.2727397"><ele>541.0</ele><time>2026-04-04T11:54:16.907Z</time></trkpt><trkpt lat="43.0527478" lon="13.2727198"><ele>541.0</ele><time>2026-04-04T11:54:17.906Z</time></trkpt><trkpt lat="43.0528106" lon="13.2726675"><ele>541.0</ele><time>2026-04-04T11:54:18.906Z</time></trkpt><trkpt lat="43.0528802" lon="13.2726601"><ele>541.0</ele><time>2026-04-04T11:54:19.907Z</time></trkpt><trkpt lat="43.0530063" lon="13.2725982"><ele>541.0000000000001</ele><time>2026-04-04T11:54:21.906Z</time></trkpt><trkpt lat="43.0530593" lon="13.2725441"><ele>541.0</ele><time>2026-04-04T11:54:22.907Z</time></trkpt><trkpt lat="43.0531242" lon="13.272524"><ele>541.0</ele><time>2026-04-04T11:54:23.907Z</time></trkpt><trkpt lat="43.0531817" lon="13.272482"><ele>541.0</ele><time>2026-04-04T11:54:24.907Z</time></trkpt><trkpt lat="43.0532425" lon="13.2724535"><ele>541.0</ele><time>2026-04-04T11:54:25.907Z</time></trkpt><trkpt lat="43.0533024" lon="13.2724242"><ele>541.0000000000001</ele><time>2026-04-04T11:54:26.907Z</time></trkpt><trkpt lat="43.0534119" lon="13.2724"><ele>541.0</ele><time>2026-04-04T11:54:28.907Z</time></trkpt><trkpt lat="43.0534749" lon="13.2724016"><ele>540.8</ele><time>2026-04-04T11:54:29.907Z</time></trkpt><trkpt lat="43.0535759" lon="13.2724005"><ele>540.6</ele><time>2026-04-04T11:54:31.907Z</time></trkpt><trkpt lat="43.053665" lon="13.2724399"><ele>540.4</ele><time>2026-04-04T11:54:33.906Z</time></trkpt><trkpt lat="43.0537485" lon="13.2724701"><ele>540.2</ele><time>2026-04-04T11:54:35.906Z</time></trkpt><trkpt lat="43.0538628" lon="13.2725106"><ele>540.0</ele><time>2026-04-04T11:54:37.906Z</time></trkpt><trkpt lat="43.0539267" lon="13.2725544"><ele>540.0</ele><time>2026-04-04T11:54:38.906Z</time></trkpt><trkpt lat="43.054038" lon="13.2726618"><ele>540.0</ele><time>2026-04-04T11:54:39.907Z</time></trkpt><trkpt lat="43.054142" lon="13.2727765"><ele>540.0</ele><time>2026-04-04T11:54:41.907Z</time></trkpt><trkpt lat="43.0542001" lon="13.2728278"><ele>540.0</ele><time>2026-04-04T11:54:42.906Z</time></trkpt><trkpt lat="43.0542659" lon="13.2728671"><ele>540.0</ele><time>2026-04-04T11:54:43.907Z</time></trkpt><trkpt lat="43.0542916" lon="13.272948"><ele>540.0</ele><time>2026-04-04T11:54:44.907Z</time></trkpt><trkpt lat="43.0543745" lon="13.2730722"><ele>540.0</ele><time>2026-04-04T11:54:46.906Z</time></trkpt><trkpt lat="43.0544157" lon="13.2731384"><ele>540.0</ele><time>2026-04-04T11:54:47.907Z</time></trkpt><trkpt lat="43.0544725" lon="13.2732629"><ele>540.0</ele><time>2026-04-04T11:54:49.907Z</time></trkpt><trkpt lat="43.0545597" lon="13.2733967"><ele>540.0</ele><time>2026-04-04T11:54:51.907Z</time></trkpt><trkpt lat="43.0546172" lon="13.2734714"><ele>539.8571428571429</ele><time>2026-04-04T11:54:52.906Z</time></trkpt><trkpt lat="43.0546616" lon="13.2735416"><ele>539.7142857142857</ele><time>2026-04-04T11:54:53.907Z</time></trkpt><trkpt lat="43.0547123" lon="13.2736126"><ele>539.5714285714286</ele><time>2026-04-04T11:54:54.906Z</time></trkpt><trkpt lat="43.0547631" lon="13.2736837"><ele>539.4285714285714</ele><time>2026-04-04T11:54:55.906Z</time></trkpt><trkpt lat="43.0548255" lon="13.2737476"><ele>539.2857142857142</ele><time>2026-04-04T11:54:56.906Z</time></trkpt><trkpt lat="43.0548829" lon="13.2738053"><ele>539.1428571428571</ele><time>2026-04-04T11:54:57.906Z</time></trkpt><trkpt lat="43.0549477" lon="13.2738567"><ele>539.0</ele><time>2026-04-04T11:54:58.906Z</time></trkpt><trkpt lat="43.0549996" lon="13.2739173"><ele>538.1428571428571</ele><time>2026-04-04T11:54:59.907Z</time></trkpt><trkpt lat="43.0550595" lon="13.2739809"><ele>537.2857142857142</ele><time>2026-04-04T11:55:00.906Z</time></trkpt><trkpt lat="43.0551205" lon="13.2740466"><ele>536.4285714285714</ele><time>2026-04-04T11:55:01.906Z</time></trkpt><trkpt lat="43.0551827" lon="13.2741062"><ele>535.5714285714286</ele><time>2026-04-04T11:55:02.907Z</time></trkpt><trkpt lat="43.055236" lon="13.2741682"><ele>534.7142857142857</ele><time>2026-04-04T11:55:03.906Z</time></trkpt><trkpt lat="43.055286" lon="13.2742309"><ele>533.8571428571429</ele><time>2026-04-04T11:55:04.907Z</time></trkpt><trkpt lat="43.055353" lon="13.2742842"><ele>533.0</ele><time>2026-04-04T11:55:05.906Z</time></trkpt><trkpt lat="43.0554064" lon="13.2743373"><ele>533.0</ele><time>2026-04-04T11:55:06.907Z</time></trkpt><trkpt lat="43.0554548" lon="13.2744022"><ele>533.0</ele><time>2026-04-04T11:55:07.906Z</time></trkpt><trkpt lat="43.0555581" lon="13.2745072"><ele>533.0</ele><time>2026-04-04T11:55:09.907Z</time></trkpt><trkpt lat="43.0556548" lon="13.274617"><ele>533.0</ele><time>2026-04-04T11:55:11.907Z</time></trkpt><trkpt lat="43.05571" lon="13.2746652"><ele>533.0</ele><time>2026-04-04T11:55:12.906Z</time></trkpt><trkpt lat="43.0558153" lon="13.2747195"><ele>532.4285714285714</ele><time>2026-04-04T11:55:13.907Z</time></trkpt><trkpt lat="43.0558711" lon="13.2747719"><ele>531.8571428571428</ele><time>2026-04-04T11:55:14.907Z</time></trkpt><trkpt lat="43.0559325" lon="13.2748248"><ele>531.2857142857142</ele><time>2026-04-04T11:55:15.907Z</time></trkpt><trkpt lat="43.0559884" lon="13.2748814"><ele>530.7142857142857</ele><time>2026-04-04T11:55:16.907Z</time></trkpt><trkpt lat="43.0560396" lon="13.2749387"><ele>530.1428571428571</ele><time>2026-04-04T11:55:17.906Z</time></trkpt><trkpt lat="43.0560945" lon="13.2749912"><ele>529.5714285714286</ele><time>2026-04-04T11:55:18.907Z</time></trkpt><trkpt lat="43.0561519" lon="13.2750421"><ele>529.0</ele><time>2026-04-04T11:55:19.906Z</time></trkpt><trkpt lat="43.0562835" lon="13.2751261"><ele>529.0</ele><time>2026-04-04T11:55:21.907Z</time></trkpt><trkpt lat="43.056344" lon="13.2751669"><ele>529.0</ele><time>2026-04-04T11:55:22.906Z</time></trkpt><trkpt lat="43.056413" lon="13.2752194"><ele>529.0</ele><time>2026-04-04T11:55:23.907Z</time></trkpt><trkpt lat="43.0564758" lon="13.2752679"><ele>529.0</ele><time>2026-04-04T11:55:24.907Z</time></trkpt><trkpt lat="43.056583" lon="13.2753411"><ele>529.0</ele><time>2026-04-04T11:55:26.907Z</time></trkpt><trkpt lat="43.0566839" lon="13.2754215"><ele>528.3333333333334</ele><time>2026-04-04T11:55:28.906Z</time></trkpt><trkpt lat="43.0567818" lon="13.2754792"><ele>527.6666666666667</ele><time>2026-04-04T11:55:30.907Z</time></trkpt><trkpt lat="43.0568631" lon="13.275512"><ele>527.0</ele><time>2026-04-04T11:55:31.907Z</time></trkpt><trkpt lat="43.0569352" lon="13.2755383"><ele>526.3333333333334</ele><time>2026-04-04T11:55:32.906Z</time></trkpt><trkpt lat="43.0570373" lon="13.2756214"><ele>525.6666666666666</ele><time>2026-04-04T11:55:34.906Z</time></trkpt><trkpt lat="43.0570938" lon="13.275662"><ele>525.0</ele><time>2026-04-04T11:55:35.906Z</time></trkpt><trkpt lat="43.0571986" lon="13.2757156"><ele>525.0</ele><time>2026-04-04T11:55:37.907Z</time></trkpt><trkpt lat="43.0572673" lon="13.2757458"><ele>525.0</ele><time>2026-04-04T11:55:38.907Z</time></trkpt><trkpt lat="43.0573875" lon="13.2758151"><ele>525.0</ele><time>2026-04-04T11:55:40.907Z</time></trkpt><trkpt lat="43.05745" lon="13.2758587"><ele>525.0</ele><time>2026-04-04T11:55:41.907Z</time></trkpt><trkpt lat="43.0575442" lon="13.2758885"><ele>525.0</ele><time>2026-04-04T11:55:42.906Z</time></trkpt><trkpt lat="43.0576112" lon="13.2759045"><ele>525.0</ele><time>2026-04-04T11:55:43.907Z</time></trkpt><trkpt lat="43.0577257" lon="13.2759122"><ele>525.5</ele><time>2026-04-04T11:55:45.907Z</time></trkpt><trkpt lat="43.0577895" lon="13.2759214"><ele>526.0</ele><time>2026-04-04T11:55:46.906Z</time></trkpt><trkpt lat="43.0578558" lon="13.2759189"><ele>526.5</ele><time>2026-04-04T11:55:47.907Z</time></trkpt><trkpt lat="43.0579724" lon="13.2759253"><ele>527.0</ele><time>2026-04-04T11:55:49.907Z</time></trkpt><trkpt lat="43.0580425" lon="13.2759299"><ele>527.5</ele><time>2026-04-04T11:55:50.907Z</time></trkpt><trkpt lat="43.0581124" lon="13.2759034"><ele>528.0</ele><time>2026-04-04T11:55:51.906Z</time></trkpt><trkpt lat="43.0582337" lon="13.2758664"><ele>527.6666666666666</ele><time>2026-04-04T11:55:53.907Z</time></trkpt><trkpt lat="43.0582982" lon="13.2758439"><ele>527.3333333333334</ele><time>2026-04-04T11:55:54.907Z</time></trkpt><trkpt lat="43.0583613" lon="13.2758265"><ele>527.0</ele><time>2026-04-04T11:55:55.907Z</time></trkpt><trkpt lat="43.0584891" lon="13.2757895"><ele>526.6666666666667</ele><time>2026-04-04T11:55:57.906Z</time></trkpt><trkpt lat="43.0585638" lon="13.275751"><ele>526.3333333333334</ele><time>2026-04-04T11:55:58.907Z</time></trkpt><trkpt lat="43.0586327" lon="13.2757243"><ele>526.0</ele><time>2026-04-04T11:55:59.907Z</time></trkpt><trkpt lat="43.0586999" lon="13.2757167"><ele>526.0</ele><time>2026-04-04T11:56:00.906Z</time></trkpt><trkpt lat="43.058767" lon="13.2756894"><ele>526.0</ele><time>2026-04-04T11:56:01.907Z</time></trkpt><trkpt lat="43.0588925" lon="13.2756661"><ele>526.0</ele><time>2026-04-04T11:56:03.906Z</time></trkpt><trkpt lat="43.0589556" lon="13.2756365"><ele>526.0</ele><time>2026-04-04T11:56:04.907Z</time></trkpt><trkpt lat="43.059022" lon="13.2756293"><ele>526.0</ele><time>2026-04-04T11:56:05.907Z</time></trkpt><trkpt lat="43.0590926" lon="13.2756004"><ele>526.0</ele><time>2026-04-04T11:56:06.907Z</time></trkpt><trkpt lat="43.059173" lon="13.2754714"><ele>526.5</ele><time>2026-04-04T11:56:07.906Z</time></trkpt><trkpt lat="43.0592405" lon="13.2754526"><ele>527.0</ele><time>2026-04-04T11:56:08.907Z</time></trkpt><trkpt lat="43.0593735" lon="13.2754049"><ele>527.5</ele><time>2026-04-04T11:56:10.907Z</time></trkpt><trkpt lat="43.059439" lon="13.2753744"><ele>528.0</ele><time>2026-04-04T11:56:11.907Z</time></trkpt><trkpt lat="43.0595066" lon="13.2753499"><ele>528.5</ele><time>2026-04-04T11:56:12.907Z</time></trkpt><trkpt lat="43.0595804" lon="13.2753392"><ele>529.0</ele><time>2026-04-04T11:56:13.907Z</time></trkpt><trkpt lat="43.0596541" lon="13.2753026"><ele>529.0</ele><time>2026-04-04T11:56:14.907Z</time></trkpt><trkpt lat="43.0597201" lon="13.2752776"><ele>529.0</ele><time>2026-04-04T11:56:15.907Z</time></trkpt><trkpt lat="43.05979" lon="13.2752533"><ele>529.0</ele><time>2026-04-04T11:56:16.906Z</time></trkpt><trkpt lat="43.0598617" lon="13.2752267"><ele>529.0</ele><time>2026-04-04T11:56:17.906Z</time></trkpt><trkpt lat="43.0599314" lon="13.2752402"><ele>529.0</ele><time>2026-04-04T11:56:18.907Z</time></trkpt><trkpt lat="43.0599972" lon="13.2752152"><ele>529.0</ele><time>2026-04-04T11:56:19.906Z</time></trkpt><trkpt lat="43.0600869" lon="13.2751455"><ele>527.4</ele><time>2026-04-04T11:56:20.907Z</time></trkpt><trkpt lat="43.0601578" lon="13.2751217"><ele>525.8</ele><time>2026-04-04T11:56:21.906Z</time></trkpt><trkpt lat="43.0602052" lon="13.2751826"><ele>524.2</ele><time>2026-04-04T11:56:22.906Z</time></trkpt><trkpt lat="43.0603253" lon="13.2751905"><ele>522.6</ele><time>2026-04-04T11:56:24.906Z</time></trkpt><trkpt lat="43.060428" lon="13.2750689"><ele>521.0</ele><time>2026-04-04T11:56:25.907Z</time></trkpt><trkpt lat="43.0605003" lon="13.2750289"><ele>521.0</ele><time>2026-04-04T11:56:26.907Z</time></trkpt><trkpt lat="43.0605724" lon="13.2749969"><ele>521.0</ele><time>2026-04-04T11:56:27.907Z</time></trkpt><trkpt lat="43.0606471" lon="13.2749692"><ele>521.0</ele><time>2026-04-04T11:56:28.906Z</time></trkpt><trkpt lat="43.060711" lon="13.2749679"><ele>521.0</ele><time>2026-04-04T11:56:29.907Z</time></trkpt><trkpt lat="43.0608067" lon="13.2749383"><ele>521.0</ele><time>2026-04-04T11:56:30.907Z</time></trkpt><trkpt lat="43.0608888" lon="13.2749245"><ele>521.0</ele><time>2026-04-04T11:56:31.907Z</time></trkpt><trkpt lat="43.0609684" lon="13.2749091"><ele>520.2</ele><time>2026-04-04T11:56:32.907Z</time></trkpt><trkpt lat="43.0610464" lon="13.274897"><ele>519.4000000000001</ele><time>2026-04-04T11:56:33.907Z</time></trkpt><trkpt lat="43.0611775" lon="13.2748662"><ele>518.6</ele><time>2026-04-04T11:56:35.907Z</time></trkpt><trkpt lat="43.0613277" lon="13.2748497"><ele>517.8000000000001</ele><time>2026-04-04T11:56:37.907Z</time></trkpt><trkpt lat="43.061396" lon="13.2748374"><ele>517.0</ele><time>2026-04-04T11:56:38.907Z</time></trkpt><trkpt lat="43.061466" lon="13.2748271"><ele>517.0</ele><time>2026-04-04T11:56:39.907Z</time></trkpt><trkpt lat="43.0615936" lon="13.274846"><ele>517.0</ele><time>2026-04-04T11:56:41.907Z</time></trkpt><trkpt lat="43.0616594" lon="13.2748566"><ele>517.0</ele><time>2026-04-04T11:56:42.906Z</time></trkpt><trkpt lat="43.0617279" lon="13.274858"><ele>517.0</ele><time>2026-04-04T11:56:43.906Z</time></trkpt><trkpt lat="43.0617966" lon="13.2748579"><ele>517.0</ele><time>2026-04-04T11:56:44.907Z</time></trkpt><trkpt lat="43.0618816" lon="13.2748423"><ele>517.0</ele><time>2026-04-04T11:56:45.907Z</time></trkpt><trkpt lat="43.0619512" lon="13.27484"><ele>516.5714285714286</ele><time>2026-04-04T11:56:46.907Z</time></trkpt><trkpt lat="43.0620257" lon="13.2748377"><ele>516.1428571428572</ele><time>2026-04-04T11:56:47.907Z</time></trkpt><trkpt lat="43.0620903" lon="13.274835"><ele>515.7142857142858</ele><time>2026-04-04T11:56:48.906Z</time></trkpt><trkpt lat="43.0621601" lon="13.2748536"><ele>515.2857142857143</ele><time>2026-04-04T11:56:49.907Z</time></trkpt><trkpt lat="43.0622279" lon="13.2748643"><ele>514.8571428571429</ele><time>2026-04-04T11:56:50.907Z</time></trkpt><trkpt lat="43.0622999" lon="13.2748538"><ele>514.4285714285714</ele><time>2026-04-04T11:56:51.907Z</time></trkpt><trkpt lat="43.0623802" lon="13.2748556"><ele>514.0</ele><time>2026-04-04T11:56:52.906Z</time></trkpt><trkpt lat="43.0624516" lon="13.2748671"><ele>513.3333333333334</ele><time>2026-04-04T11:56:53.907Z</time></trkpt><trkpt lat="43.0625155" lon="13.2748744"><ele>512.6666666666667</ele><time>2026-04-04T11:56:54.906Z</time></trkpt><trkpt lat="43.0625885" lon="13.2748936"><ele>512.0</ele><time>2026-04-04T11:56:55.906Z</time></trkpt><trkpt lat="43.0626631" lon="13.2749204"><ele>511.33333333333337</ele><time>2026-04-04T11:56:56.907Z</time></trkpt><trkpt lat="43.0627444" lon="13.2749073"><ele>510.6666666666667</ele><time>2026-04-04T11:56:57.907Z</time></trkpt><trkpt lat="43.0628106" lon="13.2749403"><ele>510.0</ele><time>2026-04-04T11:56:58.906Z</time></trkpt><trkpt lat="43.0628983" lon="13.2749225"><ele>510.0</ele><time>2026-04-04T11:56:59.907Z</time></trkpt><trkpt lat="43.062972" lon="13.2749404"><ele>510.0</ele><time>2026-04-04T11:57:00.907Z</time></trkpt><trkpt lat="43.0630478" lon="13.2749616"><ele>510.0</ele><time>2026-04-04T11:57:01.907Z</time></trkpt><trkpt lat="43.0631234" lon="13.2749916"><ele>510.0</ele><time>2026-04-04T11:57:02.906Z</time></trkpt><trkpt lat="43.0632019" lon="13.2750051"><ele>510.0</ele><time>2026-04-04T11:57:03.907Z</time></trkpt><trkpt lat="43.063273" lon="13.2750283"><ele>510.0</ele><time>2026-04-04T11:57:04.907Z</time></trkpt><trkpt lat="43.0633341" lon="13.2750656"><ele>510.6666666666667</ele><time>2026-04-04T11:57:05.907Z</time></trkpt><trkpt lat="43.0634043" lon="13.2750792"><ele>511.33333333333337</ele><time>2026-04-04T11:57:06.906Z</time></trkpt><trkpt lat="43.0634822" lon="13.2751096"><ele>512.0</ele><time>2026-04-04T11:57:07.906Z</time></trkpt><trkpt lat="43.0635563" lon="13.2751323"><ele>512.6666666666667</ele><time>2026-04-04T11:57:08.907Z</time></trkpt><trkpt lat="43.0636338" lon="13.2751385"><ele>513.3333333333334</ele><time>2026-04-04T11:57:09.907Z</time></trkpt><trkpt lat="43.0637096" lon="13.2751727"><ele>514.0</ele><time>2026-04-04T11:57:10.906Z</time></trkpt><trkpt lat="43.0637831" lon="13.2752038"><ele>514.0</ele><time>2026-04-04T11:57:11.907Z</time></trkpt><trkpt lat="43.0638518" lon="13.2752383"><ele>514.0</ele><time>2026-04-04T11:57:12.906Z</time></trkpt><trkpt lat="43.0639436" lon="13.2752666"><ele>514.0</ele><time>2026-04-04T11:57:13.907Z</time></trkpt><trkpt lat="43.0640187" lon="13.2753281"><ele>514.0</ele><time>2026-04-04T11:57:14.907Z</time></trkpt><trkpt lat="43.0640903" lon="13.2753877"><ele>514.0</ele><time>2026-04-04T11:57:15.907Z</time></trkpt><trkpt lat="43.0641598" lon="13.2754214"><ele>514.0</ele><time>2026-04-04T11:57:16.906Z</time></trkpt><trkpt lat="43.064222" lon="13.275467"><ele>513.7142857142857</ele><time>2026-04-04T11:57:17.907Z</time></trkpt><trkpt lat="43.064286" lon="13.2755063"><ele>513.4285714285714</ele><time>2026-04-04T11:57:18.906Z</time></trkpt><trkpt lat="43.0643479" lon="13.2755441"><ele>513.1428571428571</ele><time>2026-04-04T11:57:19.907Z</time></trkpt><trkpt lat="43.0644105" lon="13.2755916"><ele>512.8571428571429</ele><time>2026-04-04T11:57:20.906Z</time></trkpt><trkpt lat="43.0644764" lon="13.2756456"><ele>512.5714285714286</ele><time>2026-04-04T11:57:21.907Z</time></trkpt><trkpt lat="43.0645416" lon="13.2756951"><ele>512.2857142857142</ele><time>2026-04-04T11:57:22.907Z</time></trkpt><trkpt lat="43.0646037" lon="13.2757334"><ele>512.0</ele><time>2026-04-04T11:57:23.906Z</time></trkpt><trkpt lat="43.0646668" lon="13.2757766"><ele>510.16666666666663</ele><time>2026-04-04T11:57:24.907Z</time></trkpt><trkpt lat="43.064772" lon="13.2758714"><ele>508.3333333333333</ele><time>2026-04-04T11:57:26.907Z</time></trkpt><trkpt lat="43.0648369" lon="13.2759097"><ele>506.5</ele><time>2026-04-04T11:57:27.906Z</time></trkpt><trkpt lat="43.0649077" lon="13.2759595"><ele>504.66666666666663</ele><time>2026-04-04T11:57:28.907Z</time></trkpt><trkpt lat="43.0649695" lon="13.2760086"><ele>502.8333333333333</ele><time>2026-04-04T11:57:29.907Z</time></trkpt><trkpt lat="43.0650445" lon="13.276056"><ele>501.0</ele><time>2026-04-04T11:57:30.907Z</time></trkpt><trkpt lat="43.0651606" lon="13.2761125"><ele>501.0</ele><time>2026-04-04T11:57:32.907Z</time></trkpt><trkpt lat="43.0652274" lon="13.2761549"><ele>501.0</ele><time>2026-04-04T11:57:33.907Z</time></trkpt><trkpt lat="43.0653118" lon="13.2761316"><ele>501.0</ele><time>2026-04-04T11:57:34.907Z</time></trkpt><trkpt lat="43.0653985" lon="13.2762449"><ele>501.0</ele><time>2026-04-04T11:57:36.906Z</time></trkpt><trkpt lat="43.065492" lon="13.2763575"><ele>501.0</ele><time>2026-04-04T11:57:38.906Z</time></trkpt><trkpt lat="43.0655729" lon="13.2764058"><ele>501.0</ele><time>2026-04-04T11:57:39.907Z</time></trkpt><trkpt lat="43.0656623" lon="13.2764025"><ele>501.0</ele><time>2026-04-04T11:57:40.907Z</time></trkpt><trkpt lat="43.0657417" lon="13.2764416"><ele>501.0</ele><time>2026-04-04T11:57:41.906Z</time></trkpt><trkpt lat="43.0657914" lon="13.2764973"><ele>501.0</ele><time>2026-04-04T11:57:42.907Z</time></trkpt><trkpt lat="43.0658779" lon="13.2765208"><ele>501.0</ele><time>2026-04-04T11:57:43.906Z</time></trkpt><trkpt lat="43.065953" lon="13.2765455"><ele>501.0</ele><time>2026-04-04T11:57:44.907Z</time></trkpt><trkpt lat="43.0660642" lon="13.2766014"><ele>499.8333333333333</ele><time>2026-04-04T11:57:46.906Z</time></trkpt><trkpt lat="43.0661652" lon="13.2766576"><ele>498.66666666666663</ele><time>2026-04-04T11:57:48.906Z</time></trkpt><trkpt lat="43.066266" lon="13.2766892"><ele>497.5</ele><time>2026-04-04T11:57:50.906Z</time></trkpt><trkpt lat="43.0663391" lon="13.2766847"><ele>496.3333333333333</ele><time>2026-04-04T11:57:51.907Z</time></trkpt><trkpt lat="43.0664076" lon="13.2767069"><ele>495.16666666666663</ele><time>2026-04-04T11:57:52.906Z</time></trkpt><trkpt lat="43.0664945" lon="13.2767213"><ele>494.0</ele><time>2026-04-04T11:57:53.906Z</time></trkpt><trkpt lat="43.0665582" lon="13.2767239"><ele>493.8333333333333</ele><time>2026-04-04T11:57:54.906Z</time></trkpt><trkpt lat="43.0666351" lon="13.2767458"><ele>493.66666666666663</ele><time>2026-04-04T11:57:55.907Z</time></trkpt><trkpt lat="43.0667208" lon="13.276801"><ele>493.5</ele><time>2026-04-04T11:57:56.907Z</time></trkpt><trkpt lat="43.0668015" lon="13.2767818"><ele>493.33333333333337</ele><time>2026-04-04T11:57:57.906Z</time></trkpt><trkpt lat="43.066867" lon="13.2767892"><ele>493.1666666666667</ele><time>2026-04-04T11:57:58.907Z</time></trkpt><trkpt lat="43.0669381" lon="13.2767964"><ele>493.0</ele><time>2026-04-04T11:57:59.907Z</time></trkpt><trkpt lat="43.0670051" lon="13.2768079"><ele>493.00000000000006</ele><time>2026-04-04T11:58:00.906Z</time></trkpt><trkpt lat="43.0671307" lon="13.2768176"><ele>493.0</ele><time>2026-04-04T11:58:02.907Z</time></trkpt><trkpt lat="43.0671965" lon="13.2768276"><ele>493.0</ele><time>2026-04-04T11:58:03.906Z</time></trkpt><trkpt lat="43.0672624" lon="13.2768315"><ele>493.0</ele><time>2026-04-04T11:58:04.906Z</time></trkpt><trkpt lat="43.0673261" lon="13.2768363"><ele>493.00000000000006</ele><time>2026-04-04T11:58:05.907Z</time></trkpt><trkpt lat="43.0674385" lon="13.2768475"><ele>493.0</ele><time>2026-04-04T11:58:07.907Z</time></trkpt><trkpt lat="43.0675628" lon="13.2768443"><ele>492.83333333333337</ele><time>2026-04-04T11:58:09.907Z</time></trkpt><trkpt lat="43.0676872" lon="13.2768585"><ele>492.6666666666667</ele><time>2026-04-04T11:58:11.907Z</time></trkpt><trkpt lat="43.067771" lon="13.2768503"><ele>492.5</ele><time>2026-04-04T11:58:12.907Z</time></trkpt><trkpt lat="43.0678372" lon="13.2768526"><ele>492.33333333333337</ele><time>2026-04-04T11:58:13.907Z</time></trkpt><trkpt lat="43.0679078" lon="13.2768556"><ele>492.1666666666667</ele><time>2026-04-04T11:58:14.907Z</time></trkpt><trkpt lat="43.0679842" lon="13.2768534"><ele>492.0</ele><time>2026-04-04T11:58:15.907Z</time></trkpt><trkpt lat="43.0680552" lon="13.276877"><ele>492.00000000000006</ele><time>2026-04-04T11:58:16.907Z</time></trkpt><trkpt lat="43.0681286" lon="13.2768855"><ele>492.0</ele><time>2026-04-04T11:58:17.906Z</time></trkpt><trkpt lat="43.0682026" lon="13.2768882"><ele>492.00000000000006</ele><time>2026-04-04T11:58:18.906Z</time></trkpt><trkpt lat="43.0682755" lon="13.2769089"><ele>492.00000000000006</ele><time>2026-04-04T11:58:19.906Z</time></trkpt><trkpt lat="43.0683464" lon="13.2769149"><ele>492.0</ele><time>2026-04-04T11:58:20.906Z</time></trkpt><trkpt lat="43.068414" lon="13.2769199"><ele>492.00000000000006</ele><time>2026-04-04T11:58:21.907Z</time></trkpt><trkpt lat="43.0684832" lon="13.2769378"><ele>492.00000000000006</ele><time>2026-04-04T11:58:22.906Z</time></trkpt><trkpt lat="43.0685984" lon="13.2769485"><ele>491.3333333333333</ele><time>2026-04-04T11:58:24.907Z</time></trkpt><trkpt lat="43.0686664" lon="13.2769629"><ele>490.66666666666663</ele><time>2026-04-04T11:58:25.907Z</time></trkpt><trkpt lat="43.0687337" lon="13.2769675"><ele>490.0</ele><time>2026-04-04T11:58:26.907Z</time></trkpt><trkpt lat="43.0687969" lon="13.276975"><ele>489.3333333333333</ele><time>2026-04-04T11:58:27.907Z</time></trkpt><trkpt lat="43.0689276" lon="13.2769851"><ele>488.66666666666663</ele><time>2026-04-04T11:58:29.907Z</time></trkpt><trkpt lat="43.0689915" lon="13.2769818"><ele>488.0</ele><time>2026-04-04T11:58:30.906Z</time></trkpt><trkpt lat="43.0691129" lon="13.2769972"><ele>487.25</ele><time>2026-04-04T11:58:32.907Z</time></trkpt><trkpt lat="43.0692358" lon="13.277012"><ele>486.5</ele><time>2026-04-04T11:58:34.907Z</time></trkpt><trkpt lat="43.0693579" lon="13.2769591"><ele>485.75</ele><time>2026-04-04T11:58:36.907Z</time></trkpt><trkpt lat="43.0694826" lon="13.2769724"><ele>485.0</ele><time>2026-04-04T11:58:38.907Z</time></trkpt><trkpt lat="43.0696202" lon="13.277004"><ele>484.99999999999994</ele><time>2026-04-04T11:58:40.906Z</time></trkpt><trkpt lat="43.0696868" lon="13.2770179"><ele>485.0</ele><time>2026-04-04T11:58:41.906Z</time></trkpt><trkpt lat="43.0697591" lon="13.2770421"><ele>485.0</ele><time>2026-04-04T11:58:42.906Z</time></trkpt><trkpt lat="43.0698491" lon="13.2770515"><ele>485.0</ele><time>2026-04-04T11:58:43.906Z</time></trkpt><trkpt lat="43.0699214" lon="13.2770647"><ele>484.99999999999994</ele><time>2026-04-04T11:58:44.906Z</time></trkpt><trkpt lat="43.0699997" lon="13.2770692"><ele>485.0</ele><time>2026-04-04T11:58:45.906Z</time></trkpt><trkpt lat="43.0700741" lon="13.2770768"><ele>484.8333333333333</ele><time>2026-04-04T11:58:46.906Z</time></trkpt><trkpt lat="43.0701544" lon="13.2770807"><ele>484.66666666666663</ele><time>2026-04-04T11:58:47.907Z</time></trkpt><trkpt lat="43.0702259" lon="13.2771026"><ele>484.5</ele><time>2026-04-04T11:58:48.907Z</time></trkpt><trkpt lat="43.0703189" lon="13.2770779"><ele>484.33333333333337</ele><time>2026-04-04T11:58:49.907Z</time></trkpt><trkpt lat="43.0703838" lon="13.2771363"><ele>484.1666666666667</ele><time>2026-04-04T11:58:50.907Z</time></trkpt><trkpt lat="43.070466" lon="13.2771351"><ele>484.0</ele><time>2026-04-04T11:58:51.907Z</time></trkpt><trkpt lat="43.0705358" lon="13.2771297"><ele>484.0</ele><time>2026-04-04T11:58:52.907Z</time></trkpt><trkpt lat="43.0706106" lon="13.2771446"><ele>483.99999999999994</ele><time>2026-04-04T11:58:53.907Z</time></trkpt><trkpt lat="43.0706804" lon="13.2771503"><ele>484.0</ele><time>2026-04-04T11:58:54.906Z</time></trkpt><trkpt lat="43.0707491" lon="13.27716"><ele>484.0</ele><time>2026-04-04T11:58:55.907Z</time></trkpt><trkpt lat="43.070823" lon="13.2771551"><ele>483.99999999999994</ele><time>2026-04-04T11:58:56.906Z</time></trkpt><trkpt lat="43.0708958" lon="13.2771689"><ele>484.0</ele><time>2026-04-04T11:58:57.906Z</time></trkpt><trkpt lat="43.0709644" lon="13.2771892"><ele>484.0</ele><time>2026-04-04T11:58:58.907Z</time></trkpt><trkpt lat="43.0710407" lon="13.2771988"><ele>483.1666666666667</ele><time>2026-04-04T11:58:59.907Z</time></trkpt><trkpt lat="43.0711175" lon="13.2772094"><ele>482.33333333333337</ele><time>2026-04-04T11:59:00.906Z</time></trkpt><trkpt lat="43.0711976" lon="13.2772182"><ele>481.5</ele><time>2026-04-04T11:59:01.907Z</time></trkpt><trkpt lat="43.0712827" lon="13.2771822"><ele>480.66666666666663</ele><time>2026-04-04T11:59:02.906Z</time></trkpt><trkpt lat="43.071354" lon="13.2771864"><ele>479.8333333333333</ele><time>2026-04-04T11:59:03.907Z</time></trkpt><trkpt lat="43.0714235" lon="13.2771928"><ele>479.0</ele><time>2026-04-04T11:59:04.906Z</time></trkpt><trkpt lat="43.0714966" lon="13.2772017"><ele>478.99999999999994</ele><time>2026-04-04T11:59:05.906Z</time></trkpt><trkpt lat="43.0715666" lon="13.2772147"><ele>479.0</ele><time>2026-04-04T11:59:06.906Z</time></trkpt><trkpt lat="43.0716379" lon="13.277221"><ele>479.0</ele><time>2026-04-04T11:59:07.907Z</time></trkpt><trkpt lat="43.071707" lon="13.2772199"><ele>479.0</ele><time>2026-04-04T11:59:08.907Z</time></trkpt><trkpt lat="43.0717734" lon="13.2772077"><ele>478.99999999999994</ele><time>2026-04-04T11:59:09.907Z</time></trkpt><trkpt lat="43.0718668" lon="13.2771734"><ele>479.0</ele><time>2026-04-04T11:59:10.906Z</time></trkpt><trkpt lat="43.0719398" lon="13.2772215"><ele>478.49999999999994</ele><time>2026-04-04T11:59:11.906Z</time></trkpt><trkpt lat="43.0720047" lon="13.2772385"><ele>478.0</ele><time>2026-04-04T11:59:12.907Z</time></trkpt><trkpt lat="43.0720684" lon="13.2772488"><ele>477.5</ele><time>2026-04-04T11:59:13.907Z</time></trkpt><trkpt lat="43.0721839" lon="13.2772928"><ele>477.0</ele><time>2026-04-04T11:59:15.907Z</time></trkpt><trkpt lat="43.0722419" lon="13.2773303"><ele>476.49999999999994</ele><time>2026-04-04T11:59:16.906Z</time></trkpt><trkpt lat="43.0723671" lon="13.2773734"><ele>476.0</ele><time>2026-04-04T11:59:18.906Z</time></trkpt><trkpt lat="43.0724339" lon="13.277395"><ele>475.3333333333333</ele><time>2026-04-04T11:59:19.907Z</time></trkpt><trkpt lat="43.0725429" lon="13.2774587"><ele>474.66666666666663</ele><time>2026-04-04T11:59:21.907Z</time></trkpt><trkpt lat="43.0726433" lon="13.2774914"><ele>474.0</ele><time>2026-04-04T11:59:23.906Z</time></trkpt><trkpt lat="43.072712" lon="13.2774769"><ele>473.33333333333337</ele><time>2026-04-04T11:59:24.907Z</time></trkpt><trkpt lat="43.072771" lon="13.2775089"><ele>472.6666666666667</ele><time>2026-04-04T11:59:25.906Z</time></trkpt><trkpt lat="43.0728292" lon="13.2775483"><ele>472.0</ele><time>2026-04-04T11:59:26.907Z</time></trkpt><trkpt lat="43.0729477" lon="13.2776272"><ele>472.00000000000006</ele><time>2026-04-04T11:59:28.907Z</time></trkpt><trkpt lat="43.0730071" lon="13.2776748"><ele>472.0</ele><time>2026-04-04T11:59:29.907Z</time></trkpt><trkpt lat="43.0731162" lon="13.2777636"><ele>472.0</ele><time>2026-04-04T11:59:31.906Z</time></trkpt><trkpt lat="43.0731806" lon="13.2777833"><ele>472.0</ele><time>2026-04-04T11:59:32.907Z</time></trkpt><trkpt lat="43.0732436" lon="13.277831"><ele>472.00000000000006</ele><time>2026-04-04T11:59:33.906Z</time></trkpt><trkpt lat="43.0733198" lon="13.2778756"><ele>472.0</ele><time>2026-04-04T11:59:34.907Z</time></trkpt><trkpt lat="43.0733829" lon="13.2779104"><ele>472.00000000000006</ele><time>2026-04-04T11:59:35.907Z</time></trkpt><trkpt lat="43.0734412" lon="13.2779485"><ele>472.0</ele><time>2026-04-04T11:59:36.906Z</time></trkpt><trkpt lat="43.0735047" lon="13.2779883"><ele>472.0</ele><time>2026-04-04T11:59:37.906Z</time></trkpt><trkpt lat="43.0735658" lon="13.2780185"><ele>472.0</ele><time>2026-04-04T11:59:38.907Z</time></trkpt><trkpt lat="43.0736727" lon="13.2780892"><ele>472.00000000000006</ele><time>2026-04-04T11:59:40.906Z</time></trkpt><trkpt lat="43.0737297" lon="13.2781344"><ele>472.0</ele><time>2026-04-04T11:59:41.906Z</time></trkpt><trkpt lat="43.0738369" lon="13.2781949"><ele>471.8</ele><time>2026-04-04T11:59:43.906Z</time></trkpt><trkpt lat="43.0739495" lon="13.2782706"><ele>471.6</ele><time>2026-04-04T11:59:45.907Z</time></trkpt><trkpt lat="43.0740151" lon="13.2782845"><ele>471.40000000000003</ele><time>2026-04-04T11:59:46.907Z</time></trkpt><trkpt lat="43.0741287" lon="13.2783279"><ele>471.20000000000005</ele><time>2026-04-04T11:59:48.907Z</time></trkpt><trkpt lat="43.0742363" lon="13.2784073"><ele>471.0</ele><time>2026-04-04T11:59:50.907Z</time></trkpt><trkpt lat="43.0743045" lon="13.278447"><ele>471.0</ele><time>2026-04-04T11:59:51.907Z</time></trkpt><trkpt lat="43.0743666" lon="13.2784846"><ele>471.0</ele><time>2026-04-04T11:59:52.907Z</time></trkpt><trkpt lat="43.074451" lon="13.2785724"><ele>471.0</ele><time>2026-04-04T11:59:54.907Z</time></trkpt><trkpt lat="43.0745125" lon="13.2786159"><ele>471.0</ele><time>2026-04-04T11:59:55.907Z</time></trkpt><trkpt lat="43.074617" lon="13.278701"><ele>471.0</ele><time>2026-04-04T11:59:57.907Z</time></trkpt><trkpt lat="43.0747374" lon="13.2787763"><ele>471.0</ele><time>2026-04-04T11:59:59.907Z</time></trkpt><trkpt lat="43.0748431" lon="13.2788406"><ele>471.0</ele><time>2026-04-04T12:00:01.907Z</time></trkpt><trkpt lat="43.0749081" lon="13.2788665"><ele>471.0</ele><time>2026-04-04T12:00:02.907Z</time></trkpt><trkpt lat="43.0750203" lon="13.2789309"><ele>471.0</ele><time>2026-04-04T12:00:04.906Z</time></trkpt><trkpt lat="43.0751113" lon="13.279014"><ele>471.0</ele><time>2026-04-04T12:00:06.907Z</time></trkpt><trkpt lat="43.075215" lon="13.279088"><ele>470.5</ele><time>2026-04-04T12:00:08.907Z</time></trkpt><trkpt lat="43.0753235" lon="13.2791616"><ele>470.0</ele><time>2026-04-04T12:00:10.906Z</time></trkpt><trkpt lat="43.0754412" lon="13.2792309"><ele>469.5</ele><time>2026-04-04T12:00:12.907Z</time></trkpt><trkpt lat="43.075563" lon="13.2793224"><ele>469.0</ele><time>2026-04-04T12:00:14.907Z</time></trkpt><trkpt lat="43.0756328" lon="13.2793434"><ele>469.0</ele><time>2026-04-04T12:00:15.907Z</time></trkpt><trkpt lat="43.0757467" lon="13.2794172"><ele>469.0</ele><time>2026-04-04T12:00:17.907Z</time></trkpt><trkpt lat="43.0758538" lon="13.2794625"><ele>469.0</ele><time>2026-04-04T12:00:19.906Z</time></trkpt><trkpt lat="43.0759103" lon="13.2795182"><ele>469.0</ele><time>2026-04-04T12:00:20.907Z</time></trkpt><trkpt lat="43.0760181" lon="13.2795999"><ele>469.0</ele><time>2026-04-04T12:00:22.907Z</time></trkpt><trkpt lat="43.0761058" lon="13.2796742"><ele>468.4</ele><time>2026-04-04T12:00:24.906Z</time></trkpt><trkpt lat="43.0762081" lon="13.2797295"><ele>467.79999999999995</ele><time>2026-04-04T12:00:26.906Z</time></trkpt><trkpt lat="43.0762772" lon="13.279828"><ele>467.20000000000005</ele><time>2026-04-04T12:00:28.906Z</time></trkpt><trkpt lat="43.0763631" lon="13.2799059"><ele>466.6</ele><time>2026-04-04T12:00:30.907Z</time></trkpt><trkpt lat="43.0764429" lon="13.2799968"><ele>466.0</ele><time>2026-04-04T12:00:32.907Z</time></trkpt><trkpt lat="43.0765172" lon="13.2801019"><ele>466.0</ele><time>2026-04-04T12:00:34.907Z</time></trkpt><trkpt lat="43.0765902" lon="13.2802292"><ele>466.0</ele><time>2026-04-04T12:00:36.907Z</time></trkpt><trkpt lat="43.0766453" lon="13.2803572"><ele>466.0</ele><time>2026-04-04T12:00:38.907Z</time></trkpt><trkpt lat="43.0767047" lon="13.2805566"><ele>466.0</ele><time>2026-04-04T12:00:40.907Z</time></trkpt><trkpt lat="43.07674" lon="13.2806414"><ele>465.8</ele><time>2026-04-04T12:00:41.907Z</time></trkpt><trkpt lat="43.076826" lon="13.2806647"><ele>465.6</ele><time>2026-04-04T12:00:42.907Z</time></trkpt><trkpt lat="43.0768619" lon="13.2808251"><ele>465.4</ele><time>2026-04-04T12:00:44.907Z</time></trkpt><trkpt lat="43.0768873" lon="13.2809096"><ele>465.2</ele><time>2026-04-04T12:00:45.907Z</time></trkpt><trkpt lat="43.0769456" lon="13.2810526"><ele>465.0</ele><time>2026-04-04T12:00:47.907Z</time></trkpt><trkpt lat="43.0769807" lon="13.2811323"><ele>465.0</ele><time>2026-04-04T12:00:48.907Z</time></trkpt><trkpt lat="43.077014" lon="13.2812123"><ele>465.0</ele><time>2026-04-04T12:00:49.906Z</time></trkpt><trkpt lat="43.0770663" lon="13.2813505"><ele>465.0</ele><time>2026-04-04T12:00:51.906Z</time></trkpt><trkpt lat="43.0770961" lon="13.2814337"><ele>465.0</ele><time>2026-04-04T12:00:52.906Z</time></trkpt><trkpt lat="43.0771314" lon="13.2815123"><ele>465.0</ele><time>2026-04-04T12:00:53.906Z</time></trkpt><trkpt lat="43.0772019" lon="13.2815863"><ele>465.0</ele><time>2026-04-04T12:00:54.907Z</time></trkpt><trkpt lat="43.0772454" lon="13.2816664"><ele>464.8</ele><time>2026-04-04T12:00:55.907Z</time></trkpt><trkpt lat="43.0772732" lon="13.2818048"><ele>464.6</ele><time>2026-04-04T12:00:57.907Z</time></trkpt><trkpt lat="43.0773124" lon="13.2819204"><ele>464.4</ele><time>2026-04-04T12:00:59.907Z</time></trkpt><trkpt lat="43.0773688" lon="13.2820373"><ele>464.2</ele><time>2026-04-04T12:01:01.907Z</time></trkpt><trkpt lat="43.0774115" lon="13.2821349"><ele>464.0</ele><time>2026-04-04T12:01:03.907Z</time></trkpt><trkpt lat="43.077451" lon="13.2822257"><ele>463.4</ele><time>2026-04-04T12:01:05.907Z</time></trkpt><trkpt lat="43.0774982" lon="13.2823348"><ele>462.79999999999995</ele><time>2026-04-04T12:01:07.906Z</time></trkpt><trkpt lat="43.0775404" lon="13.2824453"><ele>462.20000000000005</ele><time>2026-04-04T12:01:09.907Z</time></trkpt><trkpt lat="43.0775832" lon="13.2825468"><ele>461.6</ele><time>2026-04-04T12:01:11.906Z</time></trkpt><trkpt lat="43.0776341" lon="13.2826677"><ele>461.0</ele><time>2026-04-04T12:01:13.906Z</time></trkpt><trkpt lat="43.0776939" lon="13.2827889"><ele>461.0</ele><time>2026-04-04T12:01:15.906Z</time></trkpt><trkpt lat="43.0777368" lon="13.2829312"><ele>461.0</ele><time>2026-04-04T12:01:17.907Z</time></trkpt><trkpt lat="43.0777782" lon="13.2830578"><ele>461.0</ele><time>2026-04-04T12:01:19.906Z</time></trkpt><trkpt lat="43.0778458" lon="13.2832143"><ele>461.0</ele><time>2026-04-04T12:01:21.906Z</time></trkpt><trkpt lat="43.0778806" lon="13.2833451"><ele>461.0</ele><time>2026-04-04T12:01:23.907Z</time></trkpt><trkpt lat="43.0779685" lon="13.2834152"><ele>461.4</ele><time>2026-04-04T12:01:24.906Z</time></trkpt><trkpt lat="43.0779975" lon="13.2834925"><ele>461.8</ele><time>2026-04-04T12:01:25.907Z</time></trkpt><trkpt lat="43.0780385" lon="13.2836367"><ele>462.19999999999993</ele><time>2026-04-04T12:01:27.907Z</time></trkpt><trkpt lat="43.0780842" lon="13.2837693"><ele>462.59999999999997</ele><time>2026-04-04T12:01:29.907Z</time></trkpt><trkpt lat="43.0781232" lon="13.2839151"><ele>463.0</ele><time>2026-04-04T12:01:31.906Z</time></trkpt><trkpt lat="43.0781814" lon="13.2840453"><ele>462.2</ele><time>2026-04-04T12:01:33.906Z</time></trkpt><trkpt lat="43.0782638" lon="13.2841087"><ele>461.4</ele><time>2026-04-04T12:01:34.906Z</time></trkpt><trkpt lat="43.0783289" lon="13.2842427"><ele>460.59999999999997</ele><time>2026-04-04T12:01:36.907Z</time></trkpt><trkpt lat="43.0783586" lon="13.2843708"><ele>459.79999999999995</ele><time>2026-04-04T12:01:38.907Z</time></trkpt><trkpt lat="43.0784236" lon="13.2844654"><ele>459.0</ele><time>2026-04-04T12:01:39.907Z</time></trkpt><trkpt lat="43.078457" lon="13.2845392"><ele>458.79999999999995</ele><time>2026-04-04T12:01:40.906Z</time></trkpt><trkpt lat="43.0785163" lon="13.2846847"><ele>458.59999999999997</ele><time>2026-04-04T12:01:42.906Z</time></trkpt><trkpt lat="43.078577" lon="13.2848366"><ele>458.4</ele><time>2026-04-04T12:01:44.906Z</time></trkpt><trkpt lat="43.0786394" lon="13.2849851"><ele>458.2</ele><time>2026-04-04T12:01:46.907Z</time></trkpt><trkpt lat="43.0786668" lon="13.2850642"><ele>458.0</ele><time>2026-04-04T12:01:47.907Z</time></trkpt><trkpt lat="43.0787192" lon="13.2852091"><ele>458.0</ele><time>2026-04-04T12:01:49.907Z</time></trkpt><trkpt lat="43.078761" lon="13.2853325"><ele>457.99999999999994</ele><time>2026-04-04T12:01:51.907Z</time></trkpt><trkpt lat="43.0787996" lon="13.2854129"><ele>457.99999999999994</ele><time>2026-04-04T12:01:52.906Z</time></trkpt><trkpt lat="43.0788443" lon="13.2855678"><ele>458.0</ele><time>2026-04-04T12:01:54.906Z</time></trkpt><trkpt lat="43.0789103" lon="13.2857191"><ele>458.0</ele><time>2026-04-04T12:01:56.907Z</time></trkpt><trkpt lat="43.0789647" lon="13.2858612"><ele>457.79999999999995</ele><time>2026-04-04T12:01:58.907Z</time></trkpt><trkpt lat="43.0789926" lon="13.2859387"><ele>457.59999999999997</ele><time>2026-04-04T12:01:59.907Z</time></trkpt><trkpt lat="43.0790333" lon="13.2860816"><ele>457.40000000000003</ele><time>2026-04-04T12:02:01.906Z</time></trkpt><trkpt lat="43.0790844" lon="13.2862338"><ele>457.20000000000005</ele><time>2026-04-04T12:02:03.907Z</time></trkpt><trkpt lat="43.0791342" lon="13.2863864"><ele>457.0</ele><time>2026-04-04T12:02:05.906Z</time></trkpt><trkpt lat="43.0791914" lon="13.2865372"><ele>456.83333333333337</ele><time>2026-04-04T12:02:07.906Z</time></trkpt><trkpt lat="43.079243" lon="13.2866808"><ele>456.6666666666667</ele><time>2026-04-04T12:02:09.907Z</time></trkpt><trkpt lat="43.0792746" lon="13.2867619"><ele>456.5</ele><time>2026-04-04T12:02:10.906Z</time></trkpt><trkpt lat="43.0793042" lon="13.2868427"><ele>456.33333333333337</ele><time>2026-04-04T12:02:11.907Z</time></trkpt><trkpt lat="43.0793388" lon="13.2869228"><ele>456.1666666666667</ele><time>2026-04-04T12:02:12.907Z</time></trkpt><trkpt lat="43.0793744" lon="13.286996"><ele>456.0</ele><time>2026-04-04T12:02:13.907Z</time></trkpt><trkpt lat="43.0794252" lon="13.2871446"><ele>456.0</ele><time>2026-04-04T12:02:15.907Z</time></trkpt><trkpt lat="43.0794572" lon="13.2872219"><ele>456.0</ele><time>2026-04-04T12:02:16.906Z</time></trkpt><trkpt lat="43.0795259" lon="13.2873645"><ele>456.0</ele><time>2026-04-04T12:02:18.907Z</time></trkpt><trkpt lat="43.0795681" lon="13.2874417"><ele>456.0</ele><time>2026-04-04T12:02:19.907Z</time></trkpt><trkpt lat="43.0796359" lon="13.2875997"><ele>456.0</ele><time>2026-04-04T12:02:21.906Z</time></trkpt><trkpt lat="43.079666" lon="13.2876778"><ele>455.20000000000005</ele><time>2026-04-04T12:02:22.907Z</time></trkpt><trkpt lat="43.0797285" lon="13.287841"><ele>454.40000000000003</ele><time>2026-04-04T12:02:24.906Z</time></trkpt><trkpt lat="43.0797946" lon="13.2879857"><ele>453.6</ele><time>2026-04-04T12:02:26.907Z</time></trkpt><trkpt lat="43.0798675" lon="13.2881174"><ele>452.8</ele><time>2026-04-04T12:02:28.907Z</time></trkpt><trkpt lat="43.0798935" lon="13.2881979"><ele>452.0</ele><time>2026-04-04T12:02:29.907Z</time></trkpt><trkpt lat="43.079928" lon="13.2882815"><ele>451.8</ele><time>2026-04-04T12:02:30.907Z</time></trkpt><trkpt lat="43.0799619" lon="13.2883648"><ele>451.6</ele><time>2026-04-04T12:02:31.906Z</time></trkpt><trkpt lat="43.0800311" lon="13.2885083"><ele>451.40000000000003</ele><time>2026-04-04T12:02:33.907Z</time></trkpt><trkpt lat="43.0801009" lon="13.2886648"><ele>451.20000000000005</ele><time>2026-04-04T12:02:35.907Z</time></trkpt><trkpt lat="43.0801635" lon="13.2887884"><ele>451.0</ele><time>2026-04-04T12:02:37.906Z</time></trkpt><trkpt lat="43.080183" lon="13.2888748"><ele>450.6666666666667</ele><time>2026-04-04T12:02:38.907Z</time></trkpt><trkpt lat="43.0802397" lon="13.2890274"><ele>450.33333333333337</ele><time>2026-04-04T12:02:40.907Z</time></trkpt><trkpt lat="43.0802728" lon="13.2891022"><ele>450.0</ele><time>2026-04-04T12:02:41.907Z</time></trkpt><trkpt lat="43.0803036" lon="13.2891782"><ele>449.66666666666663</ele><time>2026-04-04T12:02:42.907Z</time></trkpt><trkpt lat="43.0803599" lon="13.2893208"><ele>449.3333333333333</ele><time>2026-04-04T12:02:44.907Z</time></trkpt><trkpt lat="43.0804025" lon="13.2893904"><ele>449.0</ele><time>2026-04-04T12:02:45.906Z</time></trkpt><trkpt lat="43.0804464" lon="13.2895321"><ele>449.0</ele><time>2026-04-04T12:02:47.906Z</time></trkpt><trkpt lat="43.0804807" lon="13.289606"><ele>449.0</ele><time>2026-04-04T12:02:48.907Z</time></trkpt><trkpt lat="43.0805173" lon="13.2896849"><ele>449.0</ele><time>2026-04-04T12:02:49.906Z</time></trkpt><trkpt lat="43.0805707" lon="13.2898299"><ele>449.0</ele><time>2026-04-04T12:02:51.906Z</time></trkpt><trkpt lat="43.0806135" lon="13.2899804"><ele>449.0</ele><time>2026-04-04T12:02:53.906Z</time></trkpt><trkpt lat="43.0806684" lon="13.2900673"><ele>448.79999999999995</ele><time>2026-04-04T12:02:54.906Z</time></trkpt><trkpt lat="43.0807077" lon="13.2901505"><ele>448.59999999999997</ele><time>2026-04-04T12:02:55.907Z</time></trkpt><trkpt lat="43.0807616" lon="13.2902941"><ele>448.4</ele><time>2026-04-04T12:02:57.907Z</time></trkpt><trkpt lat="43.0807907" lon="13.2903706"><ele>448.2</ele><time>2026-04-04T12:02:58.907Z</time></trkpt><trkpt lat="43.0808435" lon="13.2905186"><ele>448.0</ele><time>2026-04-04T12:03:00.907Z</time></trkpt><trkpt lat="43.0809187" lon="13.2906538"><ele>448.0</ele><time>2026-04-04T12:03:02.906Z</time></trkpt><trkpt lat="43.0809577" lon="13.2907274"><ele>447.99999999999994</ele><time>2026-04-04T12:03:03.907Z</time></trkpt><trkpt lat="43.0810164" lon="13.2908725"><ele>447.99999999999994</ele><time>2026-04-04T12:03:05.906Z</time></trkpt><trkpt lat="43.0810583" lon="13.2910005"><ele>448.0</ele><time>2026-04-04T12:03:07.906Z</time></trkpt><trkpt lat="43.0811295" lon="13.2911405"><ele>448.0</ele><time>2026-04-04T12:03:09.907Z</time></trkpt><trkpt lat="43.0811598" lon="13.2912162"><ele>448.0</ele><time>2026-04-04T12:03:10.907Z</time></trkpt><trkpt lat="43.0811903" lon="13.2913592"><ele>447.99999999999994</ele><time>2026-04-04T12:03:12.906Z</time></trkpt><trkpt lat="43.0812354" lon="13.2914926"><ele>447.99999999999994</ele><time>2026-04-04T12:03:14.906Z</time></trkpt><trkpt lat="43.0812962" lon="13.291633"><ele>448.0</ele><time>2026-04-04T12:03:16.906Z</time></trkpt><trkpt lat="43.0813585" lon="13.2917163"><ele>448.0</ele><time>2026-04-04T12:03:17.907Z</time></trkpt><trkpt lat="43.0814143" lon="13.2918574"><ele>447.75</ele><time>2026-04-04T12:03:19.907Z</time></trkpt><trkpt lat="43.0814694" lon="13.2919941"><ele>447.5</ele><time>2026-04-04T12:03:21.907Z</time></trkpt><trkpt lat="43.0815251" lon="13.2921342"><ele>447.25</ele><time>2026-04-04T12:03:23.907Z</time></trkpt><trkpt lat="43.0815936" lon="13.2922716"><ele>447.0</ele><time>2026-04-04T12:03:25.906Z</time></trkpt><trkpt lat="43.0816584" lon="13.2924207"><ele>446.8</ele><time>2026-04-04T12:03:27.906Z</time></trkpt><trkpt lat="43.0817184" lon="13.2925661"><ele>446.6</ele><time>2026-04-04T12:03:29.907Z</time></trkpt><trkpt lat="43.0817593" lon="13.292645"><ele>446.40000000000003</ele><time>2026-04-04T12:03:30.907Z</time></trkpt><trkpt lat="43.0817922" lon="13.2927193"><ele>446.20000000000005</ele><time>2026-04-04T12:03:31.906Z</time></trkpt><trkpt lat="43.0818563" lon="13.2928568"><ele>446.0</ele><time>2026-04-04T12:03:33.906Z</time></trkpt><trkpt lat="43.0819027" lon="13.2929764"><ele>445.99999999999994</ele><time>2026-04-04T12:03:35.907Z</time></trkpt><trkpt lat="43.0819457" lon="13.2930641"><ele>446.0</ele><time>2026-04-04T12:03:36.907Z</time></trkpt><trkpt lat="43.0819788" lon="13.2931413"><ele>446.0</ele><time>2026-04-04T12:03:37.907Z</time></trkpt><trkpt lat="43.0820096" lon="13.2932172"><ele>446.0</ele><time>2026-04-04T12:03:38.907Z</time></trkpt><trkpt lat="43.0820398" lon="13.2932937"><ele>445.99999999999994</ele><time>2026-04-04T12:03:39.907Z</time></trkpt><trkpt lat="43.082084" lon="13.2933726"><ele>446.0</ele><time>2026-04-04T12:03:40.906Z</time></trkpt><trkpt lat="43.08214" lon="13.2935226"><ele>445.6</ele><time>2026-04-04T12:03:42.906Z</time></trkpt><trkpt lat="43.0821862" lon="13.2936353"><ele>445.20000000000005</ele><time>2026-04-04T12:03:44.907Z</time></trkpt><trkpt lat="43.0822398" lon="13.2937641"><ele>444.79999999999995</ele><time>2026-04-04T12:03:46.906Z</time></trkpt><trkpt lat="43.0822802" lon="13.2938907"><ele>444.4</ele><time>2026-04-04T12:03:48.906Z</time></trkpt><trkpt lat="43.0823127" lon="13.2940178"><ele>444.0</ele><time>2026-04-04T12:03:50.907Z</time></trkpt><trkpt lat="43.0823852" lon="13.2941482"><ele>443.6</ele><time>2026-04-04T12:03:52.907Z</time></trkpt><trkpt lat="43.0824271" lon="13.2943056"><ele>443.2</ele><time>2026-04-04T12:03:54.907Z</time></trkpt><trkpt lat="43.0824574" lon="13.2944363"><ele>442.80000000000007</ele><time>2026-04-04T12:03:56.907Z</time></trkpt><trkpt lat="43.0824985" lon="13.2945035"><ele>442.40000000000003</ele><time>2026-04-04T12:03:57.907Z</time></trkpt><trkpt lat="43.0825502" lon="13.2946607"><ele>442.0</ele><time>2026-04-04T12:03:59.906Z</time></trkpt><trkpt lat="43.0825782" lon="13.2947412"><ele>442.50000000000006</ele><time>2026-04-04T12:04:00.907Z</time></trkpt><trkpt lat="43.0826178" lon="13.294822"><ele>443.0</ele><time>2026-04-04T12:04:01.907Z</time></trkpt><trkpt lat="43.0826542" lon="13.294895"><ele>443.5</ele><time>2026-04-04T12:04:02.907Z</time></trkpt><trkpt lat="43.0826886" lon="13.2949726"><ele>444.0</ele><time>2026-04-04T12:04:03.907Z</time></trkpt><trkpt lat="43.0827186" lon="13.2950535"><ele>444.50000000000006</ele><time>2026-04-04T12:04:04.906Z</time></trkpt><trkpt lat="43.0827677" lon="13.2951256"><ele>445.0</ele><time>2026-04-04T12:04:05.907Z</time></trkpt><trkpt lat="43.0828699" lon="13.2952851"><ele>445.0</ele><time>2026-04-04T12:04:07.907Z</time></trkpt><trkpt lat="43.0829186" lon="13.2954301"><ele>445.0</ele><time>2026-04-04T12:04:09.906Z</time></trkpt><trkpt lat="43.0829682" lon="13.2955718"><ele>445.0</ele><time>2026-04-04T12:04:11.907Z</time></trkpt><trkpt lat="43.0830033" lon="13.2956572"><ele>445.0</ele><time>2026-04-04T12:04:12.906Z</time></trkpt><trkpt lat="43.0830674" lon="13.295797"><ele>445.0</ele><time>2026-04-04T12:04:14.907Z</time></trkpt><trkpt lat="43.0831112" lon="13.295876"><ele>444.50000000000006</ele><time>2026-04-04T12:04:15.906Z</time></trkpt><trkpt lat="43.0831398" lon="13.2959629"><ele>444.0</ele><time>2026-04-04T12:04:16.907Z</time></trkpt><trkpt lat="43.0831964" lon="13.2961135"><ele>443.5</ele><time>2026-04-04T12:04:18.907Z</time></trkpt><trkpt lat="43.0832253" lon="13.2961936"><ele>443.0</ele><time>2026-04-04T12:04:19.906Z</time></trkpt><trkpt lat="43.0832556" lon="13.2962692"><ele>442.50000000000006</ele><time>2026-04-04T12:04:20.906Z</time></trkpt><trkpt lat="43.0832907" lon="13.2963459"><ele>442.0</ele><time>2026-04-04T12:04:21.907Z</time></trkpt><trkpt lat="43.083324" lon="13.2964262"><ele>441.0</ele><time>2026-04-04T12:04:22.907Z</time></trkpt><trkpt lat="43.0833717" lon="13.2965533"><ele>440.00000000000006</ele><time>2026-04-04T12:04:24.907Z</time></trkpt><trkpt lat="43.0834067" lon="13.2966268"><ele>439.00000000000006</ele><time>2026-04-04T12:04:25.906Z</time></trkpt><trkpt lat="43.0834592" lon="13.2967604"><ele>438.0</ele><time>2026-04-04T12:04:27.906Z</time></trkpt><trkpt lat="43.0835238" lon="13.2968932"><ele>437.0</ele><time>2026-04-04T12:04:29.907Z</time></trkpt><trkpt lat="43.0835759" lon="13.2970376"><ele>436.99999999999994</ele><time>2026-04-04T12:04:31.906Z</time></trkpt><trkpt lat="43.083604" lon="13.2971258"><ele>437.0</ele><time>2026-04-04T12:04:32.907Z</time></trkpt><trkpt lat="43.083657" lon="13.2972769"><ele>437.0</ele><time>2026-04-04T12:04:34.906Z</time></trkpt><trkpt lat="43.083681" lon="13.29736"><ele>437.0</ele><time>2026-04-04T12:04:35.907Z</time></trkpt><trkpt lat="43.0837126" lon="13.2974354"><ele>436.99999999999994</ele><time>2026-04-04T12:04:36.906Z</time></trkpt><trkpt lat="43.0837439" lon="13.2975166"><ele>437.0</ele><time>2026-04-04T12:04:37.906Z</time></trkpt><trkpt lat="43.0837679" lon="13.2975966"><ele>436.99999999999994</ele><time>2026-04-04T12:04:38.906Z</time></trkpt><trkpt lat="43.0838268" lon="13.2977376"><ele>437.0</ele><time>2026-04-04T12:04:40.907Z</time></trkpt><trkpt lat="43.0838629" lon="13.2978196"><ele>437.0</ele><time>2026-04-04T12:04:41.906Z</time></trkpt><trkpt lat="43.0839045" lon="13.2979676"><ele>437.0</ele><time>2026-04-04T12:04:43.907Z</time></trkpt><trkpt lat="43.0839417" lon="13.2980562"><ele>436.99999999999994</ele><time>2026-04-04T12:04:44.907Z</time></trkpt><trkpt lat="43.083987" lon="13.2981254"><ele>437.0</ele><time>2026-04-04T12:04:45.907Z</time></trkpt><trkpt lat="43.0840182" lon="13.2982053"><ele>436.66666666666663</ele><time>2026-04-04T12:04:46.907Z</time></trkpt><trkpt lat="43.0840571" lon="13.2982765"><ele>436.3333333333333</ele><time>2026-04-04T12:04:47.907Z</time></trkpt><trkpt lat="43.0840919" lon="13.298357"><ele>436.0</ele><time>2026-04-04T12:04:48.907Z</time></trkpt><trkpt lat="43.0841289" lon="13.2984364"><ele>435.66666666666663</ele><time>2026-04-04T12:04:49.907Z</time></trkpt><trkpt lat="43.0841673" lon="13.2985356"><ele>435.3333333333333</ele><time>2026-04-04T12:04:50.907Z</time></trkpt><trkpt lat="43.0842587" lon="13.298682"><ele>435.0</ele><time>2026-04-04T12:04:52.907Z</time></trkpt><trkpt lat="43.0843174" lon="13.298839"><ele>435.2</ele><time>2026-04-04T12:04:54.906Z</time></trkpt><trkpt lat="43.0843851" lon="13.2989845"><ele>435.4</ele><time>2026-04-04T12:04:56.907Z</time></trkpt><trkpt lat="43.0844161" lon="13.2990637"><ele>435.6</ele><time>2026-04-04T12:04:57.906Z</time></trkpt><trkpt lat="43.0844529" lon="13.2991415"><ele>435.8</ele><time>2026-04-04T12:04:58.906Z</time></trkpt><trkpt lat="43.0845272" lon="13.2992954"><ele>436.0</ele><time>2026-04-04T12:05:00.907Z</time></trkpt><trkpt lat="43.0846028" lon="13.2994316"><ele>436.00000000000006</ele><time>2026-04-04T12:05:02.907Z</time></trkpt><trkpt lat="43.0846549" lon="13.2995259"><ele>436.0</ele><time>2026-04-04T12:05:03.907Z</time></trkpt><trkpt lat="43.084684" lon="13.2996152"><ele>436.0</ele><time>2026-04-04T12:05:04.907Z</time></trkpt><trkpt lat="43.0847093" lon="13.2996992"><ele>436.0</ele><time>2026-04-04T12:05:05.907Z</time></trkpt><trkpt lat="43.0847398" lon="13.2997777"><ele>436.00000000000006</ele><time>2026-04-04T12:05:06.907Z</time></trkpt><trkpt lat="43.0847771" lon="13.2998552"><ele>436.0</ele><time>2026-04-04T12:05:07.907Z</time></trkpt><trkpt lat="43.0848275" lon="13.3000137"><ele>435.33333333333337</ele><time>2026-04-04T12:05:09.907Z</time></trkpt><trkpt lat="43.0848607" lon="13.3000982"><ele>434.6666666666667</ele><time>2026-04-04T12:05:10.906Z</time></trkpt><trkpt lat="43.0848908" lon="13.3001768"><ele>434.0</ele><time>2026-04-04T12:05:11.906Z</time></trkpt><trkpt lat="43.0849186" lon="13.3002594"><ele>433.33333333333337</ele><time>2026-04-04T12:05:12.906Z</time></trkpt><trkpt lat="43.0849592" lon="13.3003355"><ele>432.6666666666667</ele><time>2026-04-04T12:05:13.907Z</time></trkpt><trkpt lat="43.0850087" lon="13.3004792"><ele>432.0</ele><time>2026-04-04T12:05:15.906Z</time></trkpt><trkpt lat="43.0850372" lon="13.3005577"><ele>432.6</ele><time>2026-04-04T12:05:16.907Z</time></trkpt><trkpt lat="43.0850587" lon="13.3006433"><ele>433.20000000000005</ele><time>2026-04-04T12:05:17.907Z</time></trkpt><trkpt lat="43.0850846" lon="13.3007235"><ele>433.8</ele><time>2026-04-04T12:05:18.907Z</time></trkpt><trkpt lat="43.0851315" lon="13.3008659"><ele>434.4</ele><time>2026-04-04T12:05:20.906Z</time></trkpt><trkpt lat="43.0851799" lon="13.3010243"><ele>435.0</ele><time>2026-04-04T12:05:22.906Z</time></trkpt><trkpt lat="43.085242" lon="13.3011101"><ele>435.0</ele><time>2026-04-04T12:05:23.907Z</time></trkpt><trkpt lat="43.0853095" lon="13.301185"><ele>435.0</ele><time>2026-04-04T12:05:24.907Z</time></trkpt><trkpt lat="43.0853411" lon="13.3012596"><ele>435.0</ele><time>2026-04-04T12:05:25.906Z</time></trkpt><trkpt lat="43.0853901" lon="13.3013886"><ele>435.0</ele><time>2026-04-04T12:05:27.907Z</time></trkpt><trkpt lat="43.0854455" lon="13.3014665"><ele>435.0</ele><time>2026-04-04T12:05:28.906Z</time></trkpt><trkpt lat="43.0855027" lon="13.3016268"><ele>434.4</ele><time>2026-04-04T12:05:30.907Z</time></trkpt><trkpt lat="43.0855675" lon="13.3017779"><ele>433.8</ele><time>2026-04-04T12:05:32.906Z</time></trkpt><trkpt lat="43.0856024" lon="13.3018543"><ele>433.20000000000005</ele><time>2026-04-04T12:05:33.907Z</time></trkpt><trkpt lat="43.0856336" lon="13.3019295"><ele>432.6</ele><time>2026-04-04T12:05:34.907Z</time></trkpt><trkpt lat="43.0856757" lon="13.3020733"><ele>432.0</ele><time>2026-04-04T12:05:36.907Z</time></trkpt><trkpt lat="43.0857299" lon="13.3022288"><ele>432.1428571428571</ele><time>2026-04-04T12:05:38.907Z</time></trkpt><trkpt lat="43.0857667" lon="13.3023071"><ele>432.2857142857143</ele><time>2026-04-04T12:05:39.907Z</time></trkpt><trkpt lat="43.0858016" lon="13.3023906"><ele>432.42857142857144</ele><time>2026-04-04T12:05:40.907Z</time></trkpt><trkpt lat="43.0858345" lon="13.3024749"><ele>432.57142857142856</ele><time>2026-04-04T12:05:41.906Z</time></trkpt><trkpt lat="43.0858802" lon="13.3026034"><ele>432.7142857142857</ele><time>2026-04-04T12:05:43.907Z</time></trkpt><trkpt lat="43.0859101" lon="13.3026836"><ele>432.85714285714283</ele><time>2026-04-04T12:05:44.907Z</time></trkpt><trkpt lat="43.085938" lon="13.3027672"><ele>433.0</ele><time>2026-04-04T12:05:45.907Z</time></trkpt><trkpt lat="43.0859695" lon="13.3028514"><ele>433.00000000000006</ele><time>2026-04-04T12:05:46.907Z</time></trkpt><trkpt lat="43.0860085" lon="13.3030006"><ele>433.0</ele><time>2026-04-04T12:05:48.907Z</time></trkpt><trkpt lat="43.0860395" lon="13.303086"><ele>433.0</ele><time>2026-04-04T12:05:49.906Z</time></trkpt><trkpt lat="43.0860644" lon="13.3031686"><ele>433.0</ele><time>2026-04-04T12:05:50.907Z</time></trkpt><trkpt lat="43.086101" lon="13.3032463"><ele>433.00000000000006</ele><time>2026-04-04T12:05:51.907Z</time></trkpt><trkpt lat="43.0861723" lon="13.3033099"><ele>433.0</ele><time>2026-04-04T12:05:52.906Z</time></trkpt><trkpt lat="43.0861909" lon="13.3034027"><ele>432.1666666666667</ele><time>2026-04-04T12:05:53.906Z</time></trkpt><trkpt lat="43.0862259" lon="13.3034859"><ele>431.33333333333337</ele><time>2026-04-04T12:05:54.907Z</time></trkpt><trkpt lat="43.0862617" lon="13.3035661"><ele>430.5</ele><time>2026-04-04T12:05:55.907Z</time></trkpt><trkpt lat="43.0862979" lon="13.3036457"><ele>429.66666666666663</ele><time>2026-04-04T12:05:56.906Z</time></trkpt><trkpt lat="43.086353" lon="13.3037927"><ele>428.8333333333333</ele><time>2026-04-04T12:05:58.907Z</time></trkpt><trkpt lat="43.0863868" lon="13.3038689"><ele>428.0</ele><time>2026-04-04T12:05:59.907Z</time></trkpt><trkpt lat="43.0864228" lon="13.3039559"><ele>428.14285714285717</ele><time>2026-04-04T12:06:00.906Z</time></trkpt><trkpt lat="43.0864561" lon="13.3040406"><ele>428.2857142857143</ele><time>2026-04-04T12:06:01.907Z</time></trkpt><trkpt lat="43.0864898" lon="13.3041243"><ele>428.42857142857144</ele><time>2026-04-04T12:06:02.907Z</time></trkpt><trkpt lat="43.0865114" lon="13.3042117"><ele>428.57142857142856</ele><time>2026-04-04T12:06:03.907Z</time></trkpt><trkpt lat="43.0865444" lon="13.3043098"><ele>428.7142857142857</ele><time>2026-04-04T12:06:04.907Z</time></trkpt><trkpt lat="43.0865864" lon="13.3043981"><ele>428.8571428571429</ele><time>2026-04-04T12:06:05.907Z</time></trkpt><trkpt lat="43.0866206" lon="13.304481"><ele>429.0</ele><time>2026-04-04T12:06:06.907Z</time></trkpt><trkpt lat="43.0866607" lon="13.3045556"><ele>429.0</ele><time>2026-04-04T12:06:07.906Z</time></trkpt><trkpt lat="43.0866995" lon="13.3046322"><ele>429.0</ele><time>2026-04-04T12:06:08.906Z</time></trkpt><trkpt lat="43.0867383" lon="13.3047184"><ele>429.0</ele><time>2026-04-04T12:06:09.907Z</time></trkpt><trkpt lat="43.0867705" lon="13.304842"><ele>429.0</ele><time>2026-04-04T12:06:11.907Z</time></trkpt><trkpt lat="43.0868089" lon="13.3049225"><ele>429.0</ele><time>2026-04-04T12:06:12.907Z</time></trkpt><trkpt lat="43.0868469" lon="13.3050036"><ele>429.0</ele><time>2026-04-04T12:06:13.907Z</time></trkpt><trkpt lat="43.0869161" lon="13.3051532"><ele>428.6666666666667</ele><time>2026-04-04T12:06:15.906Z</time></trkpt><trkpt lat="43.0869568" lon="13.3052954"><ele>428.33333333333337</ele><time>2026-04-04T12:06:17.907Z</time></trkpt><trkpt lat="43.0870072" lon="13.305457"><ele>428.0</ele><time>2026-04-04T12:06:19.907Z</time></trkpt><trkpt lat="43.0870362" lon="13.3055405"><ele>427.6666666666667</ele><time>2026-04-04T12:06:20.906Z</time></trkpt><trkpt lat="43.0870666" lon="13.3056204"><ele>427.33333333333337</ele><time>2026-04-04T12:06:21.907Z</time></trkpt><trkpt lat="43.0871302" lon="13.3056616"><ele>427.0</ele><time>2026-04-04T12:06:22.907Z</time></trkpt><trkpt lat="43.0871655" lon="13.3057409"><ele>427.1666666666667</ele><time>2026-04-04T12:06:23.906Z</time></trkpt><trkpt lat="43.0872051" lon="13.3058255"><ele>427.33333333333337</ele><time>2026-04-04T12:06:24.906Z</time></trkpt><trkpt lat="43.0872702" lon="13.305912"><ele>427.5</ele><time>2026-04-04T12:06:25.907Z</time></trkpt><trkpt lat="43.0873189" lon="13.30606"><ele>427.66666666666663</ele><time>2026-04-04T12:06:27.906Z</time></trkpt><trkpt lat="43.0873508" lon="13.3061416"><ele>427.8333333333333</ele><time>2026-04-04T12:06:28.907Z</time></trkpt><trkpt lat="43.0873809" lon="13.3062229"><ele>428.0</ele><time>2026-04-04T12:06:29.907Z</time></trkpt><trkpt lat="43.0874574" lon="13.3063536"><ele>427.4</ele><time>2026-04-04T12:06:31.907Z</time></trkpt><trkpt lat="43.087474" lon="13.3064497"><ele>426.79999999999995</ele><time>2026-04-04T12:06:32.907Z</time></trkpt><trkpt lat="43.0875218" lon="13.3065843"><ele>426.2</ele><time>2026-04-04T12:06:34.907Z</time></trkpt><trkpt lat="43.0875522" lon="13.3066699"><ele>425.6</ele><time>2026-04-04T12:06:35.907Z</time></trkpt><trkpt lat="43.0875832" lon="13.3068433"><ele>425.0</ele><time>2026-04-04T12:06:37.906Z</time></trkpt><trkpt lat="43.0876152" lon="13.3069263"><ele>424.99999999999994</ele><time>2026-04-04T12:06:38.907Z</time></trkpt><trkpt lat="43.0876624" lon="13.3069991"><ele>425.0</ele><time>2026-04-04T12:06:39.906Z</time></trkpt><trkpt lat="43.0876948" lon="13.3070787"><ele>425.0</ele><time>2026-04-04T12:06:40.906Z</time></trkpt><trkpt lat="43.0877515" lon="13.3072187"><ele>425.0</ele><time>2026-04-04T12:06:42.907Z</time></trkpt><trkpt lat="43.0877832" lon="13.3072938"><ele>424.99999999999994</ele><time>2026-04-04T12:06:43.906Z</time></trkpt><trkpt lat="43.0878258" lon="13.307449"><ele>425.0</ele><time>2026-04-04T12:06:45.906Z</time></trkpt><trkpt lat="43.0878644" lon="13.3075257"><ele>424.8333333333333</ele><time>2026-04-04T12:06:46.906Z</time></trkpt><trkpt lat="43.087897" lon="13.3076001"><ele>424.66666666666663</ele><time>2026-04-04T12:06:47.907Z</time></trkpt><trkpt lat="43.0879422" lon="13.307668"><ele>424.5</ele><time>2026-04-04T12:06:48.907Z</time></trkpt><trkpt lat="43.0879805" lon="13.3077466"><ele>424.33333333333337</ele><time>2026-04-04T12:06:49.906Z</time></trkpt><trkpt lat="43.0880487" lon="13.3078767"><ele>424.1666666666667</ele><time>2026-04-04T12:06:51.907Z</time></trkpt><trkpt lat="43.0881258" lon="13.3079715"><ele>424.0</ele><time>2026-04-04T12:06:52.906Z</time></trkpt><trkpt lat="43.0881506" lon="13.3080525"><ele>424.0</ele><time>2026-04-04T12:06:53.907Z</time></trkpt><trkpt lat="43.088208" lon="13.308213"><ele>424.0</ele><time>2026-04-04T12:06:55.907Z</time></trkpt><trkpt lat="43.0882494" lon="13.3082968"><ele>424.0</ele><time>2026-04-04T12:06:56.907Z</time></trkpt><trkpt lat="43.088321" lon="13.3084363"><ele>424.0</ele><time>2026-04-04T12:06:58.907Z</time></trkpt><trkpt lat="43.0883528" lon="13.3085149"><ele>424.0</ele><time>2026-04-04T12:06:59.906Z</time></trkpt><trkpt lat="43.0883756" lon="13.3086522"><ele>424.0</ele><time>2026-04-04T12:07:01.906Z</time></trkpt><trkpt lat="43.0884329" lon="13.3088025"><ele>424.0</ele><time>2026-04-04T12:07:03.907Z</time></trkpt><trkpt lat="43.0884849" lon="13.3089412"><ele>424.0</ele><time>2026-04-04T12:07:05.906Z</time></trkpt><trkpt lat="43.0885163" lon="13.3090229"><ele>424.0</ele><time>2026-04-04T12:07:06.907Z</time></trkpt><trkpt lat="43.0885406" lon="13.3091667"><ele>424.0</ele><time>2026-04-04T12:07:08.907Z</time></trkpt><trkpt lat="43.0885836" lon="13.3092753"><ele>423.79999999999995</ele><time>2026-04-04T12:07:10.907Z</time></trkpt><trkpt lat="43.0886493" lon="13.3094177"><ele>423.59999999999997</ele><time>2026-04-04T12:07:12.907Z</time></trkpt><trkpt lat="43.0887643" lon="13.3095029"><ele>423.4</ele><time>2026-04-04T12:07:13.907Z</time></trkpt><trkpt lat="43.0888024" lon="13.3096637"><ele>423.2</ele><time>2026-04-04T12:07:15.907Z</time></trkpt><trkpt lat="43.0888285" lon="13.3097443"><ele>423.0</ele><time>2026-04-04T12:07:16.907Z</time></trkpt><trkpt lat="43.0888696" lon="13.3098326"><ele>422.59999999999997</ele><time>2026-04-04T12:07:17.906Z</time></trkpt><trkpt lat="43.0888967" lon="13.3099164"><ele>422.2</ele><time>2026-04-04T12:07:18.906Z</time></trkpt><trkpt lat="43.0889479" lon="13.3100612"><ele>421.8</ele><time>2026-04-04T12:07:20.906Z</time></trkpt><trkpt lat="43.0889979" lon="13.3102227"><ele>421.4</ele><time>2026-04-04T12:07:22.906Z</time></trkpt><trkpt lat="43.0890674" lon="13.3103688"><ele>421.0</ele><time>2026-04-04T12:07:24.906Z</time></trkpt><trkpt lat="43.0891254" lon="13.3105254"><ele>420.50000000000006</ele><time>2026-04-04T12:07:26.906Z</time></trkpt><trkpt lat="43.0891517" lon="13.3106059"><ele>420.0</ele><time>2026-04-04T12:07:27.907Z</time></trkpt><trkpt lat="43.0892227" lon="13.310745"><ele>419.5</ele><time>2026-04-04T12:07:29.906Z</time></trkpt><trkpt lat="43.0892516" lon="13.3108233"><ele>419.0</ele><time>2026-04-04T12:07:30.907Z</time></trkpt><trkpt lat="43.0892836" lon="13.3109019"><ele>418.50000000000006</ele><time>2026-04-04T12:07:31.907Z</time></trkpt><trkpt lat="43.0893145" lon="13.3109842"><ele>418.0</ele><time>2026-04-04T12:07:32.906Z</time></trkpt><trkpt lat="43.0893717" lon="13.3111293"><ele>418.0</ele><time>2026-04-04T12:07:34.906Z</time></trkpt><trkpt lat="43.0894155" lon="13.3112139"><ele>418.0</ele><time>2026-04-04T12:07:35.907Z</time></trkpt><trkpt lat="43.0894375" lon="13.3112954"><ele>418.0</ele><time>2026-04-04T12:07:36.907Z</time></trkpt><trkpt lat="43.089468" lon="13.311388"><ele>418.0</ele><time>2026-04-04T12:07:37.906Z</time></trkpt><trkpt lat="43.0894976" lon="13.3114659"><ele>418.0</ele><time>2026-04-04T12:07:38.906Z</time></trkpt><trkpt lat="43.0895316" lon="13.3115419"><ele>418.0</ele><time>2026-04-04T12:07:39.907Z</time></trkpt><trkpt lat="43.089568" lon="13.3116253"><ele>418.0</ele><time>2026-04-04T12:07:40.907Z</time></trkpt><trkpt lat="43.0896018" lon="13.311713"><ele>417.79999999999995</ele><time>2026-04-04T12:07:41.907Z</time></trkpt><trkpt lat="43.0896368" lon="13.3117973"><ele>417.6</ele><time>2026-04-04T12:07:42.906Z</time></trkpt><trkpt lat="43.0896739" lon="13.3118786"><ele>417.4</ele><time>2026-04-04T12:07:43.907Z</time></trkpt><trkpt lat="43.0897316" lon="13.3120446"><ele>417.20000000000005</ele><time>2026-04-04T12:07:45.907Z</time></trkpt><trkpt lat="43.0897966" lon="13.3122043"><ele>417.0</ele><time>2026-04-04T12:07:47.906Z</time></trkpt><trkpt lat="43.0898282" lon="13.3122865"><ele>416.8333333333333</ele><time>2026-04-04T12:07:48.907Z</time></trkpt><trkpt lat="43.089876" lon="13.3124393"><ele>416.66666666666663</ele><time>2026-04-04T12:07:50.907Z</time></trkpt><trkpt lat="43.0899093" lon="13.312518"><ele>416.5</ele><time>2026-04-04T12:07:51.907Z</time></trkpt><trkpt lat="43.0899454" lon="13.3126061"><ele>416.3333333333333</ele><time>2026-04-04T12:07:52.906Z</time></trkpt><trkpt lat="43.0899753" lon="13.3126866"><ele>416.16666666666663</ele><time>2026-04-04T12:07:53.906Z</time></trkpt><trkpt lat="43.0900155" lon="13.3127608"><ele>416.0</ele><time>2026-04-04T12:07:54.906Z</time></trkpt><trkpt lat="43.0901103" lon="13.3129247"><ele>415.99999999999994</ele><time>2026-04-04T12:07:56.906Z</time></trkpt><trkpt lat="43.0901472" lon="13.3130117"><ele>416.0</ele><time>2026-04-04T12:07:57.907Z</time></trkpt><trkpt lat="43.0901866" lon="13.3130874"><ele>416.0</ele><time>2026-04-04T12:07:58.906Z</time></trkpt><trkpt lat="43.0902382" lon="13.3132347"><ele>416.0</ele><time>2026-04-04T12:08:00.906Z</time></trkpt><trkpt lat="43.0902706" lon="13.3133191"><ele>415.99999999999994</ele><time>2026-04-04T12:08:01.906Z</time></trkpt><trkpt lat="43.0902953" lon="13.3134017"><ele>416.0</ele><time>2026-04-04T12:08:02.907Z</time></trkpt><trkpt lat="43.0903225" lon="13.3134912"><ele>415.8333333333333</ele><time>2026-04-04T12:08:03.906Z</time></trkpt><trkpt lat="43.0903537" lon="13.3135794"><ele>415.66666666666663</ele><time>2026-04-04T12:08:04.906Z</time></trkpt><trkpt lat="43.0904076" lon="13.3136684"><ele>415.5</ele><time>2026-04-04T12:08:05.907Z</time></trkpt><trkpt lat="43.090447" lon="13.3137533"><ele>415.33333333333337</ele><time>2026-04-04T12:08:06.907Z</time></trkpt><trkpt lat="43.0904839" lon="13.3138406"><ele>415.1666666666667</ele><time>2026-04-04T12:08:07.907Z</time></trkpt><trkpt lat="43.0905391" lon="13.3140002"><ele>415.0</ele><time>2026-04-04T12:08:09.907Z</time></trkpt><trkpt lat="43.0905806" lon="13.3140717"><ele>414.8</ele><time>2026-04-04T12:08:10.907Z</time></trkpt><trkpt lat="43.0906162" lon="13.3141494"><ele>414.6</ele><time>2026-04-04T12:08:11.907Z</time></trkpt><trkpt lat="43.0906843" lon="13.3142937"><ele>414.4</ele><time>2026-04-04T12:08:13.907Z</time></trkpt><trkpt lat="43.0907412" lon="13.3144372"><ele>414.2</ele><time>2026-04-04T12:08:15.907Z</time></trkpt><trkpt lat="43.0907717" lon="13.3145153"><ele>414.0</ele><time>2026-04-04T12:08:16.907Z</time></trkpt><trkpt lat="43.0908412" lon="13.3146573"><ele>414.0</ele><time>2026-04-04T12:08:18.907Z</time></trkpt><trkpt lat="43.0908915" lon="13.3147265"><ele>414.0</ele><time>2026-04-04T12:08:19.907Z</time></trkpt><trkpt lat="43.0909559" lon="13.3148687"><ele>414.0</ele><time>2026-04-04T12:08:21.906Z</time></trkpt><trkpt lat="43.0910259" lon="13.3149688"><ele>414.0</ele><time>2026-04-04T12:08:22.907Z</time></trkpt><trkpt lat="43.0910778" lon="13.3150989"><ele>414.0</ele><time>2026-04-04T12:08:24.907Z</time></trkpt><trkpt lat="43.0911296" lon="13.3152298"><ele>414.0</ele><time>2026-04-04T12:08:26.907Z</time></trkpt><trkpt lat="43.0911582" lon="13.3153081"><ele>414.0</ele><time>2026-04-04T12:08:27.906Z</time></trkpt><trkpt lat="43.0911883" lon="13.3153844"><ele>414.0</ele><time>2026-04-04T12:08:28.906Z</time></trkpt><trkpt lat="43.0912444" lon="13.3155394"><ele>414.0</ele><time>2026-04-04T12:08:30.907Z</time></trkpt><trkpt lat="43.0913038" lon="13.3156894"><ele>414.0</ele><time>2026-04-04T12:08:32.907Z</time></trkpt><trkpt lat="43.0913444" lon="13.3158299"><ele>414.0</ele><time>2026-04-04T12:08:34.906Z</time></trkpt><trkpt lat="43.0914292" lon="13.3159975"><ele>414.0</ele><time>2026-04-04T12:08:36.907Z</time></trkpt><trkpt lat="43.0914847" lon="13.3161494"><ele>414.0</ele><time>2026-04-04T12:08:38.907Z</time></trkpt><trkpt lat="43.0915421" lon="13.3163004"><ele>414.0</ele><time>2026-04-04T12:08:40.906Z</time></trkpt><trkpt lat="43.0916047" lon="13.3164442"><ele>414.0</ele><time>2026-04-04T12:08:42.907Z</time></trkpt><trkpt lat="43.0916582" lon="13.3165727"><ele>414.0</ele><time>2026-04-04T12:08:44.907Z</time></trkpt><trkpt lat="43.0916934" lon="13.3166503"><ele>414.0</ele><time>2026-04-04T12:08:45.907Z</time></trkpt><trkpt lat="43.0917609" lon="13.3168002"><ele>414.0</ele><time>2026-04-04T12:08:47.907Z</time></trkpt><trkpt lat="43.0918187" lon="13.3169485"><ele>414.0</ele><time>2026-04-04T12:08:49.907Z</time></trkpt><trkpt lat="43.0918572" lon="13.3170276"><ele>414.0</ele><time>2026-04-04T12:08:50.907Z</time></trkpt><trkpt lat="43.0919123" lon="13.3171682"><ele>414.0</ele><time>2026-04-04T12:08:52.907Z</time></trkpt><trkpt lat="43.0919558" lon="13.3172373"><ele>414.0</ele><time>2026-04-04T12:08:53.907Z</time></trkpt><trkpt lat="43.0919717" lon="13.3173268"><ele>414.0</ele><time>2026-04-04T12:08:54.907Z</time></trkpt><trkpt lat="43.0920224" lon="13.3174717"><ele>414.0</ele><time>2026-04-04T12:08:56.906Z</time></trkpt><trkpt lat="43.0920828" lon="13.3176178"><ele>413.6</ele><time>2026-04-04T12:08:58.907Z</time></trkpt><trkpt lat="43.0921139" lon="13.317701"><ele>413.2</ele><time>2026-04-04T12:08:59.906Z</time></trkpt><trkpt lat="43.0921815" lon="13.3178514"><ele>412.8</ele><time>2026-04-04T12:09:01.906Z</time></trkpt><trkpt lat="43.0922481" lon="13.3180006"><ele>412.40000000000003</ele><time>2026-04-04T12:09:03.906Z</time></trkpt><trkpt lat="43.0922836" lon="13.3181473"><ele>412.0</ele><time>2026-04-04T12:09:05.906Z</time></trkpt><trkpt lat="43.0923438" lon="13.3182867"><ele>411.8</ele><time>2026-04-04T12:09:07.906Z</time></trkpt><trkpt lat="43.092384" lon="13.3184184"><ele>411.6</ele><time>2026-04-04T12:09:09.907Z</time></trkpt><trkpt lat="43.092433" lon="13.3185552"><ele>411.40000000000003</ele><time>2026-04-04T12:09:11.907Z</time></trkpt><trkpt lat="43.0924874" lon="13.3186836"><ele>411.20000000000005</ele><time>2026-04-04T12:09:13.907Z</time></trkpt><trkpt lat="43.0925333" lon="13.318804"><ele>411.0</ele><time>2026-04-04T12:09:15.907Z</time></trkpt><trkpt lat="43.0925784" lon="13.3189279"><ele>410.75</ele><time>2026-04-04T12:09:17.907Z</time></trkpt><trkpt lat="43.0926426" lon="13.3190525"><ele>410.5</ele><time>2026-04-04T12:09:19.906Z</time></trkpt><trkpt lat="43.0926953" lon="13.3192026"><ele>410.25</ele><time>2026-04-04T12:09:21.907Z</time></trkpt><trkpt lat="43.0927583" lon="13.3193645"><ele>410.0</ele><time>2026-04-04T12:09:23.907Z</time></trkpt><trkpt lat="43.0928303" lon="13.3195278"><ele>410.0</ele><time>2026-04-04T12:09:25.907Z</time></trkpt><trkpt lat="43.0928583" lon="13.3196118"><ele>410.0</ele><time>2026-04-04T12:09:26.907Z</time></trkpt><trkpt lat="43.0928968" lon="13.3196957"><ele>410.0</ele><time>2026-04-04T12:09:27.906Z</time></trkpt><trkpt lat="43.0929295" lon="13.3197783"><ele>410.0</ele><time>2026-04-04T12:09:28.906Z</time></trkpt><trkpt lat="43.0929625" lon="13.319872"><ele>410.0</ele><time>2026-04-04T12:09:29.907Z</time></trkpt><trkpt lat="43.0929868" lon="13.3199665"><ele>410.0</ele><time>2026-04-04T12:09:30.907Z</time></trkpt><trkpt lat="43.0930286" lon="13.3200607"><ele>410.0</ele><time>2026-04-04T12:09:31.906Z</time></trkpt><trkpt lat="43.093064" lon="13.3201552"><ele>409.49999999999994</ele><time>2026-04-04T12:09:32.907Z</time></trkpt><trkpt lat="43.0931011" lon="13.320248"><ele>409.0</ele><time>2026-04-04T12:09:33.906Z</time></trkpt><trkpt lat="43.0931376" lon="13.32034"><ele>408.5</ele><time>2026-04-04T12:09:34.907Z</time></trkpt><trkpt lat="43.0931762" lon="13.3204309"><ele>408.0</ele><time>2026-04-04T12:09:35.907Z</time></trkpt><trkpt lat="43.0932236" lon="13.3205353"><ele>407.49999999999994</ele><time>2026-04-04T12:09:36.907Z</time></trkpt><trkpt lat="43.0932589" lon="13.3206357"><ele>407.0</ele><time>2026-04-04T12:09:37.907Z</time></trkpt><trkpt lat="43.0933091" lon="13.3207405"><ele>406.16666666666663</ele><time>2026-04-04T12:09:38.907Z</time></trkpt><trkpt lat="43.0933565" lon="13.3208354"><ele>405.3333333333333</ele><time>2026-04-04T12:09:39.907Z</time></trkpt><trkpt lat="43.0933974" lon="13.3209261"><ele>404.5</ele><time>2026-04-04T12:09:40.907Z</time></trkpt><trkpt lat="43.0934356" lon="13.3210262"><ele>403.66666666666663</ele><time>2026-04-04T12:09:41.907Z</time></trkpt><trkpt lat="43.093479" lon="13.3211232"><ele>402.8333333333333</ele><time>2026-04-04T12:09:42.907Z</time></trkpt><trkpt lat="43.0935223" lon="13.3212261"><ele>402.0</ele><time>2026-04-04T12:09:43.907Z</time></trkpt><trkpt lat="43.0935664" lon="13.3213296"><ele>401.8333333333333</ele><time>2026-04-04T12:09:44.906Z</time></trkpt><trkpt lat="43.0936053" lon="13.3214279"><ele>401.66666666666663</ele><time>2026-04-04T12:09:45.907Z</time></trkpt><trkpt lat="43.0936703" lon="13.3215174"><ele>401.5</ele><time>2026-04-04T12:09:46.906Z</time></trkpt><trkpt lat="43.093692" lon="13.3216209"><ele>401.3333333333333</ele><time>2026-04-04T12:09:47.907Z</time></trkpt><trkpt lat="43.0937348" lon="13.3217129"><ele>401.16666666666663</ele><time>2026-04-04T12:09:48.907Z</time></trkpt><trkpt lat="43.0937803" lon="13.3218072"><ele>401.0</ele><time>2026-04-04T12:09:49.907Z</time></trkpt><trkpt lat="43.0937971" lon="13.3219046"><ele>401.0</ele><time>2026-04-04T12:09:50.907Z</time></trkpt><trkpt lat="43.0938473" lon="13.321984"><ele>401.0</ele><time>2026-04-04T12:09:51.907Z</time></trkpt><trkpt lat="43.0939181" lon="13.322131"><ele>401.0</ele><time>2026-04-04T12:09:53.907Z</time></trkpt><trkpt lat="43.0939781" lon="13.3222604"><ele>401.0</ele><time>2026-04-04T12:09:55.907Z</time></trkpt><trkpt lat="43.0940115" lon="13.3223377"><ele>401.0</ele><time>2026-04-04T12:09:56.907Z</time></trkpt><trkpt lat="43.0940718" lon="13.3224798"><ele>401.20000000000005</ele><time>2026-04-04T12:09:58.907Z</time></trkpt><trkpt lat="43.0941056" lon="13.3225528"><ele>401.40000000000003</ele><time>2026-04-04T12:09:59.906Z</time></trkpt><trkpt lat="43.0941638" lon="13.3227203"><ele>401.6</ele><time>2026-04-04T12:10:01.906Z</time></trkpt><trkpt lat="43.0942251" lon="13.3228358"><ele>401.8</ele><time>2026-04-04T12:10:03.906Z</time></trkpt><trkpt lat="43.0942857" lon="13.3229867"><ele>402.0</ele><time>2026-04-04T12:10:05.906Z</time></trkpt><trkpt lat="43.094339" lon="13.323112"><ele>401.5</ele><time>2026-04-04T12:10:07.907Z</time></trkpt><trkpt lat="43.0944123" lon="13.3232513"><ele>401.0</ele><time>2026-04-04T12:10:09.907Z</time></trkpt><trkpt lat="43.0944818" lon="13.3234017"><ele>400.5</ele><time>2026-04-04T12:10:11.906Z</time></trkpt><trkpt lat="43.0945421" lon="13.3235496"><ele>400.0</ele><time>2026-04-04T12:10:13.907Z</time></trkpt><trkpt lat="43.0946089" lon="13.3237052"><ele>400.0</ele><time>2026-04-04T12:10:15.906Z</time></trkpt><trkpt lat="43.0946837" lon="13.323852"><ele>400.0</ele><time>2026-04-04T12:10:17.906Z</time></trkpt><trkpt lat="43.0947399" lon="13.3239774"><ele>400.0</ele><time>2026-04-04T12:10:19.906Z</time></trkpt><trkpt lat="43.0947822" lon="13.3240459"><ele>400.0</ele><time>2026-04-04T12:10:20.907Z</time></trkpt><trkpt lat="43.0948801" lon="13.3242348"><ele>400.0</ele><time>2026-04-04T12:10:22.906Z</time></trkpt><trkpt lat="43.0949208" lon="13.3243726"><ele>400.0</ele><time>2026-04-04T12:10:24.907Z</time></trkpt><trkpt lat="43.0949825" lon="13.3244999"><ele>400.0</ele><time>2026-04-04T12:10:26.906Z</time></trkpt><trkpt lat="43.0950259" lon="13.3245879"><ele>400.0</ele><time>2026-04-04T12:10:27.907Z</time></trkpt><trkpt lat="43.0950653" lon="13.3247296"><ele>400.0</ele><time>2026-04-04T12:10:29.907Z</time></trkpt><trkpt lat="43.095125" lon="13.3248687"><ele>400.0</ele><time>2026-04-04T12:10:31.907Z</time></trkpt><trkpt lat="43.0951702" lon="13.3249498"><ele>400.0</ele><time>2026-04-04T12:10:32.907Z</time></trkpt><trkpt lat="43.0952195" lon="13.3250784"><ele>400.0</ele><time>2026-04-04T12:10:34.907Z</time></trkpt><trkpt lat="43.0952525" lon="13.3252201"><ele>400.0</ele><time>2026-04-04T12:10:36.906Z</time></trkpt><trkpt lat="43.0952734" lon="13.3253055"><ele>400.0</ele><time>2026-04-04T12:10:37.907Z</time></trkpt><trkpt lat="43.0953477" lon="13.32548"><ele>399.8</ele><time>2026-04-04T12:10:39.906Z</time></trkpt><trkpt lat="43.0953361" lon="13.3255937"><ele>399.6</ele><time>2026-04-04T12:10:41.907Z</time></trkpt><trkpt lat="43.0953583" lon="13.3257399"><ele>399.4</ele><time>2026-04-04T12:10:43.907Z</time></trkpt><trkpt lat="43.0953836" lon="13.3258556"><ele>399.2</ele><time>2026-04-04T12:10:45.906Z</time></trkpt><trkpt lat="43.0954272" lon="13.3259933"><ele>399.0</ele><time>2026-04-04T12:10:47.906Z</time></trkpt><trkpt lat="43.0954806" lon="13.3260538"><ele>399.0</ele><time>2026-04-04T12:10:48.906Z</time></trkpt><trkpt lat="43.0955003" lon="13.3261358"><ele>399.0</ele><time>2026-04-04T12:10:49.907Z</time></trkpt><trkpt lat="43.0955421" lon="13.3262629"><ele>399.0</ele><time>2026-04-04T12:10:51.907Z</time></trkpt><trkpt lat="43.0955681" lon="13.326419"><ele>399.0</ele><time>2026-04-04T12:10:53.906Z</time></trkpt><trkpt lat="43.0955806" lon="13.3265831"><ele>399.0</ele><time>2026-04-04T12:10:55.907Z</time></trkpt><trkpt lat="43.0956086" lon="13.3267375"><ele>399.0</ele><time>2026-04-04T12:10:57.907Z</time></trkpt><trkpt lat="43.0956464" lon="13.3269146"><ele>399.0</ele><time>2026-04-04T12:10:59.907Z</time></trkpt><trkpt lat="43.0956485" lon="13.3270353"><ele>399.0</ele><time>2026-04-04T12:11:00.907Z</time></trkpt><trkpt lat="43.0956576" lon="13.3271251"><ele>399.0</ele><time>2026-04-04T12:11:01.907Z</time></trkpt><trkpt lat="43.0956658" lon="13.3272275"><ele>399.0</ele><time>2026-04-04T12:11:02.906Z</time></trkpt><trkpt lat="43.0956908" lon="13.3273251"><ele>399.0</ele><time>2026-04-04T12:11:03.907Z</time></trkpt><trkpt lat="43.0957087" lon="13.3274091"><ele>399.1666666666667</ele><time>2026-04-04T12:11:04.906Z</time></trkpt><trkpt lat="43.0957276" lon="13.3274974"><ele>399.33333333333337</ele><time>2026-04-04T12:11:05.906Z</time></trkpt><trkpt lat="43.0957497" lon="13.3275842"><ele>399.5</ele><time>2026-04-04T12:11:06.907Z</time></trkpt><trkpt lat="43.0957668" lon="13.3276704"><ele>399.6666666666667</ele><time>2026-04-04T12:11:07.907Z</time></trkpt><trkpt lat="43.0958023" lon="13.3278205"><ele>399.83333333333337</ele><time>2026-04-04T12:11:09.907Z</time></trkpt><trkpt lat="43.0957732" lon="13.3279222"><ele>400.0</ele><time>2026-04-04T12:11:12.906Z</time></trkpt><trkpt lat="43.0957365" lon="13.3279938"><ele>396.0</ele><time>2026-04-04T12:12:27.906Z</time></trkpt><trkpt lat="43.0956915" lon="13.328074"><ele>393.0</ele><time>2026-04-04T12:12:33.929Z</time></trkpt><trkpt lat="43.0957133" lon="13.3281556"><ele>393.0</ele><time>2026-04-04T12:12:59.929Z</time></trkpt><trkpt lat="43.0957136" lon="13.3280324"><ele>396.0</ele><time>2026-04-04T12:13:17.928Z</time></trkpt></trkseg></trk></gpx>